<?xml version='1.0' encoding='UTF-8'?><gpx version="1.1" creator="JPX - https://github.com/jenetics/jpx" xmlns="http://www.topografix.com/GPX/1/1"><trk><trkseg><trkpt lat="44.3216178" lon="8.3240768"><ele>409.0</ele><time>2026-04-19T08:01:51.165Z</time></trkpt><trkpt lat="44.3216816" lon="8.3240797"><ele>409.0</ele><time>2026-04-19T08:03:03.165Z</time></trkpt><trkpt lat="44.3217332" lon="8.3239985"><ele>409.0</ele><time>2026-04-19T08:03:08.165Z</time></trkpt><trkpt lat="44.321797" lon="8.3239766"><ele>409.0</ele><time>2026-04-19T08:03:31.165Z</time></trkpt><trkpt lat="44.3218602" lon="8.3240422"><ele>409.0</ele><time>2026-04-19T08:03:34.165Z</time></trkpt><trkpt lat="44.3219254" lon="8.3241124"><ele>409.0</ele><time>2026-04-19T08:03:37.164Z</time></trkpt><trkpt lat="44.3219767" lon="8.3241832"><ele>409.0</ele><time>2026-04-19T08:03:39.165Z</time></trkpt><trkpt lat="44.3220322" lon="8.3242682"><ele>409.0</ele><time>2026-04-19T08:03:41.165Z</time></trkpt><trkpt lat="44.3220894" lon="8.3243594"><ele>409.0</ele><time>2026-04-19T08:03:43.165Z</time></trkpt><trkpt lat="44.3221764" lon="8.3244609"><ele>409.0</ele><time>2026-04-19T08:03:45.163Z</time></trkpt><trkpt lat="44.3222538" lon="8.3245532"><ele>409.0</ele><time>2026-04-19T08:03:47.164Z</time></trkpt><trkpt lat="44.3223379" lon="8.3245903"><ele>409.0</ele><time>2026-04-19T08:03:49.164Z</time></trkpt><trkpt lat="44.3224386" lon="8.3246173"><ele>409.4</ele><time>2026-04-19T08:03:51.164Z</time></trkpt><trkpt lat="44.3225445" lon="8.3246145"><ele>409.79999999999995</ele><time>2026-04-19T08:03:53.164Z</time></trkpt><trkpt lat="44.322648" lon="8.3245648"><ele>410.20000000000005</ele><time>2026-04-19T08:03:55.163Z</time></trkpt><trkpt lat="44.3227502" lon="8.3244962"><ele>410.6</ele><time>2026-04-19T08:03:57.165Z</time></trkpt><trkpt lat="44.3228485" lon="8.3244102"><ele>411.0</ele><time>2026-04-19T08:03:59.163Z</time></trkpt><trkpt lat="44.3229429" lon="8.3243268"><ele>411.0</ele><time>2026-04-19T08:04:01.163Z</time></trkpt><trkpt lat="44.3230441" lon="8.3242363"><ele>411.0</ele><time>2026-04-19T08:04:03.165Z</time></trkpt><trkpt lat="44.323143" lon="8.3241449"><ele>411.0</ele><time>2026-04-19T08:04:05.163Z</time></trkpt><trkpt lat="44.3232479" lon="8.3240614"><ele>411.0</ele><time>2026-04-19T08:04:07.162Z</time></trkpt><trkpt lat="44.3233593" lon="8.324002"><ele>411.0</ele><time>2026-04-19T08:04:09.164Z</time></trkpt><trkpt lat="44.3234702" lon="8.3239803"><ele>411.0</ele><time>2026-04-19T08:04:11.164Z</time></trkpt><trkpt lat="44.3235864" lon="8.3239827"><ele>411.0</ele><time>2026-04-19T08:04:13.163Z</time></trkpt><trkpt lat="44.3236697" lon="8.3240686"><ele>411.0</ele><time>2026-04-19T08:04:15.163Z</time></trkpt><trkpt lat="44.3237256" lon="8.3241521"><ele>411.0</ele><time>2026-04-19T08:04:16.165Z</time></trkpt><trkpt lat="44.3237897" lon="8.3242991"><ele>411.0</ele><time>2026-04-19T08:04:18.165Z</time></trkpt><trkpt lat="44.3238072" lon="8.3243843"><ele>411.0</ele><time>2026-04-19T08:04:19.163Z</time></trkpt><trkpt lat="44.3238372" lon="8.3245402"><ele>411.0</ele><time>2026-04-19T08:04:21.165Z</time></trkpt><trkpt lat="44.3238585" lon="8.3247006"><ele>411.0</ele><time>2026-04-19T08:04:23.165Z</time></trkpt><trkpt lat="44.3238763" lon="8.3248581"><ele>411.0</ele><time>2026-04-19T08:04:25.164Z</time></trkpt><trkpt lat="44.323906" lon="8.3250168"><ele>410.8333333333333</ele><time>2026-04-19T08:04:27.165Z</time></trkpt><trkpt lat="44.3239251" lon="8.3251866"><ele>410.66666666666663</ele><time>2026-04-19T08:04:29.164Z</time></trkpt><trkpt lat="44.3239503" lon="8.3253553"><ele>410.5</ele><time>2026-04-19T08:04:31.164Z</time></trkpt><trkpt lat="44.3239644" lon="8.3254453"><ele>410.3333333333333</ele><time>2026-04-19T08:04:32.164Z</time></trkpt><trkpt lat="44.3239828" lon="8.325538"><ele>410.16666666666663</ele><time>2026-04-19T08:04:33.165Z</time></trkpt><trkpt lat="44.3239956" lon="8.3256243"><ele>410.0</ele><time>2026-04-19T08:04:34.164Z</time></trkpt><trkpt lat="44.3240104" lon="8.3257146"><ele>410.0</ele><time>2026-04-19T08:04:35.165Z</time></trkpt><trkpt lat="44.3240273" lon="8.3258048"><ele>410.0</ele><time>2026-04-19T08:04:36.165Z</time></trkpt><trkpt lat="44.3240418" lon="8.3258956"><ele>410.0</ele><time>2026-04-19T08:04:37.165Z</time></trkpt><trkpt lat="44.3240706" lon="8.3260557"><ele>410.0</ele><time>2026-04-19T08:04:39.165Z</time></trkpt><trkpt lat="44.3240951" lon="8.3262134"><ele>410.0</ele><time>2026-04-19T08:04:41.165Z</time></trkpt><trkpt lat="44.3241202" lon="8.3263772"><ele>412.6</ele><time>2026-04-19T08:04:43.164Z</time></trkpt><trkpt lat="44.3241693" lon="8.3265428"><ele>415.2</ele><time>2026-04-19T08:04:45.165Z</time></trkpt><trkpt lat="44.3242072" lon="8.3266219"><ele>417.79999999999995</ele><time>2026-04-19T08:04:46.163Z</time></trkpt><trkpt lat="44.3242778" lon="8.3267594"><ele>420.4</ele><time>2026-04-19T08:04:48.165Z</time></trkpt><trkpt lat="44.32437" lon="8.3268622"><ele>423.0</ele><time>2026-04-19T08:04:50.165Z</time></trkpt><trkpt lat="44.3244248" lon="8.3269091"><ele>423.0</ele><time>2026-04-19T08:04:51.164Z</time></trkpt><trkpt lat="44.3245305" lon="8.3269894"><ele>423.0</ele><time>2026-04-19T08:04:53.166Z</time></trkpt><trkpt lat="44.324648" lon="8.3270536"><ele>423.0</ele><time>2026-04-19T08:04:55.165Z</time></trkpt><trkpt lat="44.3247543" lon="8.3270817"><ele>423.0</ele><time>2026-04-19T08:04:57.164Z</time></trkpt><trkpt lat="44.3248705" lon="8.3270812"><ele>420.4</ele><time>2026-04-19T08:04:59.165Z</time></trkpt><trkpt lat="44.3249858" lon="8.3270996"><ele>417.79999999999995</ele><time>2026-04-19T08:05:01.164Z</time></trkpt><trkpt lat="44.3250898" lon="8.3271166"><ele>415.2</ele><time>2026-04-19T08:05:03.164Z</time></trkpt><trkpt lat="44.3251783" lon="8.3271397"><ele>412.6</ele><time>2026-04-19T08:05:05.165Z</time></trkpt><trkpt lat="44.325273" lon="8.3271657"><ele>410.0</ele><time>2026-04-19T08:05:07.164Z</time></trkpt><trkpt lat="44.3253761" lon="8.327204"><ele>409.0</ele><time>2026-04-19T08:05:09.163Z</time></trkpt><trkpt lat="44.3254872" lon="8.327247"><ele>408.0</ele><time>2026-04-19T08:05:11.165Z</time></trkpt><trkpt lat="44.3255877" lon="8.3272965"><ele>407.0</ele><time>2026-04-19T08:05:13.164Z</time></trkpt><trkpt lat="44.3257012" lon="8.3273513"><ele>406.0</ele><time>2026-04-19T08:05:15.165Z</time></trkpt><trkpt lat="44.3258003" lon="8.3274124"><ele>406.0</ele><time>2026-04-19T08:05:17.163Z</time></trkpt><trkpt lat="44.325888" lon="8.327455"><ele>406.0</ele><time>2026-04-19T08:05:19.165Z</time></trkpt><trkpt lat="44.3259803" lon="8.3275308"><ele>406.0</ele><time>2026-04-19T08:05:21.164Z</time></trkpt><trkpt lat="44.326081" lon="8.3276206"><ele>406.0</ele><time>2026-04-19T08:05:23.163Z</time></trkpt><trkpt lat="44.3261617" lon="8.3277009"><ele>406.0</ele><time>2026-04-19T08:05:25.165Z</time></trkpt><trkpt lat="44.3262314" lon="8.3278017"><ele>406.0</ele><time>2026-04-19T08:05:27.163Z</time></trkpt><trkpt lat="44.3262938" lon="8.3279131"><ele>406.0</ele><time>2026-04-19T08:05:29.164Z</time></trkpt><trkpt lat="44.3263257" lon="8.3280523"><ele>406.0</ele><time>2026-04-19T08:05:31.165Z</time></trkpt><trkpt lat="44.3263375" lon="8.3281834"><ele>406.0</ele><time>2026-04-19T08:05:33.164Z</time></trkpt><trkpt lat="44.3263333" lon="8.3283093"><ele>406.0</ele><time>2026-04-19T08:05:35.165Z</time></trkpt><trkpt lat="44.3263334" lon="8.3284521"><ele>406.20000000000005</ele><time>2026-04-19T08:05:37.164Z</time></trkpt><trkpt lat="44.3263339" lon="8.3285803"><ele>406.40000000000003</ele><time>2026-04-19T08:05:39.165Z</time></trkpt><trkpt lat="44.3263384" lon="8.3286887"><ele>406.6</ele><time>2026-04-19T08:05:41.165Z</time></trkpt><trkpt lat="44.3263455" lon="8.3288215"><ele>406.8</ele><time>2026-04-19T08:05:43.163Z</time></trkpt><trkpt lat="44.3263548" lon="8.3289613"><ele>407.0</ele><time>2026-04-19T08:05:45.165Z</time></trkpt><trkpt lat="44.3263735" lon="8.3291043"><ele>407.0</ele><time>2026-04-19T08:05:47.162Z</time></trkpt><trkpt lat="44.3263787" lon="8.3292484"><ele>407.0</ele><time>2026-04-19T08:05:49.164Z</time></trkpt><trkpt lat="44.3263923" lon="8.3293768"><ele>407.0</ele><time>2026-04-19T08:05:51.164Z</time></trkpt><trkpt lat="44.3264045" lon="8.3295269"><ele>407.0</ele><time>2026-04-19T08:05:53.164Z</time></trkpt><trkpt lat="44.3264265" lon="8.3296584"><ele>407.0</ele><time>2026-04-19T08:05:55.164Z</time></trkpt><trkpt lat="44.3264368" lon="8.3297884"><ele>405.20000000000005</ele><time>2026-04-19T08:05:57.163Z</time></trkpt><trkpt lat="44.3264579" lon="8.3299268"><ele>403.4</ele><time>2026-04-19T08:05:59.163Z</time></trkpt><trkpt lat="44.3264893" lon="8.3300692"><ele>401.6</ele><time>2026-04-19T08:06:01.165Z</time></trkpt><trkpt lat="44.3265209" lon="8.3302123"><ele>399.79999999999995</ele><time>2026-04-19T08:06:03.164Z</time></trkpt><trkpt lat="44.3265619" lon="8.3303547"><ele>398.0</ele><time>2026-04-19T08:06:05.165Z</time></trkpt><trkpt lat="44.3266119" lon="8.3305031"><ele>398.59999999999997</ele><time>2026-04-19T08:06:07.164Z</time></trkpt><trkpt lat="44.3266633" lon="8.3306452"><ele>399.2</ele><time>2026-04-19T08:06:09.162Z</time></trkpt><trkpt lat="44.3267153" lon="8.3307749"><ele>399.8</ele><time>2026-04-19T08:06:11.164Z</time></trkpt><trkpt lat="44.3267698" lon="8.3308933"><ele>400.4</ele><time>2026-04-19T08:06:13.164Z</time></trkpt><trkpt lat="44.3268209" lon="8.3310101"><ele>401.0</ele><time>2026-04-19T08:06:15.165Z</time></trkpt><trkpt lat="44.3268773" lon="8.3311421"><ele>400.99999999999994</ele><time>2026-04-19T08:06:17.163Z</time></trkpt><trkpt lat="44.326923" lon="8.3312594"><ele>401.0</ele><time>2026-04-19T08:06:19.165Z</time></trkpt><trkpt lat="44.3269646" lon="8.3313787"><ele>401.0</ele><time>2026-04-19T08:06:21.164Z</time></trkpt><trkpt lat="44.3269868" lon="8.3314759"><ele>401.0</ele><time>2026-04-19T08:06:23.164Z</time></trkpt><trkpt lat="44.3270218" lon="8.3315753"><ele>400.99999999999994</ele><time>2026-04-19T08:06:25.165Z</time></trkpt><trkpt lat="44.3270686" lon="8.3316787"><ele>401.0</ele><time>2026-04-19T08:06:27.165Z</time></trkpt><trkpt lat="44.3271088" lon="8.3317853"><ele>401.16666666666663</ele><time>2026-04-19T08:06:29.164Z</time></trkpt><trkpt lat="44.3271545" lon="8.3318978"><ele>401.3333333333333</ele><time>2026-04-19T08:06:31.165Z</time></trkpt><trkpt lat="44.3271829" lon="8.3320093"><ele>401.5</ele><time>2026-04-19T08:06:33.165Z</time></trkpt><trkpt lat="44.3272106" lon="8.3321268"><ele>401.66666666666663</ele><time>2026-04-19T08:06:35.165Z</time></trkpt><trkpt lat="44.3272477" lon="8.3322423"><ele>401.8333333333333</ele><time>2026-04-19T08:06:37.165Z</time></trkpt><trkpt lat="44.3272686" lon="8.3323544"><ele>402.0</ele><time>2026-04-19T08:06:39.164Z</time></trkpt><trkpt lat="44.3272954" lon="8.3324822"><ele>401.5</ele><time>2026-04-19T08:06:41.164Z</time></trkpt><trkpt lat="44.3273152" lon="8.3325943"><ele>401.0</ele><time>2026-04-19T08:06:43.164Z</time></trkpt><trkpt lat="44.327329" lon="8.3327152"><ele>400.5</ele><time>2026-04-19T08:06:45.164Z</time></trkpt><trkpt lat="44.327353" lon="8.3328266"><ele>400.0</ele><time>2026-04-19T08:06:47.164Z</time></trkpt><trkpt lat="44.3273762" lon="8.3329431"><ele>399.5</ele><time>2026-04-19T08:06:49.164Z</time></trkpt><trkpt lat="44.3273786" lon="8.3330643"><ele>399.0</ele><time>2026-04-19T08:06:51.164Z</time></trkpt><trkpt lat="44.3273964" lon="8.3331795"><ele>399.0</ele><time>2026-04-19T08:06:53.164Z</time></trkpt><trkpt lat="44.3274022" lon="8.3332952"><ele>399.0</ele><time>2026-04-19T08:06:55.165Z</time></trkpt><trkpt lat="44.3274001" lon="8.3334072"><ele>399.0</ele><time>2026-04-19T08:06:57.163Z</time></trkpt><trkpt lat="44.3273938" lon="8.333519"><ele>399.0</ele><time>2026-04-19T08:06:59.165Z</time></trkpt><trkpt lat="44.3273888" lon="8.3336371"><ele>399.0</ele><time>2026-04-19T08:07:01.163Z</time></trkpt><trkpt lat="44.3273844" lon="8.3337528"><ele>399.0</ele><time>2026-04-19T08:07:03.165Z</time></trkpt><trkpt lat="44.3273857" lon="8.3338734"><ele>400.3333333333333</ele><time>2026-04-19T08:07:05.165Z</time></trkpt><trkpt lat="44.3273949" lon="8.3340004"><ele>401.66666666666663</ele><time>2026-04-19T08:07:07.165Z</time></trkpt><trkpt lat="44.3274168" lon="8.334114"><ele>403.0</ele><time>2026-04-19T08:07:09.163Z</time></trkpt><trkpt lat="44.3274455" lon="8.3342163"><ele>404.3333333333333</ele><time>2026-04-19T08:07:11.164Z</time></trkpt><trkpt lat="44.3274796" lon="8.3343148"><ele>405.66666666666663</ele><time>2026-04-19T08:07:13.165Z</time></trkpt><trkpt lat="44.3275268" lon="8.3343975"><ele>407.0</ele><time>2026-04-19T08:07:15.165Z</time></trkpt><trkpt lat="44.3275867" lon="8.334475"><ele>406.99999999999994</ele><time>2026-04-19T08:07:17.163Z</time></trkpt><trkpt lat="44.327653" lon="8.3345463"><ele>407.0</ele><time>2026-04-19T08:07:19.164Z</time></trkpt><trkpt lat="44.3277301" lon="8.3346058"><ele>407.0</ele><time>2026-04-19T08:07:21.163Z</time></trkpt><trkpt lat="44.327811" lon="8.3346512"><ele>407.0</ele><time>2026-04-19T08:07:23.165Z</time></trkpt><trkpt lat="44.3278955" lon="8.3347029"><ele>406.99999999999994</ele><time>2026-04-19T08:07:25.165Z</time></trkpt><trkpt lat="44.3279787" lon="8.3347499"><ele>407.0</ele><time>2026-04-19T08:07:27.164Z</time></trkpt><trkpt lat="44.3280543" lon="8.3347983"><ele>407.16666666666663</ele><time>2026-04-19T08:07:29.164Z</time></trkpt><trkpt lat="44.32813" lon="8.3348451"><ele>407.3333333333333</ele><time>2026-04-19T08:07:31.164Z</time></trkpt><trkpt lat="44.328212" lon="8.3348906"><ele>407.5</ele><time>2026-04-19T08:07:33.164Z</time></trkpt><trkpt lat="44.3282961" lon="8.3349382"><ele>407.66666666666663</ele><time>2026-04-19T08:07:35.164Z</time></trkpt><trkpt lat="44.3283754" lon="8.3349914"><ele>407.8333333333333</ele><time>2026-04-19T08:07:37.164Z</time></trkpt><trkpt lat="44.3284584" lon="8.3350414"><ele>408.0</ele><time>2026-04-19T08:07:39.162Z</time></trkpt><trkpt lat="44.3285368" lon="8.3350904"><ele>408.0</ele><time>2026-04-19T08:07:41.164Z</time></trkpt><trkpt lat="44.3286118" lon="8.3351491"><ele>408.0</ele><time>2026-04-19T08:07:43.164Z</time></trkpt><trkpt lat="44.3286911" lon="8.3351988"><ele>408.0</ele><time>2026-04-19T08:07:45.165Z</time></trkpt><trkpt lat="44.3287689" lon="8.3352484"><ele>408.0</ele><time>2026-04-19T08:07:47.165Z</time></trkpt><trkpt lat="44.3288482" lon="8.3352886"><ele>408.0</ele><time>2026-04-19T08:07:49.164Z</time></trkpt><trkpt lat="44.3289279" lon="8.3353363"><ele>408.0</ele><time>2026-04-19T08:07:51.164Z</time></trkpt><trkpt lat="44.3290141" lon="8.335385"><ele>407.6666666666667</ele><time>2026-04-19T08:07:53.165Z</time></trkpt><trkpt lat="44.3290986" lon="8.3354307"><ele>407.33333333333337</ele><time>2026-04-19T08:07:55.163Z</time></trkpt><trkpt lat="44.329182" lon="8.3354657"><ele>407.0</ele><time>2026-04-19T08:07:57.163Z</time></trkpt><trkpt lat="44.3292596" lon="8.3354909"><ele>406.6666666666667</ele><time>2026-04-19T08:07:59.165Z</time></trkpt><trkpt lat="44.3293426" lon="8.3354987"><ele>406.33333333333337</ele><time>2026-04-19T08:08:01.165Z</time></trkpt><trkpt lat="44.3294197" lon="8.3354838"><ele>406.0</ele><time>2026-04-19T08:08:03.165Z</time></trkpt><trkpt lat="44.3295012" lon="8.3354564"><ele>406.00000000000006</ele><time>2026-04-19T08:08:05.164Z</time></trkpt><trkpt lat="44.3295664" lon="8.3354305"><ele>406.0</ele><time>2026-04-19T08:08:07.165Z</time></trkpt><trkpt lat="44.3296285" lon="8.3353999"><ele>406.0</ele><time>2026-04-19T08:08:09.164Z</time></trkpt><trkpt lat="44.3296913" lon="8.3353672"><ele>406.0</ele><time>2026-04-19T08:08:11.165Z</time></trkpt><trkpt lat="44.3297788" lon="8.3353179"><ele>406.00000000000006</ele><time>2026-04-19T08:08:14.164Z</time></trkpt><trkpt lat="44.3298677" lon="8.3352753"><ele>406.0</ele><time>2026-04-19T08:08:17.164Z</time></trkpt><trkpt lat="44.3299515" lon="8.3352399"><ele>407.50000000000006</ele><time>2026-04-19T08:08:20.164Z</time></trkpt><trkpt lat="44.33004" lon="8.3352091"><ele>409.0</ele><time>2026-04-19T08:08:23.163Z</time></trkpt><trkpt lat="44.3301206" lon="8.3351806"><ele>410.5</ele><time>2026-04-19T08:08:26.164Z</time></trkpt><trkpt lat="44.3302031" lon="8.3351469"><ele>412.0</ele><time>2026-04-19T08:08:29.164Z</time></trkpt><trkpt lat="44.3302746" lon="8.3351018"><ele>413.50000000000006</ele><time>2026-04-19T08:08:32.164Z</time></trkpt><trkpt lat="44.3303549" lon="8.3350733"><ele>415.0</ele><time>2026-04-19T08:08:35.165Z</time></trkpt><trkpt lat="44.3304376" lon="8.3350454"><ele>415.00000000000006</ele><time>2026-04-19T08:08:38.165Z</time></trkpt><trkpt lat="44.3305156" lon="8.3350027"><ele>415.0</ele><time>2026-04-19T08:08:41.164Z</time></trkpt><trkpt lat="44.3305948" lon="8.334948"><ele>415.0</ele><time>2026-04-19T08:08:44.164Z</time></trkpt><trkpt lat="44.3306669" lon="8.3348732"><ele>415.0</ele><time>2026-04-19T08:08:47.164Z</time></trkpt><trkpt lat="44.3307397" lon="8.3348003"><ele>415.00000000000006</ele><time>2026-04-19T08:08:50.164Z</time></trkpt><trkpt lat="44.3308114" lon="8.3347236"><ele>415.0</ele><time>2026-04-19T08:08:53.165Z</time></trkpt><trkpt lat="44.330882" lon="8.3346501"><ele>414.33333333333337</ele><time>2026-04-19T08:08:56.164Z</time></trkpt><trkpt lat="44.330947" lon="8.3345678"><ele>413.6666666666667</ele><time>2026-04-19T08:08:59.165Z</time></trkpt><trkpt lat="44.3310136" lon="8.3344916"><ele>413.0</ele><time>2026-04-19T08:09:02.163Z</time></trkpt><trkpt lat="44.3310813" lon="8.3344139"><ele>412.33333333333337</ele><time>2026-04-19T08:09:05.164Z</time></trkpt><trkpt lat="44.3311507" lon="8.3343336"><ele>411.6666666666667</ele><time>2026-04-19T08:09:08.165Z</time></trkpt><trkpt lat="44.3312268" lon="8.334263"><ele>411.0</ele><time>2026-04-19T08:09:11.165Z</time></trkpt><trkpt lat="44.3312837" lon="8.3342214"><ele>411.0</ele><time>2026-04-19T08:09:13.165Z</time></trkpt><trkpt lat="44.33133" lon="8.3341599"><ele>411.0</ele><time>2026-04-19T08:09:15.163Z</time></trkpt><trkpt lat="44.3313859" lon="8.3340698"><ele>411.0</ele><time>2026-04-19T08:09:18.165Z</time></trkpt><trkpt lat="44.3314471" lon="8.3339898"><ele>411.0</ele><time>2026-04-19T08:09:21.164Z</time></trkpt><trkpt lat="44.3314926" lon="8.3339247"><ele>411.0</ele><time>2026-04-19T08:09:23.165Z</time></trkpt><trkpt lat="44.3315549" lon="8.3338473"><ele>411.0</ele><time>2026-04-19T08:09:26.164Z</time></trkpt><trkpt lat="44.3316221" lon="8.3337636"><ele>411.8333333333333</ele><time>2026-04-19T08:09:29.164Z</time></trkpt><trkpt lat="44.3316805" lon="8.3336846"><ele>412.66666666666663</ele><time>2026-04-19T08:09:32.164Z</time></trkpt><trkpt lat="44.3317395" lon="8.3336007"><ele>413.5</ele><time>2026-04-19T08:09:35.164Z</time></trkpt><trkpt lat="44.3318031" lon="8.3335187"><ele>414.3333333333333</ele><time>2026-04-19T08:09:38.164Z</time></trkpt><trkpt lat="44.3318665" lon="8.3334383"><ele>415.16666666666663</ele><time>2026-04-19T08:09:41.163Z</time></trkpt><trkpt lat="44.3319259" lon="8.3333524"><ele>416.0</ele><time>2026-04-19T08:09:44.163Z</time></trkpt><trkpt lat="44.3319851" lon="8.3332709"><ele>415.99999999999994</ele><time>2026-04-19T08:09:47.164Z</time></trkpt><trkpt lat="44.3320428" lon="8.3332166"><ele>416.0</ele><time>2026-04-19T08:09:49.163Z</time></trkpt><trkpt lat="44.3321101" lon="8.3331246"><ele>416.0</ele><time>2026-04-19T08:09:52.164Z</time></trkpt><trkpt lat="44.3321507" lon="8.3330541"><ele>416.0</ele><time>2026-04-19T08:09:54.165Z</time></trkpt><trkpt lat="44.3322096" lon="8.3329569"><ele>415.99999999999994</ele><time>2026-04-19T08:09:57.165Z</time></trkpt><trkpt lat="44.3322612" lon="8.3328987"><ele>416.0</ele><time>2026-04-19T08:09:59.165Z</time></trkpt><trkpt lat="44.3323439" lon="8.332856"><ele>418.3333333333333</ele><time>2026-04-19T08:10:02.165Z</time></trkpt><trkpt lat="44.3324399" lon="8.3328332"><ele>420.66666666666663</ele><time>2026-04-19T08:10:05.164Z</time></trkpt><trkpt lat="44.3325181" lon="8.3328605"><ele>423.0</ele><time>2026-04-19T08:10:07.165Z</time></trkpt><trkpt lat="44.3326045" lon="8.3329422"><ele>425.33333333333337</ele><time>2026-04-19T08:10:09.165Z</time></trkpt><trkpt lat="44.3326656" lon="8.33299"><ele>427.6666666666667</ele><time>2026-04-19T08:10:11.164Z</time></trkpt><trkpt lat="44.3327263" lon="8.3330315"><ele>430.0</ele><time>2026-04-19T08:10:12.165Z</time></trkpt><trkpt lat="44.3328364" lon="8.3330541"><ele>430.00000000000006</ele><time>2026-04-19T08:10:14.164Z</time></trkpt><trkpt lat="44.3329047" lon="8.3330534"><ele>430.0</ele><time>2026-04-19T08:10:15.165Z</time></trkpt><trkpt lat="44.3329782" lon="8.3330393"><ele>430.0</ele><time>2026-04-19T08:10:16.165Z</time></trkpt><trkpt lat="44.3330435" lon="8.3330328"><ele>430.0</ele><time>2026-04-19T08:10:17.165Z</time></trkpt><trkpt lat="44.3331197" lon="8.3330075"><ele>430.00000000000006</ele><time>2026-04-19T08:10:18.164Z</time></trkpt><trkpt lat="44.3332037" lon="8.3329745"><ele>430.0</ele><time>2026-04-19T08:10:19.164Z</time></trkpt><trkpt lat="44.3332844" lon="8.3329354"><ele>431.2</ele><time>2026-04-19T08:10:20.165Z</time></trkpt><trkpt lat="44.3333647" lon="8.3328966"><ele>432.4</ele><time>2026-04-19T08:10:21.165Z</time></trkpt><trkpt lat="44.3334418" lon="8.33285"><ele>433.6</ele><time>2026-04-19T08:10:22.162Z</time></trkpt><trkpt lat="44.3335252" lon="8.3327948"><ele>434.8</ele><time>2026-04-19T08:10:23.164Z</time></trkpt><trkpt lat="44.3336059" lon="8.3327283"><ele>436.0</ele><time>2026-04-19T08:10:24.164Z</time></trkpt><trkpt lat="44.3336968" lon="8.3326725"><ele>436.0</ele><time>2026-04-19T08:10:25.165Z</time></trkpt><trkpt lat="44.333793" lon="8.332629"><ele>436.0</ele><time>2026-04-19T08:10:26.165Z</time></trkpt><trkpt lat="44.3338971" lon="8.3325876"><ele>436.0</ele><time>2026-04-19T08:10:27.164Z</time></trkpt><trkpt lat="44.3340012" lon="8.3325438"><ele>436.0</ele><time>2026-04-19T08:10:28.164Z</time></trkpt><trkpt lat="44.33411" lon="8.3325012"><ele>436.0</ele><time>2026-04-19T08:10:29.164Z</time></trkpt><trkpt lat="44.3342153" lon="8.332455"><ele>431.75</ele><time>2026-04-19T08:10:30.163Z</time></trkpt><trkpt lat="44.334326" lon="8.3324128"><ele>427.5</ele><time>2026-04-19T08:10:31.164Z</time></trkpt><trkpt lat="44.334439" lon="8.3323778"><ele>423.25</ele><time>2026-04-19T08:10:32.165Z</time></trkpt><trkpt lat="44.3345543" lon="8.3323418"><ele>419.0</ele><time>2026-04-19T08:10:33.164Z</time></trkpt><trkpt lat="44.3346661" lon="8.3323156"><ele>416.0</ele><time>2026-04-19T08:10:34.165Z</time></trkpt><trkpt lat="44.3347764" lon="8.332292"><ele>413.0</ele><time>2026-04-19T08:10:35.164Z</time></trkpt><trkpt lat="44.334887" lon="8.3322699"><ele>410.0</ele><time>2026-04-19T08:10:36.164Z</time></trkpt><trkpt lat="44.3350062" lon="8.3322466"><ele>407.0</ele><time>2026-04-19T08:10:37.165Z</time></trkpt><trkpt lat="44.3351168" lon="8.3322211"><ele>407.0</ele><time>2026-04-19T08:10:38.165Z</time></trkpt><trkpt lat="44.3352282" lon="8.3321946"><ele>407.0</ele><time>2026-04-19T08:10:39.164Z</time></trkpt><trkpt lat="44.3353331" lon="8.3321917"><ele>407.0</ele><time>2026-04-19T08:10:40.164Z</time></trkpt><trkpt lat="44.3354321" lon="8.3322031"><ele>407.0</ele><time>2026-04-19T08:10:41.165Z</time></trkpt><trkpt lat="44.3355251" lon="8.3322362"><ele>407.0</ele><time>2026-04-19T08:10:42.164Z</time></trkpt><trkpt lat="44.3356015" lon="8.3322966"><ele>405.16666666666663</ele><time>2026-04-19T08:10:43.163Z</time></trkpt><trkpt lat="44.3356545" lon="8.3323948"><ele>403.3333333333333</ele><time>2026-04-19T08:10:44.164Z</time></trkpt><trkpt lat="44.3356782" lon="8.3325099"><ele>401.5</ele><time>2026-04-19T08:10:45.165Z</time></trkpt><trkpt lat="44.3356696" lon="8.3326225"><ele>399.66666666666663</ele><time>2026-04-19T08:10:46.164Z</time></trkpt><trkpt lat="44.335645" lon="8.3327211"><ele>397.8333333333333</ele><time>2026-04-19T08:10:47.163Z</time></trkpt><trkpt lat="44.335624" lon="8.3328173"><ele>396.0</ele><time>2026-04-19T08:10:48.164Z</time></trkpt><trkpt lat="44.3356059" lon="8.3329148"><ele>396.0</ele><time>2026-04-19T08:10:49.164Z</time></trkpt><trkpt lat="44.3355905" lon="8.3330031"><ele>396.0</ele><time>2026-04-19T08:10:50.164Z</time></trkpt><trkpt lat="44.3355594" lon="8.3331545"><ele>396.0</ele><time>2026-04-19T08:10:52.163Z</time></trkpt><trkpt lat="44.3355295" lon="8.3333141"><ele>396.0</ele><time>2026-04-19T08:10:54.165Z</time></trkpt><trkpt lat="44.3355089" lon="8.3334458"><ele>396.0</ele><time>2026-04-19T08:10:56.165Z</time></trkpt><trkpt lat="44.3354911" lon="8.3335785"><ele>398.8</ele><time>2026-04-19T08:10:58.163Z</time></trkpt><trkpt lat="44.3354617" lon="8.3337008"><ele>401.6</ele><time>2026-04-19T08:11:00.163Z</time></trkpt><trkpt lat="44.3354454" lon="8.3338163"><ele>404.4</ele><time>2026-04-19T08:11:02.165Z</time></trkpt><trkpt lat="44.3354455" lon="8.3339631"><ele>407.2</ele><time>2026-04-19T08:11:04.165Z</time></trkpt><trkpt lat="44.3354052" lon="8.3340728"><ele>410.0</ele><time>2026-04-19T08:11:06.164Z</time></trkpt><trkpt lat="44.3353608" lon="8.3341779"><ele>410.0</ele><time>2026-04-19T08:11:08.164Z</time></trkpt><trkpt lat="44.3353355" lon="8.334276"><ele>410.0</ele><time>2026-04-19T08:11:10.164Z</time></trkpt><trkpt lat="44.3353065" lon="8.3343838"><ele>410.0</ele><time>2026-04-19T08:11:12.165Z</time></trkpt><trkpt lat="44.3352762" lon="8.334572"><ele>410.0</ele><time>2026-04-19T08:11:14.164Z</time></trkpt><trkpt lat="44.3352349" lon="8.3347002"><ele>410.0</ele><time>2026-04-19T08:11:16.165Z</time></trkpt><trkpt lat="44.3352279" lon="8.3348285"><ele>409.66666666666663</ele><time>2026-04-19T08:11:18.163Z</time></trkpt><trkpt lat="44.3352127" lon="8.3349306"><ele>409.3333333333333</ele><time>2026-04-19T08:11:20.164Z</time></trkpt><trkpt lat="44.3351731" lon="8.3350537"><ele>409.0</ele><time>2026-04-19T08:11:22.165Z</time></trkpt><trkpt lat="44.3351453" lon="8.3351482"><ele>408.66666666666663</ele><time>2026-04-19T08:11:24.164Z</time></trkpt><trkpt lat="44.3351351" lon="8.3352529"><ele>408.3333333333333</ele><time>2026-04-19T08:11:26.165Z</time></trkpt><trkpt lat="44.3351209" lon="8.3353865"><ele>408.0</ele><time>2026-04-19T08:11:28.165Z</time></trkpt><trkpt lat="44.3351005" lon="8.3354978"><ele>407.3333333333333</ele><time>2026-04-19T08:11:30.163Z</time></trkpt><trkpt lat="44.3350776" lon="8.3356042"><ele>406.66666666666663</ele><time>2026-04-19T08:11:32.163Z</time></trkpt><trkpt lat="44.3350529" lon="8.3357222"><ele>406.0</ele><time>2026-04-19T08:11:34.164Z</time></trkpt><trkpt lat="44.3350356" lon="8.335839"><ele>405.3333333333333</ele><time>2026-04-19T08:11:36.163Z</time></trkpt><trkpt lat="44.3350109" lon="8.3359564"><ele>404.66666666666663</ele><time>2026-04-19T08:11:38.165Z</time></trkpt><trkpt lat="44.3349977" lon="8.3360724"><ele>404.0</ele><time>2026-04-19T08:11:40.164Z</time></trkpt><trkpt lat="44.3349766" lon="8.3361817"><ele>403.99999999999994</ele><time>2026-04-19T08:11:42.164Z</time></trkpt><trkpt lat="44.3349646" lon="8.3363083"><ele>404.0</ele><time>2026-04-19T08:11:44.164Z</time></trkpt><trkpt lat="44.3349742" lon="8.3364369"><ele>404.0</ele><time>2026-04-19T08:11:46.163Z</time></trkpt><trkpt lat="44.3349866" lon="8.3365441"><ele>404.0</ele><time>2026-04-19T08:11:48.165Z</time></trkpt><trkpt lat="44.3350116" lon="8.3366443"><ele>403.99999999999994</ele><time>2026-04-19T08:11:50.165Z</time></trkpt><trkpt lat="44.3350421" lon="8.3367438"><ele>404.0</ele><time>2026-04-19T08:11:52.164Z</time></trkpt><trkpt lat="44.3350725" lon="8.3368399"><ele>403.85714285714283</ele><time>2026-04-19T08:11:54.162Z</time></trkpt><trkpt lat="44.3351038" lon="8.3369311"><ele>403.71428571428567</ele><time>2026-04-19T08:11:56.164Z</time></trkpt><trkpt lat="44.3351254" lon="8.3370341"><ele>403.57142857142856</ele><time>2026-04-19T08:11:58.164Z</time></trkpt><trkpt lat="44.3351382" lon="8.3371265"><ele>403.42857142857144</ele><time>2026-04-19T08:12:00.163Z</time></trkpt><trkpt lat="44.3351403" lon="8.3372254"><ele>403.2857142857143</ele><time>2026-04-19T08:12:02.165Z</time></trkpt><trkpt lat="44.3351377" lon="8.3373186"><ele>403.14285714285717</ele><time>2026-04-19T08:12:04.165Z</time></trkpt><trkpt lat="44.3351292" lon="8.3374065"><ele>403.0</ele><time>2026-04-19T08:12:06.164Z</time></trkpt><trkpt lat="44.3351298" lon="8.3375239"><ele>404.6666666666667</ele><time>2026-04-19T08:12:09.164Z</time></trkpt><trkpt lat="44.3351255" lon="8.3376523"><ele>406.33333333333337</ele><time>2026-04-19T08:12:12.164Z</time></trkpt><trkpt lat="44.3351235" lon="8.3377739"><ele>408.0</ele><time>2026-04-19T08:12:15.163Z</time></trkpt><trkpt lat="44.3351219" lon="8.3379002"><ele>409.66666666666663</ele><time>2026-04-19T08:12:18.164Z</time></trkpt><trkpt lat="44.335113" lon="8.3379887"><ele>411.3333333333333</ele><time>2026-04-19T08:12:20.164Z</time></trkpt><trkpt lat="44.3351139" lon="8.3380813"><ele>413.0</ele><time>2026-04-19T08:12:22.163Z</time></trkpt><trkpt lat="44.3351374" lon="8.3381852"><ele>413.8333333333333</ele><time>2026-04-19T08:12:24.164Z</time></trkpt><trkpt lat="44.3351653" lon="8.3382801"><ele>414.66666666666663</ele><time>2026-04-19T08:12:26.164Z</time></trkpt><trkpt lat="44.3352349" lon="8.3383666"><ele>415.5</ele><time>2026-04-19T08:12:28.163Z</time></trkpt><trkpt lat="44.3352959" lon="8.3384101"><ele>416.33333333333337</ele><time>2026-04-19T08:12:29.164Z</time></trkpt><trkpt lat="44.3353723" lon="8.3384289"><ele>417.1666666666667</ele><time>2026-04-19T08:12:31.162Z</time></trkpt><trkpt lat="44.3354772" lon="8.3384246"><ele>418.0</ele><time>2026-04-19T08:12:33.164Z</time></trkpt><trkpt lat="44.3355664" lon="8.3384142"><ele>415.83333333333337</ele><time>2026-04-19T08:12:35.165Z</time></trkpt><trkpt lat="44.3356481" lon="8.3384207"><ele>413.6666666666667</ele><time>2026-04-19T08:12:37.164Z</time></trkpt><trkpt lat="44.3357364" lon="8.338429"><ele>411.5</ele><time>2026-04-19T08:12:40.164Z</time></trkpt><trkpt lat="44.335816" lon="8.3383731"><ele>409.33333333333337</ele><time>2026-04-19T08:12:43.164Z</time></trkpt><trkpt lat="44.3358496" lon="8.3382865"><ele>407.1666666666667</ele><time>2026-04-19T08:12:45.165Z</time></trkpt><trkpt lat="44.335804" lon="8.338205"><ele>405.0</ele><time>2026-04-19T08:12:46.164Z</time></trkpt><trkpt lat="44.335796" lon="8.3380907"><ele>405.0</ele><time>2026-04-19T08:12:48.164Z</time></trkpt><trkpt lat="44.335791" lon="8.3379797"><ele>405.0</ele><time>2026-04-19T08:12:50.164Z</time></trkpt><trkpt lat="44.3357869" lon="8.3378575"><ele>405.0</ele><time>2026-04-19T08:12:52.164Z</time></trkpt><trkpt lat="44.3357933" lon="8.3377406"><ele>405.0</ele><time>2026-04-19T08:12:54.165Z</time></trkpt><trkpt lat="44.3358113" lon="8.3376316"><ele>405.0</ele><time>2026-04-19T08:12:56.164Z</time></trkpt><trkpt lat="44.3358142" lon="8.3375228"><ele>405.0</ele><time>2026-04-19T08:12:58.164Z</time></trkpt><trkpt lat="44.3358405" lon="8.3373981"><ele>405.0</ele><time>2026-04-19T08:13:00.164Z</time></trkpt><trkpt lat="44.3358781" lon="8.3372939"><ele>405.0</ele><time>2026-04-19T08:13:02.164Z</time></trkpt><trkpt lat="44.3358949" lon="8.3371802"><ele>405.0</ele><time>2026-04-19T08:13:04.164Z</time></trkpt><trkpt lat="44.3359241" lon="8.3370721"><ele>405.0</ele><time>2026-04-19T08:13:06.164Z</time></trkpt><trkpt lat="44.3359483" lon="8.3369551"><ele>405.0</ele><time>2026-04-19T08:13:08.164Z</time></trkpt><trkpt lat="44.3359678" lon="8.336842"><ele>405.0</ele><time>2026-04-19T08:13:10.165Z</time></trkpt><trkpt lat="44.3359929" lon="8.3367278"><ele>404.6666666666667</ele><time>2026-04-19T08:13:12.164Z</time></trkpt><trkpt lat="44.336024" lon="8.3365977"><ele>404.33333333333337</ele><time>2026-04-19T08:13:14.165Z</time></trkpt><trkpt lat="44.3360554" lon="8.3364822"><ele>404.0</ele><time>2026-04-19T08:13:16.165Z</time></trkpt><trkpt lat="44.3360805" lon="8.3363674"><ele>403.6666666666667</ele><time>2026-04-19T08:13:18.164Z</time></trkpt><trkpt lat="44.3361086" lon="8.3362506"><ele>403.33333333333337</ele><time>2026-04-19T08:13:20.164Z</time></trkpt><trkpt lat="44.3361269" lon="8.3361345"><ele>403.0</ele><time>2026-04-19T08:13:22.163Z</time></trkpt><trkpt lat="44.3361579" lon="8.3360091"><ele>402.2</ele><time>2026-04-19T08:13:24.164Z</time></trkpt><trkpt lat="44.3361964" lon="8.3358945"><ele>401.4</ele><time>2026-04-19T08:13:26.165Z</time></trkpt><trkpt lat="44.3362203" lon="8.3357727"><ele>400.59999999999997</ele><time>2026-04-19T08:13:28.163Z</time></trkpt><trkpt lat="44.3362555" lon="8.335645"><ele>399.79999999999995</ele><time>2026-04-19T08:13:30.164Z</time></trkpt><trkpt lat="44.3362915" lon="8.3355247"><ele>399.0</ele><time>2026-04-19T08:13:32.163Z</time></trkpt><trkpt lat="44.3363256" lon="8.3354001"><ele>398.79999999999995</ele><time>2026-04-19T08:13:34.163Z</time></trkpt><trkpt lat="44.3363582" lon="8.3352661"><ele>398.59999999999997</ele><time>2026-04-19T08:13:36.164Z</time></trkpt><trkpt lat="44.3363896" lon="8.335135"><ele>398.4</ele><time>2026-04-19T08:13:38.163Z</time></trkpt><trkpt lat="44.3364209" lon="8.3350039"><ele>398.2</ele><time>2026-04-19T08:13:40.164Z</time></trkpt><trkpt lat="44.3364566" lon="8.3348625"><ele>398.0</ele><time>2026-04-19T08:13:42.165Z</time></trkpt><trkpt lat="44.3364992" lon="8.3347255"><ele>399.4</ele><time>2026-04-19T08:13:44.163Z</time></trkpt><trkpt lat="44.3365326" lon="8.3345734"><ele>400.79999999999995</ele><time>2026-04-19T08:13:46.164Z</time></trkpt><trkpt lat="44.3365723" lon="8.3344306"><ele>402.2</ele><time>2026-04-19T08:13:48.165Z</time></trkpt><trkpt lat="44.3366158" lon="8.3342849"><ele>403.6</ele><time>2026-04-19T08:13:50.164Z</time></trkpt><trkpt lat="44.3366496" lon="8.3341408"><ele>405.0</ele><time>2026-04-19T08:13:52.164Z</time></trkpt><trkpt lat="44.3366801" lon="8.3340107"><ele>404.2</ele><time>2026-04-19T08:13:54.164Z</time></trkpt><trkpt lat="44.3367261" lon="8.3338592"><ele>403.4</ele><time>2026-04-19T08:13:56.164Z</time></trkpt><trkpt lat="44.3367441" lon="8.3337086"><ele>402.6</ele><time>2026-04-19T08:13:58.164Z</time></trkpt><trkpt lat="44.3367771" lon="8.3335729"><ele>401.8</ele><time>2026-04-19T08:14:00.163Z</time></trkpt><trkpt lat="44.336814" lon="8.3334349"><ele>401.0</ele><time>2026-04-19T08:14:02.163Z</time></trkpt><trkpt lat="44.3368524" lon="8.3332858"><ele>401.0</ele><time>2026-04-19T08:14:04.163Z</time></trkpt><trkpt lat="44.336879" lon="8.3331411"><ele>401.0</ele><time>2026-04-19T08:14:06.165Z</time></trkpt><trkpt lat="44.3369049" lon="8.3329915"><ele>401.0</ele><time>2026-04-19T08:14:08.165Z</time></trkpt><trkpt lat="44.3369249" lon="8.3329066"><ele>401.0</ele><time>2026-04-19T08:14:09.164Z</time></trkpt><trkpt lat="44.3369553" lon="8.3327495"><ele>401.0</ele><time>2026-04-19T08:14:11.162Z</time></trkpt><trkpt lat="44.3369672" lon="8.33266"><ele>400.66666666666663</ele><time>2026-04-19T08:14:12.165Z</time></trkpt><trkpt lat="44.337003" lon="8.3324885"><ele>400.3333333333333</ele><time>2026-04-19T08:14:14.164Z</time></trkpt><trkpt lat="44.3370134" lon="8.3323962"><ele>400.0</ele><time>2026-04-19T08:14:15.164Z</time></trkpt><trkpt lat="44.3370203" lon="8.332308"><ele>399.66666666666663</ele><time>2026-04-19T08:14:16.163Z</time></trkpt><trkpt lat="44.3370401" lon="8.3322078"><ele>399.3333333333333</ele><time>2026-04-19T08:14:17.164Z</time></trkpt><trkpt lat="44.337056" lon="8.3321028"><ele>399.0</ele><time>2026-04-19T08:14:18.164Z</time></trkpt><trkpt lat="44.3370746" lon="8.3320037"><ele>398.42857142857144</ele><time>2026-04-19T08:14:19.164Z</time></trkpt><trkpt lat="44.3370874" lon="8.3319043"><ele>397.8571428571429</ele><time>2026-04-19T08:14:20.164Z</time></trkpt><trkpt lat="44.3370998" lon="8.3318062"><ele>397.2857142857143</ele><time>2026-04-19T08:14:21.164Z</time></trkpt><trkpt lat="44.3371167" lon="8.3317055"><ele>396.7142857142857</ele><time>2026-04-19T08:14:22.165Z</time></trkpt><trkpt lat="44.3371409" lon="8.3316006"><ele>396.14285714285717</ele><time>2026-04-19T08:14:23.164Z</time></trkpt><trkpt lat="44.337157" lon="8.3314994"><ele>395.57142857142856</ele><time>2026-04-19T08:14:24.164Z</time></trkpt><trkpt lat="44.337176" lon="8.3314043"><ele>395.0</ele><time>2026-04-19T08:14:25.165Z</time></trkpt><trkpt lat="44.3371936" lon="8.3312937"><ele>394.66666666666663</ele><time>2026-04-19T08:14:26.164Z</time></trkpt><trkpt lat="44.3372108" lon="8.3311867"><ele>394.3333333333333</ele><time>2026-04-19T08:14:27.164Z</time></trkpt><trkpt lat="44.3372252" lon="8.331075"><ele>394.0</ele><time>2026-04-19T08:14:28.164Z</time></trkpt><trkpt lat="44.3372443" lon="8.3309731"><ele>393.66666666666663</ele><time>2026-04-19T08:14:29.163Z</time></trkpt><trkpt lat="44.337259" lon="8.3308549"><ele>393.3333333333333</ele><time>2026-04-19T08:14:30.164Z</time></trkpt><trkpt lat="44.3372737" lon="8.3307428"><ele>393.0</ele><time>2026-04-19T08:14:31.165Z</time></trkpt><trkpt lat="44.3372932" lon="8.3306307"><ele>393.0</ele><time>2026-04-19T08:14:32.165Z</time></trkpt><trkpt lat="44.3373108" lon="8.330516"><ele>393.0</ele><time>2026-04-19T08:14:33.165Z</time></trkpt><trkpt lat="44.3373248" lon="8.3303935"><ele>393.0</ele><time>2026-04-19T08:14:34.162Z</time></trkpt><trkpt lat="44.3373444" lon="8.3302705"><ele>393.0</ele><time>2026-04-19T08:14:35.164Z</time></trkpt><trkpt lat="44.3373638" lon="8.3301598"><ele>393.0</ele><time>2026-04-19T08:14:36.164Z</time></trkpt><trkpt lat="44.3373889" lon="8.330056"><ele>393.0</ele><time>2026-04-19T08:14:37.165Z</time></trkpt><trkpt lat="44.3374118" lon="8.3299497"><ele>393.0</ele><time>2026-04-19T08:14:38.164Z</time></trkpt><trkpt lat="44.3374356" lon="8.3298474"><ele>393.0</ele><time>2026-04-19T08:14:39.164Z</time></trkpt><trkpt lat="44.337473" lon="8.3297368"><ele>393.0</ele><time>2026-04-19T08:14:40.165Z</time></trkpt><trkpt lat="44.3374983" lon="8.3296432"><ele>393.0</ele><time>2026-04-19T08:14:41.165Z</time></trkpt><trkpt lat="44.3375351" lon="8.3295357"><ele>393.0</ele><time>2026-04-19T08:14:42.165Z</time></trkpt><trkpt lat="44.3375766" lon="8.329441"><ele>393.0</ele><time>2026-04-19T08:14:43.164Z</time></trkpt><trkpt lat="44.3376176" lon="8.3293415"><ele>392.42857142857144</ele><time>2026-04-19T08:14:44.165Z</time></trkpt><trkpt lat="44.3376654" lon="8.3292557"><ele>391.8571428571429</ele><time>2026-04-19T08:14:45.164Z</time></trkpt><trkpt lat="44.3377236" lon="8.3291847"><ele>391.28571428571433</ele><time>2026-04-19T08:14:46.162Z</time></trkpt><trkpt lat="44.3377716" lon="8.329113"><ele>390.7142857142857</ele><time>2026-04-19T08:14:47.165Z</time></trkpt><trkpt lat="44.337822" lon="8.3290403"><ele>390.1428571428571</ele><time>2026-04-19T08:14:48.164Z</time></trkpt><trkpt lat="44.3378608" lon="8.3289515"><ele>389.5714285714286</ele><time>2026-04-19T08:14:49.164Z</time></trkpt><trkpt lat="44.3379033" lon="8.3288645"><ele>389.0</ele><time>2026-04-19T08:14:50.164Z</time></trkpt><trkpt lat="44.3379532" lon="8.3287769"><ele>388.99999999999994</ele><time>2026-04-19T08:14:51.165Z</time></trkpt><trkpt lat="44.3380078" lon="8.3287019"><ele>389.0</ele><time>2026-04-19T08:14:52.165Z</time></trkpt><trkpt lat="44.338059" lon="8.3286252"><ele>389.0</ele><time>2026-04-19T08:14:53.164Z</time></trkpt><trkpt lat="44.3381163" lon="8.328556"><ele>389.0</ele><time>2026-04-19T08:14:54.165Z</time></trkpt><trkpt lat="44.3381763" lon="8.3284902"><ele>388.99999999999994</ele><time>2026-04-19T08:14:55.164Z</time></trkpt><trkpt lat="44.3382356" lon="8.3284251"><ele>389.0</ele><time>2026-04-19T08:14:56.164Z</time></trkpt><trkpt lat="44.338289" lon="8.3283599"><ele>388.99999999999994</ele><time>2026-04-19T08:14:57.165Z</time></trkpt><trkpt lat="44.3383422" lon="8.3282962"><ele>389.0</ele><time>2026-04-19T08:14:58.165Z</time></trkpt><trkpt lat="44.338402" lon="8.3282354"><ele>389.0</ele><time>2026-04-19T08:14:59.164Z</time></trkpt><trkpt lat="44.3384619" lon="8.3281811"><ele>389.0</ele><time>2026-04-19T08:15:00.164Z</time></trkpt><trkpt lat="44.3385188" lon="8.3281232"><ele>388.99999999999994</ele><time>2026-04-19T08:15:01.163Z</time></trkpt><trkpt lat="44.3385727" lon="8.3280672"><ele>389.0</ele><time>2026-04-19T08:15:02.165Z</time></trkpt><trkpt lat="44.338682" lon="8.3279645"><ele>388.99999999999994</ele><time>2026-04-19T08:15:04.164Z</time></trkpt><trkpt lat="44.3387303" lon="8.3278988"><ele>389.0</ele><time>2026-04-19T08:15:05.165Z</time></trkpt><trkpt lat="44.3387833" lon="8.3278425"><ele>389.0</ele><time>2026-04-19T08:15:06.163Z</time></trkpt><trkpt lat="44.3388429" lon="8.3277973"><ele>389.0</ele><time>2026-04-19T08:15:07.165Z</time></trkpt><trkpt lat="44.3389481" lon="8.3277085"><ele>388.99999999999994</ele><time>2026-04-19T08:15:09.164Z</time></trkpt><trkpt lat="44.3390041" lon="8.3276619"><ele>389.0</ele><time>2026-04-19T08:15:10.164Z</time></trkpt><trkpt lat="44.3390554" lon="8.327608"><ele>388.79999999999995</ele><time>2026-04-19T08:15:11.165Z</time></trkpt><trkpt lat="44.3391078" lon="8.3275493"><ele>388.59999999999997</ele><time>2026-04-19T08:15:12.163Z</time></trkpt><trkpt lat="44.3391605" lon="8.327493"><ele>388.4</ele><time>2026-04-19T08:15:13.164Z</time></trkpt><trkpt lat="44.3392131" lon="8.3274427"><ele>388.2</ele><time>2026-04-19T08:15:14.165Z</time></trkpt><trkpt lat="44.3393064" lon="8.327338"><ele>388.0</ele><time>2026-04-19T08:15:16.165Z</time></trkpt><trkpt lat="44.3394113" lon="8.3272202"><ele>387.50000000000006</ele><time>2026-04-19T08:15:18.164Z</time></trkpt><trkpt lat="44.3394701" lon="8.3271633"><ele>387.0</ele><time>2026-04-19T08:15:19.164Z</time></trkpt><trkpt lat="44.3395251" lon="8.3271182"><ele>386.5</ele><time>2026-04-19T08:15:20.164Z</time></trkpt><trkpt lat="44.3395825" lon="8.3270665"><ele>386.0</ele><time>2026-04-19T08:15:21.165Z</time></trkpt><trkpt lat="44.3396841" lon="8.3269803"><ele>385.50000000000006</ele><time>2026-04-19T08:15:23.165Z</time></trkpt><trkpt lat="44.3397509" lon="8.3269345"><ele>385.0</ele><time>2026-04-19T08:15:24.164Z</time></trkpt><trkpt lat="44.33981" lon="8.3268774"><ele>385.0</ele><time>2026-04-19T08:15:25.164Z</time></trkpt><trkpt lat="44.3399169" lon="8.3267556"><ele>385.0</ele><time>2026-04-19T08:15:27.163Z</time></trkpt><trkpt lat="44.3400174" lon="8.326653"><ele>385.0</ele><time>2026-04-19T08:15:29.164Z</time></trkpt><trkpt lat="44.3400684" lon="8.3265942"><ele>385.0</ele><time>2026-04-19T08:15:30.165Z</time></trkpt><trkpt lat="44.3401271" lon="8.3265434"><ele>385.0</ele><time>2026-04-19T08:15:31.164Z</time></trkpt><trkpt lat="44.3401739" lon="8.3264794"><ele>384.6666666666667</ele><time>2026-04-19T08:15:32.165Z</time></trkpt><trkpt lat="44.3402993" lon="8.3263745"><ele>384.33333333333337</ele><time>2026-04-19T08:15:34.163Z</time></trkpt><trkpt lat="44.3403574" lon="8.3263216"><ele>384.0</ele><time>2026-04-19T08:15:35.163Z</time></trkpt><trkpt lat="44.3404172" lon="8.3262474"><ele>383.6666666666667</ele><time>2026-04-19T08:15:36.164Z</time></trkpt><trkpt lat="44.3404682" lon="8.3261941"><ele>383.33333333333337</ele><time>2026-04-19T08:15:37.163Z</time></trkpt><trkpt lat="44.3405299" lon="8.3261433"><ele>383.0</ele><time>2026-04-19T08:15:38.163Z</time></trkpt><trkpt lat="44.3406297" lon="8.3260418"><ele>383.0</ele><time>2026-04-19T08:15:40.165Z</time></trkpt><trkpt lat="44.3407299" lon="8.3259362"><ele>383.0</ele><time>2026-04-19T08:15:42.164Z</time></trkpt><trkpt lat="44.3407778" lon="8.3258626"><ele>383.0</ele><time>2026-04-19T08:15:43.164Z</time></trkpt><trkpt lat="44.34087" lon="8.3257635"><ele>383.0</ele><time>2026-04-19T08:15:45.163Z</time></trkpt><trkpt lat="44.3409146" lon="8.3257005"><ele>383.0</ele><time>2026-04-19T08:15:46.164Z</time></trkpt><trkpt lat="44.3410166" lon="8.3255995"><ele>382.59999999999997</ele><time>2026-04-19T08:15:48.164Z</time></trkpt><trkpt lat="44.3411144" lon="8.3255118"><ele>382.2</ele><time>2026-04-19T08:15:50.164Z</time></trkpt><trkpt lat="44.3412114" lon="8.3254148"><ele>381.8</ele><time>2026-04-19T08:15:52.164Z</time></trkpt><trkpt lat="44.341305" lon="8.3253239"><ele>381.4</ele><time>2026-04-19T08:15:54.165Z</time></trkpt><trkpt lat="44.341359" lon="8.3252689"><ele>381.0</ele><time>2026-04-19T08:15:55.165Z</time></trkpt><trkpt lat="44.3414579" lon="8.325168"><ele>380.8</ele><time>2026-04-19T08:15:57.165Z</time></trkpt><trkpt lat="44.341509" lon="8.3251156"><ele>380.6</ele><time>2026-04-19T08:15:58.165Z</time></trkpt><trkpt lat="44.3416088" lon="8.3250175"><ele>380.4</ele><time>2026-04-19T08:16:00.165Z</time></trkpt><trkpt lat="44.3417001" lon="8.3249187"><ele>380.2</ele><time>2026-04-19T08:16:02.163Z</time></trkpt><trkpt lat="44.3417922" lon="8.3247997"><ele>380.0</ele><time>2026-04-19T08:16:04.163Z</time></trkpt><trkpt lat="44.3418587" lon="8.3246701"><ele>380.8</ele><time>2026-04-19T08:16:06.165Z</time></trkpt><trkpt lat="44.3419067" lon="8.3245207"><ele>381.6</ele><time>2026-04-19T08:16:08.164Z</time></trkpt><trkpt lat="44.3419272" lon="8.3244362"><ele>382.4</ele><time>2026-04-19T08:16:09.164Z</time></trkpt><trkpt lat="44.3419769" lon="8.3242778"><ele>383.2</ele><time>2026-04-19T08:16:11.165Z</time></trkpt><trkpt lat="44.3420165" lon="8.3241206"><ele>384.0</ele><time>2026-04-19T08:16:13.165Z</time></trkpt><trkpt lat="44.3420465" lon="8.3240422"><ele>384.0</ele><time>2026-04-19T08:16:14.164Z</time></trkpt><trkpt lat="44.3421228" lon="8.3239052"><ele>384.0</ele><time>2026-04-19T08:16:16.164Z</time></trkpt><trkpt lat="44.3421687" lon="8.3238433"><ele>384.0</ele><time>2026-04-19T08:16:17.163Z</time></trkpt><trkpt lat="44.3422151" lon="8.3237807"><ele>384.0</ele><time>2026-04-19T08:16:18.164Z</time></trkpt><trkpt lat="44.342319" lon="8.323693"><ele>384.0</ele><time>2026-04-19T08:16:20.164Z</time></trkpt><trkpt lat="44.3423804" lon="8.3236688"><ele>384.0</ele><time>2026-04-19T08:16:21.163Z</time></trkpt><trkpt lat="44.3424488" lon="8.3236615"><ele>383.4</ele><time>2026-04-19T08:16:22.164Z</time></trkpt><trkpt lat="44.3425074" lon="8.3237035"><ele>382.79999999999995</ele><time>2026-04-19T08:16:23.163Z</time></trkpt><trkpt lat="44.3425706" lon="8.3238521"><ele>382.20000000000005</ele><time>2026-04-19T08:16:25.165Z</time></trkpt><trkpt lat="44.3425354" lon="8.3240173"><ele>381.6</ele><time>2026-04-19T08:16:27.164Z</time></trkpt><trkpt lat="44.3424557" lon="8.324146"><ele>381.0</ele><time>2026-04-19T08:16:29.165Z</time></trkpt><trkpt lat="44.3423964" lon="8.3242758"><ele>381.0</ele><time>2026-04-19T08:16:31.165Z</time></trkpt><trkpt lat="44.3423594" lon="8.3244185"><ele>381.0</ele><time>2026-04-19T08:16:33.163Z</time></trkpt><trkpt lat="44.3423536" lon="8.324563"><ele>381.0</ele><time>2026-04-19T08:16:35.163Z</time></trkpt><trkpt lat="44.3423773" lon="8.3246991"><ele>381.0</ele><time>2026-04-19T08:16:37.165Z</time></trkpt><trkpt lat="44.3424461" lon="8.3247962"><ele>381.0</ele><time>2026-04-19T08:16:39.165Z</time></trkpt><trkpt lat="44.3425265" lon="8.3248608"><ele>380.4</ele><time>2026-04-19T08:16:41.164Z</time></trkpt><trkpt lat="44.3426227" lon="8.3248755"><ele>379.8</ele><time>2026-04-19T08:16:43.162Z</time></trkpt><trkpt lat="44.34272" lon="8.3248639"><ele>379.2</ele><time>2026-04-19T08:16:45.163Z</time></trkpt><trkpt lat="44.3428103" lon="8.3248285"><ele>378.59999999999997</ele><time>2026-04-19T08:16:47.163Z</time></trkpt><trkpt lat="44.3429165" lon="8.3247923"><ele>378.0</ele><time>2026-04-19T08:16:49.163Z</time></trkpt><trkpt lat="44.3430249" lon="8.3247544"><ele>377.79999999999995</ele><time>2026-04-19T08:16:51.162Z</time></trkpt><trkpt lat="44.3431248" lon="8.3247147"><ele>377.6</ele><time>2026-04-19T08:16:53.162Z</time></trkpt><trkpt lat="44.3432322" lon="8.3246615"><ele>377.4</ele><time>2026-04-19T08:16:55.164Z</time></trkpt><trkpt lat="44.3433422" lon="8.3246206"><ele>377.20000000000005</ele><time>2026-04-19T08:16:57.163Z</time></trkpt><trkpt lat="44.3434521" lon="8.3245624"><ele>377.0</ele><time>2026-04-19T08:16:59.165Z</time></trkpt><trkpt lat="44.3435505" lon="8.3244815"><ele>377.0</ele><time>2026-04-19T08:17:01.165Z</time></trkpt><trkpt lat="44.3436386" lon="8.3243604"><ele>377.0</ele><time>2026-04-19T08:17:03.165Z</time></trkpt><trkpt lat="44.3436679" lon="8.3242786"><ele>377.0</ele><time>2026-04-19T08:17:04.163Z</time></trkpt><trkpt lat="44.3436829" lon="8.3241824"><ele>377.0</ele><time>2026-04-19T08:17:05.164Z</time></trkpt><trkpt lat="44.3436873" lon="8.3240894"><ele>377.0</ele><time>2026-04-19T08:17:06.164Z</time></trkpt><trkpt lat="44.3436791" lon="8.3239945"><ele>377.0</ele><time>2026-04-19T08:17:07.163Z</time></trkpt><trkpt lat="44.3436566" lon="8.3239064"><ele>377.4285714285714</ele><time>2026-04-19T08:17:08.164Z</time></trkpt><trkpt lat="44.3436312" lon="8.3238181"><ele>377.85714285714283</ele><time>2026-04-19T08:17:09.165Z</time></trkpt><trkpt lat="44.3435986" lon="8.323727"><ele>378.2857142857143</ele><time>2026-04-19T08:17:10.164Z</time></trkpt><trkpt lat="44.3435688" lon="8.3236266"><ele>378.71428571428567</ele><time>2026-04-19T08:17:11.164Z</time></trkpt><trkpt lat="44.3435456" lon="8.3235298"><ele>379.14285714285717</ele><time>2026-04-19T08:17:12.163Z</time></trkpt><trkpt lat="44.3435273" lon="8.3234295"><ele>379.57142857142856</ele><time>2026-04-19T08:17:13.165Z</time></trkpt><trkpt lat="44.3435183" lon="8.323342"><ele>380.0</ele><time>2026-04-19T08:17:14.165Z</time></trkpt><trkpt lat="44.3435299" lon="8.3232471"><ele>380.0</ele><time>2026-04-19T08:17:15.164Z</time></trkpt><trkpt lat="44.343605" lon="8.3230906"><ele>380.0</ele><time>2026-04-19T08:17:17.165Z</time></trkpt><trkpt lat="44.3436545" lon="8.3230319"><ele>380.0</ele><time>2026-04-19T08:17:18.165Z</time></trkpt><trkpt lat="44.3437074" lon="8.3229778"><ele>380.0</ele><time>2026-04-19T08:17:19.165Z</time></trkpt><trkpt lat="44.3437634" lon="8.322923"><ele>380.0</ele><time>2026-04-19T08:17:20.164Z</time></trkpt><trkpt lat="44.3438201" lon="8.3228655"><ele>380.0</ele><time>2026-04-19T08:17:21.164Z</time></trkpt><trkpt lat="44.3438714" lon="8.3228108"><ele>380.2</ele><time>2026-04-19T08:17:22.165Z</time></trkpt><trkpt lat="44.3439284" lon="8.3227501"><ele>380.4</ele><time>2026-04-19T08:17:23.164Z</time></trkpt><trkpt lat="44.3439798" lon="8.3226966"><ele>380.6</ele><time>2026-04-19T08:17:24.164Z</time></trkpt><trkpt lat="44.3440291" lon="8.3226387"><ele>380.8</ele><time>2026-04-19T08:17:25.164Z</time></trkpt><trkpt lat="44.3441339" lon="8.3225336"><ele>381.0</ele><time>2026-04-19T08:17:27.163Z</time></trkpt><trkpt lat="44.3442378" lon="8.3224294"><ele>381.0</ele><time>2026-04-19T08:17:29.164Z</time></trkpt><trkpt lat="44.344292" lon="8.3223823"><ele>381.0</ele><time>2026-04-19T08:17:30.164Z</time></trkpt><trkpt lat="44.3443412" lon="8.3223244"><ele>381.0</ele><time>2026-04-19T08:17:31.164Z</time></trkpt><trkpt lat="44.3443924" lon="8.3222706"><ele>381.0</ele><time>2026-04-19T08:17:32.164Z</time></trkpt><trkpt lat="44.344489" lon="8.322179"><ele>381.0</ele><time>2026-04-19T08:17:34.164Z</time></trkpt><trkpt lat="44.3445869" lon="8.3220864"><ele>381.0</ele><time>2026-04-19T08:17:36.163Z</time></trkpt><trkpt lat="44.3446406" lon="8.3220354"><ele>381.6666666666667</ele><time>2026-04-19T08:17:37.165Z</time></trkpt><trkpt lat="44.3447445" lon="8.3219309"><ele>382.33333333333337</ele><time>2026-04-19T08:17:39.164Z</time></trkpt><trkpt lat="44.3447977" lon="8.3218767"><ele>383.0</ele><time>2026-04-19T08:17:40.164Z</time></trkpt><trkpt lat="44.3448517" lon="8.3218228"><ele>383.6666666666667</ele><time>2026-04-19T08:17:41.163Z</time></trkpt><trkpt lat="44.3449124" lon="8.3217669"><ele>384.33333333333337</ele><time>2026-04-19T08:17:42.163Z</time></trkpt><trkpt lat="44.3449669" lon="8.3217179"><ele>385.0</ele><time>2026-04-19T08:17:43.163Z</time></trkpt><trkpt lat="44.3450668" lon="8.3216154"><ele>385.0</ele><time>2026-04-19T08:17:45.164Z</time></trkpt><trkpt lat="44.3451505" lon="8.3215219"><ele>385.0</ele><time>2026-04-19T08:17:47.163Z</time></trkpt><trkpt lat="44.3452278" lon="8.3214357"><ele>385.0</ele><time>2026-04-19T08:17:49.164Z</time></trkpt><trkpt lat="44.345305" lon="8.3213304"><ele>385.0</ele><time>2026-04-19T08:17:51.165Z</time></trkpt><trkpt lat="44.3453714" lon="8.3212177"><ele>385.0</ele><time>2026-04-19T08:17:53.165Z</time></trkpt><trkpt lat="44.3454434" lon="8.3210989"><ele>384.4</ele><time>2026-04-19T08:17:55.164Z</time></trkpt><trkpt lat="44.3455117" lon="8.3209911"><ele>383.8</ele><time>2026-04-19T08:17:57.164Z</time></trkpt><trkpt lat="44.3455871" lon="8.3208989"><ele>383.20000000000005</ele><time>2026-04-19T08:17:59.164Z</time></trkpt><trkpt lat="44.3456895" lon="8.3208159"><ele>382.6</ele><time>2026-04-19T08:18:01.164Z</time></trkpt><trkpt lat="44.3457418" lon="8.3206952"><ele>382.0</ele><time>2026-04-19T08:18:03.164Z</time></trkpt><trkpt lat="44.345717" lon="8.3205504"><ele>382.0</ele><time>2026-04-19T08:18:05.164Z</time></trkpt><trkpt lat="44.3456501" lon="8.3204167"><ele>382.0</ele><time>2026-04-19T08:18:07.164Z</time></trkpt><trkpt lat="44.3456132" lon="8.3203435"><ele>382.0</ele><time>2026-04-19T08:18:08.164Z</time></trkpt><trkpt lat="44.3455813" lon="8.3202657"><ele>382.0</ele><time>2026-04-19T08:18:09.164Z</time></trkpt><trkpt lat="44.3455465" lon="8.3201882"><ele>382.0</ele><time>2026-04-19T08:18:10.164Z</time></trkpt><trkpt lat="44.3455149" lon="8.3201104"><ele>382.0</ele><time>2026-04-19T08:18:11.163Z</time></trkpt><trkpt lat="44.345498" lon="8.3200146"><ele>382.0</ele><time>2026-04-19T08:18:12.165Z</time></trkpt><trkpt lat="44.3454744" lon="8.3199265"><ele>385.66666666666663</ele><time>2026-04-19T08:18:13.165Z</time></trkpt><trkpt lat="44.3454405" lon="8.3198464"><ele>389.3333333333333</ele><time>2026-04-19T08:18:14.164Z</time></trkpt><trkpt lat="44.3453848" lon="8.3196775"><ele>393.0</ele><time>2026-04-19T08:18:16.164Z</time></trkpt><trkpt lat="44.3453606" lon="8.3195818"><ele>396.66666666666663</ele><time>2026-04-19T08:18:17.163Z</time></trkpt><trkpt lat="44.3453422" lon="8.3194771"><ele>400.3333333333333</ele><time>2026-04-19T08:18:18.165Z</time></trkpt><trkpt lat="44.3453271" lon="8.3193802"><ele>404.0</ele><time>2026-04-19T08:18:19.165Z</time></trkpt><trkpt lat="44.3453144" lon="8.3192789"><ele>403.99999999999994</ele><time>2026-04-19T08:18:20.163Z</time></trkpt><trkpt lat="44.3453151" lon="8.3191768"><ele>404.0</ele><time>2026-04-19T08:18:21.163Z</time></trkpt><trkpt lat="44.3453162" lon="8.3190803"><ele>404.0</ele><time>2026-04-19T08:18:22.164Z</time></trkpt><trkpt lat="44.345335" lon="8.3189829"><ele>404.0</ele><time>2026-04-19T08:18:23.165Z</time></trkpt><trkpt lat="44.3453476" lon="8.3188869"><ele>403.99999999999994</ele><time>2026-04-19T08:18:24.164Z</time></trkpt><trkpt lat="44.3453821" lon="8.3187128"><ele>404.0</ele><time>2026-04-19T08:18:26.163Z</time></trkpt><trkpt lat="44.3453965" lon="8.318616"><ele>404.0</ele><time>2026-04-19T08:18:27.164Z</time></trkpt><trkpt lat="44.3454244" lon="8.3184529"><ele>404.0</ele><time>2026-04-19T08:18:29.162Z</time></trkpt><trkpt lat="44.3454372" lon="8.3183637"><ele>404.0</ele><time>2026-04-19T08:18:30.163Z</time></trkpt><trkpt lat="44.3454623" lon="8.3182071"><ele>404.0</ele><time>2026-04-19T08:18:32.164Z</time></trkpt><trkpt lat="44.3454925" lon="8.318057"><ele>404.0</ele><time>2026-04-19T08:18:34.163Z</time></trkpt><trkpt lat="44.3455106" lon="8.3179688"><ele>405.0</ele><time>2026-04-19T08:18:35.164Z</time></trkpt><trkpt lat="44.3455416" lon="8.3177981"><ele>406.0</ele><time>2026-04-19T08:18:37.165Z</time></trkpt><trkpt lat="44.3455562" lon="8.3177069"><ele>407.0</ele><time>2026-04-19T08:18:38.164Z</time></trkpt><trkpt lat="44.3455778" lon="8.3175407"><ele>408.0</ele><time>2026-04-19T08:18:40.165Z</time></trkpt><trkpt lat="44.3456048" lon="8.3173797"><ele>409.0</ele><time>2026-04-19T08:18:42.163Z</time></trkpt><trkpt lat="44.3456352" lon="8.3172159"><ele>402.79999999999995</ele><time>2026-04-19T08:18:44.162Z</time></trkpt><trkpt lat="44.3456594" lon="8.3170493"><ele>396.59999999999997</ele><time>2026-04-19T08:18:46.165Z</time></trkpt><trkpt lat="44.3456965" lon="8.3168849"><ele>390.4</ele><time>2026-04-19T08:18:48.163Z</time></trkpt><trkpt lat="44.3457093" lon="8.3167983"><ele>384.2</ele><time>2026-04-19T08:18:49.163Z</time></trkpt><trkpt lat="44.3457241" lon="8.3167124"><ele>378.0</ele><time>2026-04-19T08:18:50.163Z</time></trkpt><trkpt lat="44.3457574" lon="8.3165574"><ele>379.0</ele><time>2026-04-19T08:18:52.165Z</time></trkpt><trkpt lat="44.3457764" lon="8.3163934"><ele>380.0</ele><time>2026-04-19T08:18:54.163Z</time></trkpt><trkpt lat="44.3457987" lon="8.3162422"><ele>381.0</ele><time>2026-04-19T08:18:56.164Z</time></trkpt><trkpt lat="44.3458129" lon="8.3161549"><ele>382.0</ele><time>2026-04-19T08:18:57.164Z</time></trkpt><trkpt lat="44.3458428" lon="8.3159941"><ele>383.0</ele><time>2026-04-19T08:18:59.164Z</time></trkpt><trkpt lat="44.3458686" lon="8.3158355"><ele>383.0</ele><time>2026-04-19T08:19:01.163Z</time></trkpt><trkpt lat="44.3458947" lon="8.3156745"><ele>383.0</ele><time>2026-04-19T08:19:03.164Z</time></trkpt><trkpt lat="44.3459234" lon="8.3155127"><ele>383.0</ele><time>2026-04-19T08:19:05.163Z</time></trkpt><trkpt lat="44.3459382" lon="8.3154218"><ele>383.0</ele><time>2026-04-19T08:19:06.164Z</time></trkpt><trkpt lat="44.3459695" lon="8.3152684"><ele>383.0</ele><time>2026-04-19T08:19:08.164Z</time></trkpt><trkpt lat="44.345998" lon="8.3151163"><ele>383.5</ele><time>2026-04-19T08:19:10.163Z</time></trkpt><trkpt lat="44.3460345" lon="8.3149713"><ele>384.0</ele><time>2026-04-19T08:19:12.163Z</time></trkpt><trkpt lat="44.3460816" lon="8.3148253"><ele>384.5</ele><time>2026-04-19T08:19:14.164Z</time></trkpt><trkpt lat="44.3461361" lon="8.3146842"><ele>385.0</ele><time>2026-04-19T08:19:16.165Z</time></trkpt><trkpt lat="44.3461868" lon="8.3145313"><ele>386.0</ele><time>2026-04-19T08:19:18.163Z</time></trkpt><trkpt lat="44.346246" lon="8.314385"><ele>387.0</ele><time>2026-04-19T08:19:20.165Z</time></trkpt><trkpt lat="44.3463083" lon="8.31425"><ele>388.0</ele><time>2026-04-19T08:19:22.163Z</time></trkpt><trkpt lat="44.3463769" lon="8.3141068"><ele>389.0</ele><time>2026-04-19T08:19:24.162Z</time></trkpt><trkpt lat="44.3464452" lon="8.3139833"><ele>387.4</ele><time>2026-04-19T08:19:26.164Z</time></trkpt><trkpt lat="44.3465099" lon="8.3138393"><ele>385.79999999999995</ele><time>2026-04-19T08:19:28.164Z</time></trkpt><trkpt lat="44.3465354" lon="8.3137569"><ele>384.20000000000005</ele><time>2026-04-19T08:19:29.163Z</time></trkpt><trkpt lat="44.3466025" lon="8.3136267"><ele>382.6</ele><time>2026-04-19T08:19:31.162Z</time></trkpt><trkpt lat="44.3466702" lon="8.3135049"><ele>381.0</ele><time>2026-04-19T08:19:33.164Z</time></trkpt><trkpt lat="44.3467445" lon="8.3133961"><ele>381.0</ele><time>2026-04-19T08:19:35.162Z</time></trkpt><trkpt lat="44.3468425" lon="8.3133198"><ele>381.0</ele><time>2026-04-19T08:19:37.163Z</time></trkpt><trkpt lat="44.3469517" lon="8.3132724"><ele>381.0</ele><time>2026-04-19T08:19:39.164Z</time></trkpt><trkpt lat="44.3470637" lon="8.3132592"><ele>381.0</ele><time>2026-04-19T08:19:41.163Z</time></trkpt><trkpt lat="44.3471752" lon="8.3132755"><ele>381.8</ele><time>2026-04-19T08:19:43.164Z</time></trkpt><trkpt lat="44.3472812" lon="8.313334"><ele>382.6</ele><time>2026-04-19T08:19:45.164Z</time></trkpt><trkpt lat="44.3473736" lon="8.3134007"><ele>383.4</ele><time>2026-04-19T08:19:47.163Z</time></trkpt><trkpt lat="44.3474316" lon="8.3134474"><ele>384.2</ele><time>2026-04-19T08:19:48.164Z</time></trkpt><trkpt lat="44.3475453" lon="8.3135201"><ele>385.0</ele><time>2026-04-19T08:19:50.165Z</time></trkpt><trkpt lat="44.347606" lon="8.3136014"><ele>385.0</ele><time>2026-04-19T08:19:52.164Z</time></trkpt><trkpt lat="44.3476906" lon="8.313709"><ele>385.0</ele><time>2026-04-19T08:19:54.163Z</time></trkpt><trkpt lat="44.3477776" lon="8.3138245"><ele>385.0</ele><time>2026-04-19T08:19:56.163Z</time></trkpt><trkpt lat="44.3478476" lon="8.3139436"><ele>385.0</ele><time>2026-04-19T08:19:58.164Z</time></trkpt><trkpt lat="44.3479229" lon="8.3140762"><ele>386.2</ele><time>2026-04-19T08:20:00.164Z</time></trkpt><trkpt lat="44.3479821" lon="8.3141761"><ele>387.4</ele><time>2026-04-19T08:20:02.164Z</time></trkpt><trkpt lat="44.3480532" lon="8.3142839"><ele>388.6</ele><time>2026-04-19T08:20:04.165Z</time></trkpt><trkpt lat="44.3481358" lon="8.3143818"><ele>389.8</ele><time>2026-04-19T08:20:06.164Z</time></trkpt><trkpt lat="44.3482152" lon="8.314482"><ele>391.0</ele><time>2026-04-19T08:20:08.163Z</time></trkpt><trkpt lat="44.3482684" lon="8.3145315"><ele>391.0</ele><time>2026-04-19T08:20:09.163Z</time></trkpt><trkpt lat="44.3483459" lon="8.314627"><ele>391.0</ele><time>2026-04-19T08:20:11.164Z</time></trkpt><trkpt lat="44.3484392" lon="8.3146854"><ele>391.0</ele><time>2026-04-19T08:20:13.163Z</time></trkpt><trkpt lat="44.3485341" lon="8.3147407"><ele>391.0</ele><time>2026-04-19T08:20:15.164Z</time></trkpt><trkpt lat="44.3486388" lon="8.3148124"><ele>391.0</ele><time>2026-04-19T08:20:17.164Z</time></trkpt><trkpt lat="44.3487375" lon="8.3148642"><ele>390.8</ele><time>2026-04-19T08:20:19.163Z</time></trkpt><trkpt lat="44.3488341" lon="8.3149402"><ele>390.6</ele><time>2026-04-19T08:20:21.164Z</time></trkpt><trkpt lat="44.3489224" lon="8.3150082"><ele>390.4</ele><time>2026-04-19T08:20:23.164Z</time></trkpt><trkpt lat="44.3490101" lon="8.3150727"><ele>390.2</ele><time>2026-04-19T08:20:25.163Z</time></trkpt><trkpt lat="44.3490877" lon="8.3151159"><ele>390.0</ele><time>2026-04-19T08:20:27.162Z</time></trkpt><trkpt lat="44.3491549" lon="8.3152149"><ele>390.0</ele><time>2026-04-19T08:20:29.165Z</time></trkpt><trkpt lat="44.3492154" lon="8.3153034"><ele>390.0</ele><time>2026-04-19T08:20:31.163Z</time></trkpt><trkpt lat="44.3492878" lon="8.3154032"><ele>390.0</ele><time>2026-04-19T08:20:33.164Z</time></trkpt><trkpt lat="44.3493626" lon="8.3155217"><ele>390.0</ele><time>2026-04-19T08:20:35.164Z</time></trkpt><trkpt lat="44.3494006" lon="8.3156209"><ele>390.0</ele><time>2026-04-19T08:20:37.164Z</time></trkpt><trkpt lat="44.3494625" lon="8.3157158"><ele>390.5</ele><time>2026-04-19T08:20:39.164Z</time></trkpt><trkpt lat="44.3495213" lon="8.3157779"><ele>391.0</ele><time>2026-04-19T08:20:40.164Z</time></trkpt><trkpt lat="44.3495862" lon="8.3158493"><ele>391.5</ele><time>2026-04-19T08:20:41.164Z</time></trkpt><trkpt lat="44.3496349" lon="8.3159596"><ele>392.0</ele><time>2026-04-19T08:20:43.163Z</time></trkpt><trkpt lat="44.349688" lon="8.3160104"><ele>392.5</ele><time>2026-04-19T08:20:44.165Z</time></trkpt><trkpt lat="44.3497702" lon="8.3161072"><ele>393.0</ele><time>2026-04-19T08:20:46.165Z</time></trkpt><trkpt lat="44.3498392" lon="8.3162063"><ele>393.0</ele><time>2026-04-19T08:20:48.162Z</time></trkpt><trkpt lat="44.3499036" lon="8.3162974"><ele>393.0</ele><time>2026-04-19T08:20:50.163Z</time></trkpt><trkpt lat="44.3499858" lon="8.3163735"><ele>393.0</ele><time>2026-04-19T08:20:52.164Z</time></trkpt><trkpt lat="44.3500645" lon="8.3164238"><ele>393.0</ele><time>2026-04-19T08:20:54.163Z</time></trkpt><trkpt lat="44.3501669" lon="8.3164614"><ele>393.0</ele><time>2026-04-19T08:20:56.163Z</time></trkpt><trkpt lat="44.350271" lon="8.3164844"><ele>393.0</ele><time>2026-04-19T08:20:58.164Z</time></trkpt><trkpt lat="44.3503583" lon="8.3165143"><ele>393.0</ele><time>2026-04-19T08:21:00.163Z</time></trkpt><trkpt lat="44.3504346" lon="8.3164468"><ele>393.0</ele><time>2026-04-19T08:21:02.164Z</time></trkpt><trkpt lat="44.3504942" lon="8.3163349"><ele>393.0</ele><time>2026-04-19T08:21:04.163Z</time></trkpt><trkpt lat="44.3505652" lon="8.3162331"><ele>393.0</ele><time>2026-04-19T08:21:06.164Z</time></trkpt><trkpt lat="44.3506259" lon="8.3160951"><ele>391.4</ele><time>2026-04-19T08:21:08.163Z</time></trkpt><trkpt lat="44.3506704" lon="8.3159359"><ele>389.79999999999995</ele><time>2026-04-19T08:21:10.163Z</time></trkpt><trkpt lat="44.3506883" lon="8.315848"><ele>388.2</ele><time>2026-04-19T08:21:11.164Z</time></trkpt><trkpt lat="44.3507231" lon="8.3156801"><ele>386.6</ele><time>2026-04-19T08:21:13.162Z</time></trkpt><trkpt lat="44.3507379" lon="8.3155938"><ele>385.0</ele><time>2026-04-19T08:21:14.164Z</time></trkpt><trkpt lat="44.3507506" lon="8.3154268"><ele>385.0</ele><time>2026-04-19T08:21:16.162Z</time></trkpt><trkpt lat="44.3507616" lon="8.3153371"><ele>385.0</ele><time>2026-04-19T08:21:17.163Z</time></trkpt><trkpt lat="44.3507714" lon="8.3152491"><ele>385.0</ele><time>2026-04-19T08:21:18.164Z</time></trkpt><trkpt lat="44.3507871" lon="8.315094"><ele>385.0</ele><time>2026-04-19T08:21:20.163Z</time></trkpt><trkpt lat="44.3508006" lon="8.3149396"><ele>385.0</ele><time>2026-04-19T08:21:22.163Z</time></trkpt><trkpt lat="44.3508195" lon="8.3147904"><ele>385.4</ele><time>2026-04-19T08:21:24.165Z</time></trkpt><trkpt lat="44.3508292" lon="8.314669"><ele>385.8</ele><time>2026-04-19T08:21:26.164Z</time></trkpt><trkpt lat="44.350856" lon="8.3145412"><ele>386.20000000000005</ele><time>2026-04-19T08:21:28.164Z</time></trkpt><trkpt lat="44.3508732" lon="8.3144109"><ele>386.6</ele><time>2026-04-19T08:21:30.164Z</time></trkpt><trkpt lat="44.3508982" lon="8.3142668"><ele>387.0</ele><time>2026-04-19T08:21:32.165Z</time></trkpt><trkpt lat="44.3509349" lon="8.3141355"><ele>387.0</ele><time>2026-04-19T08:21:34.163Z</time></trkpt><trkpt lat="44.3509633" lon="8.3140147"><ele>387.0</ele><time>2026-04-19T08:21:36.164Z</time></trkpt><trkpt lat="44.3509991" lon="8.3138808"><ele>387.0</ele><time>2026-04-19T08:21:38.164Z</time></trkpt><trkpt lat="44.3510406" lon="8.313758"><ele>387.0</ele><time>2026-04-19T08:21:40.165Z</time></trkpt><trkpt lat="44.3510761" lon="8.3136278"><ele>387.0</ele><time>2026-04-19T08:21:42.165Z</time></trkpt><trkpt lat="44.3511135" lon="8.3134944"><ele>387.20000000000005</ele><time>2026-04-19T08:21:44.163Z</time></trkpt><trkpt lat="44.3511512" lon="8.313362"><ele>387.4</ele><time>2026-04-19T08:21:46.162Z</time></trkpt><trkpt lat="44.3511881" lon="8.3132307"><ele>387.6</ele><time>2026-04-19T08:21:48.163Z</time></trkpt><trkpt lat="44.3512252" lon="8.3131051"><ele>387.79999999999995</ele><time>2026-04-19T08:21:50.164Z</time></trkpt><trkpt lat="44.3512708" lon="8.3129863"><ele>388.0</ele><time>2026-04-19T08:21:52.163Z</time></trkpt><trkpt lat="44.3513075" lon="8.3128636"><ele>388.0</ele><time>2026-04-19T08:21:54.163Z</time></trkpt><trkpt lat="44.3513531" lon="8.3127307"><ele>388.0</ele><time>2026-04-19T08:21:56.163Z</time></trkpt><trkpt lat="44.3513866" lon="8.3126103"><ele>388.0</ele><time>2026-04-19T08:21:58.164Z</time></trkpt><trkpt lat="44.3514195" lon="8.3124866"><ele>388.0</ele><time>2026-04-19T08:22:00.164Z</time></trkpt><trkpt lat="44.3514522" lon="8.312361"><ele>388.0</ele><time>2026-04-19T08:22:02.163Z</time></trkpt><trkpt lat="44.35149" lon="8.3122444"><ele>387.2</ele><time>2026-04-19T08:22:04.164Z</time></trkpt><trkpt lat="44.351541" lon="8.3121222"><ele>386.4</ele><time>2026-04-19T08:22:06.163Z</time></trkpt><trkpt lat="44.3516074" lon="8.3120174"><ele>385.59999999999997</ele><time>2026-04-19T08:22:08.163Z</time></trkpt><trkpt lat="44.3516752" lon="8.3119087"><ele>384.79999999999995</ele><time>2026-04-19T08:22:10.163Z</time></trkpt><trkpt lat="44.3517557" lon="8.3117932"><ele>384.0</ele><time>2026-04-19T08:22:12.165Z</time></trkpt><trkpt lat="44.3518635" lon="8.3117162"><ele>384.0</ele><time>2026-04-19T08:22:14.163Z</time></trkpt><trkpt lat="44.3519759" lon="8.3116578"><ele>384.0</ele><time>2026-04-19T08:22:16.163Z</time></trkpt><trkpt lat="44.3520854" lon="8.3116156"><ele>384.0</ele><time>2026-04-19T08:22:18.164Z</time></trkpt><trkpt lat="44.3522003" lon="8.3115822"><ele>384.0</ele><time>2026-04-19T08:22:20.162Z</time></trkpt><trkpt lat="44.3523072" lon="8.3115656"><ele>384.0</ele><time>2026-04-19T08:22:22.163Z</time></trkpt><trkpt lat="44.3524233" lon="8.3115727"><ele>384.0</ele><time>2026-04-19T08:22:24.163Z</time></trkpt><trkpt lat="44.3525342" lon="8.311586"><ele>384.0</ele><time>2026-04-19T08:22:26.164Z</time></trkpt><trkpt lat="44.3526405" lon="8.3115979"><ele>384.0</ele><time>2026-04-19T08:22:28.163Z</time></trkpt><trkpt lat="44.3527438" lon="8.3116201"><ele>384.0</ele><time>2026-04-19T08:22:30.164Z</time></trkpt><trkpt lat="44.3528383" lon="8.3116417"><ele>384.0</ele><time>2026-04-19T08:22:32.165Z</time></trkpt><trkpt lat="44.3529457" lon="8.3116613"><ele>384.0</ele><time>2026-04-19T08:22:34.164Z</time></trkpt><trkpt lat="44.353046" lon="8.3116742"><ele>384.0</ele><time>2026-04-19T08:22:36.163Z</time></trkpt><trkpt lat="44.3531475" lon="8.3116847"><ele>384.0</ele><time>2026-04-19T08:22:38.162Z</time></trkpt><trkpt lat="44.3532419" lon="8.3116981"><ele>384.0</ele><time>2026-04-19T08:22:40.164Z</time></trkpt><trkpt lat="44.3533404" lon="8.3117285"><ele>383.4</ele><time>2026-04-19T08:22:42.163Z</time></trkpt><trkpt lat="44.3534368" lon="8.3117448"><ele>382.79999999999995</ele><time>2026-04-19T08:22:44.164Z</time></trkpt><trkpt lat="44.3535394" lon="8.3117685"><ele>382.20000000000005</ele><time>2026-04-19T08:22:46.164Z</time></trkpt><trkpt lat="44.3536599" lon="8.3117886"><ele>381.6</ele><time>2026-04-19T08:22:48.164Z</time></trkpt><trkpt lat="44.3537726" lon="8.3118165"><ele>381.0</ele><time>2026-04-19T08:22:50.164Z</time></trkpt><trkpt lat="44.3539023" lon="8.3118453"><ele>381.0</ele><time>2026-04-19T08:22:52.164Z</time></trkpt><trkpt lat="44.3540093" lon="8.3118723"><ele>381.0</ele><time>2026-04-19T08:22:54.164Z</time></trkpt><trkpt lat="44.3541166" lon="8.3119117"><ele>381.0</ele><time>2026-04-19T08:22:56.165Z</time></trkpt><trkpt lat="44.3542294" lon="8.3119337"><ele>381.0</ele><time>2026-04-19T08:22:58.164Z</time></trkpt><trkpt lat="44.3542923" lon="8.3119549"><ele>381.0</ele><time>2026-04-19T08:22:59.165Z</time></trkpt><trkpt lat="44.3544004" lon="8.3119995"><ele>381.0</ele><time>2026-04-19T08:23:01.163Z</time></trkpt><trkpt lat="44.3545019" lon="8.3120553"><ele>381.0</ele><time>2026-04-19T08:23:03.164Z</time></trkpt><trkpt lat="44.3545902" lon="8.3121054"><ele>381.0</ele><time>2026-04-19T08:23:05.164Z</time></trkpt><trkpt lat="44.3546851" lon="8.3121654"><ele>381.0</ele><time>2026-04-19T08:23:07.165Z</time></trkpt><trkpt lat="44.3547657" lon="8.3122254"><ele>381.0</ele><time>2026-04-19T08:23:09.162Z</time></trkpt><trkpt lat="44.3548403" lon="8.312273"><ele>380.5</ele><time>2026-04-19T08:23:11.163Z</time></trkpt><trkpt lat="44.3549133" lon="8.3123348"><ele>380.0</ele><time>2026-04-19T08:23:13.164Z</time></trkpt><trkpt lat="44.3549889" lon="8.312406"><ele>379.5</ele><time>2026-04-19T08:23:15.163Z</time></trkpt><trkpt lat="44.3550634" lon="8.3124566"><ele>379.0</ele><time>2026-04-19T08:23:17.164Z</time></trkpt><trkpt lat="44.3551445" lon="8.3125136"><ele>378.5</ele><time>2026-04-19T08:23:19.165Z</time></trkpt><trkpt lat="44.355218" lon="8.3125594"><ele>378.0</ele><time>2026-04-19T08:23:21.163Z</time></trkpt><trkpt lat="44.3552886" lon="8.3126255"><ele>378.0</ele><time>2026-04-19T08:23:23.163Z</time></trkpt><trkpt lat="44.3553579" lon="8.3126922"><ele>378.0</ele><time>2026-04-19T08:23:25.164Z</time></trkpt><trkpt lat="44.3554335" lon="8.31274"><ele>378.0</ele><time>2026-04-19T08:23:27.164Z</time></trkpt><trkpt lat="44.3555162" lon="8.3127915"><ele>378.0</ele><time>2026-04-19T08:23:29.164Z</time></trkpt><trkpt lat="44.3556082" lon="8.3128564"><ele>378.0</ele><time>2026-04-19T08:23:31.163Z</time></trkpt><trkpt lat="44.3556981" lon="8.3129171"><ele>379.2</ele><time>2026-04-19T08:23:33.163Z</time></trkpt><trkpt lat="44.3557893" lon="8.3129827"><ele>380.4</ele><time>2026-04-19T08:23:35.164Z</time></trkpt><trkpt lat="44.3558832" lon="8.313047"><ele>381.59999999999997</ele><time>2026-04-19T08:23:37.163Z</time></trkpt><trkpt lat="44.3559839" lon="8.3131197"><ele>382.79999999999995</ele><time>2026-04-19T08:23:39.162Z</time></trkpt><trkpt lat="44.3560841" lon="8.3131979"><ele>384.0</ele><time>2026-04-19T08:23:41.164Z</time></trkpt><trkpt lat="44.356203" lon="8.3132786"><ele>382.0</ele><time>2026-04-19T08:23:43.164Z</time></trkpt><trkpt lat="44.356319" lon="8.3133494"><ele>380.0</ele><time>2026-04-19T08:23:45.165Z</time></trkpt><trkpt lat="44.3564251" lon="8.3134342"><ele>378.0</ele><time>2026-04-19T08:23:47.164Z</time></trkpt><trkpt lat="44.3564901" lon="8.3134869"><ele>376.0</ele><time>2026-04-19T08:23:48.163Z</time></trkpt><trkpt lat="44.3565498" lon="8.3135301"><ele>374.0</ele><time>2026-04-19T08:23:49.164Z</time></trkpt><trkpt lat="44.3566071" lon="8.3135765"><ele>374.0</ele><time>2026-04-19T08:23:50.164Z</time></trkpt><trkpt lat="44.3566705" lon="8.3136206"><ele>374.0</ele><time>2026-04-19T08:23:51.163Z</time></trkpt><trkpt lat="44.3567233" lon="8.313679"><ele>374.0</ele><time>2026-04-19T08:23:52.164Z</time></trkpt><trkpt lat="44.3567807" lon="8.3137355"><ele>374.0</ele><time>2026-04-19T08:23:53.164Z</time></trkpt><trkpt lat="44.3568414" lon="8.3138142"><ele>374.0</ele><time>2026-04-19T08:23:54.163Z</time></trkpt><trkpt lat="44.3568901" lon="8.3138909"><ele>374.0</ele><time>2026-04-19T08:23:55.164Z</time></trkpt><trkpt lat="44.3569247" lon="8.3139832"><ele>374.0</ele><time>2026-04-19T08:23:56.164Z</time></trkpt><trkpt lat="44.3569351" lon="8.3140876"><ele>373.0</ele><time>2026-04-19T08:23:57.163Z</time></trkpt><trkpt lat="44.3569249" lon="8.3142002"><ele>372.0</ele><time>2026-04-19T08:23:58.164Z</time></trkpt><trkpt lat="44.3569004" lon="8.3143104"><ele>371.0</ele><time>2026-04-19T08:23:59.163Z</time></trkpt><trkpt lat="44.3568669" lon="8.3144076"><ele>370.0</ele><time>2026-04-19T08:24:00.163Z</time></trkpt><trkpt lat="44.3568212" lon="8.3144951"><ele>369.0</ele><time>2026-04-19T08:24:01.164Z</time></trkpt><trkpt lat="44.3567797" lon="8.3145848"><ele>368.0</ele><time>2026-04-19T08:24:02.164Z</time></trkpt><trkpt lat="44.3567321" lon="8.3146562"><ele>368.0</ele><time>2026-04-19T08:24:03.163Z</time></trkpt><trkpt lat="44.3566927" lon="8.3147302"><ele>368.0</ele><time>2026-04-19T08:24:04.163Z</time></trkpt><trkpt lat="44.3566523" lon="8.3148042"><ele>368.0</ele><time>2026-04-19T08:24:05.163Z</time></trkpt><trkpt lat="44.3565996" lon="8.3148844"><ele>368.0</ele><time>2026-04-19T08:24:06.164Z</time></trkpt><trkpt lat="44.3565599" lon="8.3149582"><ele>368.0</ele><time>2026-04-19T08:24:07.164Z</time></trkpt><trkpt lat="44.3564843" lon="8.3150992"><ele>368.0</ele><time>2026-04-19T08:24:09.164Z</time></trkpt><trkpt lat="44.3564001" lon="8.3152213"><ele>367.5</ele><time>2026-04-19T08:24:11.164Z</time></trkpt><trkpt lat="44.3563392" lon="8.3153544"><ele>367.0</ele><time>2026-04-19T08:24:13.164Z</time></trkpt><trkpt lat="44.3562646" lon="8.3154834"><ele>366.5</ele><time>2026-04-19T08:24:15.164Z</time></trkpt><trkpt lat="44.356195" lon="8.315612"><ele>366.0</ele><time>2026-04-19T08:24:17.163Z</time></trkpt><trkpt lat="44.3561238" lon="8.3157397"><ele>365.75</ele><time>2026-04-19T08:24:19.164Z</time></trkpt><trkpt lat="44.3560663" lon="8.3158722"><ele>365.5</ele><time>2026-04-19T08:24:21.164Z</time></trkpt><trkpt lat="44.3560181" lon="8.3160279"><ele>365.25</ele><time>2026-04-19T08:24:23.164Z</time></trkpt><trkpt lat="44.3559937" lon="8.316199"><ele>365.0</ele><time>2026-04-19T08:24:25.164Z</time></trkpt><trkpt lat="44.3560007" lon="8.3163534"><ele>365.0</ele><time>2026-04-19T08:24:27.164Z</time></trkpt><trkpt lat="44.3560513" lon="8.3164919"><ele>365.0</ele><time>2026-04-19T08:24:29.162Z</time></trkpt><trkpt lat="44.3561206" lon="8.3166078"><ele>365.0</ele><time>2026-04-19T08:24:31.163Z</time></trkpt><trkpt lat="44.3562107" lon="8.3167063"><ele>365.0</ele><time>2026-04-19T08:24:33.163Z</time></trkpt><trkpt lat="44.3562986" lon="8.3167969"><ele>365.0</ele><time>2026-04-19T08:24:35.164Z</time></trkpt><trkpt lat="44.3563875" lon="8.316889"><ele>365.5</ele><time>2026-04-19T08:24:37.164Z</time></trkpt><trkpt lat="44.3564799" lon="8.3169819"><ele>366.0</ele><time>2026-04-19T08:24:39.164Z</time></trkpt><trkpt lat="44.3565894" lon="8.3170856"><ele>366.5</ele><time>2026-04-19T08:24:41.163Z</time></trkpt><trkpt lat="44.3566977" lon="8.3171746"><ele>367.0</ele><time>2026-04-19T08:24:43.162Z</time></trkpt><trkpt lat="44.3567837" lon="8.3172607"><ele>367.40000000000003</ele><time>2026-04-19T08:24:45.163Z</time></trkpt><trkpt lat="44.3568381" lon="8.3173179"><ele>367.8</ele><time>2026-04-19T08:24:46.165Z</time></trkpt><trkpt lat="44.3569062" lon="8.3173952"><ele>368.2</ele><time>2026-04-19T08:24:47.164Z</time></trkpt><trkpt lat="44.3569667" lon="8.3174574"><ele>368.6</ele><time>2026-04-19T08:24:48.163Z</time></trkpt><trkpt lat="44.3570645" lon="8.317548"><ele>369.0</ele><time>2026-04-19T08:24:50.163Z</time></trkpt><trkpt lat="44.3571576" lon="8.3176326"><ele>369.0</ele><time>2026-04-19T08:24:52.165Z</time></trkpt><trkpt lat="44.3572533" lon="8.3177287"><ele>369.0</ele><time>2026-04-19T08:24:54.163Z</time></trkpt><trkpt lat="44.3573433" lon="8.3178216"><ele>369.0</ele><time>2026-04-19T08:24:56.163Z</time></trkpt><trkpt lat="44.3574237" lon="8.3179092"><ele>369.0</ele><time>2026-04-19T08:24:58.162Z</time></trkpt><trkpt lat="44.3575126" lon="8.3179976"><ele>369.0</ele><time>2026-04-19T08:25:00.164Z</time></trkpt><trkpt lat="44.3575752" lon="8.3180756"><ele>369.0</ele><time>2026-04-19T08:25:02.163Z</time></trkpt><trkpt lat="44.3576642" lon="8.3181614"><ele>369.0</ele><time>2026-04-19T08:25:04.164Z</time></trkpt><trkpt lat="44.3577782" lon="8.3182648"><ele>369.0</ele><time>2026-04-19T08:25:06.162Z</time></trkpt><trkpt lat="44.3578798" lon="8.3183471"><ele>369.0</ele><time>2026-04-19T08:25:08.164Z</time></trkpt><trkpt lat="44.3579454" lon="8.3184392"><ele>369.0</ele><time>2026-04-19T08:25:10.163Z</time></trkpt><trkpt lat="44.358034" lon="8.3185021"><ele>369.0</ele><time>2026-04-19T08:25:12.163Z</time></trkpt><trkpt lat="44.3581161" lon="8.3185928"><ele>369.0</ele><time>2026-04-19T08:25:14.164Z</time></trkpt><trkpt lat="44.3582114" lon="8.3186673"><ele>369.0</ele><time>2026-04-19T08:25:16.163Z</time></trkpt><trkpt lat="44.3582975" lon="8.318768"><ele>369.0</ele><time>2026-04-19T08:25:18.163Z</time></trkpt><trkpt lat="44.3583836" lon="8.3188722"><ele>368.4</ele><time>2026-04-19T08:25:20.164Z</time></trkpt><trkpt lat="44.3584643" lon="8.3189777"><ele>367.79999999999995</ele><time>2026-04-19T08:25:22.162Z</time></trkpt><trkpt lat="44.358526" lon="8.3190479"><ele>367.20000000000005</ele><time>2026-04-19T08:25:23.163Z</time></trkpt><trkpt lat="44.3586191" lon="8.3191498"><ele>366.6</ele><time>2026-04-19T08:25:25.164Z</time></trkpt><trkpt lat="44.3587159" lon="8.3192408"><ele>366.0</ele><time>2026-04-19T08:25:27.164Z</time></trkpt><trkpt lat="44.3588115" lon="8.3193392"><ele>366.0</ele><time>2026-04-19T08:25:29.163Z</time></trkpt><trkpt lat="44.3588993" lon="8.3194334"><ele>366.0</ele><time>2026-04-19T08:25:31.163Z</time></trkpt><trkpt lat="44.3589811" lon="8.3195214"><ele>366.0</ele><time>2026-04-19T08:25:33.164Z</time></trkpt><trkpt lat="44.3590321" lon="8.3195744"><ele>366.0</ele><time>2026-04-19T08:25:34.164Z</time></trkpt><trkpt lat="44.3591097" lon="8.3196722"><ele>366.0</ele><time>2026-04-19T08:25:36.163Z</time></trkpt><trkpt lat="44.3591962" lon="8.3197676"><ele>366.0</ele><time>2026-04-19T08:25:38.164Z</time></trkpt><trkpt lat="44.3592853" lon="8.3198584"><ele>366.0</ele><time>2026-04-19T08:25:40.163Z</time></trkpt><trkpt lat="44.3593788" lon="8.3199546"><ele>366.0</ele><time>2026-04-19T08:25:42.162Z</time></trkpt><trkpt lat="44.3594681" lon="8.3200263"><ele>366.0</ele><time>2026-04-19T08:25:44.164Z</time></trkpt><trkpt lat="44.3595615" lon="8.3201157"><ele>366.0</ele><time>2026-04-19T08:25:46.164Z</time></trkpt><trkpt lat="44.3596379" lon="8.3201695"><ele>366.0</ele><time>2026-04-19T08:25:48.163Z</time></trkpt><trkpt lat="44.3597196" lon="8.3202616"><ele>366.0</ele><time>2026-04-19T08:25:50.163Z</time></trkpt><trkpt lat="44.3597715" lon="8.3203154"><ele>366.0</ele><time>2026-04-19T08:25:51.164Z</time></trkpt><trkpt lat="44.3598534" lon="8.3204034"><ele>366.0</ele><time>2026-04-19T08:25:53.164Z</time></trkpt><trkpt lat="44.3599528" lon="8.3205275"><ele>366.0</ele><time>2026-04-19T08:25:55.164Z</time></trkpt><trkpt lat="44.3599959" lon="8.3205954"><ele>366.0</ele><time>2026-04-19T08:25:56.164Z</time></trkpt><trkpt lat="44.3600496" lon="8.3206517"><ele>366.0</ele><time>2026-04-19T08:25:57.164Z</time></trkpt><trkpt lat="44.3601375" lon="8.3207512"><ele>366.0</ele><time>2026-04-19T08:25:59.164Z</time></trkpt><trkpt lat="44.3602469" lon="8.3208334"><ele>366.0</ele><time>2026-04-19T08:26:01.164Z</time></trkpt><trkpt lat="44.3603488" lon="8.3209144"><ele>366.0</ele><time>2026-04-19T08:26:03.164Z</time></trkpt><trkpt lat="44.3604499" lon="8.3210083"><ele>366.0</ele><time>2026-04-19T08:26:05.164Z</time></trkpt><trkpt lat="44.3605156" lon="8.3211091"><ele>366.0</ele><time>2026-04-19T08:26:07.163Z</time></trkpt><trkpt lat="44.360598" lon="8.3212259"><ele>366.0</ele><time>2026-04-19T08:26:09.164Z</time></trkpt><trkpt lat="44.3606917" lon="8.3213189"><ele>366.0</ele><time>2026-04-19T08:26:11.163Z</time></trkpt><trkpt lat="44.360796" lon="8.3214107"><ele>366.20000000000005</ele><time>2026-04-19T08:26:13.163Z</time></trkpt><trkpt lat="44.3608566" lon="8.3214936"><ele>366.40000000000003</ele><time>2026-04-19T08:26:15.164Z</time></trkpt><trkpt lat="44.360937" lon="8.3215942"><ele>366.6</ele><time>2026-04-19T08:26:17.163Z</time></trkpt><trkpt lat="44.3610401" lon="8.321688"><ele>366.8</ele><time>2026-04-19T08:26:19.164Z</time></trkpt><trkpt lat="44.3611153" lon="8.3217731"><ele>367.0</ele><time>2026-04-19T08:26:21.162Z</time></trkpt><trkpt lat="44.3612016" lon="8.3218624"><ele>367.0</ele><time>2026-04-19T08:26:23.164Z</time></trkpt><trkpt lat="44.3612804" lon="8.3219403"><ele>367.0</ele><time>2026-04-19T08:26:25.163Z</time></trkpt><trkpt lat="44.3613583" lon="8.3220287"><ele>367.0</ele><time>2026-04-19T08:26:27.164Z</time></trkpt><trkpt lat="44.3614244" lon="8.3221089"><ele>367.0</ele><time>2026-04-19T08:26:29.163Z</time></trkpt><trkpt lat="44.3614732" lon="8.3221689"><ele>367.0</ele><time>2026-04-19T08:26:30.164Z</time></trkpt><trkpt lat="44.3615641" lon="8.3222559"><ele>366.6</ele><time>2026-04-19T08:26:32.162Z</time></trkpt><trkpt lat="44.3616077" lon="8.3223615"><ele>366.20000000000005</ele><time>2026-04-19T08:26:34.163Z</time></trkpt><trkpt lat="44.3616828" lon="8.3224547"><ele>365.8</ele><time>2026-04-19T08:26:36.163Z</time></trkpt><trkpt lat="44.3617687" lon="8.3225411"><ele>365.4</ele><time>2026-04-19T08:26:38.164Z</time></trkpt><trkpt lat="44.361867" lon="8.3226209"><ele>365.0</ele><time>2026-04-19T08:26:40.164Z</time></trkpt><trkpt lat="44.3619478" lon="8.3227099"><ele>365.0</ele><time>2026-04-19T08:26:42.163Z</time></trkpt><trkpt lat="44.3620461" lon="8.3227717"><ele>365.0</ele><time>2026-04-19T08:26:44.164Z</time></trkpt><trkpt lat="44.3621279" lon="8.3228684"><ele>365.0</ele><time>2026-04-19T08:26:46.162Z</time></trkpt><trkpt lat="44.3621814" lon="8.3229194"><ele>365.0</ele><time>2026-04-19T08:26:47.162Z</time></trkpt><trkpt lat="44.362272" lon="8.323021"><ele>365.0</ele><time>2026-04-19T08:26:49.163Z</time></trkpt><trkpt lat="44.3623632" lon="8.3231052"><ele>364.8</ele><time>2026-04-19T08:26:51.163Z</time></trkpt><trkpt lat="44.3624457" lon="8.3231989"><ele>364.6</ele><time>2026-04-19T08:26:54.163Z</time></trkpt><trkpt lat="44.3625417" lon="8.323286"><ele>364.4</ele><time>2026-04-19T08:26:56.164Z</time></trkpt><trkpt lat="44.3626273" lon="8.3233958"><ele>364.2</ele><time>2026-04-19T08:26:58.164Z</time></trkpt><trkpt lat="44.362714" lon="8.3234837"><ele>364.0</ele><time>2026-04-19T08:27:00.164Z</time></trkpt><trkpt lat="44.3628058" lon="8.3235875"><ele>364.0</ele><time>2026-04-19T08:27:02.164Z</time></trkpt><trkpt lat="44.3628923" lon="8.3236805"><ele>364.0</ele><time>2026-04-19T08:27:04.164Z</time></trkpt><trkpt lat="44.3630026" lon="8.3237762"><ele>364.0</ele><time>2026-04-19T08:27:06.164Z</time></trkpt><trkpt lat="44.3630825" lon="8.3238753"><ele>364.0</ele><time>2026-04-19T08:27:08.163Z</time></trkpt><trkpt lat="44.363176" lon="8.3239736"><ele>363.6</ele><time>2026-04-19T08:27:10.163Z</time></trkpt><trkpt lat="44.3632609" lon="8.3240696"><ele>363.2</ele><time>2026-04-19T08:27:12.163Z</time></trkpt><trkpt lat="44.3633752" lon="8.3241752"><ele>362.8</ele><time>2026-04-19T08:27:14.163Z</time></trkpt><trkpt lat="44.3634384" lon="8.3242231"><ele>362.40000000000003</ele><time>2026-04-19T08:27:15.163Z</time></trkpt><trkpt lat="44.3635077" lon="8.3243155"><ele>362.0</ele><time>2026-04-19T08:27:17.164Z</time></trkpt><trkpt lat="44.363602" lon="8.3244015"><ele>362.0</ele><time>2026-04-19T08:27:19.164Z</time></trkpt><trkpt lat="44.3636909" lon="8.3245004"><ele>362.0</ele><time>2026-04-19T08:27:21.164Z</time></trkpt><trkpt lat="44.3637762" lon="8.3245927"><ele>362.0</ele><time>2026-04-19T08:27:23.164Z</time></trkpt><trkpt lat="44.3638591" lon="8.3246867"><ele>362.0</ele><time>2026-04-19T08:27:25.163Z</time></trkpt><trkpt lat="44.3638935" lon="8.3247919"><ele>362.0</ele><time>2026-04-19T08:27:27.163Z</time></trkpt><trkpt lat="44.3639839" lon="8.3248797"><ele>362.20000000000005</ele><time>2026-04-19T08:27:29.164Z</time></trkpt><trkpt lat="44.3640889" lon="8.3249453"><ele>362.4</ele><time>2026-04-19T08:27:31.162Z</time></trkpt><trkpt lat="44.364177" lon="8.3249858"><ele>362.6</ele><time>2026-04-19T08:27:32.163Z</time></trkpt><trkpt lat="44.3642424" lon="8.3250379"><ele>362.79999999999995</ele><time>2026-04-19T08:27:34.163Z</time></trkpt><trkpt lat="44.3643193" lon="8.3251053"><ele>363.0</ele><time>2026-04-19T08:27:36.163Z</time></trkpt><trkpt lat="44.3644665" lon="8.3251806"><ele>363.0</ele><time>2026-04-19T08:27:38.163Z</time></trkpt><trkpt lat="44.3645562" lon="8.3252205"><ele>363.0</ele><time>2026-04-19T08:27:40.163Z</time></trkpt><trkpt lat="44.3646374" lon="8.3252824"><ele>363.0</ele><time>2026-04-19T08:27:42.163Z</time></trkpt><trkpt lat="44.3647051" lon="8.3253363"><ele>363.0</ele><time>2026-04-19T08:27:44.163Z</time></trkpt><trkpt lat="44.3647736" lon="8.3253751"><ele>363.0</ele><time>2026-04-19T08:27:46.163Z</time></trkpt><trkpt lat="44.3648484" lon="8.3254288"><ele>363.0</ele><time>2026-04-19T08:27:48.163Z</time></trkpt><trkpt lat="44.3649269" lon="8.3254815"><ele>363.0</ele><time>2026-04-19T08:27:50.162Z</time></trkpt><trkpt lat="44.365009" lon="8.3255432"><ele>363.0</ele><time>2026-04-19T08:27:52.164Z</time></trkpt><trkpt lat="44.3650942" lon="8.3256042"><ele>363.0</ele><time>2026-04-19T08:27:54.163Z</time></trkpt><trkpt lat="44.3651662" lon="8.3256551"><ele>363.0</ele><time>2026-04-19T08:27:56.163Z</time></trkpt><trkpt lat="44.365245" lon="8.3256802"><ele>363.0</ele><time>2026-04-19T08:27:58.164Z</time></trkpt><trkpt lat="44.3653201" lon="8.3257256"><ele>363.0</ele><time>2026-04-19T08:28:00.163Z</time></trkpt><trkpt lat="44.3653913" lon="8.3257752"><ele>363.3333333333333</ele><time>2026-04-19T08:28:02.163Z</time></trkpt><trkpt lat="44.3654793" lon="8.3258192"><ele>363.6666666666667</ele><time>2026-04-19T08:28:04.163Z</time></trkpt><trkpt lat="44.3655493" lon="8.3258661"><ele>364.0</ele><time>2026-04-19T08:28:06.164Z</time></trkpt><trkpt lat="44.3656236" lon="8.3259118"><ele>364.33333333333337</ele><time>2026-04-19T08:28:08.163Z</time></trkpt><trkpt lat="44.3657003" lon="8.3259564"><ele>364.6666666666667</ele><time>2026-04-19T08:28:10.162Z</time></trkpt><trkpt lat="44.3657805" lon="8.325949"><ele>365.0</ele><time>2026-04-19T08:28:12.163Z</time></trkpt><trkpt lat="44.3658433" lon="8.3258861"><ele>364.8</ele><time>2026-04-19T08:28:14.163Z</time></trkpt><trkpt lat="44.3659147" lon="8.3257975"><ele>364.6</ele><time>2026-04-19T08:28:16.163Z</time></trkpt><trkpt lat="44.3659962" lon="8.3257041"><ele>364.4</ele><time>2026-04-19T08:28:18.163Z</time></trkpt><trkpt lat="44.3660784" lon="8.3256222"><ele>364.2</ele><time>2026-04-19T08:28:20.163Z</time></trkpt><trkpt lat="44.3661757" lon="8.3255481"><ele>364.0</ele><time>2026-04-19T08:28:22.164Z</time></trkpt><trkpt lat="44.3662798" lon="8.3254892"><ele>363.79999999999995</ele><time>2026-04-19T08:28:24.164Z</time></trkpt><trkpt lat="44.3663816" lon="8.3254375"><ele>363.59999999999997</ele><time>2026-04-19T08:28:26.163Z</time></trkpt><trkpt lat="44.3664717" lon="8.3253799"><ele>363.4</ele><time>2026-04-19T08:28:28.163Z</time></trkpt><trkpt lat="44.3665717" lon="8.3253229"><ele>363.2</ele><time>2026-04-19T08:28:30.163Z</time></trkpt><trkpt lat="44.3666643" lon="8.3252669"><ele>363.0</ele><time>2026-04-19T08:28:32.162Z</time></trkpt><trkpt lat="44.3667671" lon="8.3252102"><ele>363.0</ele><time>2026-04-19T08:28:34.163Z</time></trkpt><trkpt lat="44.3668682" lon="8.3251573"><ele>363.0</ele><time>2026-04-19T08:28:36.163Z</time></trkpt><trkpt lat="44.36697" lon="8.3251064"><ele>363.0</ele><time>2026-04-19T08:28:38.164Z</time></trkpt><trkpt lat="44.367079" lon="8.3250592"><ele>363.0</ele><time>2026-04-19T08:28:40.164Z</time></trkpt><trkpt lat="44.3671884" lon="8.32502"><ele>363.0</ele><time>2026-04-19T08:28:42.164Z</time></trkpt><trkpt lat="44.367296" lon="8.3249874"><ele>363.59999999999997</ele><time>2026-04-19T08:28:44.164Z</time></trkpt><trkpt lat="44.367401" lon="8.3249639"><ele>364.2</ele><time>2026-04-19T08:28:46.163Z</time></trkpt><trkpt lat="44.3675124" lon="8.3249381"><ele>364.8</ele><time>2026-04-19T08:28:48.163Z</time></trkpt><trkpt lat="44.3676208" lon="8.3249263"><ele>365.4</ele><time>2026-04-19T08:28:50.163Z</time></trkpt><trkpt lat="44.3677357" lon="8.3249102"><ele>366.0</ele><time>2026-04-19T08:28:52.164Z</time></trkpt><trkpt lat="44.3678454" lon="8.3248909"><ele>366.0</ele><time>2026-04-19T08:28:54.163Z</time></trkpt><trkpt lat="44.3679635" lon="8.3248668"><ele>366.0</ele><time>2026-04-19T08:28:56.163Z</time></trkpt><trkpt lat="44.3680824" lon="8.324859"><ele>366.0</ele><time>2026-04-19T08:28:58.163Z</time></trkpt><trkpt lat="44.3681453" lon="8.3248493"><ele>366.0</ele><time>2026-04-19T08:28:59.164Z</time></trkpt><trkpt lat="44.3682581" lon="8.324822"><ele>366.0</ele><time>2026-04-19T08:29:01.162Z</time></trkpt><trkpt lat="44.3683742" lon="8.3247928"><ele>366.20000000000005</ele><time>2026-04-19T08:29:03.164Z</time></trkpt><trkpt lat="44.368487" lon="8.3247737"><ele>366.40000000000003</ele><time>2026-04-19T08:29:05.163Z</time></trkpt><trkpt lat="44.3685956" lon="8.3247528"><ele>366.6</ele><time>2026-04-19T08:29:07.164Z</time></trkpt><trkpt lat="44.3686794" lon="8.3247305"><ele>366.8</ele><time>2026-04-19T08:29:09.162Z</time></trkpt><trkpt lat="44.3687703" lon="8.3247094"><ele>367.0</ele><time>2026-04-19T08:29:11.163Z</time></trkpt><trkpt lat="44.3688469" lon="8.3246921"><ele>365.66666666666663</ele><time>2026-04-19T08:29:13.163Z</time></trkpt><trkpt lat="44.3689206" lon="8.3246818"><ele>364.3333333333333</ele><time>2026-04-19T08:29:15.163Z</time></trkpt><trkpt lat="44.3690081" lon="8.3246772"><ele>363.0</ele><time>2026-04-19T08:29:17.162Z</time></trkpt><trkpt lat="44.3691026" lon="8.324662"><ele>361.6666666666667</ele><time>2026-04-19T08:29:19.163Z</time></trkpt><trkpt lat="44.3691997" lon="8.3246426"><ele>360.33333333333337</ele><time>2026-04-19T08:29:21.163Z</time></trkpt><trkpt lat="44.3692911" lon="8.3246107"><ele>359.0</ele><time>2026-04-19T08:29:23.163Z</time></trkpt><trkpt lat="44.3693773" lon="8.3245665"><ele>359.0</ele><time>2026-04-19T08:29:25.163Z</time></trkpt><trkpt lat="44.3694649" lon="8.3245298"><ele>359.0</ele><time>2026-04-19T08:29:27.164Z</time></trkpt><trkpt lat="44.3695445" lon="8.3244605"><ele>359.0</ele><time>2026-04-19T08:29:29.163Z</time></trkpt><trkpt lat="44.3696137" lon="8.3243887"><ele>359.0</ele><time>2026-04-19T08:29:31.163Z</time></trkpt><trkpt lat="44.3696787" lon="8.3243018"><ele>359.0</ele><time>2026-04-19T08:29:33.163Z</time></trkpt><trkpt lat="44.3697378" lon="8.3241945"><ele>360.4</ele><time>2026-04-19T08:29:35.163Z</time></trkpt><trkpt lat="44.3697881" lon="8.3240825"><ele>361.79999999999995</ele><time>2026-04-19T08:29:37.163Z</time></trkpt><trkpt lat="44.3698399" lon="8.3239579"><ele>363.20000000000005</ele><time>2026-04-19T08:29:39.163Z</time></trkpt><trkpt lat="44.3698752" lon="8.3238397"><ele>364.6</ele><time>2026-04-19T08:29:41.163Z</time></trkpt><trkpt lat="44.3699037" lon="8.3237154"><ele>366.0</ele><time>2026-04-19T08:29:43.164Z</time></trkpt><trkpt lat="44.3699375" lon="8.3235913"><ele>366.0</ele><time>2026-04-19T08:29:45.163Z</time></trkpt><trkpt lat="44.3699727" lon="8.3234701"><ele>366.0</ele><time>2026-04-19T08:29:47.163Z</time></trkpt><trkpt lat="44.3700121" lon="8.3233411"><ele>366.0</ele><time>2026-04-19T08:29:49.164Z</time></trkpt><trkpt lat="44.3700416" lon="8.3232117"><ele>366.0</ele><time>2026-04-19T08:29:51.164Z</time></trkpt><trkpt lat="44.370077" lon="8.3230719"><ele>366.0</ele><time>2026-04-19T08:29:53.163Z</time></trkpt><trkpt lat="44.3701097" lon="8.3229332"><ele>364.8</ele><time>2026-04-19T08:29:55.164Z</time></trkpt><trkpt lat="44.3701351" lon="8.3227961"><ele>363.6</ele><time>2026-04-19T08:29:57.164Z</time></trkpt><trkpt lat="44.3701812" lon="8.3226554"><ele>362.4</ele><time>2026-04-19T08:29:59.165Z</time></trkpt><trkpt lat="44.3702356" lon="8.3225268"><ele>361.2</ele><time>2026-04-19T08:30:01.163Z</time></trkpt><trkpt lat="44.370305" lon="8.3224123"><ele>360.0</ele><time>2026-04-19T08:30:03.164Z</time></trkpt><trkpt lat="44.3703917" lon="8.3223105"><ele>360.0</ele><time>2026-04-19T08:30:05.164Z</time></trkpt><trkpt lat="44.370483" lon="8.3222346"><ele>360.0</ele><time>2026-04-19T08:30:07.162Z</time></trkpt><trkpt lat="44.3705832" lon="8.3221939"><ele>360.0</ele><time>2026-04-19T08:30:09.163Z</time></trkpt><trkpt lat="44.3706877" lon="8.3221785"><ele>360.0</ele><time>2026-04-19T08:30:11.162Z</time></trkpt><trkpt lat="44.3708017" lon="8.3221893"><ele>360.0</ele><time>2026-04-19T08:30:13.164Z</time></trkpt><trkpt lat="44.3708989" lon="8.3222245"><ele>362.0</ele><time>2026-04-19T08:30:15.162Z</time></trkpt><trkpt lat="44.3710065" lon="8.3222589"><ele>364.0</ele><time>2026-04-19T08:30:17.163Z</time></trkpt><trkpt lat="44.3711055" lon="8.3222909"><ele>366.0</ele><time>2026-04-19T08:30:19.164Z</time></trkpt><trkpt lat="44.3712074" lon="8.3223199"><ele>368.0</ele><time>2026-04-19T08:30:21.161Z</time></trkpt><trkpt lat="44.3713016" lon="8.322338"><ele>370.0</ele><time>2026-04-19T08:30:23.163Z</time></trkpt><trkpt lat="44.3714113" lon="8.3223193"><ele>369.2</ele><time>2026-04-19T08:30:25.162Z</time></trkpt><trkpt lat="44.3715097" lon="8.3222949"><ele>368.4</ele><time>2026-04-19T08:30:27.164Z</time></trkpt><trkpt lat="44.371604" lon="8.3222364"><ele>367.6</ele><time>2026-04-19T08:30:29.163Z</time></trkpt><trkpt lat="44.3716767" lon="8.3221558"><ele>366.8</ele><time>2026-04-19T08:30:31.163Z</time></trkpt><trkpt lat="44.3717651" lon="8.3220804"><ele>366.0</ele><time>2026-04-19T08:30:33.163Z</time></trkpt><trkpt lat="44.371839" lon="8.3219963"><ele>366.0</ele><time>2026-04-19T08:30:35.162Z</time></trkpt><trkpt lat="44.3719038" lon="8.3218926"><ele>366.0</ele><time>2026-04-19T08:30:37.163Z</time></trkpt><trkpt lat="44.3719635" lon="8.3217841"><ele>366.0</ele><time>2026-04-19T08:30:39.163Z</time></trkpt><trkpt lat="44.3720315" lon="8.3216756"><ele>366.0</ele><time>2026-04-19T08:30:41.163Z</time></trkpt><trkpt lat="44.3721011" lon="8.3215651"><ele>366.0</ele><time>2026-04-19T08:30:43.163Z</time></trkpt><trkpt lat="44.3721614" lon="8.3214501"><ele>369.4</ele><time>2026-04-19T08:30:45.164Z</time></trkpt><trkpt lat="44.3722186" lon="8.3213322"><ele>372.8</ele><time>2026-04-19T08:30:47.164Z</time></trkpt><trkpt lat="44.372285" lon="8.3212226"><ele>376.2</ele><time>2026-04-19T08:30:49.163Z</time></trkpt><trkpt lat="44.37235" lon="8.3211015"><ele>379.59999999999997</ele><time>2026-04-19T08:30:51.163Z</time></trkpt><trkpt lat="44.3724136" lon="8.320972"><ele>383.0</ele><time>2026-04-19T08:30:53.164Z</time></trkpt><trkpt lat="44.3724662" lon="8.320827"><ele>383.0</ele><time>2026-04-19T08:30:55.164Z</time></trkpt><trkpt lat="44.3725107" lon="8.3207061"><ele>383.0</ele><time>2026-04-19T08:30:57.164Z</time></trkpt><trkpt lat="44.3725399" lon="8.3205603"><ele>383.0</ele><time>2026-04-19T08:30:59.164Z</time></trkpt><trkpt lat="44.3725495" lon="8.3204706"><ele>383.0</ele><time>2026-04-19T08:31:00.163Z</time></trkpt><trkpt lat="44.3725786" lon="8.3203075"><ele>383.0</ele><time>2026-04-19T08:31:02.162Z</time></trkpt><trkpt lat="44.3726079" lon="8.3201505"><ele>380.2</ele><time>2026-04-19T08:31:04.163Z</time></trkpt><trkpt lat="44.3726178" lon="8.3200623"><ele>377.4</ele><time>2026-04-19T08:31:05.163Z</time></trkpt><trkpt lat="44.3726314" lon="8.3199684"><ele>374.59999999999997</ele><time>2026-04-19T08:31:06.163Z</time></trkpt><trkpt lat="44.3726504" lon="8.3198058"><ele>371.79999999999995</ele><time>2026-04-19T08:31:08.162Z</time></trkpt><trkpt lat="44.3726681" lon="8.3196405"><ele>369.0</ele><time>2026-04-19T08:31:10.161Z</time></trkpt><trkpt lat="44.3726909" lon="8.3194773"><ele>368.6</ele><time>2026-04-19T08:31:12.163Z</time></trkpt><trkpt lat="44.3726911" lon="8.3193888"><ele>368.2</ele><time>2026-04-19T08:31:13.163Z</time></trkpt><trkpt lat="44.3726904" lon="8.3192352"><ele>367.8</ele><time>2026-04-19T08:31:15.163Z</time></trkpt><trkpt lat="44.3726751" lon="8.3190772"><ele>367.40000000000003</ele><time>2026-04-19T08:31:17.163Z</time></trkpt><trkpt lat="44.3726566" lon="8.3189055"><ele>367.0</ele><time>2026-04-19T08:31:19.164Z</time></trkpt><trkpt lat="44.3726432" lon="8.3188151"><ele>367.0</ele><time>2026-04-19T08:31:20.164Z</time></trkpt><trkpt lat="44.3726311" lon="8.3187249"><ele>367.0</ele><time>2026-04-19T08:31:21.162Z</time></trkpt><trkpt lat="44.3726256" lon="8.3186308"><ele>367.0</ele><time>2026-04-19T08:31:22.163Z</time></trkpt><trkpt lat="44.3726149" lon="8.3185323"><ele>367.0</ele><time>2026-04-19T08:31:23.164Z</time></trkpt><trkpt lat="44.3726027" lon="8.3184336"><ele>367.0</ele><time>2026-04-19T08:31:24.163Z</time></trkpt><trkpt lat="44.3725878" lon="8.3183396"><ele>367.0</ele><time>2026-04-19T08:31:25.163Z</time></trkpt><trkpt lat="44.3725773" lon="8.318236"><ele>367.0</ele><time>2026-04-19T08:31:26.162Z</time></trkpt><trkpt lat="44.3725647" lon="8.3181332"><ele>366.66666666666663</ele><time>2026-04-19T08:31:27.164Z</time></trkpt><trkpt lat="44.3725541" lon="8.3180237"><ele>366.3333333333333</ele><time>2026-04-19T08:31:28.163Z</time></trkpt><trkpt lat="44.3725477" lon="8.3179034"><ele>366.0</ele><time>2026-04-19T08:31:29.163Z</time></trkpt><trkpt lat="44.3725487" lon="8.3177845"><ele>365.6666666666667</ele><time>2026-04-19T08:31:30.162Z</time></trkpt><trkpt lat="44.372552" lon="8.3176597"><ele>365.33333333333337</ele><time>2026-04-19T08:31:31.164Z</time></trkpt><trkpt lat="44.3725676" lon="8.3175323"><ele>365.0</ele><time>2026-04-19T08:31:32.162Z</time></trkpt><trkpt lat="44.3725878" lon="8.3174112"><ele>365.0</ele><time>2026-04-19T08:31:33.164Z</time></trkpt><trkpt lat="44.3726257" lon="8.3172724"><ele>365.0</ele><time>2026-04-19T08:31:34.163Z</time></trkpt><trkpt lat="44.3726736" lon="8.3171511"><ele>365.0</ele><time>2026-04-19T08:31:35.162Z</time></trkpt><trkpt lat="44.372713" lon="8.3170189"><ele>365.0</ele><time>2026-04-19T08:31:36.162Z</time></trkpt><trkpt lat="44.3727558" lon="8.3168832"><ele>365.0</ele><time>2026-04-19T08:31:37.161Z</time></trkpt><trkpt lat="44.3728014" lon="8.3167418"><ele>365.4</ele><time>2026-04-19T08:31:38.162Z</time></trkpt><trkpt lat="44.3728502" lon="8.3166153"><ele>365.8</ele><time>2026-04-19T08:31:39.163Z</time></trkpt><trkpt lat="44.372901" lon="8.3164825"><ele>366.20000000000005</ele><time>2026-04-19T08:31:40.162Z</time></trkpt><trkpt lat="44.3729453" lon="8.3163504"><ele>366.6</ele><time>2026-04-19T08:31:41.162Z</time></trkpt><trkpt lat="44.3729963" lon="8.3162171"><ele>367.0</ele><time>2026-04-19T08:31:42.163Z</time></trkpt><trkpt lat="44.3730462" lon="8.3160775"><ele>367.8</ele><time>2026-04-19T08:31:43.163Z</time></trkpt><trkpt lat="44.3730906" lon="8.3159387"><ele>368.6</ele><time>2026-04-19T08:31:44.162Z</time></trkpt><trkpt lat="44.373136" lon="8.3158145"><ele>369.40000000000003</ele><time>2026-04-19T08:31:45.162Z</time></trkpt><trkpt lat="44.3731828" lon="8.3156756"><ele>370.20000000000005</ele><time>2026-04-19T08:31:46.163Z</time></trkpt><trkpt lat="44.373228" lon="8.3155443"><ele>371.0</ele><time>2026-04-19T08:31:47.164Z</time></trkpt><trkpt lat="44.3732728" lon="8.3153959"><ele>369.0</ele><time>2026-04-19T08:31:48.163Z</time></trkpt><trkpt lat="44.3733214" lon="8.3152518"><ele>367.0</ele><time>2026-04-19T08:31:49.163Z</time></trkpt><trkpt lat="44.3733749" lon="8.315108"><ele>365.0</ele><time>2026-04-19T08:31:50.163Z</time></trkpt><trkpt lat="44.3734219" lon="8.3149648"><ele>363.0</ele><time>2026-04-19T08:31:51.163Z</time></trkpt><trkpt lat="44.373477" lon="8.3148218"><ele>361.25</ele><time>2026-04-19T08:31:52.163Z</time></trkpt><trkpt lat="44.3735303" lon="8.314675"><ele>359.5</ele><time>2026-04-19T08:31:53.163Z</time></trkpt><trkpt lat="44.3735766" lon="8.31453"><ele>357.75</ele><time>2026-04-19T08:31:54.164Z</time></trkpt><trkpt lat="44.3736284" lon="8.3143914"><ele>356.0</ele><time>2026-04-19T08:31:55.164Z</time></trkpt><trkpt lat="44.3736825" lon="8.3142541"><ele>356.0</ele><time>2026-04-19T08:31:56.162Z</time></trkpt><trkpt lat="44.3737335" lon="8.3141192"><ele>356.0</ele><time>2026-04-19T08:31:57.163Z</time></trkpt><trkpt lat="44.3737833" lon="8.3139823"><ele>356.0</ele><time>2026-04-19T08:31:58.162Z</time></trkpt><trkpt lat="44.3738312" lon="8.3138542"><ele>356.0</ele><time>2026-04-19T08:31:59.163Z</time></trkpt><trkpt lat="44.3738906" lon="8.3137224"><ele>356.0</ele><time>2026-04-19T08:32:00.161Z</time></trkpt><trkpt lat="44.3739345" lon="8.3136009"><ele>355.0</ele><time>2026-04-19T08:32:01.164Z</time></trkpt><trkpt lat="44.3739799" lon="8.3134795"><ele>354.0</ele><time>2026-04-19T08:32:02.162Z</time></trkpt><trkpt lat="44.374023" lon="8.3133652"><ele>353.0</ele><time>2026-04-19T08:32:03.164Z</time></trkpt><trkpt lat="44.3740685" lon="8.3132497"><ele>352.0</ele><time>2026-04-19T08:32:04.162Z</time></trkpt><trkpt lat="44.3741102" lon="8.3131369"><ele>351.0</ele><time>2026-04-19T08:32:05.162Z</time></trkpt><trkpt lat="44.374153" lon="8.3130192"><ele>351.0</ele><time>2026-04-19T08:32:06.163Z</time></trkpt><trkpt lat="44.374193" lon="8.3129145"><ele>351.0</ele><time>2026-04-19T08:32:07.164Z</time></trkpt><trkpt lat="44.3742295" lon="8.312816"><ele>351.0</ele><time>2026-04-19T08:32:08.163Z</time></trkpt><trkpt lat="44.3742712" lon="8.3127081"><ele>351.0</ele><time>2026-04-19T08:32:09.164Z</time></trkpt><trkpt lat="44.3743044" lon="8.3126071"><ele>351.0</ele><time>2026-04-19T08:32:10.163Z</time></trkpt><trkpt lat="44.3743386" lon="8.3125101"><ele>351.0</ele><time>2026-04-19T08:32:11.162Z</time></trkpt><trkpt lat="44.374372" lon="8.3124155"><ele>351.00000000000006</ele><time>2026-04-19T08:32:12.162Z</time></trkpt><trkpt lat="44.3744076" lon="8.3123211"><ele>351.0</ele><time>2026-04-19T08:32:13.164Z</time></trkpt><trkpt lat="44.3744389" lon="8.3122248"><ele>351.0</ele><time>2026-04-19T08:32:14.164Z</time></trkpt><trkpt lat="44.3744766" lon="8.3121354"><ele>351.0</ele><time>2026-04-19T08:32:15.163Z</time></trkpt><trkpt lat="44.3745115" lon="8.3120445"><ele>351.0</ele><time>2026-04-19T08:32:16.164Z</time></trkpt><trkpt lat="44.3745399" lon="8.3119566"><ele>351.00000000000006</ele><time>2026-04-19T08:32:17.162Z</time></trkpt><trkpt lat="44.3745639" lon="8.3118682"><ele>351.0</ele><time>2026-04-19T08:32:18.164Z</time></trkpt><trkpt lat="44.374596" lon="8.3116975"><ele>351.0</ele><time>2026-04-19T08:32:20.163Z</time></trkpt><trkpt lat="44.3746153" lon="8.311613"><ele>351.0</ele><time>2026-04-19T08:32:21.162Z</time></trkpt><trkpt lat="44.3746368" lon="8.3115292"><ele>351.0</ele><time>2026-04-19T08:32:22.163Z</time></trkpt><trkpt lat="44.3746686" lon="8.3114494"><ele>351.0</ele><time>2026-04-19T08:32:23.162Z</time></trkpt><trkpt lat="44.374701" lon="8.3112926"><ele>351.0</ele><time>2026-04-19T08:32:25.162Z</time></trkpt><trkpt lat="44.3747318" lon="8.311132"><ele>351.0</ele><time>2026-04-19T08:32:27.162Z</time></trkpt><trkpt lat="44.3747555" lon="8.3109779"><ele>351.8</ele><time>2026-04-19T08:32:29.162Z</time></trkpt><trkpt lat="44.3747871" lon="8.3108117"><ele>352.6</ele><time>2026-04-19T08:32:31.163Z</time></trkpt><trkpt lat="44.3748143" lon="8.3106757"><ele>353.4</ele><time>2026-04-19T08:32:33.163Z</time></trkpt><trkpt lat="44.374829" lon="8.3105265"><ele>354.2</ele><time>2026-04-19T08:32:35.163Z</time></trkpt><trkpt lat="44.3748334" lon="8.3103846"><ele>355.0</ele><time>2026-04-19T08:32:37.164Z</time></trkpt><trkpt lat="44.37484" lon="8.3102372"><ele>356.0</ele><time>2026-04-19T08:32:39.163Z</time></trkpt><trkpt lat="44.3748384" lon="8.3100857"><ele>357.0</ele><time>2026-04-19T08:32:41.163Z</time></trkpt><trkpt lat="44.3748347" lon="8.3099197"><ele>358.0</ele><time>2026-04-19T08:32:43.163Z</time></trkpt><trkpt lat="44.37484" lon="8.3097658"><ele>359.0</ele><time>2026-04-19T08:32:45.163Z</time></trkpt><trkpt lat="44.3748562" lon="8.3096145"><ele>360.0</ele><time>2026-04-19T08:32:47.163Z</time></trkpt><trkpt lat="44.3748521" lon="8.3094667"><ele>360.0</ele><time>2026-04-19T08:32:49.163Z</time></trkpt><trkpt lat="44.3748529" lon="8.3093128"><ele>360.0</ele><time>2026-04-19T08:32:51.163Z</time></trkpt><trkpt lat="44.3748602" lon="8.3091594"><ele>360.0</ele><time>2026-04-19T08:32:53.163Z</time></trkpt><trkpt lat="44.374869" lon="8.3090038"><ele>360.0</ele><time>2026-04-19T08:32:55.164Z</time></trkpt><trkpt lat="44.3748695" lon="8.3088529"><ele>360.0</ele><time>2026-04-19T08:32:57.163Z</time></trkpt><trkpt lat="44.3748764" lon="8.3086962"><ele>358.8</ele><time>2026-04-19T08:32:59.164Z</time></trkpt><trkpt lat="44.3748908" lon="8.3085409"><ele>357.6</ele><time>2026-04-19T08:33:01.163Z</time></trkpt><trkpt lat="44.3749108" lon="8.3083906"><ele>356.4</ele><time>2026-04-19T08:33:03.164Z</time></trkpt><trkpt lat="44.3749278" lon="8.308254"><ele>355.2</ele><time>2026-04-19T08:33:05.164Z</time></trkpt><trkpt lat="44.3749444" lon="8.3081293"><ele>354.0</ele><time>2026-04-19T08:33:07.162Z</time></trkpt><trkpt lat="44.3749698" lon="8.3079939"><ele>353.5</ele><time>2026-04-19T08:33:09.161Z</time></trkpt><trkpt lat="44.3749989" lon="8.3078664"><ele>353.0</ele><time>2026-04-19T08:33:11.163Z</time></trkpt><trkpt lat="44.3750276" lon="8.307745"><ele>352.5</ele><time>2026-04-19T08:33:13.163Z</time></trkpt><trkpt lat="44.3750523" lon="8.3076273"><ele>352.0</ele><time>2026-04-19T08:33:15.163Z</time></trkpt><trkpt lat="44.3750752" lon="8.3075115"><ele>351.5</ele><time>2026-04-19T08:33:17.162Z</time></trkpt><trkpt lat="44.3751048" lon="8.3074075"><ele>351.0</ele><time>2026-04-19T08:33:19.163Z</time></trkpt><trkpt lat="44.375127" lon="8.3072876"><ele>350.8</ele><time>2026-04-19T08:33:21.164Z</time></trkpt><trkpt lat="44.3751362" lon="8.3071556"><ele>350.6</ele><time>2026-04-19T08:33:23.163Z</time></trkpt><trkpt lat="44.3751276" lon="8.307038"><ele>350.4</ele><time>2026-04-19T08:33:25.163Z</time></trkpt><trkpt lat="44.3751158" lon="8.3069166"><ele>350.2</ele><time>2026-04-19T08:33:27.161Z</time></trkpt><trkpt lat="44.3751087" lon="8.3067926"><ele>350.0</ele><time>2026-04-19T08:33:29.163Z</time></trkpt><trkpt lat="44.375081" lon="8.3066626"><ele>350.0</ele><time>2026-04-19T08:33:31.162Z</time></trkpt><trkpt lat="44.3750529" lon="8.306524"><ele>350.0</ele><time>2026-04-19T08:33:33.164Z</time></trkpt><trkpt lat="44.3750271" lon="8.3063787"><ele>350.0</ele><time>2026-04-19T08:33:35.162Z</time></trkpt><trkpt lat="44.3750181" lon="8.3062176"><ele>350.0</ele><time>2026-04-19T08:33:37.162Z</time></trkpt><trkpt lat="44.3750093" lon="8.3060657"><ele>350.0</ele><time>2026-04-19T08:33:39.163Z</time></trkpt><trkpt lat="44.3750007" lon="8.3059047"><ele>349.6</ele><time>2026-04-19T08:33:41.163Z</time></trkpt><trkpt lat="44.3749905" lon="8.3057665"><ele>349.2</ele><time>2026-04-19T08:33:43.163Z</time></trkpt><trkpt lat="44.3749928" lon="8.3056255"><ele>348.79999999999995</ele><time>2026-04-19T08:33:45.162Z</time></trkpt><trkpt lat="44.3749896" lon="8.3054852"><ele>348.4</ele><time>2026-04-19T08:33:47.162Z</time></trkpt><trkpt lat="44.3749807" lon="8.3053517"><ele>348.0</ele><time>2026-04-19T08:33:49.164Z</time></trkpt><trkpt lat="44.3749703" lon="8.3052152"><ele>347.8333333333333</ele><time>2026-04-19T08:33:51.164Z</time></trkpt><trkpt lat="44.3749177" lon="8.3051249"><ele>347.6666666666667</ele><time>2026-04-19T08:33:53.164Z</time></trkpt><trkpt lat="44.3748286" lon="8.305072"><ele>347.5</ele><time>2026-04-19T08:33:55.163Z</time></trkpt><trkpt lat="44.3747391" lon="8.3050535"><ele>347.33333333333337</ele><time>2026-04-19T08:33:57.163Z</time></trkpt><trkpt lat="44.3746559" lon="8.3050554"><ele>347.1666666666667</ele><time>2026-04-19T08:33:59.164Z</time></trkpt><trkpt lat="44.3745754" lon="8.3050491"><ele>347.0</ele><time>2026-04-19T08:34:01.162Z</time></trkpt><trkpt lat="44.374483" lon="8.305077"><ele>346.6</ele><time>2026-04-19T08:34:03.162Z</time></trkpt><trkpt lat="44.3743959" lon="8.3050956"><ele>346.20000000000005</ele><time>2026-04-19T08:34:05.162Z</time></trkpt><trkpt lat="44.3742974" lon="8.3051"><ele>345.8</ele><time>2026-04-19T08:34:07.163Z</time></trkpt><trkpt lat="44.3741991" lon="8.3051309"><ele>345.4</ele><time>2026-04-19T08:34:09.161Z</time></trkpt><trkpt lat="44.3741015" lon="8.3051474"><ele>345.0</ele><time>2026-04-19T08:34:11.162Z</time></trkpt><trkpt lat="44.3739994" lon="8.3051524"><ele>345.0</ele><time>2026-04-19T08:34:13.162Z</time></trkpt><trkpt lat="44.3738879" lon="8.3051454"><ele>345.0</ele><time>2026-04-19T08:34:15.164Z</time></trkpt><trkpt lat="44.3737675" lon="8.3051445"><ele>345.0</ele><time>2026-04-19T08:34:17.162Z</time></trkpt><trkpt lat="44.3736564" lon="8.3051091"><ele>345.0</ele><time>2026-04-19T08:34:19.163Z</time></trkpt><trkpt lat="44.3735646" lon="8.3050265"><ele>345.0</ele><time>2026-04-19T08:34:21.163Z</time></trkpt><trkpt lat="44.3735151" lon="8.3049717"><ele>345.0</ele><time>2026-04-19T08:34:22.162Z</time></trkpt><trkpt lat="44.3734127" lon="8.3048675"><ele>345.0</ele><time>2026-04-19T08:34:24.163Z</time></trkpt><trkpt lat="44.3732943" lon="8.3048136"><ele>345.0</ele><time>2026-04-19T08:34:26.163Z</time></trkpt><trkpt lat="44.373175" lon="8.3048058"><ele>345.0</ele><time>2026-04-19T08:34:28.163Z</time></trkpt><trkpt lat="44.3730644" lon="8.3048247"><ele>345.2</ele><time>2026-04-19T08:34:30.163Z</time></trkpt><trkpt lat="44.3729655" lon="8.3048396"><ele>345.4</ele><time>2026-04-19T08:34:32.163Z</time></trkpt><trkpt lat="44.3728559" lon="8.3048754"><ele>345.6</ele><time>2026-04-19T08:34:34.161Z</time></trkpt><trkpt lat="44.3727826" lon="8.3049722"><ele>345.8</ele><time>2026-04-19T08:34:36.162Z</time></trkpt><trkpt lat="44.3727667" lon="8.3051"><ele>346.0</ele><time>2026-04-19T08:34:38.163Z</time></trkpt><trkpt lat="44.372786" lon="8.3052373"><ele>346.0</ele><time>2026-04-19T08:34:40.162Z</time></trkpt><trkpt lat="44.3728345" lon="8.3053582"><ele>346.0</ele><time>2026-04-19T08:34:42.162Z</time></trkpt><trkpt lat="44.3728862" lon="8.3054771"><ele>346.0</ele><time>2026-04-19T08:34:44.162Z</time></trkpt><trkpt lat="44.3729346" lon="8.3055821"><ele>346.0</ele><time>2026-04-19T08:34:46.163Z</time></trkpt><trkpt lat="44.3729754" lon="8.3056984"><ele>346.0</ele><time>2026-04-19T08:34:48.162Z</time></trkpt><trkpt lat="44.3730196" lon="8.3057979"><ele>345.66666666666663</ele><time>2026-04-19T08:34:50.163Z</time></trkpt><trkpt lat="44.3730528" lon="8.3058921"><ele>345.3333333333333</ele><time>2026-04-19T08:34:52.163Z</time></trkpt><trkpt lat="44.373084" lon="8.3059768"><ele>345.0</ele><time>2026-04-19T08:34:54.163Z</time></trkpt><trkpt lat="44.3730631" lon="8.3060881"><ele>344.6666666666667</ele><time>2026-04-19T08:34:57.163Z</time></trkpt><trkpt lat="44.3730054" lon="8.3061674"><ele>344.33333333333337</ele><time>2026-04-19T08:34:59.163Z</time></trkpt><trkpt lat="44.3729563" lon="8.3062553"><ele>344.0</ele><time>2026-04-19T08:35:01.161Z</time></trkpt><trkpt lat="44.3728854" lon="8.306322"><ele>345.5</ele><time>2026-04-19T08:35:04.162Z</time></trkpt><trkpt lat="44.372825" lon="8.3063995"><ele>347.0</ele><time>2026-04-19T08:35:07.162Z</time></trkpt><trkpt lat="44.3727563" lon="8.306459"><ele>348.5</ele><time>2026-04-19T08:35:11.163Z</time></trkpt><trkpt lat="44.3727006" lon="8.3065147"><ele>350.0</ele><time>2026-04-19T08:35:14.163Z</time></trkpt><trkpt lat="44.3726388" lon="8.306596"><ele>351.5</ele><time>2026-04-19T08:35:17.163Z</time></trkpt><trkpt lat="44.3725736" lon="8.306651"><ele>353.0</ele><time>2026-04-19T08:35:21.163Z</time></trkpt><trkpt lat="44.3724873" lon="8.3066377"><ele>353.0</ele><time>2026-04-19T08:35:25.164Z</time></trkpt><trkpt lat="44.3724247" lon="8.3065905"><ele>353.0</ele><time>2026-04-19T08:35:28.163Z</time></trkpt><trkpt lat="44.3723968" lon="8.3064908"><ele>353.0</ele><time>2026-04-19T08:35:31.163Z</time></trkpt><trkpt lat="44.3723701" lon="8.3063751"><ele>353.0</ele><time>2026-04-19T08:35:34.163Z</time></trkpt><trkpt lat="44.3723549" lon="8.3062527"><ele>353.0</ele><time>2026-04-19T08:35:37.162Z</time></trkpt><trkpt lat="44.3723332" lon="8.3061699"><ele>353.0</ele><time>2026-04-19T08:35:39.162Z</time></trkpt><trkpt lat="44.3723029" lon="8.3060796"><ele>353.0</ele><time>2026-04-19T08:35:41.163Z</time></trkpt><trkpt lat="44.3722708" lon="8.3059897"><ele>353.0</ele><time>2026-04-19T08:35:43.162Z</time></trkpt><trkpt lat="44.372234" lon="8.3058985"><ele>353.0</ele><time>2026-04-19T08:35:45.162Z</time></trkpt><trkpt lat="44.3722004" lon="8.3058079"><ele>353.0</ele><time>2026-04-19T08:35:47.163Z</time></trkpt><trkpt lat="44.3721591" lon="8.3057216"><ele>353.0</ele><time>2026-04-19T08:35:49.163Z</time></trkpt><trkpt lat="44.37212" lon="8.3056351"><ele>353.0</ele><time>2026-04-19T08:35:51.163Z</time></trkpt><trkpt lat="44.3720813" lon="8.3055519"><ele>353.0</ele><time>2026-04-19T08:35:53.163Z</time></trkpt><trkpt lat="44.3720413" lon="8.3054778"><ele>353.2857142857143</ele><time>2026-04-19T08:35:55.162Z</time></trkpt><trkpt lat="44.3720033" lon="8.3054032"><ele>353.5714285714286</ele><time>2026-04-19T08:35:57.162Z</time></trkpt><trkpt lat="44.3719565" lon="8.3053106"><ele>353.8571428571429</ele><time>2026-04-19T08:35:59.162Z</time></trkpt><trkpt lat="44.3719189" lon="8.3052203"><ele>354.1428571428571</ele><time>2026-04-19T08:36:01.163Z</time></trkpt><trkpt lat="44.3718785" lon="8.3051417"><ele>354.42857142857144</ele><time>2026-04-19T08:36:03.163Z</time></trkpt><trkpt lat="44.3718382" lon="8.3050612"><ele>354.7142857142857</ele><time>2026-04-19T08:36:05.163Z</time></trkpt><trkpt lat="44.3718006" lon="8.3049811"><ele>355.0</ele><time>2026-04-19T08:36:07.162Z</time></trkpt><trkpt lat="44.3717373" lon="8.3048872"><ele>355.0</ele><time>2026-04-19T08:36:10.163Z</time></trkpt><trkpt lat="44.3716725" lon="8.3048454"><ele>355.0</ele><time>2026-04-19T08:36:13.161Z</time></trkpt><trkpt lat="44.3716041" lon="8.3048723"><ele>355.0</ele><time>2026-04-19T08:36:16.161Z</time></trkpt><trkpt lat="44.3715655" lon="8.3049796"><ele>355.0</ele><time>2026-04-19T08:36:19.162Z</time></trkpt><trkpt lat="44.3715513" lon="8.3050828"><ele>355.0</ele><time>2026-04-19T08:36:22.163Z</time></trkpt><trkpt lat="44.3715262" lon="8.3051712"><ele>355.0</ele><time>2026-04-19T08:36:25.163Z</time></trkpt><trkpt lat="44.3714842" lon="8.3052632"><ele>355.0</ele><time>2026-04-19T08:36:28.163Z</time></trkpt><trkpt lat="44.3714362" lon="8.3053239"><ele>355.0</ele><time>2026-04-19T08:36:30.163Z</time></trkpt><trkpt lat="44.3713757" lon="8.3054093"><ele>355.0</ele><time>2026-04-19T08:36:33.163Z</time></trkpt><trkpt lat="44.3713298" lon="8.3054908"><ele>355.0</ele><time>2026-04-19T08:36:36.163Z</time></trkpt><trkpt lat="44.3712765" lon="8.3055753"><ele>355.0</ele><time>2026-04-19T08:36:39.163Z</time></trkpt><trkpt lat="44.3712117" lon="8.3056408"><ele>355.0</ele><time>2026-04-19T08:36:42.163Z</time></trkpt><trkpt lat="44.3711551" lon="8.3057022"><ele>355.0</ele><time>2026-04-19T08:36:45.163Z</time></trkpt><trkpt lat="44.3710919" lon="8.3057762"><ele>356.5</ele><time>2026-04-19T08:36:48.163Z</time></trkpt><trkpt lat="44.3710282" lon="8.3058576"><ele>358.0</ele><time>2026-04-19T08:36:51.163Z</time></trkpt><trkpt lat="44.3709749" lon="8.3059517"><ele>359.5</ele><time>2026-04-19T08:36:54.163Z</time></trkpt><trkpt lat="44.3709088" lon="8.306034"><ele>361.0</ele><time>2026-04-19T08:36:57.162Z</time></trkpt><trkpt lat="44.3708337" lon="8.3061156"><ele>362.5</ele><time>2026-04-19T08:37:00.163Z</time></trkpt><trkpt lat="44.3707639" lon="8.3061967"><ele>364.0</ele><time>2026-04-19T08:37:03.163Z</time></trkpt><trkpt lat="44.3706909" lon="8.3062798"><ele>364.0</ele><time>2026-04-19T08:37:06.161Z</time></trkpt><trkpt lat="44.3706398" lon="8.3063414"><ele>364.0</ele><time>2026-04-19T08:37:08.163Z</time></trkpt><trkpt lat="44.370582" lon="8.3063964"><ele>364.0</ele><time>2026-04-19T08:37:10.162Z</time></trkpt><trkpt lat="44.3705298" lon="8.3064688"><ele>364.0</ele><time>2026-04-19T08:37:12.163Z</time></trkpt><trkpt lat="44.3704811" lon="8.3065299"><ele>364.0</ele><time>2026-04-19T08:37:14.163Z</time></trkpt><trkpt lat="44.3704151" lon="8.3066235"><ele>364.0</ele><time>2026-04-19T08:37:17.162Z</time></trkpt><trkpt lat="44.3703465" lon="8.3067048"><ele>364.5</ele><time>2026-04-19T08:37:20.163Z</time></trkpt><trkpt lat="44.3702813" lon="8.3067877"><ele>365.0</ele><time>2026-04-19T08:37:23.161Z</time></trkpt><trkpt lat="44.3702323" lon="8.3068813"><ele>365.5</ele><time>2026-04-19T08:37:26.163Z</time></trkpt><trkpt lat="44.3701873" lon="8.3069855"><ele>366.0</ele><time>2026-04-19T08:37:29.162Z</time></trkpt><trkpt lat="44.3701531" lon="8.3070614"><ele>366.5</ele><time>2026-04-19T08:37:31.161Z</time></trkpt><trkpt lat="44.3701197" lon="8.3071467"><ele>367.0</ele><time>2026-04-19T08:37:33.162Z</time></trkpt><trkpt lat="44.3700775" lon="8.30723"><ele>368.40000000000003</ele><time>2026-04-19T08:37:35.162Z</time></trkpt><trkpt lat="44.3700354" lon="8.3073125"><ele>369.8</ele><time>2026-04-19T08:37:37.162Z</time></trkpt><trkpt lat="44.3699826" lon="8.3074262"><ele>371.2</ele><time>2026-04-19T08:37:39.162Z</time></trkpt><trkpt lat="44.3699391" lon="8.3075563"><ele>372.6</ele><time>2026-04-19T08:37:41.161Z</time></trkpt><trkpt lat="44.369889" lon="8.307614"><ele>374.0</ele><time>2026-04-19T08:37:42.163Z</time></trkpt><trkpt lat="44.3697842" lon="8.3077056"><ele>375.0</ele><time>2026-04-19T08:37:44.162Z</time></trkpt><trkpt lat="44.36966" lon="8.3076698"><ele>376.0</ele><time>2026-04-19T08:37:46.163Z</time></trkpt><trkpt lat="44.3696198" lon="8.3075245"><ele>377.0</ele><time>2026-04-19T08:37:48.161Z</time></trkpt><trkpt lat="44.3696122" lon="8.307373"><ele>378.0</ele><time>2026-04-19T08:37:50.163Z</time></trkpt><trkpt lat="44.3696159" lon="8.3072079"><ele>378.0</ele><time>2026-04-19T08:37:52.162Z</time></trkpt><trkpt lat="44.3695945" lon="8.3070385"><ele>378.0</ele><time>2026-04-19T08:37:54.162Z</time></trkpt><trkpt lat="44.3695638" lon="8.3069535"><ele>378.0</ele><time>2026-04-19T08:37:55.163Z</time></trkpt><trkpt lat="44.3695418" lon="8.306869"><ele>378.0</ele><time>2026-04-19T08:37:56.163Z</time></trkpt><trkpt lat="44.3695295" lon="8.3067789"><ele>378.0</ele><time>2026-04-19T08:37:57.163Z</time></trkpt><trkpt lat="44.369489" lon="8.3066319"><ele>378.0</ele><time>2026-04-19T08:37:59.162Z</time></trkpt><trkpt lat="44.3694326" lon="8.3065153"><ele>378.0</ele><time>2026-04-19T08:38:01.163Z</time></trkpt><trkpt lat="44.369378" lon="8.306443"><ele>378.0</ele><time>2026-04-19T08:38:03.161Z</time></trkpt><trkpt lat="44.3693264" lon="8.3063793"><ele>378.0</ele><time>2026-04-19T08:38:05.161Z</time></trkpt><trkpt lat="44.3692785" lon="8.306298"><ele>378.0</ele><time>2026-04-19T08:38:07.162Z</time></trkpt><trkpt lat="44.3692206" lon="8.3062128"><ele>378.0</ele><time>2026-04-19T08:38:09.163Z</time></trkpt><trkpt lat="44.3691549" lon="8.3061244"><ele>378.0</ele><time>2026-04-19T08:38:11.163Z</time></trkpt><trkpt lat="44.3690913" lon="8.3060354"><ele>377.0</ele><time>2026-04-19T08:38:13.163Z</time></trkpt><trkpt lat="44.3690249" lon="8.3059455"><ele>376.0</ele><time>2026-04-19T08:38:15.163Z</time></trkpt><trkpt lat="44.3689454" lon="8.3058625"><ele>375.0</ele><time>2026-04-19T08:38:17.162Z</time></trkpt><trkpt lat="44.3688508" lon="8.3057832"><ele>374.0</ele><time>2026-04-19T08:38:19.161Z</time></trkpt><trkpt lat="44.3687479" lon="8.3056859"><ele>373.0</ele><time>2026-04-19T08:38:21.162Z</time></trkpt><trkpt lat="44.3687012" lon="8.3056191"><ele>371.4</ele><time>2026-04-19T08:38:22.163Z</time></trkpt><trkpt lat="44.3686325" lon="8.3054678"><ele>369.79999999999995</ele><time>2026-04-19T08:38:24.162Z</time></trkpt><trkpt lat="44.3685904" lon="8.305375"><ele>368.2</ele><time>2026-04-19T08:38:25.163Z</time></trkpt><trkpt lat="44.3685468" lon="8.3052798"><ele>366.6</ele><time>2026-04-19T08:38:26.163Z</time></trkpt><trkpt lat="44.3684994" lon="8.3051793"><ele>365.0</ele><time>2026-04-19T08:38:27.161Z</time></trkpt><trkpt lat="44.368447" lon="8.3050715"><ele>365.0</ele><time>2026-04-19T08:38:28.161Z</time></trkpt><trkpt lat="44.3684032" lon="8.3049506"><ele>365.0</ele><time>2026-04-19T08:38:29.162Z</time></trkpt><trkpt lat="44.368358" lon="8.3048236"><ele>365.0</ele><time>2026-04-19T08:38:30.162Z</time></trkpt><trkpt lat="44.3683267" lon="8.3046936"><ele>365.0</ele><time>2026-04-19T08:38:31.163Z</time></trkpt><trkpt lat="44.3683127" lon="8.3045558"><ele>365.0</ele><time>2026-04-19T08:38:32.162Z</time></trkpt><trkpt lat="44.3683066" lon="8.3044163"><ele>364.4</ele><time>2026-04-19T08:38:33.163Z</time></trkpt><trkpt lat="44.3683155" lon="8.3042717"><ele>363.8</ele><time>2026-04-19T08:38:34.162Z</time></trkpt><trkpt lat="44.368323" lon="8.3041389"><ele>363.20000000000005</ele><time>2026-04-19T08:38:35.162Z</time></trkpt><trkpt lat="44.3683467" lon="8.3039827"><ele>362.6</ele><time>2026-04-19T08:38:36.163Z</time></trkpt><trkpt lat="44.3683591" lon="8.3038651"><ele>362.0</ele><time>2026-04-19T08:38:37.163Z</time></trkpt><trkpt lat="44.3683861" lon="8.3037185"><ele>362.0</ele><time>2026-04-19T08:38:38.162Z</time></trkpt><trkpt lat="44.3684035" lon="8.303598"><ele>362.0</ele><time>2026-04-19T08:38:39.162Z</time></trkpt><trkpt lat="44.3684214" lon="8.30345"><ele>362.0</ele><time>2026-04-19T08:38:40.162Z</time></trkpt><trkpt lat="44.3683948" lon="8.3033194"><ele>362.0</ele><time>2026-04-19T08:38:41.162Z</time></trkpt><trkpt lat="44.3683538" lon="8.303192"><ele>362.0</ele><time>2026-04-19T08:38:42.163Z</time></trkpt><trkpt lat="44.3683211" lon="8.3030824"><ele>361.85714285714283</ele><time>2026-04-19T08:38:43.163Z</time></trkpt><trkpt lat="44.3682939" lon="8.3029916"><ele>361.71428571428567</ele><time>2026-04-19T08:38:44.163Z</time></trkpt><trkpt lat="44.3682594" lon="8.3028906"><ele>361.57142857142856</ele><time>2026-04-19T08:38:45.162Z</time></trkpt><trkpt lat="44.3682206" lon="8.3027897"><ele>361.42857142857144</ele><time>2026-04-19T08:38:46.162Z</time></trkpt><trkpt lat="44.3681845" lon="8.3027159"><ele>361.2857142857143</ele><time>2026-04-19T08:38:47.162Z</time></trkpt><trkpt lat="44.3681535" lon="8.3026174"><ele>361.14285714285717</ele><time>2026-04-19T08:38:48.162Z</time></trkpt><trkpt lat="44.3681359" lon="8.302524"><ele>361.0</ele><time>2026-04-19T08:38:49.162Z</time></trkpt><trkpt lat="44.3681131" lon="8.3024233"><ele>361.0</ele><time>2026-04-19T08:38:50.163Z</time></trkpt><trkpt lat="44.3680847" lon="8.3023288"><ele>361.0</ele><time>2026-04-19T08:38:51.163Z</time></trkpt><trkpt lat="44.3680693" lon="8.3021571"><ele>361.0</ele><time>2026-04-19T08:38:53.162Z</time></trkpt><trkpt lat="44.368063" lon="8.3020584"><ele>361.0</ele><time>2026-04-19T08:38:54.163Z</time></trkpt><trkpt lat="44.3680558" lon="8.3019691"><ele>361.0</ele><time>2026-04-19T08:38:55.161Z</time></trkpt><trkpt lat="44.3680598" lon="8.3018794"><ele>361.0</ele><time>2026-04-19T08:38:56.162Z</time></trkpt><trkpt lat="44.368077" lon="8.3017193"><ele>361.0</ele><time>2026-04-19T08:38:58.163Z</time></trkpt><trkpt lat="44.3680667" lon="8.3015875"><ele>361.0</ele><time>2026-04-19T08:39:00.162Z</time></trkpt><trkpt lat="44.3680669" lon="8.301469"><ele>361.0</ele><time>2026-04-19T08:39:02.162Z</time></trkpt><trkpt lat="44.3680474" lon="8.3013672"><ele>361.0</ele><time>2026-04-19T08:39:04.161Z</time></trkpt><trkpt lat="44.3680394" lon="8.3012523"><ele>361.0</ele><time>2026-04-19T08:39:06.163Z</time></trkpt><trkpt lat="44.3680204" lon="8.3011591"><ele>361.0</ele><time>2026-04-19T08:39:08.162Z</time></trkpt><trkpt lat="44.3679834" lon="8.3010765"><ele>361.5714285714286</ele><time>2026-04-19T08:39:10.162Z</time></trkpt><trkpt lat="44.3679427" lon="8.3009967"><ele>362.1428571428571</ele><time>2026-04-19T08:39:12.161Z</time></trkpt><trkpt lat="44.3679114" lon="8.3009049"><ele>362.7142857142857</ele><time>2026-04-19T08:39:14.163Z</time></trkpt><trkpt lat="44.3678772" lon="8.3008292"><ele>363.28571428571433</ele><time>2026-04-19T08:39:16.162Z</time></trkpt><trkpt lat="44.3678372" lon="8.300751"><ele>363.8571428571429</ele><time>2026-04-19T08:39:18.163Z</time></trkpt><trkpt lat="44.3677966" lon="8.3006575"><ele>364.42857142857144</ele><time>2026-04-19T08:39:20.163Z</time></trkpt><trkpt lat="44.3677708" lon="8.3005448"><ele>365.0</ele><time>2026-04-19T08:39:22.162Z</time></trkpt><trkpt lat="44.3678202" lon="8.300429"><ele>363.4</ele><time>2026-04-19T08:39:24.163Z</time></trkpt><trkpt lat="44.3679146" lon="8.3003697"><ele>361.8</ele><time>2026-04-19T08:39:26.162Z</time></trkpt><trkpt lat="44.3680213" lon="8.3003063"><ele>360.20000000000005</ele><time>2026-04-19T08:39:28.162Z</time></trkpt><trkpt lat="44.3681327" lon="8.3002413"><ele>358.6</ele><time>2026-04-19T08:39:30.162Z</time></trkpt><trkpt lat="44.3681903" lon="8.3001973"><ele>357.0</ele><time>2026-04-19T08:39:31.163Z</time></trkpt><trkpt lat="44.3682469" lon="8.30015"><ele>356.85714285714283</ele><time>2026-04-19T08:39:32.162Z</time></trkpt><trkpt lat="44.3683009" lon="8.3000977"><ele>356.7142857142857</ele><time>2026-04-19T08:39:33.162Z</time></trkpt><trkpt lat="44.3683536" lon="8.3000296"><ele>356.57142857142856</ele><time>2026-04-19T08:39:34.162Z</time></trkpt><trkpt lat="44.3683982" lon="8.2999524"><ele>356.42857142857144</ele><time>2026-04-19T08:39:35.161Z</time></trkpt><trkpt lat="44.3684345" lon="8.2998628"><ele>356.2857142857143</ele><time>2026-04-19T08:39:36.162Z</time></trkpt><trkpt lat="44.3684624" lon="8.2997745"><ele>356.1428571428571</ele><time>2026-04-19T08:39:37.161Z</time></trkpt><trkpt lat="44.3684841" lon="8.2996743"><ele>356.0</ele><time>2026-04-19T08:39:38.162Z</time></trkpt><trkpt lat="44.3684774" lon="8.299586"><ele>355.33333333333337</ele><time>2026-04-19T08:39:39.162Z</time></trkpt><trkpt lat="44.3684599" lon="8.2994847"><ele>354.6666666666667</ele><time>2026-04-19T08:39:40.162Z</time></trkpt><trkpt lat="44.3684298" lon="8.2993877"><ele>354.0</ele><time>2026-04-19T08:39:41.163Z</time></trkpt><trkpt lat="44.3683982" lon="8.2992933"><ele>353.3333333333333</ele><time>2026-04-19T08:39:42.162Z</time></trkpt><trkpt lat="44.3683683" lon="8.2992009"><ele>352.66666666666663</ele><time>2026-04-19T08:39:43.163Z</time></trkpt><trkpt lat="44.3683283" lon="8.299107"><ele>352.0</ele><time>2026-04-19T08:39:44.163Z</time></trkpt><trkpt lat="44.3682745" lon="8.2989872"><ele>352.16666666666663</ele><time>2026-04-19T08:39:45.163Z</time></trkpt><trkpt lat="44.3682461" lon="8.2988931"><ele>352.3333333333333</ele><time>2026-04-19T08:39:46.162Z</time></trkpt><trkpt lat="44.3682421" lon="8.2987476"><ele>352.5</ele><time>2026-04-19T08:39:47.163Z</time></trkpt><trkpt lat="44.36823" lon="8.2986171"><ele>352.6666666666667</ele><time>2026-04-19T08:39:48.163Z</time></trkpt><trkpt lat="44.368229" lon="8.2985001"><ele>352.83333333333337</ele><time>2026-04-19T08:39:49.162Z</time></trkpt><trkpt lat="44.3682307" lon="8.2983831"><ele>353.0</ele><time>2026-04-19T08:39:50.162Z</time></trkpt><trkpt lat="44.368238" lon="8.298245"><ele>353.0</ele><time>2026-04-19T08:39:51.162Z</time></trkpt><trkpt lat="44.3682302" lon="8.2981137"><ele>353.0</ele><time>2026-04-19T08:39:52.162Z</time></trkpt><trkpt lat="44.3682237" lon="8.2979758"><ele>353.0</ele><time>2026-04-19T08:39:53.163Z</time></trkpt><trkpt lat="44.3682149" lon="8.2978607"><ele>353.0</ele><time>2026-04-19T08:39:54.163Z</time></trkpt><trkpt lat="44.368213" lon="8.2977415"><ele>353.0</ele><time>2026-04-19T08:39:55.162Z</time></trkpt><trkpt lat="44.3682028" lon="8.2976133"><ele>352.83333333333337</ele><time>2026-04-19T08:39:56.161Z</time></trkpt><trkpt lat="44.3682012" lon="8.2974966"><ele>352.6666666666667</ele><time>2026-04-19T08:39:57.163Z</time></trkpt><trkpt lat="44.3682017" lon="8.2973824"><ele>352.5</ele><time>2026-04-19T08:39:58.163Z</time></trkpt><trkpt lat="44.3682254" lon="8.2972839"><ele>352.3333333333333</ele><time>2026-04-19T08:39:59.163Z</time></trkpt><trkpt lat="44.3682372" lon="8.2971853"><ele>352.16666666666663</ele><time>2026-04-19T08:40:00.164Z</time></trkpt><trkpt lat="44.3682252" lon="8.2970836"><ele>352.0</ele><time>2026-04-19T08:40:01.162Z</time></trkpt><trkpt lat="44.3682406" lon="8.2969696"><ele>351.8333333333333</ele><time>2026-04-19T08:40:02.162Z</time></trkpt><trkpt lat="44.3682319" lon="8.2968741"><ele>351.66666666666663</ele><time>2026-04-19T08:40:03.162Z</time></trkpt><trkpt lat="44.3682032" lon="8.2967294"><ele>351.5</ele><time>2026-04-19T08:40:05.16Z</time></trkpt><trkpt lat="44.368165" lon="8.2966048"><ele>351.3333333333333</ele><time>2026-04-19T08:40:07.163Z</time></trkpt><trkpt lat="44.368138" lon="8.2965073"><ele>351.1666666666667</ele><time>2026-04-19T08:40:10.163Z</time></trkpt><trkpt lat="44.3681229" lon="8.2963992"><ele>351.0</ele><time>2026-04-19T08:40:13.163Z</time></trkpt><trkpt lat="44.3681022" lon="8.2963029"><ele>350.8333333333333</ele><time>2026-04-19T08:40:16.16Z</time></trkpt><trkpt lat="44.3680847" lon="8.2961744"><ele>350.6666666666667</ele><time>2026-04-19T08:40:19.162Z</time></trkpt><trkpt lat="44.368066" lon="8.2960655"><ele>350.5</ele><time>2026-04-19T08:40:21.163Z</time></trkpt><trkpt lat="44.3680594" lon="8.2959433"><ele>350.33333333333337</ele><time>2026-04-19T08:40:23.161Z</time></trkpt><trkpt lat="44.3680502" lon="8.2958301"><ele>350.1666666666667</ele><time>2026-04-19T08:40:25.163Z</time></trkpt><trkpt lat="44.368041" lon="8.2957107"><ele>350.0</ele><time>2026-04-19T08:40:27.163Z</time></trkpt><trkpt lat="44.3680329" lon="8.2955659"><ele>349.4</ele><time>2026-04-19T08:40:29.162Z</time></trkpt><trkpt lat="44.3680561" lon="8.2953945"><ele>348.8</ele><time>2026-04-19T08:40:31.163Z</time></trkpt><trkpt lat="44.3680442" lon="8.2952223"><ele>348.20000000000005</ele><time>2026-04-19T08:40:33.162Z</time></trkpt><trkpt lat="44.3680482" lon="8.2951053"><ele>347.6</ele><time>2026-04-19T08:40:34.163Z</time></trkpt><trkpt lat="44.3680453" lon="8.2949917"><ele>347.0</ele><time>2026-04-19T08:40:35.162Z</time></trkpt><trkpt lat="44.3680495" lon="8.2948494"><ele>346.25</ele><time>2026-04-19T08:40:36.163Z</time></trkpt><trkpt lat="44.3680569" lon="8.2946957"><ele>345.5</ele><time>2026-04-19T08:40:37.162Z</time></trkpt><trkpt lat="44.3680598" lon="8.2945332"><ele>344.75</ele><time>2026-04-19T08:40:38.163Z</time></trkpt><trkpt lat="44.368059" lon="8.2943711"><ele>344.0</ele><time>2026-04-19T08:40:39.162Z</time></trkpt><trkpt lat="44.3680633" lon="8.2942007"><ele>344.0</ele><time>2026-04-19T08:40:40.163Z</time></trkpt><trkpt lat="44.3680587" lon="8.2940382"><ele>344.0</ele><time>2026-04-19T08:40:41.161Z</time></trkpt><trkpt lat="44.3680553" lon="8.2938676"><ele>344.0</ele><time>2026-04-19T08:40:42.161Z</time></trkpt><trkpt lat="44.3680597" lon="8.2936964"><ele>344.0</ele><time>2026-04-19T08:40:43.163Z</time></trkpt><trkpt lat="44.3680459" lon="8.2935244"><ele>344.0</ele><time>2026-04-19T08:40:44.161Z</time></trkpt><trkpt lat="44.3680489" lon="8.2933953"><ele>344.0</ele><time>2026-04-19T08:40:45.161Z</time></trkpt><trkpt lat="44.368048" lon="8.2932914"><ele>344.0</ele><time>2026-04-19T08:40:46.161Z</time></trkpt><trkpt lat="44.3680409" lon="8.2932003"><ele>344.0</ele><time>2026-04-19T08:40:47.162Z</time></trkpt><trkpt lat="44.3680051" lon="8.2930722"><ele>344.0</ele><time>2026-04-19T08:40:49.161Z</time></trkpt><trkpt lat="44.3679483" lon="8.2929568"><ele>344.0</ele><time>2026-04-19T08:40:51.162Z</time></trkpt><trkpt lat="44.3678629" lon="8.2929149"><ele>343.83333333333337</ele><time>2026-04-19T08:40:53.162Z</time></trkpt><trkpt lat="44.3678326" lon="8.2927856"><ele>343.6666666666667</ele><time>2026-04-19T08:40:55.162Z</time></trkpt><trkpt lat="44.3678022" lon="8.2926786"><ele>343.5</ele><time>2026-04-19T08:40:57.163Z</time></trkpt><trkpt lat="44.3677702" lon="8.2925692"><ele>343.3333333333333</ele><time>2026-04-19T08:40:59.163Z</time></trkpt><trkpt lat="44.3677439" lon="8.292458"><ele>343.16666666666663</ele><time>2026-04-19T08:41:01.163Z</time></trkpt><trkpt lat="44.3677233" lon="8.2923498"><ele>343.0</ele><time>2026-04-19T08:41:03.16Z</time></trkpt><trkpt lat="44.3676961" lon="8.2922465"><ele>342.66666666666663</ele><time>2026-04-19T08:41:05.162Z</time></trkpt><trkpt lat="44.3676693" lon="8.292143"><ele>342.3333333333333</ele><time>2026-04-19T08:41:07.162Z</time></trkpt><trkpt lat="44.3676407" lon="8.2920396"><ele>342.0</ele><time>2026-04-19T08:41:09.161Z</time></trkpt><trkpt lat="44.3676174" lon="8.2919369"><ele>341.6666666666667</ele><time>2026-04-19T08:41:11.162Z</time></trkpt><trkpt lat="44.3675978" lon="8.2918274"><ele>341.33333333333337</ele><time>2026-04-19T08:41:13.161Z</time></trkpt><trkpt lat="44.3675825" lon="8.2917153"><ele>341.0</ele><time>2026-04-19T08:41:15.162Z</time></trkpt><trkpt lat="44.3675618" lon="8.2916175"><ele>341.0</ele><time>2026-04-19T08:41:17.162Z</time></trkpt><trkpt lat="44.3675438" lon="8.2915152"><ele>341.0</ele><time>2026-04-19T08:41:19.162Z</time></trkpt><trkpt lat="44.3675281" lon="8.2914124"><ele>341.0</ele><time>2026-04-19T08:41:21.162Z</time></trkpt><trkpt lat="44.3675029" lon="8.291305"><ele>341.0</ele><time>2026-04-19T08:41:23.161Z</time></trkpt><trkpt lat="44.3674799" lon="8.2911963"><ele>341.0</ele><time>2026-04-19T08:41:25.162Z</time></trkpt><trkpt lat="44.3674524" lon="8.291082"><ele>341.0</ele><time>2026-04-19T08:41:27.162Z</time></trkpt><trkpt lat="44.36743" lon="8.290972"><ele>341.0</ele><time>2026-04-19T08:41:29.162Z</time></trkpt><trkpt lat="44.3674079" lon="8.290869"><ele>341.0</ele><time>2026-04-19T08:41:31.162Z</time></trkpt><trkpt lat="44.3673912" lon="8.2907576"><ele>341.0</ele><time>2026-04-19T08:41:33.163Z</time></trkpt><trkpt lat="44.3673751" lon="8.2906258"><ele>341.0</ele><time>2026-04-19T08:41:35.162Z</time></trkpt><trkpt lat="44.3673635" lon="8.2904864"><ele>341.0</ele><time>2026-04-19T08:41:37.163Z</time></trkpt><trkpt lat="44.3673508" lon="8.2903478"><ele>341.1666666666667</ele><time>2026-04-19T08:41:39.163Z</time></trkpt><trkpt lat="44.3673534" lon="8.2902236"><ele>341.33333333333337</ele><time>2026-04-19T08:41:41.162Z</time></trkpt><trkpt lat="44.3673407" lon="8.2901252"><ele>341.5</ele><time>2026-04-19T08:41:42.162Z</time></trkpt><trkpt lat="44.367333" lon="8.2900226"><ele>341.6666666666667</ele><time>2026-04-19T08:41:44.161Z</time></trkpt><trkpt lat="44.3673427" lon="8.2899242"><ele>341.8333333333333</ele><time>2026-04-19T08:41:46.163Z</time></trkpt><trkpt lat="44.3674121" lon="8.2898464"><ele>342.0</ele><time>2026-04-19T08:41:49.162Z</time></trkpt><trkpt lat="44.367484" lon="8.2898337"><ele>342.0</ele><time>2026-04-19T08:41:51.163Z</time></trkpt><trkpt lat="44.3675657" lon="8.2898264"><ele>342.0</ele><time>2026-04-19T08:41:53.162Z</time></trkpt><trkpt lat="44.3676506" lon="8.2898107"><ele>342.0</ele><time>2026-04-19T08:41:55.161Z</time></trkpt><trkpt lat="44.3677299" lon="8.2897961"><ele>342.0</ele><time>2026-04-19T08:41:57.163Z</time></trkpt><trkpt lat="44.3678083" lon="8.2897803"><ele>342.0</ele><time>2026-04-19T08:41:59.163Z</time></trkpt><trkpt lat="44.3678914" lon="8.2897574"><ele>342.0</ele><time>2026-04-19T08:42:01.161Z</time></trkpt><trkpt lat="44.3679775" lon="8.289722"><ele>342.8</ele><time>2026-04-19T08:42:03.162Z</time></trkpt><trkpt lat="44.3680745" lon="8.2897024"><ele>343.6</ele><time>2026-04-19T08:42:05.162Z</time></trkpt><trkpt lat="44.3681785" lon="8.2896837"><ele>344.40000000000003</ele><time>2026-04-19T08:42:07.162Z</time></trkpt><trkpt lat="44.3682744" lon="8.2896916"><ele>345.20000000000005</ele><time>2026-04-19T08:42:09.162Z</time></trkpt><trkpt lat="44.3683736" lon="8.2897045"><ele>346.0</ele><time>2026-04-19T08:42:11.161Z</time></trkpt><trkpt lat="44.3684887" lon="8.2897132"><ele>346.0</ele><time>2026-04-19T08:42:13.161Z</time></trkpt><trkpt lat="44.3685733" lon="8.2896612"><ele>346.0</ele><time>2026-04-19T08:42:15.162Z</time></trkpt><trkpt lat="44.3686519" lon="8.2895818"><ele>346.0</ele><time>2026-04-19T08:42:17.163Z</time></trkpt><trkpt lat="44.3687129" lon="8.2895164"><ele>346.0</ele><time>2026-04-19T08:42:19.162Z</time></trkpt><trkpt lat="44.3687699" lon="8.2894577"><ele>346.0</ele><time>2026-04-19T08:42:21.161Z</time></trkpt><trkpt lat="44.3688329" lon="8.2894154"><ele>346.0</ele><time>2026-04-19T08:42:23.163Z</time></trkpt><trkpt lat="44.3688905" lon="8.2893665"><ele>346.3333333333333</ele><time>2026-04-19T08:42:25.162Z</time></trkpt><trkpt lat="44.3689564" lon="8.2893288"><ele>346.66666666666663</ele><time>2026-04-19T08:42:27.162Z</time></trkpt><trkpt lat="44.3690169" lon="8.28928"><ele>347.0</ele><time>2026-04-19T08:42:29.163Z</time></trkpt><trkpt lat="44.3690977" lon="8.289216"><ele>347.3333333333333</ele><time>2026-04-19T08:42:32.162Z</time></trkpt><trkpt lat="44.3691688" lon="8.2891688"><ele>347.6666666666667</ele><time>2026-04-19T08:42:34.161Z</time></trkpt><trkpt lat="44.3692303" lon="8.2890984"><ele>348.0</ele><time>2026-04-19T08:42:36.161Z</time></trkpt><trkpt lat="44.3692948" lon="8.2890165"><ele>348.0</ele><time>2026-04-19T08:42:38.163Z</time></trkpt><trkpt lat="44.3693609" lon="8.2889442"><ele>348.0</ele><time>2026-04-19T08:42:40.162Z</time></trkpt><trkpt lat="44.3694239" lon="8.2888776"><ele>348.0</ele><time>2026-04-19T08:42:42.161Z</time></trkpt><trkpt lat="44.369487" lon="8.2888244"><ele>348.0</ele><time>2026-04-19T08:42:44.161Z</time></trkpt><trkpt lat="44.3695486" lon="8.2887602"><ele>348.0</ele><time>2026-04-19T08:42:46.161Z</time></trkpt><trkpt lat="44.3696086" lon="8.2887087"><ele>348.0</ele><time>2026-04-19T08:42:48.162Z</time></trkpt><trkpt lat="44.3696703" lon="8.288655"><ele>347.8333333333333</ele><time>2026-04-19T08:42:50.161Z</time></trkpt><trkpt lat="44.3697289" lon="8.2885966"><ele>347.6666666666667</ele><time>2026-04-19T08:42:52.161Z</time></trkpt><trkpt lat="44.3697876" lon="8.2885242"><ele>347.5</ele><time>2026-04-19T08:42:54.162Z</time></trkpt><trkpt lat="44.3698373" lon="8.2884454"><ele>347.33333333333337</ele><time>2026-04-19T08:42:56.161Z</time></trkpt><trkpt lat="44.3698875" lon="8.2883632"><ele>347.1666666666667</ele><time>2026-04-19T08:42:58.161Z</time></trkpt><trkpt lat="44.3699427" lon="8.2882799"><ele>347.0</ele><time>2026-04-19T08:43:00.162Z</time></trkpt><trkpt lat="44.369994" lon="8.2881948"><ele>347.0</ele><time>2026-04-19T08:43:02.162Z</time></trkpt><trkpt lat="44.3700445" lon="8.2881119"><ele>347.0</ele><time>2026-04-19T08:43:04.161Z</time></trkpt><trkpt lat="44.3700944" lon="8.2880279"><ele>347.0</ele><time>2026-04-19T08:43:06.162Z</time></trkpt><trkpt lat="44.370142" lon="8.2879376"><ele>347.0</ele><time>2026-04-19T08:43:08.161Z</time></trkpt><trkpt lat="44.3701859" lon="8.2878417"><ele>347.0</ele><time>2026-04-19T08:43:10.162Z</time></trkpt><trkpt lat="44.3702349" lon="8.2877659"><ele>347.0</ele><time>2026-04-19T08:43:12.161Z</time></trkpt><trkpt lat="44.3702844" lon="8.287688"><ele>347.14285714285717</ele><time>2026-04-19T08:43:14.16Z</time></trkpt><trkpt lat="44.3703239" lon="8.2876071"><ele>347.2857142857143</ele><time>2026-04-19T08:43:16.161Z</time></trkpt><trkpt lat="44.370361" lon="8.2875236"><ele>347.42857142857144</ele><time>2026-04-19T08:43:18.161Z</time></trkpt><trkpt lat="44.3703985" lon="8.2874375"><ele>347.57142857142856</ele><time>2026-04-19T08:43:20.162Z</time></trkpt><trkpt lat="44.3704271" lon="8.2873468"><ele>347.7142857142857</ele><time>2026-04-19T08:43:22.162Z</time></trkpt><trkpt lat="44.3704613" lon="8.287266"><ele>347.85714285714283</ele><time>2026-04-19T08:43:24.162Z</time></trkpt><trkpt lat="44.3704966" lon="8.287187"><ele>348.0</ele><time>2026-04-19T08:43:26.161Z</time></trkpt><trkpt lat="44.3705323" lon="8.2871076"><ele>347.5</ele><time>2026-04-19T08:43:28.161Z</time></trkpt><trkpt lat="44.3705867" lon="8.2870024"><ele>347.0</ele><time>2026-04-19T08:43:31.161Z</time></trkpt><trkpt lat="44.3706227" lon="8.286929"><ele>346.5</ele><time>2026-04-19T08:43:33.163Z</time></trkpt><trkpt lat="44.3706562" lon="8.2868521"><ele>346.0</ele><time>2026-04-19T08:43:35.161Z</time></trkpt><trkpt lat="44.3707085" lon="8.286756"><ele>345.5</ele><time>2026-04-19T08:43:38.161Z</time></trkpt><trkpt lat="44.3707524" lon="8.2866506"><ele>345.0</ele><time>2026-04-19T08:43:41.161Z</time></trkpt><trkpt lat="44.3707912" lon="8.2865455"><ele>345.0</ele><time>2026-04-19T08:43:44.163Z</time></trkpt><trkpt lat="44.3708299" lon="8.2864385"><ele>345.0</ele><time>2026-04-19T08:43:47.162Z</time></trkpt><trkpt lat="44.3708715" lon="8.2863323"><ele>345.0</ele><time>2026-04-19T08:43:50.162Z</time></trkpt><trkpt lat="44.3709064" lon="8.2862184"><ele>345.0</ele><time>2026-04-19T08:43:53.162Z</time></trkpt><trkpt lat="44.370937" lon="8.2861407"><ele>345.0</ele><time>2026-04-19T08:43:55.162Z</time></trkpt><trkpt lat="44.3709655" lon="8.2860608"><ele>345.0</ele><time>2026-04-19T08:43:57.162Z</time></trkpt><trkpt lat="44.3710064" lon="8.2859473"><ele>346.5</ele><time>2026-04-19T08:44:00.16Z</time></trkpt><trkpt lat="44.3710537" lon="8.285836"><ele>348.0</ele><time>2026-04-19T08:44:03.161Z</time></trkpt><trkpt lat="44.3710991" lon="8.2857222"><ele>349.5</ele><time>2026-04-19T08:44:06.162Z</time></trkpt><trkpt lat="44.3711303" lon="8.2856391"><ele>351.0</ele><time>2026-04-19T08:44:08.162Z</time></trkpt><trkpt lat="44.3711593" lon="8.2855568"><ele>352.5</ele><time>2026-04-19T08:44:10.163Z</time></trkpt><trkpt lat="44.371189" lon="8.2854697"><ele>354.0</ele><time>2026-04-19T08:44:12.162Z</time></trkpt><trkpt lat="44.371225" lon="8.2853839"><ele>355.0</ele><time>2026-04-19T08:44:14.162Z</time></trkpt><trkpt lat="44.3712594" lon="8.2852925"><ele>356.0</ele><time>2026-04-19T08:44:16.161Z</time></trkpt><trkpt lat="44.371291" lon="8.285194"><ele>357.0</ele><time>2026-04-19T08:44:18.161Z</time></trkpt><trkpt lat="44.3713116" lon="8.2850817"><ele>358.0</ele><time>2026-04-19T08:44:20.161Z</time></trkpt><trkpt lat="44.3713157" lon="8.2849546"><ele>359.0</ele><time>2026-04-19T08:44:22.161Z</time></trkpt><trkpt lat="44.3713167" lon="8.2848189"><ele>360.0</ele><time>2026-04-19T08:44:24.162Z</time></trkpt><trkpt lat="44.3713005" lon="8.2846831"><ele>360.0</ele><time>2026-04-19T08:44:26.162Z</time></trkpt><trkpt lat="44.3712738" lon="8.2845488"><ele>360.0</ele><time>2026-04-19T08:44:28.161Z</time></trkpt><trkpt lat="44.3712532" lon="8.2843978"><ele>360.0</ele><time>2026-04-19T08:44:30.162Z</time></trkpt><trkpt lat="44.3712319" lon="8.2842584"><ele>360.0</ele><time>2026-04-19T08:44:32.162Z</time></trkpt><trkpt lat="44.3712054" lon="8.284111"><ele>360.0</ele><time>2026-04-19T08:44:34.162Z</time></trkpt><trkpt lat="44.371184" lon="8.2839749"><ele>360.0</ele><time>2026-04-19T08:44:36.162Z</time></trkpt><trkpt lat="44.371183" lon="8.2838399"><ele>360.0</ele><time>2026-04-19T08:44:38.161Z</time></trkpt><trkpt lat="44.3711511" lon="8.2837102"><ele>360.0</ele><time>2026-04-19T08:44:40.163Z</time></trkpt><trkpt lat="44.3711343" lon="8.2835829"><ele>360.0</ele><time>2026-04-19T08:44:42.161Z</time></trkpt><trkpt lat="44.371112" lon="8.2834686"><ele>360.0</ele><time>2026-04-19T08:44:44.163Z</time></trkpt><trkpt lat="44.3711062" lon="8.2833416"><ele>360.0</ele><time>2026-04-19T08:44:46.163Z</time></trkpt><trkpt lat="44.3710956" lon="8.2832123"><ele>360.0</ele><time>2026-04-19T08:44:48.162Z</time></trkpt><trkpt lat="44.3710987" lon="8.283051"><ele>360.0</ele><time>2026-04-19T08:44:50.163Z</time></trkpt><trkpt lat="44.3711016" lon="8.2829263"><ele>360.0</ele><time>2026-04-19T08:44:52.162Z</time></trkpt><trkpt lat="44.3710956" lon="8.2828199"><ele>360.0</ele><time>2026-04-19T08:44:54.161Z</time></trkpt><trkpt lat="44.371128" lon="8.2826958"><ele>360.6</ele><time>2026-04-19T08:44:56.161Z</time></trkpt><trkpt lat="44.3711627" lon="8.2825859"><ele>361.2</ele><time>2026-04-19T08:44:58.162Z</time></trkpt><trkpt lat="44.3711647" lon="8.2824532"><ele>361.79999999999995</ele><time>2026-04-19T08:45:00.162Z</time></trkpt><trkpt lat="44.3711806" lon="8.28232"><ele>362.4</ele><time>2026-04-19T08:45:02.163Z</time></trkpt><trkpt lat="44.3711925" lon="8.2821901"><ele>363.0</ele><time>2026-04-19T08:45:04.161Z</time></trkpt><trkpt lat="44.3712012" lon="8.2820445"><ele>363.59999999999997</ele><time>2026-04-19T08:45:06.161Z</time></trkpt><trkpt lat="44.3712149" lon="8.2818968"><ele>364.2</ele><time>2026-04-19T08:45:08.162Z</time></trkpt><trkpt lat="44.3712203" lon="8.2817777"><ele>364.8</ele><time>2026-04-19T08:45:10.161Z</time></trkpt><trkpt lat="44.3712206" lon="8.2816506"><ele>365.4</ele><time>2026-04-19T08:45:12.161Z</time></trkpt><trkpt lat="44.3712134" lon="8.2815333"><ele>366.0</ele><time>2026-04-19T08:45:14.162Z</time></trkpt><trkpt lat="44.3712092" lon="8.2813981"><ele>366.0</ele><time>2026-04-19T08:45:16.161Z</time></trkpt><trkpt lat="44.3711944" lon="8.2812685"><ele>366.0</ele><time>2026-04-19T08:45:18.161Z</time></trkpt><trkpt lat="44.3711726" lon="8.2811385"><ele>366.0</ele><time>2026-04-19T08:45:20.161Z</time></trkpt><trkpt lat="44.3711554" lon="8.2810071"><ele>366.0</ele><time>2026-04-19T08:45:22.161Z</time></trkpt><trkpt lat="44.3711271" lon="8.280874"><ele>366.0</ele><time>2026-04-19T08:45:24.162Z</time></trkpt><trkpt lat="44.3711043" lon="8.2807415"><ele>366.0</ele><time>2026-04-19T08:45:26.161Z</time></trkpt><trkpt lat="44.3710845" lon="8.2806015"><ele>366.0</ele><time>2026-04-19T08:45:28.163Z</time></trkpt><trkpt lat="44.3710675" lon="8.28047"><ele>366.0</ele><time>2026-04-19T08:45:30.16Z</time></trkpt><trkpt lat="44.3710512" lon="8.2803326"><ele>366.0</ele><time>2026-04-19T08:45:32.161Z</time></trkpt><trkpt lat="44.3710386" lon="8.2802457"><ele>366.0</ele><time>2026-04-19T08:45:33.162Z</time></trkpt><trkpt lat="44.3710103" lon="8.2801326"><ele>366.0</ele><time>2026-04-19T08:45:35.161Z</time></trkpt><trkpt lat="44.3709873" lon="8.2800155"><ele>364.0</ele><time>2026-04-19T08:45:37.161Z</time></trkpt><trkpt lat="44.3709727" lon="8.2798684"><ele>362.0</ele><time>2026-04-19T08:45:39.162Z</time></trkpt><trkpt lat="44.3709654" lon="8.2797284"><ele>360.0</ele><time>2026-04-19T08:45:41.162Z</time></trkpt><trkpt lat="44.3709485" lon="8.2796091"><ele>358.0</ele><time>2026-04-19T08:45:43.162Z</time></trkpt><trkpt lat="44.3709227" lon="8.2794907"><ele>356.0</ele><time>2026-04-19T08:45:45.161Z</time></trkpt><trkpt lat="44.3709009" lon="8.2793596"><ele>355.6</ele><time>2026-04-19T08:45:47.161Z</time></trkpt><trkpt lat="44.3708703" lon="8.2792317"><ele>355.20000000000005</ele><time>2026-04-19T08:45:49.161Z</time></trkpt><trkpt lat="44.370868" lon="8.2791119"><ele>354.79999999999995</ele><time>2026-04-19T08:45:51.161Z</time></trkpt><trkpt lat="44.3708481" lon="8.2789889"><ele>354.4</ele><time>2026-04-19T08:45:53.162Z</time></trkpt><trkpt lat="44.3708286" lon="8.2788598"><ele>354.0</ele><time>2026-04-19T08:45:55.161Z</time></trkpt><trkpt lat="44.3708048" lon="8.2787278"><ele>354.0</ele><time>2026-04-19T08:45:57.161Z</time></trkpt><trkpt lat="44.370787" lon="8.2786073"><ele>354.0</ele><time>2026-04-19T08:45:59.161Z</time></trkpt><trkpt lat="44.3707639" lon="8.2784775"><ele>354.0</ele><time>2026-04-19T08:46:01.161Z</time></trkpt><trkpt lat="44.3707397" lon="8.2783505"><ele>354.0</ele><time>2026-04-19T08:46:03.162Z</time></trkpt><trkpt lat="44.370719" lon="8.2782181"><ele>354.0</ele><time>2026-04-19T08:46:05.161Z</time></trkpt><trkpt lat="44.3707021" lon="8.2780956"><ele>354.1666666666667</ele><time>2026-04-19T08:46:07.162Z</time></trkpt><trkpt lat="44.3706907" lon="8.2779813"><ele>354.3333333333333</ele><time>2026-04-19T08:46:09.161Z</time></trkpt><trkpt lat="44.3706724" lon="8.2778559"><ele>354.5</ele><time>2026-04-19T08:46:11.162Z</time></trkpt><trkpt lat="44.3706759" lon="8.277738"><ele>354.66666666666663</ele><time>2026-04-19T08:46:13.162Z</time></trkpt><trkpt lat="44.3706695" lon="8.2776181"><ele>354.8333333333333</ele><time>2026-04-19T08:46:15.161Z</time></trkpt><trkpt lat="44.3706604" lon="8.2775018"><ele>355.0</ele><time>2026-04-19T08:46:17.161Z</time></trkpt><trkpt lat="44.3706537" lon="8.2773975"><ele>355.0</ele><time>2026-04-19T08:46:19.162Z</time></trkpt><trkpt lat="44.3706485" lon="8.2772798"><ele>355.0</ele><time>2026-04-19T08:46:21.162Z</time></trkpt><trkpt lat="44.3706514" lon="8.2771645"><ele>355.0</ele><time>2026-04-19T08:46:23.162Z</time></trkpt><trkpt lat="44.370661" lon="8.277047"><ele>355.0</ele><time>2026-04-19T08:46:25.162Z</time></trkpt><trkpt lat="44.3706719" lon="8.276928"><ele>355.0</ele><time>2026-04-19T08:46:27.162Z</time></trkpt><trkpt lat="44.3706835" lon="8.2768087"><ele>355.0</ele><time>2026-04-19T08:46:29.162Z</time></trkpt><trkpt lat="44.3706926" lon="8.2766947"><ele>355.3333333333333</ele><time>2026-04-19T08:46:31.161Z</time></trkpt><trkpt lat="44.3707004" lon="8.2765753"><ele>355.66666666666663</ele><time>2026-04-19T08:46:33.161Z</time></trkpt><trkpt lat="44.3707168" lon="8.2764605"><ele>356.0</ele><time>2026-04-19T08:46:35.161Z</time></trkpt><trkpt lat="44.3707321" lon="8.276344"><ele>356.3333333333333</ele><time>2026-04-19T08:46:37.162Z</time></trkpt><trkpt lat="44.3707499" lon="8.2762288"><ele>356.6666666666667</ele><time>2026-04-19T08:46:39.162Z</time></trkpt><trkpt lat="44.3707687" lon="8.2761136"><ele>357.0</ele><time>2026-04-19T08:46:41.162Z</time></trkpt><trkpt lat="44.370789" lon="8.2759949"><ele>357.1666666666667</ele><time>2026-04-19T08:46:43.162Z</time></trkpt><trkpt lat="44.3708084" lon="8.2758749"><ele>357.3333333333333</ele><time>2026-04-19T08:46:45.16Z</time></trkpt><trkpt lat="44.3708341" lon="8.2757623"><ele>357.5</ele><time>2026-04-19T08:46:47.162Z</time></trkpt><trkpt lat="44.3708613" lon="8.2756494"><ele>357.66666666666663</ele><time>2026-04-19T08:46:49.161Z</time></trkpt><trkpt lat="44.3708886" lon="8.275538"><ele>357.8333333333333</ele><time>2026-04-19T08:46:51.162Z</time></trkpt><trkpt lat="44.3709124" lon="8.275424"><ele>358.0</ele><time>2026-04-19T08:46:53.161Z</time></trkpt><trkpt lat="44.3709382" lon="8.2753106"><ele>358.0</ele><time>2026-04-19T08:46:55.16Z</time></trkpt><trkpt lat="44.3709608" lon="8.2751924"><ele>358.0</ele><time>2026-04-19T08:46:57.16Z</time></trkpt><trkpt lat="44.3709849" lon="8.2750771"><ele>358.0</ele><time>2026-04-19T08:46:59.162Z</time></trkpt><trkpt lat="44.3710062" lon="8.2749578"><ele>358.0</ele><time>2026-04-19T08:47:01.162Z</time></trkpt><trkpt lat="44.3710277" lon="8.2748394"><ele>358.0</ele><time>2026-04-19T08:47:03.161Z</time></trkpt><trkpt lat="44.3710485" lon="8.2747202"><ele>358.0</ele><time>2026-04-19T08:47:05.162Z</time></trkpt><trkpt lat="44.3710712" lon="8.2746034"><ele>358.0</ele><time>2026-04-19T08:47:07.161Z</time></trkpt><trkpt lat="44.3710922" lon="8.2744877"><ele>358.0</ele><time>2026-04-19T08:47:09.162Z</time></trkpt><trkpt lat="44.3711127" lon="8.2743685"><ele>358.0</ele><time>2026-04-19T08:47:11.162Z</time></trkpt><trkpt lat="44.3711352" lon="8.2742518"><ele>358.0</ele><time>2026-04-19T08:47:13.16Z</time></trkpt><trkpt lat="44.3711579" lon="8.2741384"><ele>358.0</ele><time>2026-04-19T08:47:15.161Z</time></trkpt><trkpt lat="44.3711865" lon="8.2740188"><ele>358.0</ele><time>2026-04-19T08:47:17.161Z</time></trkpt><trkpt lat="44.3712045" lon="8.2739202"><ele>358.4</ele><time>2026-04-19T08:47:19.16Z</time></trkpt><trkpt lat="44.3712231" lon="8.2737866"><ele>358.79999999999995</ele><time>2026-04-19T08:47:21.161Z</time></trkpt><trkpt lat="44.3712506" lon="8.2736739"><ele>359.2</ele><time>2026-04-19T08:47:23.162Z</time></trkpt><trkpt lat="44.371275" lon="8.2735579"><ele>359.6</ele><time>2026-04-19T08:47:25.162Z</time></trkpt><trkpt lat="44.3712946" lon="8.2734332"><ele>360.0</ele><time>2026-04-19T08:47:27.161Z</time></trkpt><trkpt lat="44.3713293" lon="8.273308"><ele>361.0</ele><time>2026-04-19T08:47:29.161Z</time></trkpt><trkpt lat="44.3713627" lon="8.2731805"><ele>362.0</ele><time>2026-04-19T08:47:31.162Z</time></trkpt><trkpt lat="44.3713838" lon="8.2730564"><ele>363.0</ele><time>2026-04-19T08:47:33.162Z</time></trkpt><trkpt lat="44.3714013" lon="8.2729387"><ele>364.0</ele><time>2026-04-19T08:47:35.161Z</time></trkpt><trkpt lat="44.3714275" lon="8.2728073"><ele>365.0</ele><time>2026-04-19T08:47:37.161Z</time></trkpt><trkpt lat="44.3714508" lon="8.2726885"><ele>365.0</ele><time>2026-04-19T08:47:39.162Z</time></trkpt><trkpt lat="44.3714601" lon="8.27259"><ele>365.0</ele><time>2026-04-19T08:47:42.16Z</time></trkpt><trkpt lat="44.3714785" lon="8.2724834"><ele>365.0</ele><time>2026-04-19T08:47:43.162Z</time></trkpt><trkpt lat="44.371504" lon="8.2723533"><ele>365.0</ele><time>2026-04-19T08:47:45.162Z</time></trkpt><trkpt lat="44.3715233" lon="8.2722269"><ele>365.0</ele><time>2026-04-19T08:47:47.16Z</time></trkpt><trkpt lat="44.3715448" lon="8.2721058"><ele>365.0</ele><time>2026-04-19T08:47:49.161Z</time></trkpt><trkpt lat="44.3715763" lon="8.2719905"><ele>365.0</ele><time>2026-04-19T08:47:51.161Z</time></trkpt><trkpt lat="44.3716022" lon="8.2718676"><ele>365.0</ele><time>2026-04-19T08:47:53.16Z</time></trkpt><trkpt lat="44.3716271" lon="8.2717397"><ele>365.0</ele><time>2026-04-19T08:47:55.161Z</time></trkpt><trkpt lat="44.3716697" lon="8.2716077"><ele>365.0</ele><time>2026-04-19T08:47:57.161Z</time></trkpt><trkpt lat="44.3716945" lon="8.2714816"><ele>365.0</ele><time>2026-04-19T08:47:59.159Z</time></trkpt><trkpt lat="44.3717193" lon="8.271356"><ele>365.0</ele><time>2026-04-19T08:48:01.162Z</time></trkpt><trkpt lat="44.371742" lon="8.2712316"><ele>365.0</ele><time>2026-04-19T08:48:03.162Z</time></trkpt><trkpt lat="44.37177" lon="8.2711218"><ele>365.0</ele><time>2026-04-19T08:48:05.162Z</time></trkpt><trkpt lat="44.37179" lon="8.2709978"><ele>365.0</ele><time>2026-04-19T08:48:07.161Z</time></trkpt><trkpt lat="44.371818" lon="8.2708768"><ele>365.0</ele><time>2026-04-19T08:48:09.162Z</time></trkpt><trkpt lat="44.3718491" lon="8.2707623"><ele>365.0</ele><time>2026-04-19T08:48:11.159Z</time></trkpt><trkpt lat="44.3718714" lon="8.2706361"><ele>365.4</ele><time>2026-04-19T08:48:13.161Z</time></trkpt><trkpt lat="44.371898" lon="8.2705178"><ele>365.8</ele><time>2026-04-19T08:48:15.161Z</time></trkpt><trkpt lat="44.3719186" lon="8.2704001"><ele>366.20000000000005</ele><time>2026-04-19T08:48:17.162Z</time></trkpt><trkpt lat="44.3719432" lon="8.2702819"><ele>366.6</ele><time>2026-04-19T08:48:19.161Z</time></trkpt><trkpt lat="44.3719706" lon="8.270151"><ele>367.0</ele><time>2026-04-19T08:48:21.162Z</time></trkpt><trkpt lat="44.3719891" lon="8.2700283"><ele>367.0</ele><time>2026-04-19T08:48:23.162Z</time></trkpt><trkpt lat="44.3720091" lon="8.2699242"><ele>367.0</ele><time>2026-04-19T08:48:25.162Z</time></trkpt><trkpt lat="44.3720302" lon="8.2697992"><ele>367.0</ele><time>2026-04-19T08:48:27.161Z</time></trkpt><trkpt lat="44.3720519" lon="8.2696721"><ele>367.0</ele><time>2026-04-19T08:48:29.162Z</time></trkpt><trkpt lat="44.3720764" lon="8.269556"><ele>367.0</ele><time>2026-04-19T08:48:31.16Z</time></trkpt><trkpt lat="44.3721081" lon="8.2694365"><ele>367.0</ele><time>2026-04-19T08:48:33.162Z</time></trkpt><trkpt lat="44.3721331" lon="8.2693031"><ele>367.20000000000005</ele><time>2026-04-19T08:48:35.162Z</time></trkpt><trkpt lat="44.3721595" lon="8.2691826"><ele>367.4</ele><time>2026-04-19T08:48:37.162Z</time></trkpt><trkpt lat="44.3721842" lon="8.2690613"><ele>367.6</ele><time>2026-04-19T08:48:39.162Z</time></trkpt><trkpt lat="44.3721976" lon="8.2689316"><ele>367.79999999999995</ele><time>2026-04-19T08:48:41.16Z</time></trkpt><trkpt lat="44.3722223" lon="8.2688032"><ele>368.0</ele><time>2026-04-19T08:48:43.159Z</time></trkpt><trkpt lat="44.3722477" lon="8.2686902"><ele>368.33333333333337</ele><time>2026-04-19T08:48:45.161Z</time></trkpt><trkpt lat="44.3722703" lon="8.2685709"><ele>368.6666666666667</ele><time>2026-04-19T08:48:47.162Z</time></trkpt><trkpt lat="44.3722951" lon="8.2684485"><ele>369.0</ele><time>2026-04-19T08:48:49.162Z</time></trkpt><trkpt lat="44.3723137" lon="8.2683406"><ele>369.3333333333333</ele><time>2026-04-19T08:48:51.162Z</time></trkpt><trkpt lat="44.3723386" lon="8.2682374"><ele>369.66666666666663</ele><time>2026-04-19T08:48:53.16Z</time></trkpt><trkpt lat="44.3723659" lon="8.2681242"><ele>370.0</ele><time>2026-04-19T08:48:55.162Z</time></trkpt><trkpt lat="44.372389" lon="8.2680067"><ele>370.0</ele><time>2026-04-19T08:48:57.161Z</time></trkpt><trkpt lat="44.3724129" lon="8.2678835"><ele>370.0</ele><time>2026-04-19T08:48:59.16Z</time></trkpt><trkpt lat="44.3724437" lon="8.267759"><ele>370.0</ele><time>2026-04-19T08:49:01.161Z</time></trkpt><trkpt lat="44.372471" lon="8.2676364"><ele>370.0</ele><time>2026-04-19T08:49:03.161Z</time></trkpt><trkpt lat="44.3724996" lon="8.2675042"><ele>370.0</ele><time>2026-04-19T08:49:05.162Z</time></trkpt><trkpt lat="44.372538" lon="8.267376"><ele>369.6</ele><time>2026-04-19T08:49:07.161Z</time></trkpt><trkpt lat="44.3725742" lon="8.2672516"><ele>369.2</ele><time>2026-04-19T08:49:09.162Z</time></trkpt><trkpt lat="44.3726056" lon="8.267125"><ele>368.79999999999995</ele><time>2026-04-19T08:49:11.162Z</time></trkpt><trkpt lat="44.3726316" lon="8.2670021"><ele>368.4</ele><time>2026-04-19T08:49:13.162Z</time></trkpt><trkpt lat="44.3726612" lon="8.2668932"><ele>368.0</ele><time>2026-04-19T08:49:15.162Z</time></trkpt><trkpt lat="44.3726895" lon="8.2667656"><ele>368.0</ele><time>2026-04-19T08:49:17.161Z</time></trkpt><trkpt lat="44.3727132" lon="8.266655"><ele>368.0</ele><time>2026-04-19T08:49:19.161Z</time></trkpt><trkpt lat="44.3727434" lon="8.2665416"><ele>368.0</ele><time>2026-04-19T08:49:21.162Z</time></trkpt><trkpt lat="44.3727751" lon="8.2664204"><ele>368.0</ele><time>2026-04-19T08:49:23.161Z</time></trkpt><trkpt lat="44.3728117" lon="8.2662957"><ele>368.0</ele><time>2026-04-19T08:49:25.162Z</time></trkpt><trkpt lat="44.3728384" lon="8.2661697"><ele>368.2</ele><time>2026-04-19T08:49:27.162Z</time></trkpt><trkpt lat="44.3728739" lon="8.2660589"><ele>368.4</ele><time>2026-04-19T08:49:29.16Z</time></trkpt><trkpt lat="44.3729031" lon="8.2659333"><ele>368.59999999999997</ele><time>2026-04-19T08:49:31.162Z</time></trkpt><trkpt lat="44.3729383" lon="8.2658101"><ele>368.79999999999995</ele><time>2026-04-19T08:49:33.16Z</time></trkpt><trkpt lat="44.3729663" lon="8.2656891"><ele>369.0</ele><time>2026-04-19T08:49:35.161Z</time></trkpt><trkpt lat="44.3730029" lon="8.265576"><ele>369.79999999999995</ele><time>2026-04-19T08:49:37.161Z</time></trkpt><trkpt lat="44.3730279" lon="8.2654404"><ele>370.59999999999997</ele><time>2026-04-19T08:49:39.161Z</time></trkpt><trkpt lat="44.3730498" lon="8.2653148"><ele>371.4</ele><time>2026-04-19T08:49:41.16Z</time></trkpt><trkpt lat="44.3730789" lon="8.2651991"><ele>372.2</ele><time>2026-04-19T08:49:43.162Z</time></trkpt><trkpt lat="44.3731037" lon="8.2650665"><ele>373.0</ele><time>2026-04-19T08:49:45.162Z</time></trkpt><trkpt lat="44.3731351" lon="8.2649428"><ele>373.0</ele><time>2026-04-19T08:49:47.161Z</time></trkpt><trkpt lat="44.3731561" lon="8.2648242"><ele>373.0</ele><time>2026-04-19T08:49:49.162Z</time></trkpt><trkpt lat="44.3731806" lon="8.2647131"><ele>373.0</ele><time>2026-04-19T08:49:51.16Z</time></trkpt><trkpt lat="44.3732072" lon="8.2646097"><ele>373.0</ele><time>2026-04-19T08:49:53.161Z</time></trkpt><trkpt lat="44.373223" lon="8.2644998"><ele>373.0</ele><time>2026-04-19T08:49:55.162Z</time></trkpt><trkpt lat="44.3732325" lon="8.2643823"><ele>373.0</ele><time>2026-04-19T08:49:57.161Z</time></trkpt><trkpt lat="44.3732427" lon="8.2642681"><ele>372.66666666666663</ele><time>2026-04-19T08:49:59.161Z</time></trkpt><trkpt lat="44.3732476" lon="8.2641571"><ele>372.3333333333333</ele><time>2026-04-19T08:50:01.16Z</time></trkpt><trkpt lat="44.3732491" lon="8.2640442"><ele>372.0</ele><time>2026-04-19T08:50:03.161Z</time></trkpt><trkpt lat="44.373248" lon="8.2639325"><ele>371.6666666666667</ele><time>2026-04-19T08:50:05.161Z</time></trkpt><trkpt lat="44.3732499" lon="8.2638192"><ele>371.33333333333337</ele><time>2026-04-19T08:50:07.16Z</time></trkpt><trkpt lat="44.3732541" lon="8.2636973"><ele>371.0</ele><time>2026-04-19T08:50:09.161Z</time></trkpt><trkpt lat="44.3732609" lon="8.263573"><ele>371.83333333333337</ele><time>2026-04-19T08:50:11.16Z</time></trkpt><trkpt lat="44.3732717" lon="8.2634393"><ele>372.6666666666667</ele><time>2026-04-19T08:50:13.162Z</time></trkpt><trkpt lat="44.3732798" lon="8.2633128"><ele>373.5</ele><time>2026-04-19T08:50:15.161Z</time></trkpt><trkpt lat="44.3732835" lon="8.2631945"><ele>374.3333333333333</ele><time>2026-04-19T08:50:17.16Z</time></trkpt><trkpt lat="44.3732845" lon="8.2630845"><ele>375.16666666666663</ele><time>2026-04-19T08:50:19.16Z</time></trkpt><trkpt lat="44.3732857" lon="8.2629753"><ele>376.0</ele><time>2026-04-19T08:50:21.161Z</time></trkpt><trkpt lat="44.3732951" lon="8.2628759"><ele>376.2857142857143</ele><time>2026-04-19T08:50:23.161Z</time></trkpt><trkpt lat="44.3732989" lon="8.2627798"><ele>376.57142857142856</ele><time>2026-04-19T08:50:25.159Z</time></trkpt><trkpt lat="44.3733067" lon="8.2626775"><ele>376.8571428571429</ele><time>2026-04-19T08:50:27.16Z</time></trkpt><trkpt lat="44.3733074" lon="8.2625811"><ele>377.1428571428571</ele><time>2026-04-19T08:50:29.161Z</time></trkpt><trkpt lat="44.373307" lon="8.2624757"><ele>377.42857142857144</ele><time>2026-04-19T08:50:31.161Z</time></trkpt><trkpt lat="44.3733078" lon="8.2623743"><ele>377.7142857142857</ele><time>2026-04-19T08:50:33.162Z</time></trkpt><trkpt lat="44.3733059" lon="8.2622721"><ele>378.0</ele><time>2026-04-19T08:50:35.161Z</time></trkpt><trkpt lat="44.3732984" lon="8.2621683"><ele>378.8333333333333</ele><time>2026-04-19T08:50:37.16Z</time></trkpt><trkpt lat="44.3732868" lon="8.2620665"><ele>379.6666666666667</ele><time>2026-04-19T08:50:39.161Z</time></trkpt><trkpt lat="44.3732866" lon="8.261958"><ele>380.5</ele><time>2026-04-19T08:50:41.16Z</time></trkpt><trkpt lat="44.373293" lon="8.2618485"><ele>381.33333333333337</ele><time>2026-04-19T08:50:43.161Z</time></trkpt><trkpt lat="44.3732927" lon="8.2617447"><ele>382.1666666666667</ele><time>2026-04-19T08:50:45.161Z</time></trkpt><trkpt lat="44.3732962" lon="8.261632"><ele>383.0</ele><time>2026-04-19T08:50:47.162Z</time></trkpt><trkpt lat="44.3732999" lon="8.2615223"><ele>383.42857142857144</ele><time>2026-04-19T08:50:49.161Z</time></trkpt><trkpt lat="44.3732992" lon="8.2614171"><ele>383.85714285714283</ele><time>2026-04-19T08:50:51.159Z</time></trkpt><trkpt lat="44.3732972" lon="8.2613179"><ele>384.28571428571433</ele><time>2026-04-19T08:50:53.161Z</time></trkpt><trkpt lat="44.3733029" lon="8.2612163"><ele>384.7142857142857</ele><time>2026-04-19T08:50:55.161Z</time></trkpt><trkpt lat="44.3733019" lon="8.261108"><ele>385.14285714285717</ele><time>2026-04-19T08:50:57.162Z</time></trkpt><trkpt lat="44.3733057" lon="8.2610021"><ele>385.5714285714286</ele><time>2026-04-19T08:50:59.161Z</time></trkpt><trkpt lat="44.3733138" lon="8.2608987"><ele>386.0</ele><time>2026-04-19T08:51:01.161Z</time></trkpt><trkpt lat="44.3733231" lon="8.2607934"><ele>385.99999999999994</ele><time>2026-04-19T08:51:03.16Z</time></trkpt><trkpt lat="44.3733279" lon="8.2606879"><ele>386.0</ele><time>2026-04-19T08:51:05.16Z</time></trkpt><trkpt lat="44.3733336" lon="8.2605875"><ele>386.0</ele><time>2026-04-19T08:51:07.162Z</time></trkpt><trkpt lat="44.3733332" lon="8.2604804"><ele>386.0</ele><time>2026-04-19T08:51:09.162Z</time></trkpt><trkpt lat="44.3733346" lon="8.2603654"><ele>385.99999999999994</ele><time>2026-04-19T08:51:11.16Z</time></trkpt><trkpt lat="44.373339" lon="8.2602506"><ele>386.0</ele><time>2026-04-19T08:51:13.16Z</time></trkpt><trkpt lat="44.3733424" lon="8.2601374"><ele>385.8333333333333</ele><time>2026-04-19T08:51:15.16Z</time></trkpt><trkpt lat="44.3733498" lon="8.2600253"><ele>385.66666666666663</ele><time>2026-04-19T08:51:17.161Z</time></trkpt><trkpt lat="44.3733551" lon="8.2599197"><ele>385.5</ele><time>2026-04-19T08:51:19.162Z</time></trkpt><trkpt lat="44.3733536" lon="8.2598136"><ele>385.33333333333337</ele><time>2026-04-19T08:51:21.161Z</time></trkpt><trkpt lat="44.3733549" lon="8.2597131"><ele>385.1666666666667</ele><time>2026-04-19T08:51:23.16Z</time></trkpt><trkpt lat="44.3733576" lon="8.2595821"><ele>385.0</ele><time>2026-04-19T08:51:26.161Z</time></trkpt><trkpt lat="44.3733551" lon="8.2594874"><ele>384.85714285714283</ele><time>2026-04-19T08:51:28.161Z</time></trkpt><trkpt lat="44.3733538" lon="8.259395"><ele>384.7142857142857</ele><time>2026-04-19T08:51:30.161Z</time></trkpt><trkpt lat="44.373349" lon="8.259301"><ele>384.57142857142856</ele><time>2026-04-19T08:51:32.161Z</time></trkpt><trkpt lat="44.373349" lon="8.2592008"><ele>384.42857142857144</ele><time>2026-04-19T08:51:34.16Z</time></trkpt><trkpt lat="44.3733512" lon="8.2590999"><ele>384.2857142857143</ele><time>2026-04-19T08:51:36.161Z</time></trkpt><trkpt lat="44.3733596" lon="8.2589942"><ele>384.1428571428571</ele><time>2026-04-19T08:51:38.161Z</time></trkpt><trkpt lat="44.3733653" lon="8.2588907"><ele>384.0</ele><time>2026-04-19T08:51:40.162Z</time></trkpt><trkpt lat="44.3733639" lon="8.2587873"><ele>383.99999999999994</ele><time>2026-04-19T08:51:42.161Z</time></trkpt><trkpt lat="44.3733588" lon="8.2586842"><ele>384.0</ele><time>2026-04-19T08:51:44.16Z</time></trkpt><trkpt lat="44.3733517" lon="8.2585794"><ele>384.0</ele><time>2026-04-19T08:51:46.16Z</time></trkpt><trkpt lat="44.3733421" lon="8.2584754"><ele>384.0</ele><time>2026-04-19T08:51:48.16Z</time></trkpt><trkpt lat="44.3733446" lon="8.2583663"><ele>384.0</ele><time>2026-04-19T08:51:50.162Z</time></trkpt><trkpt lat="44.3733427" lon="8.2582721"><ele>383.99999999999994</ele><time>2026-04-19T08:51:52.162Z</time></trkpt><trkpt lat="44.3733337" lon="8.2581837"><ele>384.0</ele><time>2026-04-19T08:51:54.161Z</time></trkpt><trkpt lat="44.3733344" lon="8.2580868"><ele>383.85714285714283</ele><time>2026-04-19T08:51:56.162Z</time></trkpt><trkpt lat="44.3733397" lon="8.2579885"><ele>383.7142857142857</ele><time>2026-04-19T08:51:58.159Z</time></trkpt><trkpt lat="44.373331" lon="8.2578856"><ele>383.57142857142856</ele><time>2026-04-19T08:52:00.161Z</time></trkpt><trkpt lat="44.3733101" lon="8.2577996"><ele>383.42857142857144</ele><time>2026-04-19T08:52:02.161Z</time></trkpt><trkpt lat="44.3732875" lon="8.2577109"><ele>383.2857142857143</ele><time>2026-04-19T08:52:04.161Z</time></trkpt><trkpt lat="44.3732699" lon="8.2576052"><ele>383.1428571428571</ele><time>2026-04-19T08:52:06.159Z</time></trkpt><trkpt lat="44.3732546" lon="8.2575022"><ele>383.0</ele><time>2026-04-19T08:52:08.161Z</time></trkpt><trkpt lat="44.3732469" lon="8.2573932"><ele>384.33333333333337</ele><time>2026-04-19T08:52:10.161Z</time></trkpt><trkpt lat="44.3732372" lon="8.257276"><ele>385.6666666666667</ele><time>2026-04-19T08:52:12.162Z</time></trkpt><trkpt lat="44.373216" lon="8.2571699"><ele>387.0</ele><time>2026-04-19T08:52:14.16Z</time></trkpt><trkpt lat="44.3731866" lon="8.2570701"><ele>388.33333333333337</ele><time>2026-04-19T08:52:16.161Z</time></trkpt><trkpt lat="44.3731471" lon="8.2569805"><ele>389.6666666666667</ele><time>2026-04-19T08:52:18.16Z</time></trkpt><trkpt lat="44.3731077" lon="8.2569"><ele>391.0</ele><time>2026-04-19T08:52:20.162Z</time></trkpt><trkpt lat="44.3730702" lon="8.2568155"><ele>390.99999999999994</ele><time>2026-04-19T08:52:22.161Z</time></trkpt><trkpt lat="44.3730328" lon="8.2567259"><ele>391.0</ele><time>2026-04-19T08:52:24.16Z</time></trkpt><trkpt lat="44.3730002" lon="8.2566351"><ele>391.0</ele><time>2026-04-19T08:52:26.161Z</time></trkpt><trkpt lat="44.3729645" lon="8.2565464"><ele>391.0</ele><time>2026-04-19T08:52:28.16Z</time></trkpt><trkpt lat="44.372929" lon="8.2564618"><ele>391.0</ele><time>2026-04-19T08:52:30.161Z</time></trkpt><trkpt lat="44.372895" lon="8.2563731"><ele>390.99999999999994</ele><time>2026-04-19T08:52:32.161Z</time></trkpt><trkpt lat="44.3728606" lon="8.2562859"><ele>391.0</ele><time>2026-04-19T08:52:34.16Z</time></trkpt><trkpt lat="44.3728168" lon="8.2562074"><ele>391.1666666666667</ele><time>2026-04-19T08:52:36.162Z</time></trkpt><trkpt lat="44.3727723" lon="8.2561269"><ele>391.33333333333337</ele><time>2026-04-19T08:52:38.16Z</time></trkpt><trkpt lat="44.37274" lon="8.25604"><ele>391.5</ele><time>2026-04-19T08:52:40.16Z</time></trkpt><trkpt lat="44.3727083" lon="8.2559396"><ele>391.66666666666663</ele><time>2026-04-19T08:52:42.162Z</time></trkpt><trkpt lat="44.3726734" lon="8.2558431"><ele>391.8333333333333</ele><time>2026-04-19T08:52:44.161Z</time></trkpt><trkpt lat="44.3726377" lon="8.2557474"><ele>392.0</ele><time>2026-04-19T08:52:46.16Z</time></trkpt><trkpt lat="44.3726064" lon="8.2556435"><ele>393.3333333333333</ele><time>2026-04-19T08:52:48.161Z</time></trkpt><trkpt lat="44.3725727" lon="8.2555586"><ele>394.66666666666663</ele><time>2026-04-19T08:52:50.161Z</time></trkpt><trkpt lat="44.3725389" lon="8.2554793"><ele>396.0</ele><time>2026-04-19T08:52:52.161Z</time></trkpt><trkpt lat="44.372493" lon="8.2553605"><ele>397.33333333333337</ele><time>2026-04-19T08:52:55.161Z</time></trkpt><trkpt lat="44.3724605" lon="8.2552636"><ele>398.6666666666667</ele><time>2026-04-19T08:52:57.161Z</time></trkpt><trkpt lat="44.372423" lon="8.2551722"><ele>400.0</ele><time>2026-04-19T08:52:59.16Z</time></trkpt><trkpt lat="44.3723863" lon="8.2550798"><ele>400.00000000000006</ele><time>2026-04-19T08:53:01.161Z</time></trkpt><trkpt lat="44.3723474" lon="8.2549889"><ele>400.0</ele><time>2026-04-19T08:53:03.159Z</time></trkpt><trkpt lat="44.3723099" lon="8.2548943"><ele>400.0</ele><time>2026-04-19T08:53:05.16Z</time></trkpt><trkpt lat="44.3722679" lon="8.254798"><ele>400.0</ele><time>2026-04-19T08:53:07.16Z</time></trkpt><trkpt lat="44.3722277" lon="8.2547109"><ele>400.0</ele><time>2026-04-19T08:53:09.161Z</time></trkpt><trkpt lat="44.3721938" lon="8.2546303"><ele>400.00000000000006</ele><time>2026-04-19T08:53:11.16Z</time></trkpt><trkpt lat="44.3721589" lon="8.2545455"><ele>400.0</ele><time>2026-04-19T08:53:13.16Z</time></trkpt><trkpt lat="44.3721256" lon="8.2544503"><ele>400.6666666666667</ele><time>2026-04-19T08:53:15.161Z</time></trkpt><trkpt lat="44.3720877" lon="8.2543376"><ele>401.33333333333337</ele><time>2026-04-19T08:53:17.161Z</time></trkpt><trkpt lat="44.3720479" lon="8.254244"><ele>402.0</ele><time>2026-04-19T08:53:19.16Z</time></trkpt><trkpt lat="44.372003" lon="8.254137"><ele>402.66666666666663</ele><time>2026-04-19T08:53:21.161Z</time></trkpt><trkpt lat="44.3719726" lon="8.2540398"><ele>403.3333333333333</ele><time>2026-04-19T08:53:23.16Z</time></trkpt><trkpt lat="44.3719403" lon="8.2539514"><ele>404.0</ele><time>2026-04-19T08:53:25.16Z</time></trkpt><trkpt lat="44.371906" lon="8.253861"><ele>403.99999999999994</ele><time>2026-04-19T08:53:27.161Z</time></trkpt><trkpt lat="44.3718672" lon="8.2537584"><ele>404.0</ele><time>2026-04-19T08:53:29.162Z</time></trkpt><trkpt lat="44.3718295" lon="8.2536627"><ele>404.0</ele><time>2026-04-19T08:53:31.162Z</time></trkpt><trkpt lat="44.3717959" lon="8.2535768"><ele>404.0</ele><time>2026-04-19T08:53:33.16Z</time></trkpt><trkpt lat="44.3717597" lon="8.2534797"><ele>403.99999999999994</ele><time>2026-04-19T08:53:35.161Z</time></trkpt><trkpt lat="44.3717291" lon="8.2533827"><ele>404.0</ele><time>2026-04-19T08:53:37.162Z</time></trkpt><trkpt lat="44.3716909" lon="8.253283"><ele>403.99999999999994</ele><time>2026-04-19T08:53:39.161Z</time></trkpt><trkpt lat="44.3716579" lon="8.2531748"><ele>404.0</ele><time>2026-04-19T08:53:41.16Z</time></trkpt><trkpt lat="44.3716225" lon="8.2530745"><ele>404.0</ele><time>2026-04-19T08:53:43.16Z</time></trkpt><trkpt lat="44.3715935" lon="8.2529768"><ele>404.0</ele><time>2026-04-19T08:53:45.16Z</time></trkpt><trkpt lat="44.3715645" lon="8.2528755"><ele>403.99999999999994</ele><time>2026-04-19T08:53:47.159Z</time></trkpt><trkpt lat="44.3715471" lon="8.2527536"><ele>404.0</ele><time>2026-04-19T08:53:49.16Z</time></trkpt><trkpt lat="44.3715371" lon="8.2526337"><ele>403.8333333333333</ele><time>2026-04-19T08:53:51.161Z</time></trkpt><trkpt lat="44.3715342" lon="8.25253"><ele>403.66666666666663</ele><time>2026-04-19T08:53:53.159Z</time></trkpt><trkpt lat="44.3715224" lon="8.2524281"><ele>403.5</ele><time>2026-04-19T08:53:55.16Z</time></trkpt><trkpt lat="44.3715094" lon="8.2523336"><ele>403.33333333333337</ele><time>2026-04-19T08:53:57.16Z</time></trkpt><trkpt lat="44.3714768" lon="8.2522094"><ele>403.1666666666667</ele><time>2026-04-19T08:54:00.16Z</time></trkpt><trkpt lat="44.371466" lon="8.2521127"><ele>403.0</ele><time>2026-04-19T08:54:02.16Z</time></trkpt><trkpt lat="44.3714616" lon="8.2520048"><ele>403.0</ele><time>2026-04-19T08:54:04.16Z</time></trkpt><trkpt lat="44.3714566" lon="8.2519008"><ele>403.0</ele><time>2026-04-19T08:54:06.161Z</time></trkpt><trkpt lat="44.3714515" lon="8.2517945"><ele>403.0</ele><time>2026-04-19T08:54:08.161Z</time></trkpt><trkpt lat="44.3714395" lon="8.2516859"><ele>403.0</ele><time>2026-04-19T08:54:10.161Z</time></trkpt><trkpt lat="44.3714284" lon="8.2515821"><ele>403.0</ele><time>2026-04-19T08:54:12.161Z</time></trkpt><trkpt lat="44.3714222" lon="8.2514722"><ele>403.0</ele><time>2026-04-19T08:54:14.162Z</time></trkpt><trkpt lat="44.3714153" lon="8.2513805"><ele>403.0</ele><time>2026-04-19T08:54:16.161Z</time></trkpt><trkpt lat="44.3714049" lon="8.251287"><ele>403.7142857142857</ele><time>2026-04-19T08:54:18.16Z</time></trkpt><trkpt lat="44.3714022" lon="8.2511873"><ele>404.4285714285714</ele><time>2026-04-19T08:54:20.16Z</time></trkpt><trkpt lat="44.3713944" lon="8.2510943"><ele>405.1428571428571</ele><time>2026-04-19T08:54:22.16Z</time></trkpt><trkpt lat="44.3713841" lon="8.2509765"><ele>405.8571428571429</ele><time>2026-04-19T08:54:24.161Z</time></trkpt><trkpt lat="44.371381" lon="8.2508546"><ele>406.57142857142856</ele><time>2026-04-19T08:54:26.161Z</time></trkpt><trkpt lat="44.3713778" lon="8.2507614"><ele>407.2857142857143</ele><time>2026-04-19T08:54:28.161Z</time></trkpt><trkpt lat="44.3713713" lon="8.2506718"><ele>408.0</ele><time>2026-04-19T08:54:30.159Z</time></trkpt><trkpt lat="44.3713532" lon="8.2505804"><ele>408.1666666666667</ele><time>2026-04-19T08:54:32.16Z</time></trkpt><trkpt lat="44.3713577" lon="8.2504596"><ele>408.33333333333337</ele><time>2026-04-19T08:54:34.161Z</time></trkpt><trkpt lat="44.3713779" lon="8.2503338"><ele>408.5</ele><time>2026-04-19T08:54:36.16Z</time></trkpt><trkpt lat="44.3713946" lon="8.2501999"><ele>408.6666666666667</ele><time>2026-04-19T08:54:38.16Z</time></trkpt><trkpt lat="44.3714203" lon="8.2500845"><ele>408.83333333333337</ele><time>2026-04-19T08:54:40.161Z</time></trkpt><trkpt lat="44.3714356" lon="8.2499726"><ele>409.0</ele><time>2026-04-19T08:54:42.161Z</time></trkpt><trkpt lat="44.3714442" lon="8.2498618"><ele>409.00000000000006</ele><time>2026-04-19T08:54:44.161Z</time></trkpt><trkpt lat="44.3714519" lon="8.2497582"><ele>409.0</ele><time>2026-04-19T08:54:46.159Z</time></trkpt><trkpt lat="44.3714685" lon="8.2496604"><ele>409.0</ele><time>2026-04-19T08:54:48.161Z</time></trkpt><trkpt lat="44.3714887" lon="8.2495578"><ele>409.0</ele><time>2026-04-19T08:54:50.161Z</time></trkpt><trkpt lat="44.3715116" lon="8.2494553"><ele>409.00000000000006</ele><time>2026-04-19T08:54:52.161Z</time></trkpt><trkpt lat="44.3715438" lon="8.2493481"><ele>409.0</ele><time>2026-04-19T08:54:54.161Z</time></trkpt><trkpt lat="44.3715791" lon="8.2492432"><ele>409.00000000000006</ele><time>2026-04-19T08:54:56.16Z</time></trkpt><trkpt lat="44.3716169" lon="8.2491358"><ele>409.0</ele><time>2026-04-19T08:54:58.161Z</time></trkpt><trkpt lat="44.3716581" lon="8.2490297"><ele>409.0</ele><time>2026-04-19T08:55:00.161Z</time></trkpt><trkpt lat="44.3716952" lon="8.2489282"><ele>409.0</ele><time>2026-04-19T08:55:02.16Z</time></trkpt><trkpt lat="44.3717315" lon="8.2488299"><ele>409.00000000000006</ele><time>2026-04-19T08:55:04.161Z</time></trkpt><trkpt lat="44.3717681" lon="8.2487375"><ele>409.0</ele><time>2026-04-19T08:55:06.159Z</time></trkpt><trkpt lat="44.3718059" lon="8.2486392"><ele>409.50000000000006</ele><time>2026-04-19T08:55:08.16Z</time></trkpt><trkpt lat="44.371845" lon="8.2485376"><ele>410.0</ele><time>2026-04-19T08:55:10.16Z</time></trkpt><trkpt lat="44.371884" lon="8.248429"><ele>410.5</ele><time>2026-04-19T08:55:12.16Z</time></trkpt><trkpt lat="44.3719245" lon="8.2483205"><ele>411.0</ele><time>2026-04-19T08:55:14.16Z</time></trkpt><trkpt lat="44.3719656" lon="8.2482219"><ele>411.50000000000006</ele><time>2026-04-19T08:55:16.158Z</time></trkpt><trkpt lat="44.372009" lon="8.2481228"><ele>412.0</ele><time>2026-04-19T08:55:18.16Z</time></trkpt><trkpt lat="44.3720468" lon="8.2480218"><ele>412.00000000000006</ele><time>2026-04-19T08:55:20.16Z</time></trkpt><trkpt lat="44.3720934" lon="8.247915"><ele>412.0</ele><time>2026-04-19T08:55:22.159Z</time></trkpt><trkpt lat="44.3721355" lon="8.2478072"><ele>412.0</ele><time>2026-04-19T08:55:24.16Z</time></trkpt><trkpt lat="44.3721779" lon="8.2476972"><ele>412.0</ele><time>2026-04-19T08:55:26.161Z</time></trkpt><trkpt lat="44.3722174" lon="8.2475927"><ele>412.00000000000006</ele><time>2026-04-19T08:55:28.161Z</time></trkpt><trkpt lat="44.3722638" lon="8.2474891"><ele>412.0</ele><time>2026-04-19T08:55:30.159Z</time></trkpt><trkpt lat="44.3723089" lon="8.2473848"><ele>412.6666666666667</ele><time>2026-04-19T08:55:32.16Z</time></trkpt><trkpt lat="44.3723462" lon="8.2472737"><ele>413.33333333333337</ele><time>2026-04-19T08:55:34.16Z</time></trkpt><trkpt lat="44.3723755" lon="8.2471647"><ele>414.0</ele><time>2026-04-19T08:55:36.16Z</time></trkpt><trkpt lat="44.3724098" lon="8.2470488"><ele>414.66666666666663</ele><time>2026-04-19T08:55:38.161Z</time></trkpt><trkpt lat="44.3724366" lon="8.2469359"><ele>415.3333333333333</ele><time>2026-04-19T08:55:40.161Z</time></trkpt><trkpt lat="44.3724662" lon="8.2468298"><ele>416.0</ele><time>2026-04-19T08:55:42.16Z</time></trkpt><trkpt lat="44.3725002" lon="8.2467257"><ele>415.99999999999994</ele><time>2026-04-19T08:55:44.16Z</time></trkpt><trkpt lat="44.3725285" lon="8.2466188"><ele>416.0</ele><time>2026-04-19T08:55:46.161Z</time></trkpt><trkpt lat="44.3725556" lon="8.2465055"><ele>416.0</ele><time>2026-04-19T08:55:48.161Z</time></trkpt><trkpt lat="44.3725788" lon="8.2463903"><ele>416.0</ele><time>2026-04-19T08:55:50.161Z</time></trkpt><trkpt lat="44.3726043" lon="8.2462781"><ele>415.99999999999994</ele><time>2026-04-19T08:55:52.161Z</time></trkpt><trkpt lat="44.3726226" lon="8.246161"><ele>416.0</ele><time>2026-04-19T08:55:54.161Z</time></trkpt><trkpt lat="44.3726375" lon="8.2460495"><ele>416.16666666666663</ele><time>2026-04-19T08:55:56.159Z</time></trkpt><trkpt lat="44.3726532" lon="8.2459318"><ele>416.3333333333333</ele><time>2026-04-19T08:55:58.159Z</time></trkpt><trkpt lat="44.372665" lon="8.2458224"><ele>416.5</ele><time>2026-04-19T08:56:00.159Z</time></trkpt><trkpt lat="44.3726765" lon="8.2457038"><ele>416.66666666666663</ele><time>2026-04-19T08:56:02.16Z</time></trkpt><trkpt lat="44.3726822" lon="8.2455869"><ele>416.8333333333333</ele><time>2026-04-19T08:56:04.161Z</time></trkpt><trkpt lat="44.372691" lon="8.2454586"><ele>417.0</ele><time>2026-04-19T08:56:06.16Z</time></trkpt><trkpt lat="44.3726932" lon="8.2453421"><ele>417.0</ele><time>2026-04-19T08:56:08.16Z</time></trkpt><trkpt lat="44.3726946" lon="8.2452345"><ele>417.0</ele><time>2026-04-19T08:56:10.159Z</time></trkpt><trkpt lat="44.3726918" lon="8.2451206"><ele>417.0</ele><time>2026-04-19T08:56:12.16Z</time></trkpt><trkpt lat="44.3726922" lon="8.2450102"><ele>417.0</ele><time>2026-04-19T08:56:14.16Z</time></trkpt><trkpt lat="44.3726917" lon="8.2448957"><ele>417.0</ele><time>2026-04-19T08:56:16.161Z</time></trkpt><trkpt lat="44.3726882" lon="8.2447787"><ele>417.0</ele><time>2026-04-19T08:56:18.16Z</time></trkpt><trkpt lat="44.372689" lon="8.2446695"><ele>416.3333333333333</ele><time>2026-04-19T08:56:20.16Z</time></trkpt><trkpt lat="44.3726928" lon="8.2445634"><ele>415.66666666666663</ele><time>2026-04-19T08:56:22.16Z</time></trkpt><trkpt lat="44.3726992" lon="8.2444605"><ele>415.0</ele><time>2026-04-19T08:56:24.161Z</time></trkpt><trkpt lat="44.3727065" lon="8.2443594"><ele>414.3333333333333</ele><time>2026-04-19T08:56:26.16Z</time></trkpt><trkpt lat="44.3727082" lon="8.2442588"><ele>413.66666666666663</ele><time>2026-04-19T08:56:28.159Z</time></trkpt><trkpt lat="44.3727082" lon="8.2441489"><ele>413.0</ele><time>2026-04-19T08:56:30.159Z</time></trkpt><trkpt lat="44.3727058" lon="8.2440324"><ele>413.66666666666663</ele><time>2026-04-19T08:56:32.16Z</time></trkpt><trkpt lat="44.3727036" lon="8.2439232"><ele>414.3333333333333</ele><time>2026-04-19T08:56:34.161Z</time></trkpt><trkpt lat="44.3727077" lon="8.2438178"><ele>415.0</ele><time>2026-04-19T08:56:36.161Z</time></trkpt><trkpt lat="44.3727048" lon="8.2437021"><ele>415.66666666666663</ele><time>2026-04-19T08:56:38.16Z</time></trkpt><trkpt lat="44.3727068" lon="8.2435859"><ele>416.3333333333333</ele><time>2026-04-19T08:56:40.161Z</time></trkpt><trkpt lat="44.3727102" lon="8.243468"><ele>417.0</ele><time>2026-04-19T08:56:42.16Z</time></trkpt><trkpt lat="44.3727168" lon="8.2433492"><ele>417.0</ele><time>2026-04-19T08:56:44.16Z</time></trkpt><trkpt lat="44.3727188" lon="8.2432316"><ele>417.0</ele><time>2026-04-19T08:56:46.16Z</time></trkpt><trkpt lat="44.3727305" lon="8.243108"><ele>417.0</ele><time>2026-04-19T08:56:48.159Z</time></trkpt><trkpt lat="44.3727373" lon="8.242991"><ele>417.0</ele><time>2026-04-19T08:56:50.161Z</time></trkpt><trkpt lat="44.3727324" lon="8.2428868"><ele>417.0</ele><time>2026-04-19T08:56:52.161Z</time></trkpt><trkpt lat="44.3727374" lon="8.2427784"><ele>417.0</ele><time>2026-04-19T08:56:54.16Z</time></trkpt><trkpt lat="44.3727551" lon="8.2426713"><ele>417.5</ele><time>2026-04-19T08:56:56.159Z</time></trkpt><trkpt lat="44.3727733" lon="8.2425645"><ele>418.0</ele><time>2026-04-19T08:56:58.161Z</time></trkpt><trkpt lat="44.372791" lon="8.242459"><ele>418.5</ele><time>2026-04-19T08:57:00.16Z</time></trkpt><trkpt lat="44.3728107" lon="8.2423454"><ele>419.0</ele><time>2026-04-19T08:57:02.161Z</time></trkpt><trkpt lat="44.3728291" lon="8.242236"><ele>419.5</ele><time>2026-04-19T08:57:04.16Z</time></trkpt><trkpt lat="44.3728433" lon="8.2421229"><ele>420.0</ele><time>2026-04-19T08:57:06.16Z</time></trkpt><trkpt lat="44.3728505" lon="8.2420209"><ele>420.2857142857143</ele><time>2026-04-19T08:57:08.161Z</time></trkpt><trkpt lat="44.3728575" lon="8.2419182"><ele>420.57142857142856</ele><time>2026-04-19T08:57:10.158Z</time></trkpt><trkpt lat="44.3728658" lon="8.2418218"><ele>420.8571428571429</ele><time>2026-04-19T08:57:12.16Z</time></trkpt><trkpt lat="44.3728736" lon="8.241724"><ele>421.1428571428571</ele><time>2026-04-19T08:57:14.159Z</time></trkpt><trkpt lat="44.3728902" lon="8.2416301"><ele>421.42857142857144</ele><time>2026-04-19T08:57:16.161Z</time></trkpt><trkpt lat="44.3729029" lon="8.2415295"><ele>421.7142857142857</ele><time>2026-04-19T08:57:18.16Z</time></trkpt><trkpt lat="44.3729163" lon="8.2414278"><ele>422.0</ele><time>2026-04-19T08:57:20.16Z</time></trkpt><trkpt lat="44.3729266" lon="8.2413258"><ele>422.0</ele><time>2026-04-19T08:57:22.159Z</time></trkpt><trkpt lat="44.3729394" lon="8.2412232"><ele>422.0</ele><time>2026-04-19T08:57:24.16Z</time></trkpt><trkpt lat="44.3729549" lon="8.2411341"><ele>422.0</ele><time>2026-04-19T08:57:26.16Z</time></trkpt><trkpt lat="44.3729736" lon="8.2410352"><ele>422.0</ele><time>2026-04-19T08:57:28.159Z</time></trkpt><trkpt lat="44.3729867" lon="8.2409347"><ele>422.0</ele><time>2026-04-19T08:57:30.16Z</time></trkpt><trkpt lat="44.3730059" lon="8.2408403"><ele>422.0</ele><time>2026-04-19T08:57:32.161Z</time></trkpt><trkpt lat="44.373018" lon="8.2407489"><ele>422.0</ele><time>2026-04-19T08:57:34.16Z</time></trkpt><trkpt lat="44.3730334" lon="8.2406597"><ele>422.49999999999994</ele><time>2026-04-19T08:57:36.161Z</time></trkpt><trkpt lat="44.373046" lon="8.2405726"><ele>423.0</ele><time>2026-04-19T08:57:38.159Z</time></trkpt><trkpt lat="44.3730667" lon="8.240444"><ele>423.5</ele><time>2026-04-19T08:57:41.161Z</time></trkpt><trkpt lat="44.3730864" lon="8.2403554"><ele>424.0</ele><time>2026-04-19T08:57:43.16Z</time></trkpt><trkpt lat="44.3731125" lon="8.2402719"><ele>424.49999999999994</ele><time>2026-04-19T08:57:45.159Z</time></trkpt><trkpt lat="44.3731469" lon="8.2401456"><ele>425.0</ele><time>2026-04-19T08:57:48.16Z</time></trkpt><trkpt lat="44.3731618" lon="8.240055"><ele>424.99999999999994</ele><time>2026-04-19T08:57:50.16Z</time></trkpt><trkpt lat="44.3731745" lon="8.2399653"><ele>425.0</ele><time>2026-04-19T08:57:52.161Z</time></trkpt><trkpt lat="44.3731871" lon="8.2398459"><ele>425.0</ele><time>2026-04-19T08:57:55.16Z</time></trkpt><trkpt lat="44.3731979" lon="8.2397219"><ele>425.0</ele><time>2026-04-19T08:57:58.159Z</time></trkpt><trkpt lat="44.3732043" lon="8.2395971"><ele>424.99999999999994</ele><time>2026-04-19T08:58:01.159Z</time></trkpt><trkpt lat="44.3732254" lon="8.2394759"><ele>425.0</ele><time>2026-04-19T08:58:04.16Z</time></trkpt><trkpt lat="44.3732547" lon="8.2393584"><ele>426.16666666666663</ele><time>2026-04-19T08:58:07.161Z</time></trkpt><trkpt lat="44.3732848" lon="8.2392333"><ele>427.3333333333333</ele><time>2026-04-19T08:58:10.161Z</time></trkpt><trkpt lat="44.3733186" lon="8.2391125"><ele>428.5</ele><time>2026-04-19T08:58:13.16Z</time></trkpt><trkpt lat="44.3733445" lon="8.2390319"><ele>429.66666666666663</ele><time>2026-04-19T08:58:15.16Z</time></trkpt><trkpt lat="44.3733852" lon="8.2389196"><ele>430.8333333333333</ele><time>2026-04-19T08:58:18.16Z</time></trkpt><trkpt lat="44.3734254" lon="8.2388184"><ele>432.0</ele><time>2026-04-19T08:58:21.159Z</time></trkpt><trkpt lat="44.3734718" lon="8.2387078"><ele>433.0</ele><time>2026-04-19T08:58:24.159Z</time></trkpt><trkpt lat="44.3735258" lon="8.238613"><ele>434.0</ele><time>2026-04-19T08:58:27.16Z</time></trkpt><trkpt lat="44.3735811" lon="8.2385154"><ele>435.0</ele><time>2026-04-19T08:58:30.16Z</time></trkpt><trkpt lat="44.3736402" lon="8.2384181"><ele>436.0</ele><time>2026-04-19T08:58:33.159Z</time></trkpt><trkpt lat="44.3736967" lon="8.2383205"><ele>437.0</ele><time>2026-04-19T08:58:36.158Z</time></trkpt><trkpt lat="44.3737487" lon="8.238221"><ele>438.0</ele><time>2026-04-19T08:58:39.161Z</time></trkpt><trkpt lat="44.3738051" lon="8.2381307"><ele>438.3333333333333</ele><time>2026-04-19T08:58:42.161Z</time></trkpt><trkpt lat="44.373861" lon="8.238037"><ele>438.66666666666663</ele><time>2026-04-19T08:58:45.16Z</time></trkpt><trkpt lat="44.3739125" lon="8.2379347"><ele>439.0</ele><time>2026-04-19T08:58:48.159Z</time></trkpt><trkpt lat="44.3739651" lon="8.2378427"><ele>439.3333333333333</ele><time>2026-04-19T08:58:51.16Z</time></trkpt><trkpt lat="44.3740134" lon="8.2377486"><ele>439.66666666666663</ele><time>2026-04-19T08:58:54.159Z</time></trkpt><trkpt lat="44.3740681" lon="8.2376591"><ele>440.0</ele><time>2026-04-19T08:58:57.159Z</time></trkpt><trkpt lat="44.3741214" lon="8.2375726"><ele>439.99999999999994</ele><time>2026-04-19T08:59:00.161Z</time></trkpt><trkpt lat="44.3741709" lon="8.2374714"><ele>440.0</ele><time>2026-04-19T08:59:03.16Z</time></trkpt><trkpt lat="44.3742152" lon="8.2373666"><ele>440.0</ele><time>2026-04-19T08:59:06.16Z</time></trkpt><trkpt lat="44.3742625" lon="8.2373049"><ele>440.0</ele><time>2026-04-19T08:59:08.16Z</time></trkpt><trkpt lat="44.3743275" lon="8.2372126"><ele>439.99999999999994</ele><time>2026-04-19T08:59:11.16Z</time></trkpt><trkpt lat="44.3743686" lon="8.2371447"><ele>440.0</ele><time>2026-04-19T08:59:13.16Z</time></trkpt><trkpt lat="44.3744108" lon="8.2370761"><ele>440.3333333333333</ele><time>2026-04-19T08:59:15.16Z</time></trkpt><trkpt lat="44.3744701" lon="8.2369812"><ele>440.66666666666663</ele><time>2026-04-19T08:59:18.16Z</time></trkpt><trkpt lat="44.3745248" lon="8.2368872"><ele>441.0</ele><time>2026-04-19T08:59:21.161Z</time></trkpt><trkpt lat="44.3745823" lon="8.2367878"><ele>441.33333333333337</ele><time>2026-04-19T08:59:24.16Z</time></trkpt><trkpt lat="44.3746373" lon="8.2367002"><ele>441.6666666666667</ele><time>2026-04-19T08:59:27.16Z</time></trkpt><trkpt lat="44.3746946" lon="8.2365986"><ele>442.0</ele><time>2026-04-19T08:59:30.158Z</time></trkpt><trkpt lat="44.374734" lon="8.2365221"><ele>443.1666666666667</ele><time>2026-04-19T08:59:32.16Z</time></trkpt><trkpt lat="44.3747826" lon="8.236426"><ele>444.33333333333337</ele><time>2026-04-19T08:59:35.159Z</time></trkpt><trkpt lat="44.3748303" lon="8.2363387"><ele>445.5</ele><time>2026-04-19T08:59:38.16Z</time></trkpt><trkpt lat="44.3748795" lon="8.2362473"><ele>446.66666666666663</ele><time>2026-04-19T08:59:41.159Z</time></trkpt><trkpt lat="44.3749298" lon="8.2361525"><ele>447.8333333333333</ele><time>2026-04-19T08:59:44.159Z</time></trkpt><trkpt lat="44.3749719" lon="8.23606"><ele>449.0</ele><time>2026-04-19T08:59:47.159Z</time></trkpt><trkpt lat="44.3750238" lon="8.2359538"><ele>448.99999999999994</ele><time>2026-04-19T08:59:50.158Z</time></trkpt><trkpt lat="44.3750818" lon="8.2358585"><ele>449.0</ele><time>2026-04-19T08:59:53.159Z</time></trkpt><trkpt lat="44.3751404" lon="8.2357656"><ele>449.0</ele><time>2026-04-19T08:59:56.159Z</time></trkpt><trkpt lat="44.3751868" lon="8.2356707"><ele>449.0</ele><time>2026-04-19T08:59:59.16Z</time></trkpt><trkpt lat="44.3752348" lon="8.2355757"><ele>448.99999999999994</ele><time>2026-04-19T09:00:02.16Z</time></trkpt><trkpt lat="44.3752856" lon="8.2354887"><ele>449.0</ele><time>2026-04-19T09:00:05.16Z</time></trkpt><trkpt lat="44.3753383" lon="8.2354023"><ele>449.49999999999994</ele><time>2026-04-19T09:00:08.16Z</time></trkpt><trkpt lat="44.3753951" lon="8.2353066"><ele>450.0</ele><time>2026-04-19T09:00:11.159Z</time></trkpt><trkpt lat="44.3754487" lon="8.2352169"><ele>450.5</ele><time>2026-04-19T09:00:14.16Z</time></trkpt><trkpt lat="44.375494" lon="8.2351197"><ele>451.0</ele><time>2026-04-19T09:00:17.159Z</time></trkpt><trkpt lat="44.3755489" lon="8.2350211"><ele>451.49999999999994</ele><time>2026-04-19T09:00:20.159Z</time></trkpt><trkpt lat="44.3755922" lon="8.2349566"><ele>452.0</ele><time>2026-04-19T09:00:22.159Z</time></trkpt><trkpt lat="44.3756571" lon="8.2348642"><ele>453.14285714285717</ele><time>2026-04-19T09:00:25.159Z</time></trkpt><trkpt lat="44.3757005" lon="8.2347938"><ele>454.2857142857142</ele><time>2026-04-19T09:00:27.159Z</time></trkpt><trkpt lat="44.375767" lon="8.2347011"><ele>455.4285714285714</ele><time>2026-04-19T09:00:30.158Z</time></trkpt><trkpt lat="44.3758358" lon="8.2346226"><ele>456.57142857142856</ele><time>2026-04-19T09:00:33.159Z</time></trkpt><trkpt lat="44.3758839" lon="8.2345612"><ele>457.71428571428567</ele><time>2026-04-19T09:00:35.159Z</time></trkpt><trkpt lat="44.3759358" lon="8.2345101"><ele>458.8571428571428</ele><time>2026-04-19T09:00:37.159Z</time></trkpt><trkpt lat="44.3759953" lon="8.2344635"><ele>459.99999999999994</ele><time>2026-04-19T09:00:39.16Z</time></trkpt><trkpt lat="44.3760742" lon="8.2344049"><ele>460.00000000000006</ele><time>2026-04-19T09:00:42.159Z</time></trkpt><trkpt lat="44.3761587" lon="8.234365"><ele>460.0</ele><time>2026-04-19T09:00:45.16Z</time></trkpt><trkpt lat="44.3762238" lon="8.2343351"><ele>460.0</ele><time>2026-04-19T09:00:47.16Z</time></trkpt><trkpt lat="44.3762834" lon="8.234303"><ele>460.0</ele><time>2026-04-19T09:00:49.159Z</time></trkpt><trkpt lat="44.3763448" lon="8.2342734"><ele>460.00000000000006</ele><time>2026-04-19T09:00:51.16Z</time></trkpt><trkpt lat="44.3764329" lon="8.2342385"><ele>460.0</ele><time>2026-04-19T09:00:54.158Z</time></trkpt><trkpt lat="44.3765171" lon="8.2341989"><ele>459.6666666666667</ele><time>2026-04-19T09:00:57.16Z</time></trkpt><trkpt lat="44.3766004" lon="8.234154"><ele>459.33333333333337</ele><time>2026-04-19T09:01:00.16Z</time></trkpt><trkpt lat="44.3766846" lon="8.2341099"><ele>459.0</ele><time>2026-04-19T09:01:03.16Z</time></trkpt><trkpt lat="44.3767442" lon="8.2340717"><ele>458.66666666666663</ele><time>2026-04-19T09:01:05.159Z</time></trkpt><trkpt lat="44.3768238" lon="8.2340116"><ele>458.3333333333333</ele><time>2026-04-19T09:01:08.16Z</time></trkpt><trkpt lat="44.3768937" lon="8.2339622"><ele>458.0</ele><time>2026-04-19T09:01:11.159Z</time></trkpt><trkpt lat="44.376967" lon="8.2339159"><ele>459.66666666666663</ele><time>2026-04-19T09:01:14.157Z</time></trkpt><trkpt lat="44.3770256" lon="8.2338708"><ele>461.3333333333333</ele><time>2026-04-19T09:01:16.16Z</time></trkpt><trkpt lat="44.3770957" lon="8.2338166"><ele>463.0</ele><time>2026-04-19T09:01:19.158Z</time></trkpt><trkpt lat="44.377157" lon="8.2337672"><ele>464.66666666666663</ele><time>2026-04-19T09:01:22.16Z</time></trkpt><trkpt lat="44.3772232" lon="8.2337049"><ele>466.3333333333333</ele><time>2026-04-19T09:01:25.16Z</time></trkpt><trkpt lat="44.3772794" lon="8.233637"><ele>468.0</ele><time>2026-04-19T09:01:28.16Z</time></trkpt><trkpt lat="44.377308" lon="8.2335355"><ele>468.0</ele><time>2026-04-19T09:01:31.159Z</time></trkpt><trkpt lat="44.3772525" lon="8.2334463"><ele>468.00000000000006</ele><time>2026-04-19T09:01:34.159Z</time></trkpt><trkpt lat="44.377184" lon="8.2334259"><ele>468.0</ele><time>2026-04-19T09:01:36.16Z</time></trkpt><trkpt lat="44.3771182" lon="8.2334374"><ele>468.0</ele><time>2026-04-19T09:01:38.16Z</time></trkpt><trkpt lat="44.3770536" lon="8.2334575"><ele>468.00000000000006</ele><time>2026-04-19T09:01:40.158Z</time></trkpt><trkpt lat="44.3769849" lon="8.2334874"><ele>468.0</ele><time>2026-04-19T09:01:42.16Z</time></trkpt><trkpt lat="44.3769224" lon="8.2335213"><ele>468.0</ele><time>2026-04-19T09:01:44.159Z</time></trkpt><trkpt lat="44.3768556" lon="8.2335762"><ele>470.0</ele><time>2026-04-19T09:01:46.16Z</time></trkpt><trkpt lat="44.3767968" lon="8.2336479"><ele>472.0</ele><time>2026-04-19T09:01:48.159Z</time></trkpt><trkpt lat="44.3767389" lon="8.2337247"><ele>474.0</ele><time>2026-04-19T09:01:50.159Z</time></trkpt><trkpt lat="44.3766756" lon="8.2337989"><ele>476.0</ele><time>2026-04-19T09:01:52.16Z</time></trkpt><trkpt lat="44.3766161" lon="8.2338725"><ele>478.0</ele><time>2026-04-19T09:01:54.159Z</time></trkpt><trkpt lat="44.3765572" lon="8.2339261"><ele>480.0</ele><time>2026-04-19T09:01:56.16Z</time></trkpt><trkpt lat="44.3764961" lon="8.2339627"><ele>480.0</ele><time>2026-04-19T09:01:58.16Z</time></trkpt><trkpt lat="44.3764288" lon="8.2339676"><ele>480.0</ele><time>2026-04-19T09:02:00.159Z</time></trkpt><trkpt lat="44.376335" lon="8.233951"><ele>480.0</ele><time>2026-04-19T09:02:03.157Z</time></trkpt><trkpt lat="44.3762708" lon="8.2339323"><ele>480.0</ele><time>2026-04-19T09:02:05.159Z</time></trkpt><trkpt lat="44.3762048" lon="8.2339178"><ele>480.0</ele><time>2026-04-19T09:02:07.159Z</time></trkpt><trkpt lat="44.3761367" lon="8.2339117"><ele>480.0</ele><time>2026-04-19T09:02:09.16Z</time></trkpt><trkpt lat="44.3760453" lon="8.2338935"><ele>479.8571428571429</ele><time>2026-04-19T09:02:12.159Z</time></trkpt><trkpt lat="44.3759723" lon="8.2338825"><ele>479.71428571428567</ele><time>2026-04-19T09:02:15.159Z</time></trkpt><trkpt lat="44.3759124" lon="8.2338445"><ele>479.57142857142856</ele><time>2026-04-19T09:02:19.158Z</time></trkpt><trkpt lat="44.3758352" lon="8.2338144"><ele>479.42857142857144</ele><time>2026-04-19T09:02:22.16Z</time></trkpt><trkpt lat="44.37576" lon="8.2337865"><ele>479.28571428571433</ele><time>2026-04-19T09:02:25.158Z</time></trkpt><trkpt lat="44.3756855" lon="8.2337776"><ele>479.1428571428571</ele><time>2026-04-19T09:02:28.157Z</time></trkpt><trkpt lat="44.3756084" lon="8.2337785"><ele>479.0</ele><time>2026-04-19T09:02:31.159Z</time></trkpt><trkpt lat="44.3755342" lon="8.2337526"><ele>479.0</ele><time>2026-04-19T09:02:34.16Z</time></trkpt><trkpt lat="44.3754578" lon="8.2337336"><ele>479.0</ele><time>2026-04-19T09:02:37.159Z</time></trkpt><trkpt lat="44.3753827" lon="8.2337165"><ele>479.0</ele><time>2026-04-19T09:02:40.159Z</time></trkpt><trkpt lat="44.3753141" lon="8.2337105"><ele>479.0</ele><time>2026-04-19T09:02:43.158Z</time></trkpt><trkpt lat="44.375241" lon="8.2337053"><ele>479.0</ele><time>2026-04-19T09:02:46.16Z</time></trkpt><trkpt lat="44.3751685" lon="8.2336956"><ele>479.0</ele><time>2026-04-19T09:02:49.16Z</time></trkpt><trkpt lat="44.3750963" lon="8.2336741"><ele>479.0</ele><time>2026-04-19T09:02:52.16Z</time></trkpt><trkpt lat="44.3750232" lon="8.2336585"><ele>479.0</ele><time>2026-04-19T09:02:55.159Z</time></trkpt><trkpt lat="44.3749456" lon="8.2336541"><ele>479.0</ele><time>2026-04-19T09:02:58.159Z</time></trkpt><trkpt lat="44.3748746" lon="8.233663"><ele>479.0</ele><time>2026-04-19T09:03:01.16Z</time></trkpt><trkpt lat="44.3748066" lon="8.2336741"><ele>479.0</ele><time>2026-04-19T09:03:05.16Z</time></trkpt><trkpt lat="44.3747262" lon="8.2337024"><ele>479.0</ele><time>2026-04-19T09:03:08.157Z</time></trkpt><trkpt lat="44.3746538" lon="8.2337263"><ele>479.0</ele><time>2026-04-19T09:03:11.159Z</time></trkpt><trkpt lat="44.3745903" lon="8.2337422"><ele>479.0</ele><time>2026-04-19T09:03:14.16Z</time></trkpt><trkpt lat="44.3745258" lon="8.2337608"><ele>479.99999999999994</ele><time>2026-04-19T09:03:17.16Z</time></trkpt><trkpt lat="44.3744563" lon="8.2337659"><ele>481.0</ele><time>2026-04-19T09:03:20.158Z</time></trkpt><trkpt lat="44.374383" lon="8.2337511"><ele>482.0</ele><time>2026-04-19T09:03:23.16Z</time></trkpt><trkpt lat="44.3743129" lon="8.2337012"><ele>483.0</ele><time>2026-04-19T09:03:26.16Z</time></trkpt><trkpt lat="44.3742368" lon="8.2336458"><ele>483.99999999999994</ele><time>2026-04-19T09:03:29.159Z</time></trkpt><trkpt lat="44.3741659" lon="8.233597"><ele>485.0</ele><time>2026-04-19T09:03:32.16Z</time></trkpt><trkpt lat="44.3740862" lon="8.2335627"><ele>484.99999999999994</ele><time>2026-04-19T09:03:35.158Z</time></trkpt><trkpt lat="44.3739962" lon="8.2335453"><ele>485.0</ele><time>2026-04-19T09:03:38.158Z</time></trkpt><trkpt lat="44.3739128" lon="8.2335425"><ele>485.0</ele><time>2026-04-19T09:03:41.159Z</time></trkpt><trkpt lat="44.3738266" lon="8.2335311"><ele>485.0</ele><time>2026-04-19T09:03:44.16Z</time></trkpt><trkpt lat="44.3737671" lon="8.2335743"><ele>484.99999999999994</ele><time>2026-04-19T09:03:46.16Z</time></trkpt><trkpt lat="44.37369" lon="8.2336236"><ele>485.0</ele><time>2026-04-19T09:03:49.16Z</time></trkpt><trkpt lat="44.373609" lon="8.2336887"><ele>484.00000000000006</ele><time>2026-04-19T09:03:52.159Z</time></trkpt><trkpt lat="44.373559" lon="8.2337585"><ele>483.0</ele><time>2026-04-19T09:03:54.16Z</time></trkpt><trkpt lat="44.3735021" lon="8.2338144"><ele>482.00000000000006</ele><time>2026-04-19T09:03:58.16Z</time></trkpt><trkpt lat="44.3734378" lon="8.2338438"><ele>481.00000000000006</ele><time>2026-04-19T09:04:02.159Z</time></trkpt><trkpt lat="44.3733703" lon="8.2338962"><ele>480.0</ele><time>2026-04-19T09:04:06.158Z</time></trkpt><trkpt lat="44.3733246" lon="8.2339669"><ele>479.00000000000006</ele><time>2026-04-19T09:04:09.158Z</time></trkpt><trkpt lat="44.3732533" lon="8.2340094"><ele>478.00000000000006</ele><time>2026-04-19T09:04:13.159Z</time></trkpt><trkpt lat="44.3731753" lon="8.2340129"><ele>478.00000000000006</ele><time>2026-04-19T09:04:17.159Z</time></trkpt><trkpt lat="44.3731142" lon="8.233977"><ele>478.0</ele><time>2026-04-19T09:04:20.16Z</time></trkpt><trkpt lat="44.3730608" lon="8.2339242"><ele>478.00000000000006</ele><time>2026-04-19T09:04:23.159Z</time></trkpt><trkpt lat="44.3729921" lon="8.2338577"><ele>478.00000000000006</ele><time>2026-04-19T09:04:27.159Z</time></trkpt><trkpt lat="44.3729292" lon="8.2337863"><ele>478.0</ele><time>2026-04-19T09:04:31.159Z</time></trkpt><trkpt lat="44.3728858" lon="8.2337161"><ele>478.00000000000006</ele><time>2026-04-19T09:04:34.16Z</time></trkpt><trkpt lat="44.3728444" lon="8.233649"><ele>478.00000000000006</ele><time>2026-04-19T09:04:37.159Z</time></trkpt><trkpt lat="44.3728017" lon="8.2335807"><ele>479.8571428571429</ele><time>2026-04-19T09:04:40.157Z</time></trkpt><trkpt lat="44.3727375" lon="8.2335277"><ele>481.7142857142857</ele><time>2026-04-19T09:04:43.159Z</time></trkpt><trkpt lat="44.3726747" lon="8.2334766"><ele>483.57142857142856</ele><time>2026-04-19T09:04:46.16Z</time></trkpt><trkpt lat="44.3726133" lon="8.2334446"><ele>485.42857142857144</ele><time>2026-04-19T09:04:49.159Z</time></trkpt><trkpt lat="44.3725449" lon="8.233418"><ele>487.2857142857142</ele><time>2026-04-19T09:04:52.158Z</time></trkpt><trkpt lat="44.3724817" lon="8.233404"><ele>489.1428571428571</ele><time>2026-04-19T09:04:55.157Z</time></trkpt><trkpt lat="44.372404" lon="8.2333785"><ele>491.0</ele><time>2026-04-19T09:04:59.157Z</time></trkpt><trkpt lat="44.3723306" lon="8.2333294"><ele>491.0</ele><time>2026-04-19T09:05:03.159Z</time></trkpt><trkpt lat="44.3722728" lon="8.2332595"><ele>490.99999999999994</ele><time>2026-04-19T09:05:06.158Z</time></trkpt><trkpt lat="44.3722229" lon="8.2331806"><ele>491.0</ele><time>2026-04-19T09:05:09.16Z</time></trkpt><trkpt lat="44.3721665" lon="8.2331179"><ele>491.0</ele><time>2026-04-19T09:05:12.16Z</time></trkpt><trkpt lat="44.3721127" lon="8.2330584"><ele>490.99999999999994</ele><time>2026-04-19T09:05:15.158Z</time></trkpt><trkpt lat="44.3720695" lon="8.2329874"><ele>491.0</ele><time>2026-04-19T09:05:18.159Z</time></trkpt><trkpt lat="44.3720228" lon="8.2329101"><ele>491.0</ele><time>2026-04-19T09:05:21.16Z</time></trkpt><trkpt lat="44.3719761" lon="8.2328335"><ele>491.2857142857143</ele><time>2026-04-19T09:05:24.159Z</time></trkpt><trkpt lat="44.3719214" lon="8.2327709"><ele>491.57142857142856</ele><time>2026-04-19T09:05:27.158Z</time></trkpt><trkpt lat="44.3718608" lon="8.2327217"><ele>491.85714285714283</ele><time>2026-04-19T09:05:30.158Z</time></trkpt><trkpt lat="44.3718037" lon="8.2326579"><ele>492.1428571428571</ele><time>2026-04-19T09:05:33.158Z</time></trkpt><trkpt lat="44.3717554" lon="8.2325867"><ele>492.42857142857144</ele><time>2026-04-19T09:05:36.158Z</time></trkpt><trkpt lat="44.3717047" lon="8.2325174"><ele>492.71428571428567</ele><time>2026-04-19T09:05:39.158Z</time></trkpt><trkpt lat="44.3716573" lon="8.2324467"><ele>493.0</ele><time>2026-04-19T09:05:42.157Z</time></trkpt><trkpt lat="44.371612" lon="8.2323837"><ele>493.0</ele><time>2026-04-19T09:05:45.159Z</time></trkpt><trkpt lat="44.3715731" lon="8.2323117"><ele>493.0</ele><time>2026-04-19T09:05:48.16Z</time></trkpt><trkpt lat="44.3715222" lon="8.2322458"><ele>493.0</ele><time>2026-04-19T09:05:51.159Z</time></trkpt><trkpt lat="44.3714664" lon="8.2321856"><ele>493.0</ele><time>2026-04-19T09:05:54.159Z</time></trkpt><trkpt lat="44.3714036" lon="8.232129"><ele>493.0</ele><time>2026-04-19T09:05:57.159Z</time></trkpt><trkpt lat="44.3713529" lon="8.2320684"><ele>493.0</ele><time>2026-04-19T09:06:00.159Z</time></trkpt><trkpt lat="44.3712941" lon="8.2319927"><ele>493.0</ele><time>2026-04-19T09:06:04.159Z</time></trkpt><trkpt lat="44.3712325" lon="8.2319429"><ele>496.42857142857144</ele><time>2026-04-19T09:06:08.159Z</time></trkpt><trkpt lat="44.3711602" lon="8.2319339"><ele>499.8571428571429</ele><time>2026-04-19T09:06:11.159Z</time></trkpt><trkpt lat="44.371097" lon="8.2319256"><ele>503.28571428571433</ele><time>2026-04-19T09:06:14.159Z</time></trkpt><trkpt lat="44.3710144" lon="8.2319484"><ele>506.7142857142857</ele><time>2026-04-19T09:06:19.159Z</time></trkpt><trkpt lat="44.3709524" lon="8.2319702"><ele>510.1428571428572</ele><time>2026-04-19T09:06:22.159Z</time></trkpt><trkpt lat="44.3708789" lon="8.2320016"><ele>513.5714285714286</ele><time>2026-04-19T09:06:26.157Z</time></trkpt><trkpt lat="44.3708179" lon="8.2320276"><ele>517.0</ele><time>2026-04-19T09:06:29.16Z</time></trkpt><trkpt lat="44.3707556" lon="8.232043"><ele>517.0</ele><time>2026-04-19T09:06:32.157Z</time></trkpt><trkpt lat="44.3706855" lon="8.2320448"><ele>517.0</ele><time>2026-04-19T09:06:35.158Z</time></trkpt><trkpt lat="44.3706146" lon="8.2320456"><ele>517.0</ele><time>2026-04-19T09:06:38.159Z</time></trkpt><trkpt lat="44.3705499" lon="8.2320285"><ele>517.0</ele><time>2026-04-19T09:06:41.159Z</time></trkpt><trkpt lat="44.3704932" lon="8.2319572"><ele>517.0</ele><time>2026-04-19T09:06:44.159Z</time></trkpt><trkpt lat="44.3704353" lon="8.2318876"><ele>517.0</ele><time>2026-04-19T09:06:47.158Z</time></trkpt><trkpt lat="44.3703781" lon="8.2318367"><ele>517.0</ele><time>2026-04-19T09:06:50.159Z</time></trkpt><trkpt lat="44.3703282" lon="8.2317751"><ele>516.8571428571429</ele><time>2026-04-19T09:06:53.16Z</time></trkpt><trkpt lat="44.3702791" lon="8.2317006"><ele>516.7142857142858</ele><time>2026-04-19T09:06:56.159Z</time></trkpt><trkpt lat="44.3702391" lon="8.2316288"><ele>516.5714285714286</ele><time>2026-04-19T09:06:59.158Z</time></trkpt><trkpt lat="44.3701938" lon="8.2315304"><ele>516.4285714285714</ele><time>2026-04-19T09:07:03.159Z</time></trkpt><trkpt lat="44.3701592" lon="8.2314511"><ele>516.2857142857142</ele><time>2026-04-19T09:07:06.159Z</time></trkpt><trkpt lat="44.3701425" lon="8.2313611"><ele>516.1428571428571</ele><time>2026-04-19T09:07:09.158Z</time></trkpt><trkpt lat="44.3701422" lon="8.2312601"><ele>516.0</ele><time>2026-04-19T09:07:12.159Z</time></trkpt><trkpt lat="44.3701418" lon="8.2311534"><ele>515.9999999999999</ele><time>2026-04-19T09:07:15.159Z</time></trkpt><trkpt lat="44.3701212" lon="8.2310564"><ele>516.0</ele><time>2026-04-19T09:07:18.16Z</time></trkpt><trkpt lat="44.3701093" lon="8.2309625"><ele>516.0</ele><time>2026-04-19T09:07:21.159Z</time></trkpt><trkpt lat="44.3700894" lon="8.2308561"><ele>516.0</ele><time>2026-04-19T09:07:25.158Z</time></trkpt><trkpt lat="44.370075" lon="8.2307563"><ele>516.0</ele><time>2026-04-19T09:07:28.158Z</time></trkpt><trkpt lat="44.3700807" lon="8.2306671"><ele>515.9999999999999</ele><time>2026-04-19T09:07:31.158Z</time></trkpt><trkpt lat="44.3700589" lon="8.230581"><ele>516.0</ele><time>2026-04-19T09:07:34.158Z</time></trkpt><trkpt lat="44.3700438" lon="8.2304825"><ele>517.2857142857142</ele><time>2026-04-19T09:07:37.158Z</time></trkpt><trkpt lat="44.3700252" lon="8.2303821"><ele>518.5714285714286</ele><time>2026-04-19T09:07:40.157Z</time></trkpt><trkpt lat="44.3700011" lon="8.2302825"><ele>519.8571428571429</ele><time>2026-04-19T09:07:43.158Z</time></trkpt><trkpt lat="44.3699834" lon="8.2301978"><ele>521.1428571428571</ele><time>2026-04-19T09:07:46.158Z</time></trkpt><trkpt lat="44.3699536" lon="8.2301187"><ele>522.4285714285714</ele><time>2026-04-19T09:07:49.159Z</time></trkpt><trkpt lat="44.3699206" lon="8.2300355"><ele>523.7142857142857</ele><time>2026-04-19T09:07:52.158Z</time></trkpt><trkpt lat="44.3699138" lon="8.2299473"><ele>525.0</ele><time>2026-04-19T09:07:56.158Z</time></trkpt><trkpt lat="44.3698977" lon="8.2298278"><ele>525.8333333333334</ele><time>2026-04-19T09:08:00.159Z</time></trkpt><trkpt lat="44.3698728" lon="8.2297342"><ele>526.6666666666666</ele><time>2026-04-19T09:08:03.157Z</time></trkpt><trkpt lat="44.3698727" lon="8.2296172"><ele>527.5</ele><time>2026-04-19T09:08:06.157Z</time></trkpt><trkpt lat="44.3698633" lon="8.2295117"><ele>528.3333333333333</ele><time>2026-04-19T09:08:09.158Z</time></trkpt><trkpt lat="44.3698187" lon="8.2294105"><ele>529.1666666666666</ele><time>2026-04-19T09:08:12.158Z</time></trkpt><trkpt lat="44.3697942" lon="8.2293277"><ele>530.0</ele><time>2026-04-19T09:08:15.158Z</time></trkpt><trkpt lat="44.3697349" lon="8.2292758"><ele>531.9999999999999</ele><time>2026-04-19T09:08:18.157Z</time></trkpt><trkpt lat="44.3696496" lon="8.2292823"><ele>534.0</ele><time>2026-04-19T09:08:22.158Z</time></trkpt><trkpt lat="44.369588" lon="8.2293039"><ele>536.0</ele><time>2026-04-19T09:08:25.157Z</time></trkpt><trkpt lat="44.3695205" lon="8.2293302"><ele>538.0</ele><time>2026-04-19T09:08:28.159Z</time></trkpt><trkpt lat="44.3694579" lon="8.2293949"><ele>540.0</ele><time>2026-04-19T09:08:32.158Z</time></trkpt><trkpt lat="44.3694191" lon="8.2294987"><ele>541.9999999999999</ele><time>2026-04-19T09:08:35.159Z</time></trkpt><trkpt lat="44.3694005" lon="8.2295858"><ele>544.0</ele><time>2026-04-19T09:08:37.158Z</time></trkpt><trkpt lat="44.3693841" lon="8.2296771"><ele>544.0</ele><time>2026-04-19T09:08:39.157Z</time></trkpt><trkpt lat="44.369362" lon="8.2297718"><ele>544.0</ele><time>2026-04-19T09:08:41.158Z</time></trkpt><trkpt lat="44.3693459" lon="8.229862"><ele>544.0</ele><time>2026-04-19T09:08:43.159Z</time></trkpt><trkpt lat="44.3693186" lon="8.2299807"><ele>544.0</ele><time>2026-04-19T09:08:46.157Z</time></trkpt><trkpt lat="44.3692951" lon="8.2300975"><ele>544.0</ele><time>2026-04-19T09:08:49.158Z</time></trkpt><trkpt lat="44.369282" lon="8.2302166"><ele>544.0</ele><time>2026-04-19T09:08:52.159Z</time></trkpt><trkpt lat="44.3692623" lon="8.2303095"><ele>543.3333333333334</ele><time>2026-04-19T09:08:55.158Z</time></trkpt><trkpt lat="44.3692435" lon="8.2304175"><ele>542.6666666666667</ele><time>2026-04-19T09:08:58.158Z</time></trkpt><trkpt lat="44.3692374" lon="8.2305327"><ele>542.0</ele><time>2026-04-19T09:09:01.157Z</time></trkpt><trkpt lat="44.3691935" lon="8.2306465"><ele>541.3333333333334</ele><time>2026-04-19T09:09:04.159Z</time></trkpt><trkpt lat="44.3691726" lon="8.2307394"><ele>540.6666666666666</ele><time>2026-04-19T09:09:07.157Z</time></trkpt><trkpt lat="44.369148" lon="8.2308568"><ele>540.0</ele><time>2026-04-19T09:09:10.159Z</time></trkpt><trkpt lat="44.369121" lon="8.2309383"><ele>540.0</ele><time>2026-04-19T09:09:12.157Z</time></trkpt><trkpt lat="44.3690917" lon="8.2310457"><ele>540.0</ele><time>2026-04-19T09:09:15.158Z</time></trkpt><trkpt lat="44.3690521" lon="8.2311165"><ele>540.0</ele><time>2026-04-19T09:09:17.159Z</time></trkpt><trkpt lat="44.3689799" lon="8.2311867"><ele>540.0</ele><time>2026-04-19T09:09:20.158Z</time></trkpt><trkpt lat="44.3689211" lon="8.2312269"><ele>540.0</ele><time>2026-04-19T09:09:22.159Z</time></trkpt><trkpt lat="44.3688488" lon="8.2312668"><ele>540.0</ele><time>2026-04-19T09:09:24.158Z</time></trkpt><trkpt lat="44.3687722" lon="8.2313044"><ele>540.0</ele><time>2026-04-19T09:09:26.159Z</time></trkpt><trkpt lat="44.3686819" lon="8.2313462"><ele>540.0</ele><time>2026-04-19T09:09:28.157Z</time></trkpt><trkpt lat="44.3685959" lon="8.2314175"><ele>540.0</ele><time>2026-04-19T09:09:30.157Z</time></trkpt><trkpt lat="44.3685217" lon="8.2315045"><ele>540.0</ele><time>2026-04-19T09:09:32.158Z</time></trkpt><trkpt lat="44.368465" lon="8.2315931"><ele>540.0</ele><time>2026-04-19T09:09:34.159Z</time></trkpt><trkpt lat="44.3684181" lon="8.2316928"><ele>539.5714285714286</ele><time>2026-04-19T09:09:36.157Z</time></trkpt><trkpt lat="44.3683873" lon="8.2317875"><ele>539.1428571428571</ele><time>2026-04-19T09:09:38.158Z</time></trkpt><trkpt lat="44.3683673" lon="8.2318808"><ele>538.7142857142857</ele><time>2026-04-19T09:09:40.157Z</time></trkpt><trkpt lat="44.3683379" lon="8.2319747"><ele>538.2857142857142</ele><time>2026-04-19T09:09:42.158Z</time></trkpt><trkpt lat="44.3683073" lon="8.2320656"><ele>537.8571428571429</ele><time>2026-04-19T09:09:44.159Z</time></trkpt><trkpt lat="44.3682836" lon="8.2321581"><ele>537.4285714285713</ele><time>2026-04-19T09:09:46.158Z</time></trkpt><trkpt lat="44.368266" lon="8.2322459"><ele>537.0</ele><time>2026-04-19T09:09:48.158Z</time></trkpt><trkpt lat="44.3682504" lon="8.2323374"><ele>536.7142857142857</ele><time>2026-04-19T09:09:50.158Z</time></trkpt><trkpt lat="44.3682187" lon="8.2324593"><ele>536.4285714285714</ele><time>2026-04-19T09:09:53.159Z</time></trkpt><trkpt lat="44.3681973" lon="8.2325483"><ele>536.1428571428571</ele><time>2026-04-19T09:09:55.159Z</time></trkpt><trkpt lat="44.3681787" lon="8.2326414"><ele>535.8571428571429</ele><time>2026-04-19T09:09:57.16Z</time></trkpt><trkpt lat="44.3681674" lon="8.2327383"><ele>535.5714285714286</ele><time>2026-04-19T09:09:59.158Z</time></trkpt><trkpt lat="44.3681522" lon="8.2328392"><ele>535.2857142857142</ele><time>2026-04-19T09:10:01.157Z</time></trkpt><trkpt lat="44.3681459" lon="8.2329411"><ele>535.0</ele><time>2026-04-19T09:10:03.158Z</time></trkpt><trkpt lat="44.3681394" lon="8.233041"><ele>534.1666666666667</ele><time>2026-04-19T09:10:05.157Z</time></trkpt><trkpt lat="44.3681376" lon="8.2331451"><ele>533.3333333333334</ele><time>2026-04-19T09:10:07.157Z</time></trkpt><trkpt lat="44.3681401" lon="8.2332693"><ele>532.5</ele><time>2026-04-19T09:10:09.156Z</time></trkpt><trkpt lat="44.3681392" lon="8.2333974"><ele>531.6666666666666</ele><time>2026-04-19T09:10:11.158Z</time></trkpt><trkpt lat="44.3681404" lon="8.2335347"><ele>530.8333333333333</ele><time>2026-04-19T09:10:13.158Z</time></trkpt><trkpt lat="44.3681424" lon="8.2336655"><ele>530.0</ele><time>2026-04-19T09:10:15.158Z</time></trkpt><trkpt lat="44.3681115" lon="8.2338093"><ele>530.0</ele><time>2026-04-19T09:10:17.157Z</time></trkpt><trkpt lat="44.3680747" lon="8.2339423"><ele>530.0</ele><time>2026-04-19T09:10:19.157Z</time></trkpt><trkpt lat="44.3680369" lon="8.2340707"><ele>530.0</ele><time>2026-04-19T09:10:21.157Z</time></trkpt><trkpt lat="44.367981" lon="8.2341976"><ele>530.0</ele><time>2026-04-19T09:10:23.157Z</time></trkpt><trkpt lat="44.3679233" lon="8.2342567"><ele>530.0</ele><time>2026-04-19T09:10:24.159Z</time></trkpt><trkpt lat="44.3678547" lon="8.2343609"><ele>530.0</ele><time>2026-04-19T09:10:26.159Z</time></trkpt><trkpt lat="44.3677866" lon="8.23446"><ele>530.0</ele><time>2026-04-19T09:10:28.158Z</time></trkpt><trkpt lat="44.3677117" lon="8.2345661"><ele>530.0</ele><time>2026-04-19T09:10:30.157Z</time></trkpt><trkpt lat="44.3676165" lon="8.2346543"><ele>530.0</ele><time>2026-04-19T09:10:32.158Z</time></trkpt><trkpt lat="44.3675374" lon="8.23478"><ele>530.0</ele><time>2026-04-19T09:10:34.157Z</time></trkpt><trkpt lat="44.367498" lon="8.2349436"><ele>529.9999999999999</ele><time>2026-04-19T09:10:36.157Z</time></trkpt><trkpt lat="44.3674811" lon="8.2350397"><ele>530.0</ele><time>2026-04-19T09:10:37.159Z</time></trkpt><trkpt lat="44.3674854" lon="8.2351377"><ele>530.0</ele><time>2026-04-19T09:10:38.158Z</time></trkpt><trkpt lat="44.3674873" lon="8.2352408"><ele>530.0</ele><time>2026-04-19T09:10:39.159Z</time></trkpt><trkpt lat="44.3674953" lon="8.2353309"><ele>530.0</ele><time>2026-04-19T09:10:40.157Z</time></trkpt><trkpt lat="44.3675012" lon="8.235439"><ele>529.9999999999999</ele><time>2026-04-19T09:10:41.158Z</time></trkpt><trkpt lat="44.3675074" lon="8.2355407"><ele>530.0</ele><time>2026-04-19T09:10:42.159Z</time></trkpt><trkpt lat="44.3675095" lon="8.2356431"><ele>529.4285714285713</ele><time>2026-04-19T09:10:43.158Z</time></trkpt><trkpt lat="44.3675119" lon="8.2357476"><ele>528.8571428571429</ele><time>2026-04-19T09:10:44.158Z</time></trkpt><trkpt lat="44.3675212" lon="8.2358588"><ele>528.2857142857142</ele><time>2026-04-19T09:10:45.158Z</time></trkpt><trkpt lat="44.3675261" lon="8.2359641"><ele>527.7142857142857</ele><time>2026-04-19T09:10:46.157Z</time></trkpt><trkpt lat="44.367519" lon="8.23606"><ele>527.1428571428571</ele><time>2026-04-19T09:10:47.158Z</time></trkpt><trkpt lat="44.3675367" lon="8.2361596"><ele>526.5714285714286</ele><time>2026-04-19T09:10:48.158Z</time></trkpt><trkpt lat="44.3675424" lon="8.2362572"><ele>526.0</ele><time>2026-04-19T09:10:49.157Z</time></trkpt><trkpt lat="44.3675514" lon="8.2363497"><ele>525.4</ele><time>2026-04-19T09:10:50.157Z</time></trkpt><trkpt lat="44.3675949" lon="8.2365045"><ele>524.8</ele><time>2026-04-19T09:10:52.157Z</time></trkpt><trkpt lat="44.3676439" lon="8.2366581"><ele>524.1999999999999</ele><time>2026-04-19T09:10:54.158Z</time></trkpt><trkpt lat="44.367697" lon="8.236777"><ele>523.6</ele><time>2026-04-19T09:10:56.159Z</time></trkpt><trkpt lat="44.3677507" lon="8.2368767"><ele>523.0</ele><time>2026-04-19T09:10:58.158Z</time></trkpt><trkpt lat="44.3678058" lon="8.2369612"><ele>522.9999999999999</ele><time>2026-04-19T09:11:00.159Z</time></trkpt><trkpt lat="44.3678474" lon="8.2370348"><ele>523.0</ele><time>2026-04-19T09:11:02.159Z</time></trkpt><trkpt lat="44.3679" lon="8.2371189"><ele>523.0</ele><time>2026-04-19T09:11:04.158Z</time></trkpt><trkpt lat="44.3679497" lon="8.2371947"><ele>523.0</ele><time>2026-04-19T09:11:06.157Z</time></trkpt><trkpt lat="44.3680022" lon="8.2372653"><ele>523.0</ele><time>2026-04-19T09:11:08.158Z</time></trkpt><trkpt lat="44.3680531" lon="8.2373351"><ele>522.9999999999999</ele><time>2026-04-19T09:11:10.159Z</time></trkpt><trkpt lat="44.3681039" lon="8.2374116"><ele>523.0</ele><time>2026-04-19T09:11:12.157Z</time></trkpt><trkpt lat="44.3681626" lon="8.2375091"><ele>523.4285714285713</ele><time>2026-04-19T09:11:14.158Z</time></trkpt><trkpt lat="44.3682152" lon="8.2375912"><ele>523.8571428571429</ele><time>2026-04-19T09:11:16.159Z</time></trkpt><trkpt lat="44.3682628" lon="8.2376708"><ele>524.2857142857142</ele><time>2026-04-19T09:11:18.159Z</time></trkpt><trkpt lat="44.3683108" lon="8.2377441"><ele>524.7142857142857</ele><time>2026-04-19T09:11:20.158Z</time></trkpt><trkpt lat="44.3683593" lon="8.2378185"><ele>525.1428571428571</ele><time>2026-04-19T09:11:22.158Z</time></trkpt><trkpt lat="44.368396" lon="8.2378938"><ele>525.5714285714286</ele><time>2026-04-19T09:11:24.158Z</time></trkpt><trkpt lat="44.3684296" lon="8.2379707"><ele>526.0</ele><time>2026-04-19T09:11:26.158Z</time></trkpt><trkpt lat="44.3684591" lon="8.2380541"><ele>525.5</ele><time>2026-04-19T09:11:28.158Z</time></trkpt><trkpt lat="44.3684812" lon="8.2381438"><ele>525.0</ele><time>2026-04-19T09:11:30.157Z</time></trkpt><trkpt lat="44.3684888" lon="8.2382455"><ele>524.5</ele><time>2026-04-19T09:11:32.157Z</time></trkpt><trkpt lat="44.3685003" lon="8.2383599"><ele>524.0</ele><time>2026-04-19T09:11:34.158Z</time></trkpt><trkpt lat="44.368497" lon="8.2384944"><ele>523.5</ele><time>2026-04-19T09:11:36.159Z</time></trkpt><trkpt lat="44.3684931" lon="8.2386285"><ele>523.0</ele><time>2026-04-19T09:11:38.158Z</time></trkpt><trkpt lat="44.3685044" lon="8.2387849"><ele>523.0</ele><time>2026-04-19T09:11:40.158Z</time></trkpt><trkpt lat="44.3685035" lon="8.2389534"><ele>523.0</ele><time>2026-04-19T09:11:42.159Z</time></trkpt><trkpt lat="44.3684903" lon="8.2390435"><ele>523.0</ele><time>2026-04-19T09:11:43.158Z</time></trkpt><trkpt lat="44.3684785" lon="8.2391376"><ele>523.0</ele><time>2026-04-19T09:11:44.158Z</time></trkpt><trkpt lat="44.3684674" lon="8.2392429"><ele>523.0</ele><time>2026-04-19T09:11:45.157Z</time></trkpt><trkpt lat="44.3684513" lon="8.2393536"><ele>523.0</ele><time>2026-04-19T09:11:46.159Z</time></trkpt><trkpt lat="44.368427" lon="8.2394598"><ele>523.0</ele><time>2026-04-19T09:11:47.159Z</time></trkpt><trkpt lat="44.3683916" lon="8.2395632"><ele>523.0</ele><time>2026-04-19T09:11:48.159Z</time></trkpt><trkpt lat="44.3683494" lon="8.2396669"><ele>523.0</ele><time>2026-04-19T09:11:49.158Z</time></trkpt><trkpt lat="44.3683016" lon="8.239767"><ele>523.0</ele><time>2026-04-19T09:11:50.159Z</time></trkpt><trkpt lat="44.3682535" lon="8.239864"><ele>523.0</ele><time>2026-04-19T09:11:51.158Z</time></trkpt><trkpt lat="44.368197" lon="8.2399508"><ele>523.0</ele><time>2026-04-19T09:11:52.158Z</time></trkpt><trkpt lat="44.3681427" lon="8.2400376"><ele>522.4285714285713</ele><time>2026-04-19T09:11:53.159Z</time></trkpt><trkpt lat="44.3680926" lon="8.2401198"><ele>521.8571428571429</ele><time>2026-04-19T09:11:54.157Z</time></trkpt><trkpt lat="44.3680274" lon="8.2401828"><ele>521.2857142857142</ele><time>2026-04-19T09:11:55.159Z</time></trkpt><trkpt lat="44.3679665" lon="8.2402467"><ele>520.7142857142857</ele><time>2026-04-19T09:11:56.158Z</time></trkpt><trkpt lat="44.367911" lon="8.2403048"><ele>520.1428571428571</ele><time>2026-04-19T09:11:57.157Z</time></trkpt><trkpt lat="44.3678484" lon="8.240363"><ele>519.5714285714286</ele><time>2026-04-19T09:11:58.158Z</time></trkpt><trkpt lat="44.3677947" lon="8.2404265"><ele>519.0</ele><time>2026-04-19T09:11:59.159Z</time></trkpt><trkpt lat="44.3677411" lon="8.240488"><ele>518.5</ele><time>2026-04-19T09:12:00.157Z</time></trkpt><trkpt lat="44.3676824" lon="8.2405517"><ele>518.0</ele><time>2026-04-19T09:12:01.159Z</time></trkpt><trkpt lat="44.3676251" lon="8.2406296"><ele>517.5</ele><time>2026-04-19T09:12:02.157Z</time></trkpt><trkpt lat="44.3675683" lon="8.2406927"><ele>517.0</ele><time>2026-04-19T09:12:03.157Z</time></trkpt><trkpt lat="44.3675061" lon="8.2407501"><ele>516.5</ele><time>2026-04-19T09:12:04.158Z</time></trkpt><trkpt lat="44.3674418" lon="8.2408021"><ele>516.0</ele><time>2026-04-19T09:12:05.158Z</time></trkpt><trkpt lat="44.3673699" lon="8.240854"><ele>516.0</ele><time>2026-04-19T09:12:06.157Z</time></trkpt><trkpt lat="44.3672958" lon="8.2408851"><ele>516.0</ele><time>2026-04-19T09:12:07.158Z</time></trkpt><trkpt lat="44.3672154" lon="8.2408966"><ele>516.0</ele><time>2026-04-19T09:12:08.158Z</time></trkpt><trkpt lat="44.3671246" lon="8.2408861"><ele>516.0</ele><time>2026-04-19T09:12:09.158Z</time></trkpt><trkpt lat="44.3670305" lon="8.2408637"><ele>516.0</ele><time>2026-04-19T09:12:10.158Z</time></trkpt><trkpt lat="44.3669348" lon="8.2408117"><ele>516.0</ele><time>2026-04-19T09:12:11.159Z</time></trkpt><trkpt lat="44.3668402" lon="8.2407282"><ele>513.6</ele><time>2026-04-19T09:12:12.158Z</time></trkpt><trkpt lat="44.3667537" lon="8.2406696"><ele>511.20000000000005</ele><time>2026-04-19T09:12:13.157Z</time></trkpt><trkpt lat="44.3666658" lon="8.2406055"><ele>508.79999999999995</ele><time>2026-04-19T09:12:14.158Z</time></trkpt><trkpt lat="44.3665788" lon="8.2405464"><ele>506.4</ele><time>2026-04-19T09:12:15.158Z</time></trkpt><trkpt lat="44.3665045" lon="8.2404941"><ele>504.0</ele><time>2026-04-19T09:12:16.157Z</time></trkpt><trkpt lat="44.3664347" lon="8.2404288"><ele>503.5</ele><time>2026-04-19T09:12:17.158Z</time></trkpt><trkpt lat="44.3663885" lon="8.2403526"><ele>503.0</ele><time>2026-04-19T09:12:18.158Z</time></trkpt><trkpt lat="44.3663542" lon="8.2402617"><ele>502.5</ele><time>2026-04-19T09:12:19.158Z</time></trkpt><trkpt lat="44.3663533" lon="8.2401511"><ele>502.0</ele><time>2026-04-19T09:12:20.157Z</time></trkpt><trkpt lat="44.3663785" lon="8.2400564"><ele>501.5</ele><time>2026-04-19T09:12:21.157Z</time></trkpt><trkpt lat="44.3664324" lon="8.2399723"><ele>501.0</ele><time>2026-04-19T09:12:22.159Z</time></trkpt><trkpt lat="44.3664894" lon="8.2399049"><ele>501.0</ele><time>2026-04-19T09:12:23.157Z</time></trkpt><trkpt lat="44.3665514" lon="8.2398454"><ele>501.0</ele><time>2026-04-19T09:12:24.159Z</time></trkpt><trkpt lat="44.3666223" lon="8.2397873"><ele>501.0</ele><time>2026-04-19T09:12:25.159Z</time></trkpt><trkpt lat="44.3666976" lon="8.2397356"><ele>501.0</ele><time>2026-04-19T09:12:26.159Z</time></trkpt><trkpt lat="44.3667828" lon="8.239707"><ele>501.0</ele><time>2026-04-19T09:12:27.156Z</time></trkpt><trkpt lat="44.3668729" lon="8.239697"><ele>501.0</ele><time>2026-04-19T09:12:28.158Z</time></trkpt><trkpt lat="44.3669648" lon="8.2397011"><ele>501.1666666666667</ele><time>2026-04-19T09:12:29.159Z</time></trkpt><trkpt lat="44.3670362" lon="8.2397086"><ele>501.33333333333337</ele><time>2026-04-19T09:12:30.158Z</time></trkpt><trkpt lat="44.3671093" lon="8.2396914"><ele>501.5</ele><time>2026-04-19T09:12:31.158Z</time></trkpt><trkpt lat="44.367221" lon="8.2395851"><ele>501.6666666666667</ele><time>2026-04-19T09:12:33.158Z</time></trkpt><trkpt lat="44.3672586" lon="8.2395039"><ele>501.83333333333337</ele><time>2026-04-19T09:12:34.158Z</time></trkpt><trkpt lat="44.3672439" lon="8.2394129"><ele>502.0</ele><time>2026-04-19T09:12:35.158Z</time></trkpt><trkpt lat="44.3672215" lon="8.2393087"><ele>500.5714285714285</ele><time>2026-04-19T09:12:36.157Z</time></trkpt><trkpt lat="44.3671753" lon="8.2392358"><ele>499.1428571428571</ele><time>2026-04-19T09:12:37.157Z</time></trkpt><trkpt lat="44.3671119" lon="8.2391689"><ele>497.7142857142857</ele><time>2026-04-19T09:12:38.158Z</time></trkpt><trkpt lat="44.3670473" lon="8.2391352"><ele>496.2857142857143</ele><time>2026-04-19T09:12:39.157Z</time></trkpt><trkpt lat="44.3669738" lon="8.239129"><ele>494.8571428571429</ele><time>2026-04-19T09:12:40.158Z</time></trkpt><trkpt lat="44.3668979" lon="8.2391279"><ele>493.4285714285715</ele><time>2026-04-19T09:12:41.157Z</time></trkpt><trkpt lat="44.3668207" lon="8.2391394"><ele>492.00000000000006</ele><time>2026-04-19T09:12:42.157Z</time></trkpt><trkpt lat="44.3667366" lon="8.2391474"><ele>492.0</ele><time>2026-04-19T09:12:43.158Z</time></trkpt><trkpt lat="44.3666496" lon="8.2391616"><ele>492.00000000000006</ele><time>2026-04-19T09:12:44.158Z</time></trkpt><trkpt lat="44.3665628" lon="8.239181"><ele>492.00000000000006</ele><time>2026-04-19T09:12:45.158Z</time></trkpt><trkpt lat="44.3664671" lon="8.2391955"><ele>492.0</ele><time>2026-04-19T09:12:46.158Z</time></trkpt><trkpt lat="44.3663724" lon="8.2392168"><ele>492.0</ele><time>2026-04-19T09:12:47.158Z</time></trkpt><trkpt lat="44.3662773" lon="8.2392311"><ele>490.20000000000005</ele><time>2026-04-19T09:12:48.159Z</time></trkpt><trkpt lat="44.3661958" lon="8.2392881"><ele>488.40000000000003</ele><time>2026-04-19T09:12:49.158Z</time></trkpt><trkpt lat="44.3660918" lon="8.2393169"><ele>486.59999999999997</ele><time>2026-04-19T09:12:50.158Z</time></trkpt><trkpt lat="44.3659906" lon="8.2393805"><ele>484.79999999999995</ele><time>2026-04-19T09:12:51.158Z</time></trkpt><trkpt lat="44.3659011" lon="8.23946"><ele>483.0</ele><time>2026-04-19T09:12:52.158Z</time></trkpt><trkpt lat="44.3658263" lon="8.2395652"><ele>483.0</ele><time>2026-04-19T09:12:53.159Z</time></trkpt><trkpt lat="44.3657356" lon="8.2396567"><ele>482.99999999999994</ele><time>2026-04-19T09:12:54.158Z</time></trkpt><trkpt lat="44.3656461" lon="8.2397446"><ele>482.99999999999994</ele><time>2026-04-19T09:12:55.159Z</time></trkpt><trkpt lat="44.3655484" lon="8.2398057"><ele>483.0</ele><time>2026-04-19T09:12:56.158Z</time></trkpt><trkpt lat="44.3654472" lon="8.2398473"><ele>483.0</ele><time>2026-04-19T09:12:57.158Z</time></trkpt><trkpt lat="44.3653337" lon="8.2398654"><ele>482.59999999999997</ele><time>2026-04-19T09:12:58.158Z</time></trkpt><trkpt lat="44.3652288" lon="8.2398657"><ele>482.19999999999993</ele><time>2026-04-19T09:12:59.158Z</time></trkpt><trkpt lat="44.3651238" lon="8.2398564"><ele>481.8</ele><time>2026-04-19T09:13:00.158Z</time></trkpt><trkpt lat="44.3650197" lon="8.2398311"><ele>481.4</ele><time>2026-04-19T09:13:01.158Z</time></trkpt><trkpt lat="44.364909" lon="8.239795"><ele>481.0</ele><time>2026-04-19T09:13:02.158Z</time></trkpt><trkpt lat="44.3647999" lon="8.2397574"><ele>478.75</ele><time>2026-04-19T09:13:03.158Z</time></trkpt><trkpt lat="44.3646885" lon="8.2397311"><ele>476.5</ele><time>2026-04-19T09:13:04.157Z</time></trkpt><trkpt lat="44.3645699" lon="8.2397168"><ele>474.25</ele><time>2026-04-19T09:13:05.158Z</time></trkpt><trkpt lat="44.3644539" lon="8.2397059"><ele>472.0</ele><time>2026-04-19T09:13:06.158Z</time></trkpt><trkpt lat="44.3643464" lon="8.2397364"><ele>472.0</ele><time>2026-04-19T09:13:07.159Z</time></trkpt><trkpt lat="44.3642268" lon="8.2397637"><ele>472.0</ele><time>2026-04-19T09:13:08.158Z</time></trkpt><trkpt lat="44.3641073" lon="8.2397992"><ele>472.0</ele><time>2026-04-19T09:13:09.158Z</time></trkpt><trkpt lat="44.3639944" lon="8.2398165"><ele>472.0</ele><time>2026-04-19T09:13:10.157Z</time></trkpt><trkpt lat="44.3638809" lon="8.2398471"><ele>471.5</ele><time>2026-04-19T09:13:11.158Z</time></trkpt><trkpt lat="44.3637642" lon="8.2398689"><ele>471.0</ele><time>2026-04-19T09:13:12.157Z</time></trkpt><trkpt lat="44.3636493" lon="8.239892"><ele>470.5</ele><time>2026-04-19T09:13:13.157Z</time></trkpt><trkpt lat="44.3635306" lon="8.2399083"><ele>470.0</ele><time>2026-04-19T09:13:14.158Z</time></trkpt><trkpt lat="44.3634098" lon="8.2399131"><ele>470.0</ele><time>2026-04-19T09:13:15.157Z</time></trkpt><trkpt lat="44.3632991" lon="8.2399087"><ele>470.0</ele><time>2026-04-19T09:13:16.158Z</time></trkpt><trkpt lat="44.3631915" lon="8.2399102"><ele>470.0</ele><time>2026-04-19T09:13:17.158Z</time></trkpt><trkpt lat="44.3630875" lon="8.2399103"><ele>470.0</ele><time>2026-04-19T09:13:18.157Z</time></trkpt><trkpt lat="44.3629847" lon="8.2399067"><ele>470.0</ele><time>2026-04-19T09:13:19.157Z</time></trkpt><trkpt lat="44.3628963" lon="8.2399009"><ele>469.16666666666663</ele><time>2026-04-19T09:13:20.158Z</time></trkpt><trkpt lat="44.3628102" lon="8.2398778"><ele>468.3333333333333</ele><time>2026-04-19T09:13:21.158Z</time></trkpt><trkpt lat="44.362741" lon="8.2398492"><ele>467.5</ele><time>2026-04-19T09:13:22.158Z</time></trkpt><trkpt lat="44.3626799" lon="8.2398122"><ele>466.66666666666663</ele><time>2026-04-19T09:13:23.157Z</time></trkpt><trkpt lat="44.3625953" lon="8.239703"><ele>465.8333333333333</ele><time>2026-04-19T09:13:25.158Z</time></trkpt><trkpt lat="44.3625201" lon="8.23962"><ele>465.0</ele><time>2026-04-19T09:13:27.159Z</time></trkpt><trkpt lat="44.362456" lon="8.2395572"><ele>464.6666666666667</ele><time>2026-04-19T09:13:29.156Z</time></trkpt><trkpt lat="44.3623886" lon="8.2395157"><ele>464.33333333333337</ele><time>2026-04-19T09:13:31.157Z</time></trkpt><trkpt lat="44.362295" lon="8.2394843"><ele>464.0</ele><time>2026-04-19T09:13:33.158Z</time></trkpt><trkpt lat="44.3621837" lon="8.2394293"><ele>463.6666666666667</ele><time>2026-04-19T09:13:35.158Z</time></trkpt><trkpt lat="44.3621211" lon="8.2394042"><ele>463.33333333333337</ele><time>2026-04-19T09:13:36.157Z</time></trkpt><trkpt lat="44.3620567" lon="8.2393872"><ele>463.0</ele><time>2026-04-19T09:13:37.158Z</time></trkpt><trkpt lat="44.3619868" lon="8.239364"><ele>465.00000000000006</ele><time>2026-04-19T09:13:38.157Z</time></trkpt><trkpt lat="44.3619136" lon="8.2393457"><ele>467.0</ele><time>2026-04-19T09:13:39.157Z</time></trkpt><trkpt lat="44.3618464" lon="8.239329"><ele>469.0</ele><time>2026-04-19T09:13:40.158Z</time></trkpt><trkpt lat="44.3617829" lon="8.239317"><ele>471.0</ele><time>2026-04-19T09:13:41.158Z</time></trkpt><trkpt lat="44.3616579" lon="8.239339"><ele>473.00000000000006</ele><time>2026-04-19T09:13:43.158Z</time></trkpt><trkpt lat="44.3615788" lon="8.2394108"><ele>475.0</ele><time>2026-04-19T09:13:45.156Z</time></trkpt><trkpt lat="44.3615472" lon="8.2395211"><ele>475.00000000000006</ele><time>2026-04-19T09:13:47.158Z</time></trkpt><trkpt lat="44.3615512" lon="8.2396613"><ele>475.0</ele><time>2026-04-19T09:13:49.157Z</time></trkpt><trkpt lat="44.3615235" lon="8.2397552"><ele>475.0</ele><time>2026-04-19T09:13:51.158Z</time></trkpt><trkpt lat="44.3615054" lon="8.239852"><ele>475.0</ele><time>2026-04-19T09:13:53.159Z</time></trkpt><trkpt lat="44.3614942" lon="8.2399574"><ele>475.00000000000006</ele><time>2026-04-19T09:13:56.158Z</time></trkpt><trkpt lat="44.3614678" lon="8.2400811"><ele>475.0</ele><time>2026-04-19T09:13:59.158Z</time></trkpt><trkpt lat="44.3614065" lon="8.2401766"><ele>476.00000000000006</ele><time>2026-04-19T09:14:02.159Z</time></trkpt><trkpt lat="44.3613533" lon="8.2402275"><ele>477.0</ele><time>2026-04-19T09:14:04.157Z</time></trkpt><trkpt lat="44.3612923" lon="8.2402494"><ele>478.0</ele><time>2026-04-19T09:14:06.157Z</time></trkpt><trkpt lat="44.3612052" lon="8.2402584"><ele>479.0</ele><time>2026-04-19T09:14:09.158Z</time></trkpt><trkpt lat="44.3611247" lon="8.2402652"><ele>480.00000000000006</ele><time>2026-04-19T09:14:12.158Z</time></trkpt><trkpt lat="44.3610413" lon="8.2402749"><ele>481.0</ele><time>2026-04-19T09:14:15.158Z</time></trkpt><trkpt lat="44.3609628" lon="8.2402937"><ele>481.00000000000006</ele><time>2026-04-19T09:14:18.157Z</time></trkpt><trkpt lat="44.3608796" lon="8.2403113"><ele>481.0</ele><time>2026-04-19T09:14:21.157Z</time></trkpt><trkpt lat="44.3607945" lon="8.2403178"><ele>481.0</ele><time>2026-04-19T09:14:24.157Z</time></trkpt><trkpt lat="44.3607126" lon="8.2403278"><ele>481.0</ele><time>2026-04-19T09:14:27.158Z</time></trkpt><trkpt lat="44.360633" lon="8.240345"><ele>481.00000000000006</ele><time>2026-04-19T09:14:30.157Z</time></trkpt><trkpt lat="44.360554" lon="8.2403682"><ele>481.0</ele><time>2026-04-19T09:14:33.158Z</time></trkpt><trkpt lat="44.3604724" lon="8.2403884"><ele>481.83333333333337</ele><time>2026-04-19T09:14:36.157Z</time></trkpt><trkpt lat="44.3603934" lon="8.2404061"><ele>482.6666666666667</ele><time>2026-04-19T09:14:39.158Z</time></trkpt><trkpt lat="44.3603101" lon="8.2404044"><ele>483.5</ele><time>2026-04-19T09:14:42.158Z</time></trkpt><trkpt lat="44.3602615" lon="8.2403451"><ele>484.33333333333337</ele><time>2026-04-19T09:14:44.158Z</time></trkpt><trkpt lat="44.3601845" lon="8.2402921"><ele>485.1666666666667</ele><time>2026-04-19T09:14:47.158Z</time></trkpt><trkpt lat="44.3601074" lon="8.2402349"><ele>486.0</ele><time>2026-04-19T09:14:50.158Z</time></trkpt><trkpt lat="44.3600411" lon="8.2401746"><ele>486.0</ele><time>2026-04-19T09:14:53.158Z</time></trkpt><trkpt lat="44.3599734" lon="8.240104"><ele>486.0</ele><time>2026-04-19T09:14:56.158Z</time></trkpt><trkpt lat="44.3599019" lon="8.2400459"><ele>486.0</ele><time>2026-04-19T09:14:59.158Z</time></trkpt><trkpt lat="44.359834" lon="8.2400005"><ele>486.0</ele><time>2026-04-19T09:15:02.157Z</time></trkpt><trkpt lat="44.3597619" lon="8.2399856"><ele>486.0</ele><time>2026-04-19T09:15:05.157Z</time></trkpt><trkpt lat="44.3596826" lon="8.2399902"><ele>486.0</ele><time>2026-04-19T09:15:08.158Z</time></trkpt><trkpt lat="44.3596105" lon="8.2399967"><ele>487.8333333333333</ele><time>2026-04-19T09:15:11.157Z</time></trkpt><trkpt lat="44.3595394" lon="8.2400251"><ele>489.66666666666663</ele><time>2026-04-19T09:15:14.157Z</time></trkpt><trkpt lat="44.3594728" lon="8.2400868"><ele>491.5</ele><time>2026-04-19T09:15:17.158Z</time></trkpt><trkpt lat="44.3594026" lon="8.2401405"><ele>493.3333333333333</ele><time>2026-04-19T09:15:20.158Z</time></trkpt><trkpt lat="44.3593369" lon="8.240206"><ele>495.16666666666663</ele><time>2026-04-19T09:15:23.156Z</time></trkpt><trkpt lat="44.3592612" lon="8.2402642"><ele>497.0</ele><time>2026-04-19T09:15:26.158Z</time></trkpt><trkpt lat="44.3591859" lon="8.2403259"><ele>496.99999999999994</ele><time>2026-04-19T09:15:29.158Z</time></trkpt><trkpt lat="44.3591108" lon="8.2403902"><ele>497.0</ele><time>2026-04-19T09:15:32.157Z</time></trkpt><trkpt lat="44.3590435" lon="8.2404587"><ele>497.0</ele><time>2026-04-19T09:15:35.158Z</time></trkpt><trkpt lat="44.3589707" lon="8.2405276"><ele>497.0</ele><time>2026-04-19T09:15:38.158Z</time></trkpt><trkpt lat="44.3589019" lon="8.2405971"><ele>496.99999999999994</ele><time>2026-04-19T09:15:41.158Z</time></trkpt><trkpt lat="44.3588281" lon="8.2406692"><ele>497.0</ele><time>2026-04-19T09:15:44.158Z</time></trkpt><trkpt lat="44.3587624" lon="8.2407253"><ele>496.3333333333333</ele><time>2026-04-19T09:15:47.158Z</time></trkpt><trkpt lat="44.3586997" lon="8.2407886"><ele>495.66666666666663</ele><time>2026-04-19T09:15:50.158Z</time></trkpt><trkpt lat="44.3586328" lon="8.2408569"><ele>495.0</ele><time>2026-04-19T09:15:53.158Z</time></trkpt><trkpt lat="44.358555" lon="8.2409206"><ele>494.33333333333337</ele><time>2026-04-19T09:15:56.158Z</time></trkpt><trkpt lat="44.3584809" lon="8.2409926"><ele>493.6666666666667</ele><time>2026-04-19T09:15:59.156Z</time></trkpt><trkpt lat="44.3584089" lon="8.2410463"><ele>493.0</ele><time>2026-04-19T09:16:02.156Z</time></trkpt><trkpt lat="44.3583319" lon="8.2411084"><ele>493.00000000000006</ele><time>2026-04-19T09:16:05.157Z</time></trkpt><trkpt lat="44.358254" lon="8.241173"><ele>493.0</ele><time>2026-04-19T09:16:08.157Z</time></trkpt><trkpt lat="44.3581836" lon="8.2412475"><ele>493.0</ele><time>2026-04-19T09:16:11.156Z</time></trkpt><trkpt lat="44.3581119" lon="8.2413219"><ele>493.0</ele><time>2026-04-19T09:16:14.158Z</time></trkpt><trkpt lat="44.3580377" lon="8.2413866"><ele>493.00000000000006</ele><time>2026-04-19T09:16:17.156Z</time></trkpt><trkpt lat="44.3579583" lon="8.2414434"><ele>493.0</ele><time>2026-04-19T09:16:20.157Z</time></trkpt><trkpt lat="44.3578781" lon="8.2414914"><ele>493.00000000000006</ele><time>2026-04-19T09:16:23.158Z</time></trkpt><trkpt lat="44.3577931" lon="8.2415222"><ele>493.0</ele><time>2026-04-19T09:16:26.158Z</time></trkpt><trkpt lat="44.357707" lon="8.2415516"><ele>493.0</ele><time>2026-04-19T09:16:29.157Z</time></trkpt><trkpt lat="44.357617" lon="8.2415718"><ele>493.0</ele><time>2026-04-19T09:16:32.157Z</time></trkpt><trkpt lat="44.3575325" lon="8.2416084"><ele>493.00000000000006</ele><time>2026-04-19T09:16:35.157Z</time></trkpt><trkpt lat="44.3574406" lon="8.2416317"><ele>493.0</ele><time>2026-04-19T09:16:38.158Z</time></trkpt><trkpt lat="44.3573486" lon="8.2416412"><ele>493.0</ele><time>2026-04-19T09:16:41.158Z</time></trkpt><trkpt lat="44.3572855" lon="8.2416447"><ele>493.0</ele><time>2026-04-19T09:16:43.156Z</time></trkpt><trkpt lat="44.3572154" lon="8.2416128"><ele>493.0</ele><time>2026-04-19T09:16:45.158Z</time></trkpt><trkpt lat="44.3571482" lon="8.2415923"><ele>493.0</ele><time>2026-04-19T09:16:47.157Z</time></trkpt><trkpt lat="44.3570858" lon="8.2415572"><ele>493.0</ele><time>2026-04-19T09:16:49.156Z</time></trkpt><trkpt lat="44.3570213" lon="8.2415165"><ele>493.0</ele><time>2026-04-19T09:16:51.158Z</time></trkpt><trkpt lat="44.3569631" lon="8.241468"><ele>493.0</ele><time>2026-04-19T09:16:53.157Z</time></trkpt><trkpt lat="44.3569178" lon="8.241405"><ele>493.50000000000006</ele><time>2026-04-19T09:16:55.157Z</time></trkpt><trkpt lat="44.3568759" lon="8.2412851"><ele>494.0</ele><time>2026-04-19T09:16:58.157Z</time></trkpt><trkpt lat="44.3568485" lon="8.2411945"><ele>494.5</ele><time>2026-04-19T09:17:00.158Z</time></trkpt><trkpt lat="44.3568127" lon="8.2410776"><ele>495.0</ele><time>2026-04-19T09:17:03.157Z</time></trkpt><trkpt lat="44.3567834" lon="8.240957"><ele>495.50000000000006</ele><time>2026-04-19T09:17:06.158Z</time></trkpt><trkpt lat="44.35675" lon="8.2408361"><ele>496.0</ele><time>2026-04-19T09:17:09.158Z</time></trkpt><trkpt lat="44.3567225" lon="8.2407529"><ele>496.0</ele><time>2026-04-19T09:17:11.157Z</time></trkpt><trkpt lat="44.3566839" lon="8.2406342"><ele>496.00000000000006</ele><time>2026-04-19T09:17:14.155Z</time></trkpt><trkpt lat="44.3566509" lon="8.240556"><ele>496.0</ele><time>2026-04-19T09:17:16.156Z</time></trkpt><trkpt lat="44.3566146" lon="8.2404732"><ele>496.0</ele><time>2026-04-19T09:17:18.157Z</time></trkpt><trkpt lat="44.3565767" lon="8.2403975"><ele>496.00000000000006</ele><time>2026-04-19T09:17:20.158Z</time></trkpt><trkpt lat="44.3565396" lon="8.2403237"><ele>496.0</ele><time>2026-04-19T09:17:22.158Z</time></trkpt><trkpt lat="44.3564975" lon="8.2402536"><ele>496.0</ele><time>2026-04-19T09:17:24.156Z</time></trkpt><trkpt lat="44.3564591" lon="8.2401745"><ele>496.50000000000006</ele><time>2026-04-19T09:17:26.156Z</time></trkpt><trkpt lat="44.3564092" lon="8.240075"><ele>497.0</ele><time>2026-04-19T09:17:29.157Z</time></trkpt><trkpt lat="44.3563538" lon="8.2399722"><ele>497.5</ele><time>2026-04-19T09:17:32.158Z</time></trkpt><trkpt lat="44.3562935" lon="8.2398748"><ele>498.0</ele><time>2026-04-19T09:17:35.158Z</time></trkpt><trkpt lat="44.3562282" lon="8.2397811"><ele>498.50000000000006</ele><time>2026-04-19T09:17:38.157Z</time></trkpt><trkpt lat="44.3561733" lon="8.2397314"><ele>499.0</ele><time>2026-04-19T09:17:40.157Z</time></trkpt><trkpt lat="44.3561158" lon="8.2396843"><ele>502.1666666666667</ele><time>2026-04-19T09:17:42.158Z</time></trkpt><trkpt lat="44.3560461" lon="8.2396229"><ele>505.33333333333337</ele><time>2026-04-19T09:17:45.156Z</time></trkpt><trkpt lat="44.3559752" lon="8.239568"><ele>508.5</ele><time>2026-04-19T09:17:48.157Z</time></trkpt><trkpt lat="44.3558986" lon="8.2395226"><ele>511.66666666666663</ele><time>2026-04-19T09:17:51.155Z</time></trkpt><trkpt lat="44.3558338" lon="8.2395104"><ele>514.8333333333333</ele><time>2026-04-19T09:17:53.158Z</time></trkpt><trkpt lat="44.3557455" lon="8.2395045"><ele>518.0</ele><time>2026-04-19T09:17:56.158Z</time></trkpt><trkpt lat="44.3556622" lon="8.2394932"><ele>518.0</ele><time>2026-04-19T09:17:59.157Z</time></trkpt><trkpt lat="44.355592" lon="8.2394275"><ele>518.0</ele><time>2026-04-19T09:18:02.157Z</time></trkpt><trkpt lat="44.3555268" lon="8.2393411"><ele>518.0</ele><time>2026-04-19T09:18:05.157Z</time></trkpt><trkpt lat="44.3554888" lon="8.2392671"><ele>518.0</ele><time>2026-04-19T09:18:07.157Z</time></trkpt><trkpt lat="44.3554428" lon="8.2391595"><ele>518.0</ele><time>2026-04-19T09:18:10.158Z</time></trkpt><trkpt lat="44.3553948" lon="8.2390595"><ele>518.0</ele><time>2026-04-19T09:18:13.156Z</time></trkpt><trkpt lat="44.3553525" lon="8.2389533"><ele>517.6666666666666</ele><time>2026-04-19T09:18:16.156Z</time></trkpt><trkpt lat="44.3553114" lon="8.2388493"><ele>517.3333333333333</ele><time>2026-04-19T09:18:19.155Z</time></trkpt><trkpt lat="44.355263" lon="8.238734"><ele>517.0</ele><time>2026-04-19T09:18:22.156Z</time></trkpt><trkpt lat="44.3552262" lon="8.238656"><ele>516.6666666666666</ele><time>2026-04-19T09:18:24.156Z</time></trkpt><trkpt lat="44.3551822" lon="8.2385434"><ele>516.3333333333334</ele><time>2026-04-19T09:18:27.158Z</time></trkpt><trkpt lat="44.3551317" lon="8.2384493"><ele>516.0</ele><time>2026-04-19T09:18:30.156Z</time></trkpt><trkpt lat="44.3550641" lon="8.2383746"><ele>516.0</ele><time>2026-04-19T09:18:33.156Z</time></trkpt><trkpt lat="44.354989" lon="8.238306"><ele>516.0</ele><time>2026-04-19T09:18:36.157Z</time></trkpt><trkpt lat="44.3549203" lon="8.2382353"><ele>516.0</ele><time>2026-04-19T09:18:39.157Z</time></trkpt><trkpt lat="44.3548451" lon="8.2381677"><ele>516.0</ele><time>2026-04-19T09:18:42.156Z</time></trkpt><trkpt lat="44.3547789" lon="8.2380783"><ele>516.0</ele><time>2026-04-19T09:18:45.157Z</time></trkpt><trkpt lat="44.3547092" lon="8.2380001"><ele>516.0</ele><time>2026-04-19T09:18:48.157Z</time></trkpt><trkpt lat="44.3546399" lon="8.2379323"><ele>517.1666666666666</ele><time>2026-04-19T09:18:51.157Z</time></trkpt><trkpt lat="44.3545557" lon="8.2378802"><ele>518.3333333333334</ele><time>2026-04-19T09:18:54.157Z</time></trkpt><trkpt lat="44.3544921" lon="8.2378048"><ele>519.5</ele><time>2026-04-19T09:18:57.156Z</time></trkpt><trkpt lat="44.3544381" lon="8.2377314"><ele>520.6666666666667</ele><time>2026-04-19T09:19:00.156Z</time></trkpt><trkpt lat="44.3543807" lon="8.2376476"><ele>521.8333333333334</ele><time>2026-04-19T09:19:03.156Z</time></trkpt><trkpt lat="44.3543168" lon="8.2375855"><ele>523.0</ele><time>2026-04-19T09:19:06.157Z</time></trkpt><trkpt lat="44.3542437" lon="8.2375387"><ele>523.0</ele><time>2026-04-19T09:19:09.157Z</time></trkpt><trkpt lat="44.3541638" lon="8.2375095"><ele>523.0</ele><time>2026-04-19T09:19:12.157Z</time></trkpt><trkpt lat="44.3540829" lon="8.2374911"><ele>523.0</ele><time>2026-04-19T09:19:15.156Z</time></trkpt><trkpt lat="44.3540021" lon="8.2374873"><ele>523.0</ele><time>2026-04-19T09:19:18.157Z</time></trkpt><trkpt lat="44.353926" lon="8.2374586"><ele>523.0</ele><time>2026-04-19T09:19:21.158Z</time></trkpt><trkpt lat="44.3538518" lon="8.2374302"><ele>523.0</ele><time>2026-04-19T09:19:24.156Z</time></trkpt><trkpt lat="44.3537768" lon="8.2374162"><ele>523.6666666666667</ele><time>2026-04-19T09:19:27.158Z</time></trkpt><trkpt lat="44.3537026" lon="8.2373994"><ele>524.3333333333334</ele><time>2026-04-19T09:19:30.157Z</time></trkpt><trkpt lat="44.3536234" lon="8.2373801"><ele>525.0</ele><time>2026-04-19T09:19:33.158Z</time></trkpt><trkpt lat="44.35354" lon="8.2373646"><ele>525.6666666666666</ele><time>2026-04-19T09:19:36.157Z</time></trkpt><trkpt lat="44.3534523" lon="8.2373581"><ele>526.3333333333333</ele><time>2026-04-19T09:19:39.157Z</time></trkpt><trkpt lat="44.3533721" lon="8.237345"><ele>527.0</ele><time>2026-04-19T09:19:42.157Z</time></trkpt><trkpt lat="44.353293" lon="8.2373508"><ele>527.0</ele><time>2026-04-19T09:19:45.158Z</time></trkpt><trkpt lat="44.3532121" lon="8.2373563"><ele>527.0</ele><time>2026-04-19T09:19:48.155Z</time></trkpt><trkpt lat="44.3531292" lon="8.237399"><ele>527.0</ele><time>2026-04-19T09:19:51.157Z</time></trkpt><trkpt lat="44.3530457" lon="8.2374287"><ele>527.0</ele><time>2026-04-19T09:19:54.157Z</time></trkpt><trkpt lat="44.3529628" lon="8.2374468"><ele>527.0</ele><time>2026-04-19T09:19:57.156Z</time></trkpt><trkpt lat="44.3528776" lon="8.2374752"><ele>527.0</ele><time>2026-04-19T09:20:00.157Z</time></trkpt><trkpt lat="44.3527938" lon="8.237521"><ele>528.6666666666666</ele><time>2026-04-19T09:20:03.156Z</time></trkpt><trkpt lat="44.3527111" lon="8.2375338"><ele>530.3333333333333</ele><time>2026-04-19T09:20:06.157Z</time></trkpt><trkpt lat="44.3526282" lon="8.2375449"><ele>532.0</ele><time>2026-04-19T09:20:09.157Z</time></trkpt><trkpt lat="44.3525412" lon="8.2375513"><ele>533.6666666666666</ele><time>2026-04-19T09:20:12.156Z</time></trkpt><trkpt lat="44.3524769" lon="8.2375629"><ele>535.3333333333334</ele><time>2026-04-19T09:20:14.156Z</time></trkpt><trkpt lat="44.3523886" lon="8.2375853"><ele>537.0</ele><time>2026-04-19T09:20:17.157Z</time></trkpt><trkpt lat="44.3523026" lon="8.2376146"><ele>537.0</ele><time>2026-04-19T09:20:20.156Z</time></trkpt><trkpt lat="44.3522177" lon="8.2376496"><ele>537.0</ele><time>2026-04-19T09:20:23.156Z</time></trkpt><trkpt lat="44.3521356" lon="8.2376975"><ele>537.0</ele><time>2026-04-19T09:20:26.156Z</time></trkpt><trkpt lat="44.3520768" lon="8.2377303"><ele>537.0</ele><time>2026-04-19T09:20:28.157Z</time></trkpt><trkpt lat="44.3520185" lon="8.2377662"><ele>537.0</ele><time>2026-04-19T09:20:30.156Z</time></trkpt><trkpt lat="44.351933" lon="8.237822"><ele>537.0</ele><time>2026-04-19T09:20:33.157Z</time></trkpt><trkpt lat="44.3518711" lon="8.2378633"><ele>538.0</ele><time>2026-04-19T09:20:35.156Z</time></trkpt><trkpt lat="44.3517869" lon="8.2379217"><ele>539.0</ele><time>2026-04-19T09:20:38.157Z</time></trkpt><trkpt lat="44.3517259" lon="8.2379748"><ele>540.0</ele><time>2026-04-19T09:20:40.158Z</time></trkpt><trkpt lat="44.3516663" lon="8.2380194"><ele>541.0</ele><time>2026-04-19T09:20:42.158Z</time></trkpt><trkpt lat="44.3516072" lon="8.2380715"><ele>542.0</ele><time>2026-04-19T09:20:44.157Z</time></trkpt><trkpt lat="44.3515464" lon="8.2381308"><ele>543.0</ele><time>2026-04-19T09:20:46.156Z</time></trkpt><trkpt lat="44.3514716" lon="8.2382004"><ele>541.5</ele><time>2026-04-19T09:20:49.158Z</time></trkpt><trkpt lat="44.3514057" lon="8.2382643"><ele>540.0</ele><time>2026-04-19T09:20:52.157Z</time></trkpt><trkpt lat="44.351316" lon="8.2383181"><ele>538.5</ele><time>2026-04-19T09:20:55.156Z</time></trkpt><trkpt lat="44.351238" lon="8.2383222"><ele>537.0</ele><time>2026-04-19T09:20:57.158Z</time></trkpt><trkpt lat="44.3511583" lon="8.238306"><ele>535.5</ele><time>2026-04-19T09:20:59.157Z</time></trkpt><trkpt lat="44.3510958" lon="8.2382758"><ele>534.0</ele><time>2026-04-19T09:21:01.157Z</time></trkpt><trkpt lat="44.3510302" lon="8.2382341"><ele>534.0000000000001</ele><time>2026-04-19T09:21:03.156Z</time></trkpt><trkpt lat="44.3509664" lon="8.2382149"><ele>534.0</ele><time>2026-04-19T09:21:05.158Z</time></trkpt><trkpt lat="44.3509014" lon="8.238185"><ele>534.0</ele><time>2026-04-19T09:21:07.156Z</time></trkpt><trkpt lat="44.3508378" lon="8.238148"><ele>534.0</ele><time>2026-04-19T09:21:09.156Z</time></trkpt><trkpt lat="44.3507789" lon="8.2381076"><ele>534.0</ele><time>2026-04-19T09:21:11.157Z</time></trkpt><trkpt lat="44.350733" lon="8.238034"><ele>534.0000000000001</ele><time>2026-04-19T09:21:13.157Z</time></trkpt><trkpt lat="44.350701" lon="8.2379441"><ele>534.0</ele><time>2026-04-19T09:21:15.157Z</time></trkpt><trkpt lat="44.350681" lon="8.2378455"><ele>533.2</ele><time>2026-04-19T09:21:17.158Z</time></trkpt><trkpt lat="44.3506532" lon="8.237739"><ele>532.4</ele><time>2026-04-19T09:21:19.157Z</time></trkpt><trkpt lat="44.3506152" lon="8.2376246"><ele>531.6</ele><time>2026-04-19T09:21:21.157Z</time></trkpt><trkpt lat="44.3505731" lon="8.2374962"><ele>530.8</ele><time>2026-04-19T09:21:23.156Z</time></trkpt><trkpt lat="44.3505212" lon="8.2373616"><ele>530.0</ele><time>2026-04-19T09:21:25.156Z</time></trkpt><trkpt lat="44.3504698" lon="8.2372127"><ele>530.0</ele><time>2026-04-19T09:21:27.156Z</time></trkpt><trkpt lat="44.3504134" lon="8.2370549"><ele>530.0</ele><time>2026-04-19T09:21:29.155Z</time></trkpt><trkpt lat="44.3503482" lon="8.2368933"><ele>530.0</ele><time>2026-04-19T09:21:31.157Z</time></trkpt><trkpt lat="44.3503119" lon="8.2368085"><ele>530.0</ele><time>2026-04-19T09:21:32.156Z</time></trkpt><trkpt lat="44.3502657" lon="8.2367386"><ele>530.0</ele><time>2026-04-19T09:21:33.156Z</time></trkpt><trkpt lat="44.350217" lon="8.2366692"><ele>529.9999999999999</ele><time>2026-04-19T09:21:34.155Z</time></trkpt><trkpt lat="44.3501707" lon="8.2365951"><ele>530.0</ele><time>2026-04-19T09:21:35.157Z</time></trkpt><trkpt lat="44.3501175" lon="8.236512"><ele>530.0</ele><time>2026-04-19T09:21:36.157Z</time></trkpt><trkpt lat="44.3500707" lon="8.2364335"><ele>530.0</ele><time>2026-04-19T09:21:37.156Z</time></trkpt><trkpt lat="44.350027" lon="8.2363523"><ele>530.0</ele><time>2026-04-19T09:21:38.157Z</time></trkpt><trkpt lat="44.349975" lon="8.2362852"><ele>529.9999999999999</ele><time>2026-04-19T09:21:39.156Z</time></trkpt><trkpt lat="44.349909" lon="8.2362277"><ele>530.0</ele><time>2026-04-19T09:21:40.157Z</time></trkpt><trkpt lat="44.3498327" lon="8.2361744"><ele>532.1666666666666</ele><time>2026-04-19T09:21:41.157Z</time></trkpt><trkpt lat="44.3497589" lon="8.2361574"><ele>534.3333333333333</ele><time>2026-04-19T09:21:42.155Z</time></trkpt><trkpt lat="44.3496747" lon="8.2361595"><ele>536.5</ele><time>2026-04-19T09:21:43.156Z</time></trkpt><trkpt lat="44.3496081" lon="8.2361707"><ele>538.6666666666666</ele><time>2026-04-19T09:21:44.156Z</time></trkpt><trkpt lat="44.3494903" lon="8.2362059"><ele>540.8333333333334</ele><time>2026-04-19T09:21:46.156Z</time></trkpt><trkpt lat="44.3493966" lon="8.2362197"><ele>543.0</ele><time>2026-04-19T09:21:48.156Z</time></trkpt><trkpt lat="44.3492807" lon="8.2361948"><ele>543.0</ele><time>2026-04-19T09:21:50.157Z</time></trkpt><trkpt lat="44.3491856" lon="8.2361489"><ele>543.0</ele><time>2026-04-19T09:21:52.157Z</time></trkpt><trkpt lat="44.3490835" lon="8.2361028"><ele>543.0</ele><time>2026-04-19T09:21:54.157Z</time></trkpt><trkpt lat="44.3489843" lon="8.2360557"><ele>543.0</ele><time>2026-04-19T09:21:56.156Z</time></trkpt><trkpt lat="44.3488747" lon="8.2360312"><ele>543.0</ele><time>2026-04-19T09:21:58.156Z</time></trkpt><trkpt lat="44.3487867" lon="8.2359932"><ele>542.8333333333334</ele><time>2026-04-19T09:22:00.156Z</time></trkpt><trkpt lat="44.3487123" lon="8.2359314"><ele>542.6666666666666</ele><time>2026-04-19T09:22:02.157Z</time></trkpt><trkpt lat="44.3486402" lon="8.2359275"><ele>542.5</ele><time>2026-04-19T09:22:04.156Z</time></trkpt><trkpt lat="44.3485624" lon="8.2359089"><ele>542.3333333333333</ele><time>2026-04-19T09:22:06.155Z</time></trkpt><trkpt lat="44.3484845" lon="8.2358861"><ele>542.1666666666666</ele><time>2026-04-19T09:22:08.156Z</time></trkpt><trkpt lat="44.3484159" lon="8.2358701"><ele>542.0</ele><time>2026-04-19T09:22:10.157Z</time></trkpt><trkpt lat="44.3483485" lon="8.2358603"><ele>542.0</ele><time>2026-04-19T09:22:12.157Z</time></trkpt><trkpt lat="44.3482754" lon="8.235853"><ele>542.0</ele><time>2026-04-19T09:22:14.156Z</time></trkpt><trkpt lat="44.3481993" lon="8.2358477"><ele>542.0</ele><time>2026-04-19T09:22:16.156Z</time></trkpt><trkpt lat="44.3481256" lon="8.2358591"><ele>542.0</ele><time>2026-04-19T09:22:18.156Z</time></trkpt><trkpt lat="44.3480587" lon="8.2358599"><ele>542.0</ele><time>2026-04-19T09:22:20.157Z</time></trkpt><trkpt lat="44.3479885" lon="8.2358476"><ele>542.0</ele><time>2026-04-19T09:22:22.155Z</time></trkpt><trkpt lat="44.3479117" lon="8.2358341"><ele>542.0</ele><time>2026-04-19T09:22:24.157Z</time></trkpt><trkpt lat="44.3478323" lon="8.2358326"><ele>542.2857142857142</ele><time>2026-04-19T09:22:26.157Z</time></trkpt><trkpt lat="44.3477619" lon="8.2358344"><ele>542.5714285714286</ele><time>2026-04-19T09:22:28.156Z</time></trkpt><trkpt lat="44.3476907" lon="8.2358356"><ele>542.8571428571429</ele><time>2026-04-19T09:22:30.157Z</time></trkpt><trkpt lat="44.347625" lon="8.2358273"><ele>543.1428571428571</ele><time>2026-04-19T09:22:32.156Z</time></trkpt><trkpt lat="44.3475582" lon="8.2358349"><ele>543.4285714285714</ele><time>2026-04-19T09:22:34.156Z</time></trkpt><trkpt lat="44.3474942" lon="8.2358504"><ele>543.7142857142857</ele><time>2026-04-19T09:22:36.155Z</time></trkpt><trkpt lat="44.3474077" lon="8.2358639"><ele>544.0</ele><time>2026-04-19T09:22:39.157Z</time></trkpt><trkpt lat="44.3473468" lon="8.2359065"><ele>543.9999999999999</ele><time>2026-04-19T09:22:41.156Z</time></trkpt><trkpt lat="44.347286" lon="8.2359419"><ele>544.0</ele><time>2026-04-19T09:22:43.156Z</time></trkpt><trkpt lat="44.3472169" lon="8.2359635"><ele>544.0</ele><time>2026-04-19T09:22:45.157Z</time></trkpt><trkpt lat="44.3471515" lon="8.2359868"><ele>544.0</ele><time>2026-04-19T09:22:47.157Z</time></trkpt><trkpt lat="44.3470833" lon="8.2360175"><ele>544.0</ele><time>2026-04-19T09:22:49.157Z</time></trkpt><trkpt lat="44.34701" lon="8.2360592"><ele>543.9999999999999</ele><time>2026-04-19T09:22:51.157Z</time></trkpt><trkpt lat="44.3469378" lon="8.2361103"><ele>544.0</ele><time>2026-04-19T09:22:53.156Z</time></trkpt><trkpt lat="44.3468705" lon="8.236143"><ele>543.9999999999999</ele><time>2026-04-19T09:22:55.155Z</time></trkpt><trkpt lat="44.3468036" lon="8.2361783"><ele>544.0</ele><time>2026-04-19T09:22:57.155Z</time></trkpt><trkpt lat="44.3467403" lon="8.2362283"><ele>544.0</ele><time>2026-04-19T09:22:59.157Z</time></trkpt><trkpt lat="44.3466729" lon="8.236284"><ele>544.0</ele><time>2026-04-19T09:23:01.156Z</time></trkpt><trkpt lat="44.3466073" lon="8.2363252"><ele>544.0</ele><time>2026-04-19T09:23:03.156Z</time></trkpt><trkpt lat="44.3465462" lon="8.2363601"><ele>543.9999999999999</ele><time>2026-04-19T09:23:05.156Z</time></trkpt><trkpt lat="44.3464709" lon="8.2364245"><ele>544.0</ele><time>2026-04-19T09:23:08.156Z</time></trkpt><trkpt lat="44.3463955" lon="8.2364975"><ele>546.3333333333334</ele><time>2026-04-19T09:23:11.157Z</time></trkpt><trkpt lat="44.3463428" lon="8.2365504"><ele>548.6666666666667</ele><time>2026-04-19T09:23:13.156Z</time></trkpt><trkpt lat="44.3462593" lon="8.2365974"><ele>551.0</ele><time>2026-04-19T09:23:16.157Z</time></trkpt><trkpt lat="44.3461761" lon="8.2366543"><ele>553.3333333333334</ele><time>2026-04-19T09:23:19.156Z</time></trkpt><trkpt lat="44.3460951" lon="8.2367049"><ele>555.6666666666666</ele><time>2026-04-19T09:23:22.155Z</time></trkpt><trkpt lat="44.3460132" lon="8.2367501"><ele>558.0</ele><time>2026-04-19T09:23:25.156Z</time></trkpt><trkpt lat="44.3459288" lon="8.2367884"><ele>558.0</ele><time>2026-04-19T09:23:28.157Z</time></trkpt><trkpt lat="44.3458431" lon="8.2368139"><ele>558.0</ele><time>2026-04-19T09:23:31.156Z</time></trkpt><trkpt lat="44.3457629" lon="8.236862"><ele>558.0</ele><time>2026-04-19T09:23:34.155Z</time></trkpt><trkpt lat="44.3456794" lon="8.2369221"><ele>558.0</ele><time>2026-04-19T09:23:37.156Z</time></trkpt><trkpt lat="44.3455945" lon="8.2369563"><ele>558.0</ele><time>2026-04-19T09:23:40.157Z</time></trkpt><trkpt lat="44.3455326" lon="8.2369739"><ele>558.0</ele><time>2026-04-19T09:23:42.155Z</time></trkpt><trkpt lat="44.3454581" lon="8.2369825"><ele>558.5</ele><time>2026-04-19T09:23:44.157Z</time></trkpt><trkpt lat="44.3453644" lon="8.2369879"><ele>559.0</ele><time>2026-04-19T09:23:46.156Z</time></trkpt><trkpt lat="44.34527" lon="8.2369634"><ele>559.5</ele><time>2026-04-19T09:23:48.157Z</time></trkpt><trkpt lat="44.3451551" lon="8.237002"><ele>560.0</ele><time>2026-04-19T09:23:50.156Z</time></trkpt><trkpt lat="44.3450925" lon="8.2370267"><ele>560.5</ele><time>2026-04-19T09:23:51.156Z</time></trkpt><trkpt lat="44.3450201" lon="8.237052"><ele>561.0</ele><time>2026-04-19T09:23:52.156Z</time></trkpt><trkpt lat="44.3449523" lon="8.237083"><ele>561.0</ele><time>2026-04-19T09:23:53.156Z</time></trkpt><trkpt lat="44.3448844" lon="8.2371103"><ele>561.0</ele><time>2026-04-19T09:23:54.155Z</time></trkpt><trkpt lat="44.3448229" lon="8.2371478"><ele>561.0</ele><time>2026-04-19T09:23:55.157Z</time></trkpt><trkpt lat="44.3447444" lon="8.2371694"><ele>561.0</ele><time>2026-04-19T09:23:56.156Z</time></trkpt><trkpt lat="44.3446609" lon="8.2371701"><ele>561.0</ele><time>2026-04-19T09:23:57.155Z</time></trkpt><trkpt lat="44.3445814" lon="8.2371372"><ele>561.0</ele><time>2026-04-19T09:23:58.156Z</time></trkpt><trkpt lat="44.344503" lon="8.2371141"><ele>561.8333333333334</ele><time>2026-04-19T09:23:59.155Z</time></trkpt><trkpt lat="44.3444237" lon="8.2370938"><ele>562.6666666666666</ele><time>2026-04-19T09:24:00.157Z</time></trkpt><trkpt lat="44.3443507" lon="8.2371"><ele>563.5</ele><time>2026-04-19T09:24:01.156Z</time></trkpt><trkpt lat="44.3442806" lon="8.2371375"><ele>564.3333333333333</ele><time>2026-04-19T09:24:02.156Z</time></trkpt><trkpt lat="44.3442149" lon="8.2372875"><ele>565.1666666666666</ele><time>2026-04-19T09:24:04.156Z</time></trkpt><trkpt lat="44.3442035" lon="8.2373773"><ele>566.0</ele><time>2026-04-19T09:24:05.156Z</time></trkpt><trkpt lat="44.3442287" lon="8.2375631"><ele>563.6</ele><time>2026-04-19T09:24:07.157Z</time></trkpt><trkpt lat="44.3442583" lon="8.2377203"><ele>561.2</ele><time>2026-04-19T09:24:09.156Z</time></trkpt><trkpt lat="44.3442808" lon="8.2378619"><ele>558.8</ele><time>2026-04-19T09:24:11.157Z</time></trkpt><trkpt lat="44.3443009" lon="8.2379465"><ele>556.4</ele><time>2026-04-19T09:24:12.157Z</time></trkpt><trkpt lat="44.3443147" lon="8.2380987"><ele>554.0</ele><time>2026-04-19T09:24:14.156Z</time></trkpt><trkpt lat="44.3443204" lon="8.2382389"><ele>554.0</ele><time>2026-04-19T09:24:16.157Z</time></trkpt><trkpt lat="44.3443097" lon="8.2383518"><ele>554.0</ele><time>2026-04-19T09:24:18.156Z</time></trkpt><trkpt lat="44.3442992" lon="8.2384794"><ele>554.0</ele><time>2026-04-19T09:24:20.157Z</time></trkpt><trkpt lat="44.3442704" lon="8.2385828"><ele>554.0</ele><time>2026-04-19T09:24:22.155Z</time></trkpt><trkpt lat="44.3442365" lon="8.2386873"><ele>554.0</ele><time>2026-04-19T09:24:24.157Z</time></trkpt><trkpt lat="44.3442064" lon="8.2387754"><ele>554.0</ele><time>2026-04-19T09:24:26.156Z</time></trkpt><trkpt lat="44.3441655" lon="8.238893"><ele>553.4285714285714</ele><time>2026-04-19T09:24:29.155Z</time></trkpt><trkpt lat="44.3441321" lon="8.2389723"><ele>552.8571428571428</ele><time>2026-04-19T09:24:31.155Z</time></trkpt><trkpt lat="44.3440931" lon="8.2390433"><ele>552.2857142857142</ele><time>2026-04-19T09:24:33.156Z</time></trkpt><trkpt lat="44.3440525" lon="8.2391188"><ele>551.7142857142857</ele><time>2026-04-19T09:24:35.156Z</time></trkpt><trkpt lat="44.3440066" lon="8.2391897"><ele>551.1428571428571</ele><time>2026-04-19T09:24:37.155Z</time></trkpt><trkpt lat="44.3439597" lon="8.239256"><ele>550.5714285714286</ele><time>2026-04-19T09:24:39.157Z</time></trkpt><trkpt lat="44.3439178" lon="8.2393311"><ele>550.0</ele><time>2026-04-19T09:24:41.155Z</time></trkpt><trkpt lat="44.3438772" lon="8.2394162"><ele>551.8333333333334</ele><time>2026-04-19T09:24:43.156Z</time></trkpt><trkpt lat="44.3438397" lon="8.2395177"><ele>553.6666666666667</ele><time>2026-04-19T09:24:45.157Z</time></trkpt><trkpt lat="44.3437973" lon="8.2395957"><ele>555.5</ele><time>2026-04-19T09:24:47.157Z</time></trkpt><trkpt lat="44.3437432" lon="8.2396572"><ele>557.3333333333334</ele><time>2026-04-19T09:24:49.156Z</time></trkpt><trkpt lat="44.343689" lon="8.2397099"><ele>559.1666666666666</ele><time>2026-04-19T09:24:51.156Z</time></trkpt><trkpt lat="44.3436253" lon="8.2397863"><ele>561.0</ele><time>2026-04-19T09:24:54.157Z</time></trkpt><trkpt lat="44.3435771" lon="8.239886"><ele>561.0</ele><time>2026-04-19T09:24:57.156Z</time></trkpt><trkpt lat="44.3435282" lon="8.2399595"><ele>561.0</ele><time>2026-04-19T09:25:00.157Z</time></trkpt><trkpt lat="44.343494" lon="8.2400571"><ele>561.0</ele><time>2026-04-19T09:25:03.156Z</time></trkpt><trkpt lat="44.343442" lon="8.2401428"><ele>561.0</ele><time>2026-04-19T09:25:06.154Z</time></trkpt><trkpt lat="44.3433882" lon="8.2402147"><ele>561.0</ele><time>2026-04-19T09:25:09.155Z</time></trkpt><trkpt lat="44.3433553" lon="8.2403197"><ele>561.0</ele><time>2026-04-19T09:25:30.157Z</time></trkpt><trkpt lat="44.343307" lon="8.240408"><ele>561.0</ele><time>2026-04-19T09:25:33.157Z</time></trkpt><trkpt lat="44.3432623" lon="8.2404947"><ele>561.0</ele><time>2026-04-19T09:25:36.154Z</time></trkpt><trkpt lat="44.3432152" lon="8.2405547"><ele>561.0</ele><time>2026-04-19T09:25:39.156Z</time></trkpt><trkpt lat="44.3431829" lon="8.2406368"><ele>561.0</ele><time>2026-04-19T09:25:42.157Z</time></trkpt><trkpt lat="44.343148" lon="8.2407298"><ele>561.0</ele><time>2026-04-19T09:25:45.156Z</time></trkpt><trkpt lat="44.3430967" lon="8.2408065"><ele>561.0</ele><time>2026-04-19T09:25:48.156Z</time></trkpt><trkpt lat="44.3430496" lon="8.2408813"><ele>561.0</ele><time>2026-04-19T09:25:51.156Z</time></trkpt><trkpt lat="44.343002" lon="8.240965"><ele>565.3333333333334</ele><time>2026-04-19T09:25:54.156Z</time></trkpt><trkpt lat="44.342949" lon="8.2410557"><ele>569.6666666666666</ele><time>2026-04-19T09:25:57.156Z</time></trkpt><trkpt lat="44.3428955" lon="8.2411585"><ele>574.0</ele><time>2026-04-19T09:26:00.156Z</time></trkpt><trkpt lat="44.3428665" lon="8.2412382"><ele>578.3333333333333</ele><time>2026-04-19T09:26:02.155Z</time></trkpt><trkpt lat="44.3428054" lon="8.2413131"><ele>582.6666666666666</ele><time>2026-04-19T09:26:05.156Z</time></trkpt><trkpt lat="44.3427272" lon="8.2413859"><ele>587.0</ele><time>2026-04-19T09:26:08.156Z</time></trkpt><trkpt lat="44.3426532" lon="8.2414444"><ele>583.2</ele><time>2026-04-19T09:26:11.156Z</time></trkpt><trkpt lat="44.3425702" lon="8.2415148"><ele>579.4000000000001</ele><time>2026-04-19T09:26:14.156Z</time></trkpt><trkpt lat="44.3424834" lon="8.2415292"><ele>575.5999999999999</ele><time>2026-04-19T09:26:17.156Z</time></trkpt><trkpt lat="44.3424012" lon="8.2415852"><ele>571.8</ele><time>2026-04-19T09:26:20.156Z</time></trkpt><trkpt lat="44.3423271" lon="8.241652"><ele>568.0</ele><time>2026-04-19T09:26:23.157Z</time></trkpt><trkpt lat="44.3422622" lon="8.2417406"><ele>570.5</ele><time>2026-04-19T09:26:26.157Z</time></trkpt><trkpt lat="44.3421959" lon="8.2418095"><ele>573.0</ele><time>2026-04-19T09:26:29.156Z</time></trkpt><trkpt lat="44.3421201" lon="8.2418874"><ele>575.5</ele><time>2026-04-19T09:26:32.156Z</time></trkpt><trkpt lat="44.3420505" lon="8.2419672"><ele>578.0</ele><time>2026-04-19T09:26:35.155Z</time></trkpt><trkpt lat="44.3419585" lon="8.2419656"><ele>580.5</ele><time>2026-04-19T09:26:38.155Z</time></trkpt><trkpt lat="44.3418882" lon="8.2419665"><ele>583.0</ele><time>2026-04-19T09:26:41.156Z</time></trkpt><trkpt lat="44.3418191" lon="8.2419387"><ele>583.0</ele><time>2026-04-19T09:26:44.155Z</time></trkpt><trkpt lat="44.3417563" lon="8.24188"><ele>583.0</ele><time>2026-04-19T09:26:47.157Z</time></trkpt><trkpt lat="44.3417016" lon="8.2418041"><ele>583.0</ele><time>2026-04-19T09:26:50.156Z</time></trkpt><trkpt lat="44.3416418" lon="8.2417395"><ele>583.0</ele><time>2026-04-19T09:26:53.156Z</time></trkpt><trkpt lat="44.3415566" lon="8.2416843"><ele>583.0</ele><time>2026-04-19T09:26:56.157Z</time></trkpt><trkpt lat="44.3414902" lon="8.2416578"><ele>583.0</ele><time>2026-04-19T09:26:58.157Z</time></trkpt><trkpt lat="44.3414191" lon="8.2416255"><ele>584.8333333333334</ele><time>2026-04-19T09:27:00.156Z</time></trkpt><trkpt lat="44.3413514" lon="8.2415945"><ele>586.6666666666667</ele><time>2026-04-19T09:27:02.157Z</time></trkpt><trkpt lat="44.341292" lon="8.2415396"><ele>588.5</ele><time>2026-04-19T09:27:05.157Z</time></trkpt><trkpt lat="44.341219" lon="8.241473"><ele>590.3333333333334</ele><time>2026-04-19T09:27:08.156Z</time></trkpt><trkpt lat="44.3411442" lon="8.2414228"><ele>592.1666666666666</ele><time>2026-04-19T09:27:11.155Z</time></trkpt><trkpt lat="44.3410731" lon="8.2413665"><ele>594.0</ele><time>2026-04-19T09:27:14.156Z</time></trkpt><trkpt lat="44.3410201" lon="8.2413179"><ele>594.0</ele><time>2026-04-19T09:27:16.157Z</time></trkpt><trkpt lat="44.3409496" lon="8.2412332"><ele>594.0</ele><time>2026-04-19T09:27:19.155Z</time></trkpt><trkpt lat="44.3408778" lon="8.2411499"><ele>594.0</ele><time>2026-04-19T09:27:22.156Z</time></trkpt><trkpt lat="44.3408089" lon="8.2410782"><ele>594.0</ele><time>2026-04-19T09:27:25.156Z</time></trkpt><trkpt lat="44.3407612" lon="8.2409857"><ele>594.0</ele><time>2026-04-19T09:27:28.156Z</time></trkpt><trkpt lat="44.3407089" lon="8.2408865"><ele>594.0</ele><time>2026-04-19T09:27:31.156Z</time></trkpt><trkpt lat="44.3406462" lon="8.2407921"><ele>594.0</ele><time>2026-04-19T09:27:34.154Z</time></trkpt><trkpt lat="44.340599" lon="8.2407086"><ele>594.0</ele><time>2026-04-19T09:27:37.155Z</time></trkpt><trkpt lat="44.340554" lon="8.2406383"><ele>594.0</ele><time>2026-04-19T09:27:40.156Z</time></trkpt><trkpt lat="44.3405082" lon="8.240547"><ele>594.0</ele><time>2026-04-19T09:27:43.156Z</time></trkpt><trkpt lat="44.3404628" lon="8.2404424"><ele>594.0</ele><time>2026-04-19T09:27:46.157Z</time></trkpt><trkpt lat="44.3404108" lon="8.2403398"><ele>594.0</ele><time>2026-04-19T09:27:49.156Z</time></trkpt><trkpt lat="44.3403563" lon="8.2402624"><ele>596.2857142857143</ele><time>2026-04-19T09:27:52.154Z</time></trkpt><trkpt lat="44.3403" lon="8.2401838"><ele>598.5714285714287</ele><time>2026-04-19T09:27:55.156Z</time></trkpt><trkpt lat="44.3402376" lon="8.2401602"><ele>600.8571428571429</ele><time>2026-04-19T09:27:57.155Z</time></trkpt><trkpt lat="44.34015" lon="8.2401204"><ele>603.1428571428571</ele><time>2026-04-19T09:28:00.157Z</time></trkpt><trkpt lat="44.3400722" lon="8.2401187"><ele>605.4285714285713</ele><time>2026-04-19T09:28:02.155Z</time></trkpt><trkpt lat="44.3400079" lon="8.2401338"><ele>607.7142857142858</ele><time>2026-04-19T09:28:04.155Z</time></trkpt><trkpt lat="44.3399462" lon="8.2401676"><ele>610.0</ele><time>2026-04-19T09:28:06.155Z</time></trkpt><trkpt lat="44.3398874" lon="8.240234"><ele>610.0</ele><time>2026-04-19T09:28:09.155Z</time></trkpt><trkpt lat="44.3398204" lon="8.2403104"><ele>610.0</ele><time>2026-04-19T09:28:12.155Z</time></trkpt><trkpt lat="44.3397756" lon="8.240377"><ele>610.0</ele><time>2026-04-19T09:28:14.154Z</time></trkpt><trkpt lat="44.3397197" lon="8.2404766"><ele>610.0</ele><time>2026-04-19T09:28:17.157Z</time></trkpt><trkpt lat="44.3397086" lon="8.2405938"><ele>610.0</ele><time>2026-04-19T09:28:19.157Z</time></trkpt><trkpt lat="44.3396754" lon="8.2407159"><ele>610.0</ele><time>2026-04-19T09:28:22.156Z</time></trkpt><trkpt lat="44.3396437" lon="8.2408216"><ele>610.5714285714286</ele><time>2026-04-19T09:28:25.155Z</time></trkpt><trkpt lat="44.3395951" lon="8.2409332"><ele>611.1428571428571</ele><time>2026-04-19T09:28:28.156Z</time></trkpt><trkpt lat="44.339554" lon="8.2410064"><ele>611.7142857142857</ele><time>2026-04-19T09:28:30.156Z</time></trkpt><trkpt lat="44.3395134" lon="8.2410756"><ele>612.2857142857142</ele><time>2026-04-19T09:28:32.156Z</time></trkpt><trkpt lat="44.3394697" lon="8.2411445"><ele>612.8571428571429</ele><time>2026-04-19T09:28:34.156Z</time></trkpt><trkpt lat="44.33943" lon="8.2412152"><ele>613.4285714285713</ele><time>2026-04-19T09:28:36.156Z</time></trkpt><trkpt lat="44.3393812" lon="8.2412883"><ele>614.0</ele><time>2026-04-19T09:28:38.156Z</time></trkpt><trkpt lat="44.3393291" lon="8.2413564"><ele>614.0</ele><time>2026-04-19T09:28:40.155Z</time></trkpt><trkpt lat="44.3392747" lon="8.2414262"><ele>614.0</ele><time>2026-04-19T09:28:42.155Z</time></trkpt><trkpt lat="44.3392019" lon="8.2414918"><ele>614.0</ele><time>2026-04-19T09:28:45.156Z</time></trkpt><trkpt lat="44.3391257" lon="8.2415572"><ele>614.0</ele><time>2026-04-19T09:28:48.156Z</time></trkpt><trkpt lat="44.339046" lon="8.2416193"><ele>614.0</ele><time>2026-04-19T09:28:51.156Z</time></trkpt><trkpt lat="44.3389804" lon="8.2416745"><ele>614.0</ele><time>2026-04-19T09:28:53.154Z</time></trkpt><trkpt lat="44.3389225" lon="8.2417245"><ele>613.6666666666666</ele><time>2026-04-19T09:28:55.156Z</time></trkpt><trkpt lat="44.3388628" lon="8.2417812"><ele>613.3333333333333</ele><time>2026-04-19T09:28:57.156Z</time></trkpt><trkpt lat="44.3388035" lon="8.2418366"><ele>613.0</ele><time>2026-04-19T09:28:59.155Z</time></trkpt><trkpt lat="44.3387276" lon="8.2418796"><ele>612.6666666666666</ele><time>2026-04-19T09:29:01.157Z</time></trkpt><trkpt lat="44.3386484" lon="8.241922"><ele>612.3333333333334</ele><time>2026-04-19T09:29:03.156Z</time></trkpt><trkpt lat="44.3385695" lon="8.2419698"><ele>612.0</ele><time>2026-04-19T09:29:05.155Z</time></trkpt><trkpt lat="44.3384964" lon="8.2420181"><ele>612.0</ele><time>2026-04-19T09:29:07.155Z</time></trkpt><trkpt lat="44.3384125" lon="8.2420586"><ele>612.0</ele><time>2026-04-19T09:29:09.155Z</time></trkpt><trkpt lat="44.3383241" lon="8.2421134"><ele>612.0</ele><time>2026-04-19T09:29:11.155Z</time></trkpt><trkpt lat="44.3382439" lon="8.2421522"><ele>612.0</ele><time>2026-04-19T09:29:13.155Z</time></trkpt><trkpt lat="44.338153" lon="8.2421823"><ele>612.0</ele><time>2026-04-19T09:29:15.156Z</time></trkpt><trkpt lat="44.3380817" lon="8.2422043"><ele>612.0</ele><time>2026-04-19T09:29:17.155Z</time></trkpt><trkpt lat="44.3379951" lon="8.2422225"><ele>611.5</ele><time>2026-04-19T09:29:19.154Z</time></trkpt><trkpt lat="44.3379174" lon="8.2422422"><ele>611.0</ele><time>2026-04-19T09:29:21.156Z</time></trkpt><trkpt lat="44.337843" lon="8.2422666"><ele>610.5</ele><time>2026-04-19T09:29:23.155Z</time></trkpt><trkpt lat="44.337767" lon="8.2422985"><ele>610.0</ele><time>2026-04-19T09:29:25.155Z</time></trkpt><trkpt lat="44.3376924" lon="8.242368"><ele>609.5</ele><time>2026-04-19T09:29:27.156Z</time></trkpt><trkpt lat="44.3376403" lon="8.242489"><ele>609.0</ele><time>2026-04-19T09:29:29.155Z</time></trkpt><trkpt lat="44.3376242" lon="8.2425938"><ele>609.0</ele><time>2026-04-19T09:29:31.154Z</time></trkpt><trkpt lat="44.3376463" lon="8.2427459"><ele>609.0</ele><time>2026-04-19T09:29:33.155Z</time></trkpt><trkpt lat="44.3376846" lon="8.2428505"><ele>609.0</ele><time>2026-04-19T09:29:35.156Z</time></trkpt><trkpt lat="44.3377347" lon="8.2429356"><ele>609.0</ele><time>2026-04-19T09:29:37.155Z</time></trkpt><trkpt lat="44.3377766" lon="8.2430349"><ele>609.0</ele><time>2026-04-19T09:29:39.156Z</time></trkpt><trkpt lat="44.337823" lon="8.2431232"><ele>609.0</ele><time>2026-04-19T09:29:41.156Z</time></trkpt><trkpt lat="44.3378615" lon="8.2432247"><ele>609.0</ele><time>2026-04-19T09:29:43.155Z</time></trkpt><trkpt lat="44.3378711" lon="8.2433272"><ele>609.0</ele><time>2026-04-19T09:29:45.156Z</time></trkpt><trkpt lat="44.337876" lon="8.2434185"><ele>609.0</ele><time>2026-04-19T09:29:47.156Z</time></trkpt><trkpt lat="44.3378685" lon="8.2435451"><ele>609.0</ele><time>2026-04-19T09:29:50.156Z</time></trkpt><trkpt lat="44.3378526" lon="8.2436365"><ele>609.0</ele><time>2026-04-19T09:29:52.156Z</time></trkpt><trkpt lat="44.337837" lon="8.2437436"><ele>609.0</ele><time>2026-04-19T09:29:54.155Z</time></trkpt><trkpt lat="44.3378117" lon="8.243863"><ele>609.4</ele><time>2026-04-19T09:29:56.156Z</time></trkpt><trkpt lat="44.3377756" lon="8.2439841"><ele>609.8</ele><time>2026-04-19T09:29:58.155Z</time></trkpt><trkpt lat="44.3377518" lon="8.2441066"><ele>610.2</ele><time>2026-04-19T09:30:00.155Z</time></trkpt><trkpt lat="44.3377509" lon="8.2442567"><ele>610.6</ele><time>2026-04-19T09:30:02.156Z</time></trkpt><trkpt lat="44.3377122" lon="8.244416"><ele>611.0</ele><time>2026-04-19T09:30:04.156Z</time></trkpt><trkpt lat="44.3377202" lon="8.2445092"><ele>611.0</ele><time>2026-04-19T09:30:05.155Z</time></trkpt><trkpt lat="44.3377386" lon="8.2445985"><ele>611.0</ele><time>2026-04-19T09:30:06.155Z</time></trkpt><trkpt lat="44.3377547" lon="8.2446988"><ele>611.0</ele><time>2026-04-19T09:30:07.155Z</time></trkpt><trkpt lat="44.3377592" lon="8.244802"><ele>611.0</ele><time>2026-04-19T09:30:08.155Z</time></trkpt><trkpt lat="44.337797" lon="8.2449108"><ele>611.0</ele><time>2026-04-19T09:30:09.156Z</time></trkpt><trkpt lat="44.3378042" lon="8.2450199"><ele>611.0</ele><time>2026-04-19T09:30:10.155Z</time></trkpt><trkpt lat="44.3378157" lon="8.245141"><ele>611.1666666666666</ele><time>2026-04-19T09:30:11.154Z</time></trkpt><trkpt lat="44.3378017" lon="8.2452563"><ele>611.3333333333333</ele><time>2026-04-19T09:30:12.156Z</time></trkpt><trkpt lat="44.3377787" lon="8.2453776"><ele>611.5</ele><time>2026-04-19T09:30:13.155Z</time></trkpt><trkpt lat="44.3377483" lon="8.2454917"><ele>611.6666666666666</ele><time>2026-04-19T09:30:14.156Z</time></trkpt><trkpt lat="44.3377207" lon="8.2456085"><ele>611.8333333333334</ele><time>2026-04-19T09:30:15.155Z</time></trkpt><trkpt lat="44.3377166" lon="8.2457286"><ele>612.0</ele><time>2026-04-19T09:30:16.155Z</time></trkpt><trkpt lat="44.3377129" lon="8.2458447"><ele>609.4</ele><time>2026-04-19T09:30:17.156Z</time></trkpt><trkpt lat="44.3377276" lon="8.2459541"><ele>606.8000000000001</ele><time>2026-04-19T09:30:18.156Z</time></trkpt><trkpt lat="44.3377365" lon="8.2460661"><ele>604.2</ele><time>2026-04-19T09:30:19.156Z</time></trkpt><trkpt lat="44.3377912" lon="8.246182"><ele>601.6</ele><time>2026-04-19T09:30:20.154Z</time></trkpt><trkpt lat="44.3378441" lon="8.2462982"><ele>599.0</ele><time>2026-04-19T09:30:21.155Z</time></trkpt><trkpt lat="44.3379053" lon="8.2464158"><ele>597.25</ele><time>2026-04-19T09:30:22.156Z</time></trkpt><trkpt lat="44.3379805" lon="8.2465447"><ele>595.5</ele><time>2026-04-19T09:30:23.154Z</time></trkpt><trkpt lat="44.3380528" lon="8.2466541"><ele>593.75</ele><time>2026-04-19T09:30:24.155Z</time></trkpt><trkpt lat="44.3381325" lon="8.2467739"><ele>592.0</ele><time>2026-04-19T09:30:25.156Z</time></trkpt><trkpt lat="44.3382212" lon="8.2468998"><ele>589.8000000000001</ele><time>2026-04-19T09:30:26.154Z</time></trkpt><trkpt lat="44.3383001" lon="8.24701"><ele>587.6</ele><time>2026-04-19T09:30:27.154Z</time></trkpt><trkpt lat="44.3383681" lon="8.247125"><ele>585.4000000000001</ele><time>2026-04-19T09:30:28.155Z</time></trkpt><trkpt lat="44.3384408" lon="8.2472457"><ele>583.2</ele><time>2026-04-19T09:30:29.155Z</time></trkpt><trkpt lat="44.3384935" lon="8.2473878"><ele>581.0</ele><time>2026-04-19T09:30:30.155Z</time></trkpt><trkpt lat="44.33854" lon="8.2475394"><ele>581.0</ele><time>2026-04-19T09:30:31.156Z</time></trkpt><trkpt lat="44.3385848" lon="8.2476824"><ele>581.0</ele><time>2026-04-19T09:30:32.154Z</time></trkpt><trkpt lat="44.3386078" lon="8.247835"><ele>581.0</ele><time>2026-04-19T09:30:33.154Z</time></trkpt><trkpt lat="44.3385995" lon="8.2479641"><ele>581.0</ele><time>2026-04-19T09:30:34.155Z</time></trkpt><trkpt lat="44.3386102" lon="8.2481108"><ele>581.0</ele><time>2026-04-19T09:30:35.153Z</time></trkpt><trkpt lat="44.3386053" lon="8.2482487"><ele>580.0</ele><time>2026-04-19T09:30:36.154Z</time></trkpt><trkpt lat="44.3385644" lon="8.2483683"><ele>579.0</ele><time>2026-04-19T09:30:37.156Z</time></trkpt><trkpt lat="44.3385428" lon="8.248486"><ele>578.0</ele><time>2026-04-19T09:30:38.156Z</time></trkpt><trkpt lat="44.3385155" lon="8.2485771"><ele>577.0</ele><time>2026-04-19T09:30:39.156Z</time></trkpt><trkpt lat="44.3384739" lon="8.2486479"><ele>576.0</ele><time>2026-04-19T09:30:40.155Z</time></trkpt><trkpt lat="44.3383985" lon="8.2486882"><ele>575.0</ele><time>2026-04-19T09:30:42.155Z</time></trkpt><trkpt lat="44.3383008" lon="8.2486623"><ele>575.0</ele><time>2026-04-19T09:30:45.156Z</time></trkpt><trkpt lat="44.3382121" lon="8.2486253"><ele>575.0</ele><time>2026-04-19T09:30:48.154Z</time></trkpt><trkpt lat="44.3381324" lon="8.2485976"><ele>575.0</ele><time>2026-04-19T09:30:51.155Z</time></trkpt><trkpt lat="44.3380539" lon="8.2485637"><ele>575.0</ele><time>2026-04-19T09:30:54.156Z</time></trkpt><trkpt lat="44.3379831" lon="8.2484951"><ele>575.0</ele><time>2026-04-19T09:30:57.155Z</time></trkpt><trkpt lat="44.3379093" lon="8.2484269"><ele>575.0</ele><time>2026-04-19T09:31:00.156Z</time></trkpt><trkpt lat="44.3378353" lon="8.2483529"><ele>574.8333333333333</ele><time>2026-04-19T09:31:03.155Z</time></trkpt><trkpt lat="44.3377844" lon="8.2483001"><ele>574.6666666666666</ele><time>2026-04-19T09:31:05.156Z</time></trkpt><trkpt lat="44.33773" lon="8.2482113"><ele>574.5</ele><time>2026-04-19T09:31:08.154Z</time></trkpt><trkpt lat="44.3376775" lon="8.2481173"><ele>574.3333333333334</ele><time>2026-04-19T09:31:11.154Z</time></trkpt><trkpt lat="44.3376216" lon="8.2480208"><ele>574.1666666666667</ele><time>2026-04-19T09:31:14.154Z</time></trkpt><trkpt lat="44.3375648" lon="8.2479172"><ele>574.0</ele><time>2026-04-19T09:31:17.156Z</time></trkpt><trkpt lat="44.3375039" lon="8.2478223"><ele>576.1666666666667</ele><time>2026-04-19T09:31:20.155Z</time></trkpt><trkpt lat="44.337454" lon="8.2477216"><ele>578.3333333333334</ele><time>2026-04-19T09:31:23.154Z</time></trkpt><trkpt lat="44.3374225" lon="8.2476421"><ele>580.5</ele><time>2026-04-19T09:31:25.156Z</time></trkpt><trkpt lat="44.3373829" lon="8.2475695"><ele>582.6666666666666</ele><time>2026-04-19T09:31:27.156Z</time></trkpt><trkpt lat="44.3373259" lon="8.247467"><ele>584.8333333333333</ele><time>2026-04-19T09:31:30.155Z</time></trkpt><trkpt lat="44.3372708" lon="8.2473624"><ele>587.0</ele><time>2026-04-19T09:31:33.155Z</time></trkpt><trkpt lat="44.3372204" lon="8.2472612"><ele>586.7142857142858</ele><time>2026-04-19T09:31:36.155Z</time></trkpt><trkpt lat="44.3371658" lon="8.2471619"><ele>586.4285714285714</ele><time>2026-04-19T09:31:39.155Z</time></trkpt><trkpt lat="44.3371246" lon="8.2470909"><ele>586.1428571428571</ele><time>2026-04-19T09:31:41.154Z</time></trkpt><trkpt lat="44.3370665" lon="8.2469944"><ele>585.8571428571429</ele><time>2026-04-19T09:31:44.156Z</time></trkpt><trkpt lat="44.3370185" lon="8.2469289"><ele>585.5714285714286</ele><time>2026-04-19T09:31:46.155Z</time></trkpt><trkpt lat="44.3369641" lon="8.2468649"><ele>585.2857142857143</ele><time>2026-04-19T09:31:48.154Z</time></trkpt><trkpt lat="44.3369169" lon="8.2468066"><ele>585.0</ele><time>2026-04-19T09:31:50.155Z</time></trkpt><trkpt lat="44.336863" lon="8.2467165"><ele>585.0</ele><time>2026-04-19T09:31:53.156Z</time></trkpt><trkpt lat="44.3368056" lon="8.2466213"><ele>585.0</ele><time>2026-04-19T09:31:56.156Z</time></trkpt><trkpt lat="44.3367414" lon="8.2465246"><ele>585.0</ele><time>2026-04-19T09:31:59.154Z</time></trkpt><trkpt lat="44.336696" lon="8.2464589"><ele>585.0</ele><time>2026-04-19T09:32:01.155Z</time></trkpt><trkpt lat="44.3366392" lon="8.2463505"><ele>585.0</ele><time>2026-04-19T09:32:04.156Z</time></trkpt><trkpt lat="44.3365986" lon="8.2462828"><ele>585.0</ele><time>2026-04-19T09:32:06.155Z</time></trkpt><trkpt lat="44.3365384" lon="8.246181"><ele>586.5</ele><time>2026-04-19T09:32:09.156Z</time></trkpt><trkpt lat="44.3364919" lon="8.2460902"><ele>588.0</ele><time>2026-04-19T09:32:12.154Z</time></trkpt><trkpt lat="44.3364357" lon="8.2460069"><ele>589.5</ele><time>2026-04-19T09:32:15.155Z</time></trkpt><trkpt lat="44.3363691" lon="8.2459336"><ele>591.0</ele><time>2026-04-19T09:32:18.155Z</time></trkpt><trkpt lat="44.3362941" lon="8.2458649"><ele>592.5</ele><time>2026-04-19T09:32:21.156Z</time></trkpt><trkpt lat="44.336228" lon="8.2458014"><ele>594.0</ele><time>2026-04-19T09:32:24.155Z</time></trkpt><trkpt lat="44.3361536" lon="8.2457313"><ele>594.0</ele><time>2026-04-19T09:32:27.154Z</time></trkpt><trkpt lat="44.3360943" lon="8.2456581"><ele>594.0</ele><time>2026-04-19T09:32:30.156Z</time></trkpt><trkpt lat="44.3360215" lon="8.2455911"><ele>594.0</ele><time>2026-04-19T09:32:33.155Z</time></trkpt><trkpt lat="44.3359514" lon="8.2455198"><ele>594.0</ele><time>2026-04-19T09:32:36.154Z</time></trkpt><trkpt lat="44.3358878" lon="8.2454399"><ele>594.0</ele><time>2026-04-19T09:32:39.154Z</time></trkpt><trkpt lat="44.3358194" lon="8.2453663"><ele>594.0</ele><time>2026-04-19T09:32:42.153Z</time></trkpt><trkpt lat="44.3357444" lon="8.2452963"><ele>596.0</ele><time>2026-04-19T09:32:45.155Z</time></trkpt><trkpt lat="44.3356628" lon="8.2452356"><ele>598.0</ele><time>2026-04-19T09:32:48.154Z</time></trkpt><trkpt lat="44.3356015" lon="8.2451997"><ele>600.0</ele><time>2026-04-19T09:32:50.153Z</time></trkpt><trkpt lat="44.3355116" lon="8.2451595"><ele>602.0</ele><time>2026-04-19T09:32:53.154Z</time></trkpt><trkpt lat="44.3354491" lon="8.2451343"><ele>604.0</ele><time>2026-04-19T09:32:55.155Z</time></trkpt><trkpt lat="44.3353613" lon="8.2451007"><ele>606.0</ele><time>2026-04-19T09:32:58.155Z</time></trkpt><trkpt lat="44.3352794" lon="8.245045"><ele>606.0</ele><time>2026-04-19T09:33:01.155Z</time></trkpt><trkpt lat="44.3352188" lon="8.2449698"><ele>606.0</ele><time>2026-04-19T09:33:04.155Z</time></trkpt><trkpt lat="44.3351658" lon="8.2448961"><ele>606.0</ele><time>2026-04-19T09:33:07.155Z</time></trkpt><trkpt lat="44.3351052" lon="8.2448274"><ele>606.0</ele><time>2026-04-19T09:33:10.154Z</time></trkpt><trkpt lat="44.3350463" lon="8.2447462"><ele>606.0</ele><time>2026-04-19T09:33:13.155Z</time></trkpt><trkpt lat="44.3349856" lon="8.2446687"><ele>606.0</ele><time>2026-04-19T09:33:16.156Z</time></trkpt><trkpt lat="44.3349252" lon="8.244581"><ele>609.5</ele><time>2026-04-19T09:33:19.155Z</time></trkpt><trkpt lat="44.334855" lon="8.2445115"><ele>613.0</ele><time>2026-04-19T09:33:22.155Z</time></trkpt><trkpt lat="44.3347875" lon="8.2444334"><ele>616.5</ele><time>2026-04-19T09:33:25.155Z</time></trkpt><trkpt lat="44.3347152" lon="8.244378"><ele>620.0</ele><time>2026-04-19T09:33:28.154Z</time></trkpt><trkpt lat="44.3346395" lon="8.2443308"><ele>623.5</ele><time>2026-04-19T09:33:31.155Z</time></trkpt><trkpt lat="44.334568" lon="8.2442815"><ele>627.0</ele><time>2026-04-19T09:33:34.155Z</time></trkpt><trkpt lat="44.3345016" lon="8.2442306"><ele>627.0</ele><time>2026-04-19T09:33:37.155Z</time></trkpt><trkpt lat="44.3344406" lon="8.2441848"><ele>627.0</ele><time>2026-04-19T09:33:40.154Z</time></trkpt><trkpt lat="44.3343769" lon="8.2441373"><ele>627.0</ele><time>2026-04-19T09:33:43.154Z</time></trkpt><trkpt lat="44.3343037" lon="8.2441074"><ele>627.0</ele><time>2026-04-19T09:33:46.156Z</time></trkpt><trkpt lat="44.334239" lon="8.2440733"><ele>627.0</ele><time>2026-04-19T09:33:49.155Z</time></trkpt><trkpt lat="44.3341718" lon="8.2440642"><ele>627.0</ele><time>2026-04-19T09:33:52.153Z</time></trkpt><trkpt lat="44.3341044" lon="8.2440733"><ele>627.0</ele><time>2026-04-19T09:33:55.155Z</time></trkpt><trkpt lat="44.3340413" lon="8.2440853"><ele>627.0</ele><time>2026-04-19T09:33:58.155Z</time></trkpt><trkpt lat="44.333968" lon="8.2441001"><ele>627.0</ele><time>2026-04-19T09:34:01.154Z</time></trkpt><trkpt lat="44.3338939" lon="8.2441221"><ele>627.0</ele><time>2026-04-19T09:34:04.153Z</time></trkpt><trkpt lat="44.3338164" lon="8.2441534"><ele>627.0</ele><time>2026-04-19T09:34:07.154Z</time></trkpt><trkpt lat="44.3337353" lon="8.2441744"><ele>627.0</ele><time>2026-04-19T09:34:10.155Z</time></trkpt><trkpt lat="44.3336571" lon="8.2442039"><ele>627.0</ele><time>2026-04-19T09:34:13.153Z</time></trkpt><trkpt lat="44.3335769" lon="8.2442371"><ele>629.1666666666666</ele><time>2026-04-19T09:34:16.154Z</time></trkpt><trkpt lat="44.3334999" lon="8.2442659"><ele>631.3333333333334</ele><time>2026-04-19T09:34:19.156Z</time></trkpt><trkpt lat="44.3334273" lon="8.2443058"><ele>633.5</ele><time>2026-04-19T09:34:22.155Z</time></trkpt><trkpt lat="44.3333549" lon="8.2443405"><ele>635.6666666666667</ele><time>2026-04-19T09:34:25.154Z</time></trkpt><trkpt lat="44.333279" lon="8.2443682"><ele>637.8333333333334</ele><time>2026-04-19T09:34:28.155Z</time></trkpt><trkpt lat="44.3331989" lon="8.2443819"><ele>640.0</ele><time>2026-04-19T09:34:31.155Z</time></trkpt><trkpt lat="44.3331359" lon="8.2443968"><ele>640.0</ele><time>2026-04-19T09:34:34.155Z</time></trkpt><trkpt lat="44.3330744" lon="8.2444435"><ele>640.0</ele><time>2026-04-19T09:34:37.154Z</time></trkpt><trkpt lat="44.3329995" lon="8.2444894"><ele>640.0</ele><time>2026-04-19T09:34:41.156Z</time></trkpt><trkpt lat="44.3329327" lon="8.2445423"><ele>640.0</ele><time>2026-04-19T09:34:45.156Z</time></trkpt><trkpt lat="44.3328763" lon="8.2446123"><ele>640.0</ele><time>2026-04-19T09:34:48.154Z</time></trkpt><trkpt lat="44.3328113" lon="8.2446412"><ele>640.0</ele><time>2026-04-19T09:34:51.156Z</time></trkpt><trkpt lat="44.3327335" lon="8.2446696"><ele>640.7142857142857</ele><time>2026-04-19T09:34:54.155Z</time></trkpt><trkpt lat="44.3326651" lon="8.2447175"><ele>641.4285714285714</ele><time>2026-04-19T09:34:57.154Z</time></trkpt><trkpt lat="44.3325917" lon="8.2447579"><ele>642.1428571428571</ele><time>2026-04-19T09:35:00.153Z</time></trkpt><trkpt lat="44.3325334" lon="8.2448018"><ele>642.8571428571429</ele><time>2026-04-19T09:35:03.154Z</time></trkpt><trkpt lat="44.3324967" lon="8.2449032"><ele>643.5714285714286</ele><time>2026-04-19T09:35:08.154Z</time></trkpt><trkpt lat="44.3324309" lon="8.244917"><ele>644.2857142857143</ele><time>2026-04-19T09:36:17.155Z</time></trkpt><trkpt lat="44.3323814" lon="8.2449751"><ele>645.0</ele><time>2026-04-19T09:36:43.155Z</time></trkpt><trkpt lat="44.3323067" lon="8.2450016"><ele>642.1666666666666</ele><time>2026-04-19T09:36:46.154Z</time></trkpt><trkpt lat="44.332242" lon="8.2449911"><ele>639.3333333333334</ele><time>2026-04-19T09:36:49.155Z</time></trkpt><trkpt lat="44.3321755" lon="8.2450011"><ele>636.5</ele><time>2026-04-19T09:36:53.154Z</time></trkpt><trkpt lat="44.3321063" lon="8.2450545"><ele>633.6666666666667</ele><time>2026-04-19T09:36:56.155Z</time></trkpt><trkpt lat="44.3320545" lon="8.2451065"><ele>630.8333333333334</ele><time>2026-04-19T09:36:58.155Z</time></trkpt><trkpt lat="44.3320437" lon="8.2452516"><ele>628.0</ele><time>2026-04-19T09:37:00.155Z</time></trkpt><trkpt lat="44.3320299" lon="8.2454057"><ele>627.0</ele><time>2026-04-19T09:37:02.155Z</time></trkpt><trkpt lat="44.3320081" lon="8.2455421"><ele>626.0</ele><time>2026-04-19T09:37:04.155Z</time></trkpt><trkpt lat="44.3320354" lon="8.2457011"><ele>625.0</ele><time>2026-04-19T09:37:06.154Z</time></trkpt><trkpt lat="44.3320528" lon="8.2458732"><ele>624.0</ele><time>2026-04-19T09:37:08.154Z</time></trkpt><trkpt lat="44.3320573" lon="8.2459708"><ele>623.0</ele><time>2026-04-19T09:37:09.154Z</time></trkpt><trkpt lat="44.3320775" lon="8.2460802"><ele>623.0</ele><time>2026-04-19T09:37:10.153Z</time></trkpt><trkpt lat="44.3320794" lon="8.2461851"><ele>623.0</ele><time>2026-04-19T09:37:11.155Z</time></trkpt><trkpt lat="44.3320844" lon="8.2462945"><ele>623.0</ele><time>2026-04-19T09:37:12.155Z</time></trkpt><trkpt lat="44.3320817" lon="8.2463979"><ele>623.0</ele><time>2026-04-19T09:37:13.155Z</time></trkpt><trkpt lat="44.3320809" lon="8.2465067"><ele>623.0</ele><time>2026-04-19T09:37:14.154Z</time></trkpt><trkpt lat="44.3320769" lon="8.2466176"><ele>623.0</ele><time>2026-04-19T09:37:15.155Z</time></trkpt><trkpt lat="44.3320772" lon="8.2467279"><ele>622.8333333333333</ele><time>2026-04-19T09:37:16.154Z</time></trkpt><trkpt lat="44.3320834" lon="8.2468465"><ele>622.6666666666666</ele><time>2026-04-19T09:37:17.153Z</time></trkpt><trkpt lat="44.3320839" lon="8.2469651"><ele>622.5</ele><time>2026-04-19T09:37:18.155Z</time></trkpt><trkpt lat="44.3320976" lon="8.2470783"><ele>622.3333333333334</ele><time>2026-04-19T09:37:19.154Z</time></trkpt><trkpt lat="44.332126" lon="8.247195"><ele>622.1666666666667</ele><time>2026-04-19T09:37:20.155Z</time></trkpt><trkpt lat="44.3321538" lon="8.2473082"><ele>622.0</ele><time>2026-04-19T09:37:21.155Z</time></trkpt><trkpt lat="44.3321795" lon="8.2474224"><ele>620.0</ele><time>2026-04-19T09:37:22.155Z</time></trkpt><trkpt lat="44.3321988" lon="8.2475478"><ele>618.0</ele><time>2026-04-19T09:37:23.155Z</time></trkpt><trkpt lat="44.332201" lon="8.2476688"><ele>616.0</ele><time>2026-04-19T09:37:24.154Z</time></trkpt><trkpt lat="44.3321817" lon="8.2477993"><ele>614.0</ele><time>2026-04-19T09:37:25.153Z</time></trkpt><trkpt lat="44.3321321" lon="8.2479135"><ele>612.0</ele><time>2026-04-19T09:37:26.153Z</time></trkpt><trkpt lat="44.3320673" lon="8.2480183"><ele>612.0</ele><time>2026-04-19T09:37:27.154Z</time></trkpt><trkpt lat="44.3319866" lon="8.248098"><ele>612.0</ele><time>2026-04-19T09:37:28.155Z</time></trkpt><trkpt lat="44.3319004" lon="8.2481364"><ele>612.0</ele><time>2026-04-19T09:37:29.154Z</time></trkpt><trkpt lat="44.3318036" lon="8.2481326"><ele>612.0</ele><time>2026-04-19T09:37:30.152Z</time></trkpt><trkpt lat="44.3317084" lon="8.2481155"><ele>612.0</ele><time>2026-04-19T09:37:31.153Z</time></trkpt><trkpt lat="44.3316114" lon="8.2480806"><ele>612.0</ele><time>2026-04-19T09:37:32.153Z</time></trkpt><trkpt lat="44.3315132" lon="8.2480336"><ele>612.0</ele><time>2026-04-19T09:37:33.154Z</time></trkpt><trkpt lat="44.3314268" lon="8.2479898"><ele>612.0</ele><time>2026-04-19T09:37:34.155Z</time></trkpt><trkpt lat="44.3313363" lon="8.2479467"><ele>612.0</ele><time>2026-04-19T09:37:35.154Z</time></trkpt><trkpt lat="44.3312454" lon="8.2479012"><ele>612.0</ele><time>2026-04-19T09:37:36.153Z</time></trkpt><trkpt lat="44.3311583" lon="8.2478502"><ele>611.0</ele><time>2026-04-19T09:37:37.154Z</time></trkpt><trkpt lat="44.3310736" lon="8.2477728"><ele>610.0</ele><time>2026-04-19T09:37:38.154Z</time></trkpt><trkpt lat="44.3309904" lon="8.2477051"><ele>609.0</ele><time>2026-04-19T09:37:39.155Z</time></trkpt><trkpt lat="44.3309035" lon="8.2476475"><ele>608.0</ele><time>2026-04-19T09:37:40.155Z</time></trkpt><trkpt lat="44.3308147" lon="8.2475966"><ele>607.0</ele><time>2026-04-19T09:37:41.154Z</time></trkpt><trkpt lat="44.330725" lon="8.2475604"><ele>607.0</ele><time>2026-04-19T09:37:42.155Z</time></trkpt><trkpt lat="44.3306283" lon="8.2475436"><ele>607.0</ele><time>2026-04-19T09:37:43.154Z</time></trkpt><trkpt lat="44.3305367" lon="8.2475375"><ele>607.0</ele><time>2026-04-19T09:37:44.153Z</time></trkpt><trkpt lat="44.3304502" lon="8.2475555"><ele>607.0</ele><time>2026-04-19T09:37:45.152Z</time></trkpt><trkpt lat="44.3303686" lon="8.2475857"><ele>607.0</ele><time>2026-04-19T09:37:46.152Z</time></trkpt><trkpt lat="44.3302969" lon="8.2476346"><ele>607.0</ele><time>2026-04-19T09:37:47.154Z</time></trkpt><trkpt lat="44.3302152" lon="8.247697"><ele>605.0</ele><time>2026-04-19T09:37:48.155Z</time></trkpt><trkpt lat="44.330151" lon="8.2477823"><ele>603.0</ele><time>2026-04-19T09:37:49.153Z</time></trkpt><trkpt lat="44.3300879" lon="8.2478727"><ele>601.0</ele><time>2026-04-19T09:37:50.155Z</time></trkpt><trkpt lat="44.3300303" lon="8.2479993"><ele>599.0</ele><time>2026-04-19T09:37:51.156Z</time></trkpt><trkpt lat="44.3299794" lon="8.24811"><ele>597.0</ele><time>2026-04-19T09:37:52.154Z</time></trkpt><trkpt lat="44.3299226" lon="8.248262"><ele>597.0</ele><time>2026-04-19T09:37:53.155Z</time></trkpt><trkpt lat="44.3298769" lon="8.2484041"><ele>597.0</ele><time>2026-04-19T09:37:54.154Z</time></trkpt><trkpt lat="44.3298507" lon="8.2485525"><ele>597.0</ele><time>2026-04-19T09:37:55.154Z</time></trkpt><trkpt lat="44.3298116" lon="8.2486564"><ele>597.0</ele><time>2026-04-19T09:37:56.154Z</time></trkpt><trkpt lat="44.3297787" lon="8.2488101"><ele>597.0</ele><time>2026-04-19T09:37:57.153Z</time></trkpt><trkpt lat="44.329755" lon="8.2489408"><ele>596.5</ele><time>2026-04-19T09:37:58.152Z</time></trkpt><trkpt lat="44.3297329" lon="8.2490347"><ele>596.0</ele><time>2026-04-19T09:37:59.154Z</time></trkpt><trkpt lat="44.3297357" lon="8.2491656"><ele>595.5</ele><time>2026-04-19T09:38:00.153Z</time></trkpt><trkpt lat="44.3297381" lon="8.2492779"><ele>595.0</ele><time>2026-04-19T09:38:01.154Z</time></trkpt><trkpt lat="44.3297584" lon="8.2493984"><ele>594.5</ele><time>2026-04-19T09:38:02.154Z</time></trkpt><trkpt lat="44.3297931" lon="8.2494987"><ele>594.0</ele><time>2026-04-19T09:38:03.152Z</time></trkpt><trkpt lat="44.3298669" lon="8.2496164"><ele>594.0</ele><time>2026-04-19T09:38:04.154Z</time></trkpt><trkpt lat="44.3299396" lon="8.2497213"><ele>594.0</ele><time>2026-04-19T09:38:05.155Z</time></trkpt><trkpt lat="44.3300311" lon="8.2497984"><ele>594.0</ele><time>2026-04-19T09:38:06.154Z</time></trkpt><trkpt lat="44.3301195" lon="8.2498849"><ele>594.0</ele><time>2026-04-19T09:38:07.154Z</time></trkpt><trkpt lat="44.3302127" lon="8.2499595"><ele>594.0</ele><time>2026-04-19T09:38:08.153Z</time></trkpt><trkpt lat="44.3303136" lon="8.2500321"><ele>593.25</ele><time>2026-04-19T09:38:09.155Z</time></trkpt><trkpt lat="44.3303953" lon="8.2501023"><ele>592.5</ele><time>2026-04-19T09:38:10.154Z</time></trkpt><trkpt lat="44.3304837" lon="8.2502025"><ele>591.75</ele><time>2026-04-19T09:38:11.154Z</time></trkpt><trkpt lat="44.3305602" lon="8.2503287"><ele>591.0</ele><time>2026-04-19T09:38:12.155Z</time></trkpt><trkpt lat="44.3306384" lon="8.2504627"><ele>591.0</ele><time>2026-04-19T09:38:13.155Z</time></trkpt><trkpt lat="44.3307001" lon="8.2505706"><ele>591.0</ele><time>2026-04-19T09:38:14.155Z</time></trkpt><trkpt lat="44.3307745" lon="8.2506796"><ele>591.0</ele><time>2026-04-19T09:38:15.154Z</time></trkpt><trkpt lat="44.3308531" lon="8.2507295"><ele>591.0</ele><time>2026-04-19T09:38:16.154Z</time></trkpt><trkpt lat="44.3308838" lon="8.2508298"><ele>591.0</ele><time>2026-04-19T09:38:17.154Z</time></trkpt><trkpt lat="44.3308458" lon="8.2509707"><ele>589.3333333333334</ele><time>2026-04-19T09:38:19.155Z</time></trkpt><trkpt lat="44.3307813" lon="8.2509846"><ele>587.6666666666666</ele><time>2026-04-19T09:38:20.153Z</time></trkpt><trkpt lat="44.3306776" lon="8.2508782"><ele>586.0</ele><time>2026-04-19T09:38:22.154Z</time></trkpt><trkpt lat="44.3306301" lon="8.2507838"><ele>584.3333333333333</ele><time>2026-04-19T09:38:23.155Z</time></trkpt><trkpt lat="44.3305748" lon="8.250705"><ele>582.6666666666666</ele><time>2026-04-19T09:38:24.154Z</time></trkpt><trkpt lat="44.3305099" lon="8.2506157"><ele>581.0</ele><time>2026-04-19T09:38:25.153Z</time></trkpt><trkpt lat="44.3304274" lon="8.2505389"><ele>581.0</ele><time>2026-04-19T09:38:26.154Z</time></trkpt><trkpt lat="44.3303342" lon="8.2504836"><ele>581.0</ele><time>2026-04-19T09:38:27.153Z</time></trkpt><trkpt lat="44.330233" lon="8.2504483"><ele>581.0</ele><time>2026-04-19T09:38:28.153Z</time></trkpt><trkpt lat="44.3301256" lon="8.2504192"><ele>581.0</ele><time>2026-04-19T09:38:29.154Z</time></trkpt><trkpt lat="44.3300189" lon="8.2503911"><ele>581.0</ele><time>2026-04-19T09:38:30.154Z</time></trkpt><trkpt lat="44.3299075" lon="8.2503606"><ele>581.0</ele><time>2026-04-19T09:38:31.155Z</time></trkpt><trkpt lat="44.3298211" lon="8.2503077"><ele>581.0</ele><time>2026-04-19T09:38:32.153Z</time></trkpt><trkpt lat="44.3297304" lon="8.2502795"><ele>581.0</ele><time>2026-04-19T09:38:33.154Z</time></trkpt><trkpt lat="44.3296523" lon="8.2502592"><ele>581.0</ele><time>2026-04-19T09:38:34.155Z</time></trkpt><trkpt lat="44.3295738" lon="8.2502852"><ele>581.0</ele><time>2026-04-19T09:38:35.154Z</time></trkpt><trkpt lat="44.3295057" lon="8.2503207"><ele>581.0</ele><time>2026-04-19T09:38:36.155Z</time></trkpt><trkpt lat="44.3294444" lon="8.2503806"><ele>579.0</ele><time>2026-04-19T09:38:37.153Z</time></trkpt><trkpt lat="44.3294649" lon="8.250497"><ele>577.0</ele><time>2026-04-19T09:38:38.155Z</time></trkpt><trkpt lat="44.3294955" lon="8.2505769"><ele>575.0</ele><time>2026-04-19T09:38:39.154Z</time></trkpt><trkpt lat="44.3295465" lon="8.2506381"><ele>573.0</ele><time>2026-04-19T09:38:40.154Z</time></trkpt><trkpt lat="44.3296058" lon="8.250706"><ele>571.0</ele><time>2026-04-19T09:38:41.155Z</time></trkpt><trkpt lat="44.3296688" lon="8.250785"><ele>569.0</ele><time>2026-04-19T09:38:42.155Z</time></trkpt><trkpt lat="44.3297227" lon="8.2508384"><ele>567.0</ele><time>2026-04-19T09:38:43.154Z</time></trkpt><trkpt lat="44.3297946" lon="8.2509252"><ele>566.4</ele><time>2026-04-19T09:38:44.155Z</time></trkpt><trkpt lat="44.3298591" lon="8.2510272"><ele>565.8000000000001</ele><time>2026-04-19T09:38:45.155Z</time></trkpt><trkpt lat="44.3298898" lon="8.2511612"><ele>565.2</ele><time>2026-04-19T09:38:46.154Z</time></trkpt><trkpt lat="44.3299463" lon="8.251279"><ele>564.6</ele><time>2026-04-19T09:38:47.153Z</time></trkpt><trkpt lat="44.3300087" lon="8.2513791"><ele>564.0</ele><time>2026-04-19T09:38:48.152Z</time></trkpt><trkpt lat="44.3300748" lon="8.2514809"><ele>559.75</ele><time>2026-04-19T09:38:49.153Z</time></trkpt><trkpt lat="44.3301482" lon="8.251602"><ele>555.5</ele><time>2026-04-19T09:38:50.154Z</time></trkpt><trkpt lat="44.3302303" lon="8.2517051"><ele>551.25</ele><time>2026-04-19T09:38:51.153Z</time></trkpt><trkpt lat="44.330314" lon="8.2518104"><ele>547.0</ele><time>2026-04-19T09:38:52.155Z</time></trkpt><trkpt lat="44.3304278" lon="8.2518778"><ele>547.0</ele><time>2026-04-19T09:38:53.154Z</time></trkpt><trkpt lat="44.3305296" lon="8.2519597"><ele>547.0</ele><time>2026-04-19T09:38:54.154Z</time></trkpt><trkpt lat="44.3306369" lon="8.2520435"><ele>547.0</ele><time>2026-04-19T09:38:55.155Z</time></trkpt><trkpt lat="44.330715" lon="8.2520476"><ele>547.0</ele><time>2026-04-19T09:38:56.154Z</time></trkpt><trkpt lat="44.3307978" lon="8.252079"><ele>547.0</ele><time>2026-04-19T09:38:57.153Z</time></trkpt><trkpt lat="44.3308721" lon="8.2521248"><ele>548.5</ele><time>2026-04-19T09:38:58.155Z</time></trkpt><trkpt lat="44.3309465" lon="8.2521905"><ele>550.0</ele><time>2026-04-19T09:38:59.154Z</time></trkpt><trkpt lat="44.3309689" lon="8.2522974"><ele>551.5</ele><time>2026-04-19T09:39:00.155Z</time></trkpt><trkpt lat="44.3309723" lon="8.2524035"><ele>553.0</ele><time>2026-04-19T09:39:01.152Z</time></trkpt><trkpt lat="44.3309596" lon="8.2525092"><ele>554.5</ele><time>2026-04-19T09:39:02.154Z</time></trkpt><trkpt lat="44.3309396" lon="8.2526076"><ele>556.0</ele><time>2026-04-19T09:39:03.153Z</time></trkpt><trkpt lat="44.3308909" lon="8.2526816"><ele>552.6666666666667</ele><time>2026-04-19T09:39:04.154Z</time></trkpt><trkpt lat="44.3308027" lon="8.2527035"><ele>549.3333333333334</ele><time>2026-04-19T09:39:05.155Z</time></trkpt><trkpt lat="44.3307219" lon="8.2527139"><ele>546.0</ele><time>2026-04-19T09:39:06.154Z</time></trkpt><trkpt lat="44.3306401" lon="8.2527075"><ele>542.6666666666666</ele><time>2026-04-19T09:39:07.154Z</time></trkpt><trkpt lat="44.3305542" lon="8.252702"><ele>539.3333333333333</ele><time>2026-04-19T09:39:08.153Z</time></trkpt><trkpt lat="44.3304653" lon="8.2526938"><ele>536.0</ele><time>2026-04-19T09:39:09.153Z</time></trkpt><trkpt lat="44.3303788" lon="8.2526864"><ele>535.4</ele><time>2026-04-19T09:39:10.154Z</time></trkpt><trkpt lat="44.3302902" lon="8.2526869"><ele>534.8</ele><time>2026-04-19T09:39:11.155Z</time></trkpt><trkpt lat="44.3301998" lon="8.2526944"><ele>534.1999999999999</ele><time>2026-04-19T09:39:12.155Z</time></trkpt><trkpt lat="44.3301145" lon="8.2527189"><ele>533.6</ele><time>2026-04-19T09:39:13.155Z</time></trkpt><trkpt lat="44.3300246" lon="8.2527615"><ele>533.0</ele><time>2026-04-19T09:39:14.154Z</time></trkpt><trkpt lat="44.3299406" lon="8.2528299"><ele>533.0</ele><time>2026-04-19T09:39:15.155Z</time></trkpt><trkpt lat="44.3298584" lon="8.2529174"><ele>533.0</ele><time>2026-04-19T09:39:16.154Z</time></trkpt><trkpt lat="44.3297522" lon="8.2529654"><ele>533.0</ele><time>2026-04-19T09:39:17.153Z</time></trkpt><trkpt lat="44.3296657" lon="8.2530646"><ele>533.0</ele><time>2026-04-19T09:39:18.155Z</time></trkpt><trkpt lat="44.3295797" lon="8.2531774"><ele>533.0</ele><time>2026-04-19T09:39:19.155Z</time></trkpt><trkpt lat="44.3294968" lon="8.2532837"><ele>531.6</ele><time>2026-04-19T09:39:20.154Z</time></trkpt><trkpt lat="44.3294149" lon="8.2534015"><ele>530.1999999999999</ele><time>2026-04-19T09:39:21.154Z</time></trkpt><trkpt lat="44.3293448" lon="8.2535221"><ele>528.8</ele><time>2026-04-19T09:39:22.152Z</time></trkpt><trkpt lat="44.3292687" lon="8.2536251"><ele>527.4</ele><time>2026-04-19T09:39:23.153Z</time></trkpt><trkpt lat="44.329203" lon="8.2537279"><ele>526.0</ele><time>2026-04-19T09:39:24.154Z</time></trkpt><trkpt lat="44.3291291" lon="8.2538365"><ele>526.0</ele><time>2026-04-19T09:39:25.154Z</time></trkpt><trkpt lat="44.3290651" lon="8.2539354"><ele>526.0</ele><time>2026-04-19T09:39:26.154Z</time></trkpt><trkpt lat="44.3290029" lon="8.2539984"><ele>526.0</ele><time>2026-04-19T09:39:27.154Z</time></trkpt><trkpt lat="44.3289111" lon="8.2540211"><ele>526.0</ele><time>2026-04-19T09:39:28.154Z</time></trkpt><trkpt lat="44.3288352" lon="8.2540752"><ele>526.0</ele><time>2026-04-19T09:39:29.154Z</time></trkpt><trkpt lat="44.3287486" lon="8.2541175"><ele>526.0</ele><time>2026-04-19T09:39:30.154Z</time></trkpt><trkpt lat="44.3286558" lon="8.2541187"><ele>522.8</ele><time>2026-04-19T09:39:31.153Z</time></trkpt><trkpt lat="44.328561" lon="8.2540804"><ele>519.6</ele><time>2026-04-19T09:39:32.154Z</time></trkpt><trkpt lat="44.3284748" lon="8.2540141"><ele>516.4</ele><time>2026-04-19T09:39:33.153Z</time></trkpt><trkpt lat="44.3283902" lon="8.2539564"><ele>513.2</ele><time>2026-04-19T09:39:34.153Z</time></trkpt><trkpt lat="44.3282864" lon="8.2538137"><ele>510.0</ele><time>2026-04-19T09:39:35.154Z</time></trkpt><trkpt lat="44.3282611" lon="8.2536592"><ele>510.0</ele><time>2026-04-19T09:39:36.154Z</time></trkpt><trkpt lat="44.3282345" lon="8.253439"><ele>510.0</ele><time>2026-04-19T09:39:37.154Z</time></trkpt><trkpt lat="44.328266" lon="8.2532869"><ele>510.0</ele><time>2026-04-19T09:39:38.155Z</time></trkpt><trkpt lat="44.3282489" lon="8.2531394"><ele>510.0</ele><time>2026-04-19T09:39:39.154Z</time></trkpt><trkpt lat="44.3282903" lon="8.2530135"><ele>509.6666666666667</ele><time>2026-04-19T09:39:40.155Z</time></trkpt><trkpt lat="44.3282654" lon="8.2528882"><ele>509.33333333333337</ele><time>2026-04-19T09:39:41.153Z</time></trkpt><trkpt lat="44.3282459" lon="8.252783"><ele>509.0</ele><time>2026-04-19T09:39:42.154Z</time></trkpt><trkpt lat="44.3282237" lon="8.2526806"><ele>508.6666666666667</ele><time>2026-04-19T09:39:43.154Z</time></trkpt><trkpt lat="44.3281982" lon="8.2525973"><ele>508.33333333333337</ele><time>2026-04-19T09:39:44.155Z</time></trkpt><trkpt lat="44.3280842" lon="8.2525531"><ele>508.0</ele><time>2026-04-19T09:39:46.154Z</time></trkpt><trkpt lat="44.3279928" lon="8.2526243"><ele>502.4</ele><time>2026-04-19T09:39:48.153Z</time></trkpt><trkpt lat="44.3279583" lon="8.252783"><ele>496.79999999999995</ele><time>2026-04-19T09:39:50.153Z</time></trkpt><trkpt lat="44.3279482" lon="8.2529621"><ele>491.2</ele><time>2026-04-19T09:39:52.153Z</time></trkpt><trkpt lat="44.3279481" lon="8.2530608"><ele>485.6</ele><time>2026-04-19T09:39:53.154Z</time></trkpt><trkpt lat="44.3279546" lon="8.2531686"><ele>480.0</ele><time>2026-04-19T09:39:54.155Z</time></trkpt><trkpt lat="44.3279643" lon="8.2532725"><ele>480.0</ele><time>2026-04-19T09:39:55.155Z</time></trkpt><trkpt lat="44.327966" lon="8.253383"><ele>480.0</ele><time>2026-04-19T09:39:56.154Z</time></trkpt><trkpt lat="44.3279684" lon="8.2535003"><ele>480.0</ele><time>2026-04-19T09:39:57.154Z</time></trkpt><trkpt lat="44.3279651" lon="8.2536119"><ele>480.0</ele><time>2026-04-19T09:39:58.155Z</time></trkpt><trkpt lat="44.327986" lon="8.2537229"><ele>480.0</ele><time>2026-04-19T09:39:59.154Z</time></trkpt><trkpt lat="44.3280052" lon="8.2538289"><ele>480.0</ele><time>2026-04-19T09:40:00.155Z</time></trkpt><trkpt lat="44.3280205" lon="8.2539406"><ele>479.3333333333333</ele><time>2026-04-19T09:40:01.155Z</time></trkpt><trkpt lat="44.3280397" lon="8.2540449"><ele>478.66666666666663</ele><time>2026-04-19T09:40:02.154Z</time></trkpt><trkpt lat="44.3281044" lon="8.2541355"><ele>478.0</ele><time>2026-04-19T09:40:03.156Z</time></trkpt><trkpt lat="44.328143" lon="8.2542344"><ele>477.3333333333333</ele><time>2026-04-19T09:40:04.155Z</time></trkpt><trkpt lat="44.3282194" lon="8.2542976"><ele>476.66666666666663</ele><time>2026-04-19T09:40:05.155Z</time></trkpt><trkpt lat="44.3282799" lon="8.2543797"><ele>476.0</ele><time>2026-04-19T09:40:06.153Z</time></trkpt><trkpt lat="44.3283368" lon="8.2544798"><ele>478.0</ele><time>2026-04-19T09:40:07.155Z</time></trkpt><trkpt lat="44.3284023" lon="8.2545749"><ele>480.0</ele><time>2026-04-19T09:40:08.154Z</time></trkpt><trkpt lat="44.3284722" lon="8.2546648"><ele>482.0</ele><time>2026-04-19T09:40:09.154Z</time></trkpt><trkpt lat="44.3285258" lon="8.2547679"><ele>484.0</ele><time>2026-04-19T09:40:10.154Z</time></trkpt><trkpt lat="44.3285545" lon="8.254912"><ele>486.0</ele><time>2026-04-19T09:40:11.155Z</time></trkpt><trkpt lat="44.3286028" lon="8.2550202"><ele>486.0</ele><time>2026-04-19T09:40:12.154Z</time></trkpt><trkpt lat="44.328677" lon="8.2550956"><ele>486.0</ele><time>2026-04-19T09:40:13.154Z</time></trkpt><trkpt lat="44.3287342" lon="8.2551987"><ele>486.0</ele><time>2026-04-19T09:40:14.154Z</time></trkpt><trkpt lat="44.3288033" lon="8.2552969"><ele>486.0</ele><time>2026-04-19T09:40:15.154Z</time></trkpt><trkpt lat="44.328872" lon="8.2554016"><ele>486.0</ele><time>2026-04-19T09:40:16.154Z</time></trkpt><trkpt lat="44.328949" lon="8.2554858"><ele>485.0</ele><time>2026-04-19T09:40:17.153Z</time></trkpt><trkpt lat="44.3290224" lon="8.2555691"><ele>484.0</ele><time>2026-04-19T09:40:18.155Z</time></trkpt><trkpt lat="44.3291204" lon="8.2556306"><ele>483.0</ele><time>2026-04-19T09:40:19.154Z</time></trkpt><trkpt lat="44.3292279" lon="8.2556867"><ele>482.0</ele><time>2026-04-19T09:40:20.154Z</time></trkpt><trkpt lat="44.3293449" lon="8.2557108"><ele>481.0</ele><time>2026-04-19T09:40:21.155Z</time></trkpt><trkpt lat="44.3294525" lon="8.2557481"><ele>481.0</ele><time>2026-04-19T09:40:22.154Z</time></trkpt><trkpt lat="44.3295573" lon="8.2557781"><ele>481.0</ele><time>2026-04-19T09:40:23.154Z</time></trkpt><trkpt lat="44.3296876" lon="8.2557231"><ele>481.0</ele><time>2026-04-19T09:40:24.155Z</time></trkpt><trkpt lat="44.3297976" lon="8.255733"><ele>481.0</ele><time>2026-04-19T09:40:25.153Z</time></trkpt><trkpt lat="44.3299072" lon="8.2557284"><ele>480.8</ele><time>2026-04-19T09:40:26.155Z</time></trkpt><trkpt lat="44.3300131" lon="8.2557064"><ele>480.6</ele><time>2026-04-19T09:40:27.156Z</time></trkpt><trkpt lat="44.330128" lon="8.2556856"><ele>480.4</ele><time>2026-04-19T09:40:28.154Z</time></trkpt><trkpt lat="44.3302291" lon="8.2556458"><ele>480.2</ele><time>2026-04-19T09:40:29.154Z</time></trkpt><trkpt lat="44.3303344" lon="8.2555974"><ele>480.0</ele><time>2026-04-19T09:40:30.155Z</time></trkpt><trkpt lat="44.3304671" lon="8.2556147"><ele>481.25</ele><time>2026-04-19T09:40:31.155Z</time></trkpt><trkpt lat="44.3305646" lon="8.2555907"><ele>482.5</ele><time>2026-04-19T09:40:32.154Z</time></trkpt><trkpt lat="44.3306736" lon="8.2555764"><ele>483.75</ele><time>2026-04-19T09:40:33.153Z</time></trkpt><trkpt lat="44.3307857" lon="8.255683"><ele>485.0</ele><time>2026-04-19T09:40:34.154Z</time></trkpt><trkpt lat="44.3308974" lon="8.2557576"><ele>485.0</ele><time>2026-04-19T09:40:35.155Z</time></trkpt><trkpt lat="44.3310145" lon="8.2558718"><ele>485.0</ele><time>2026-04-19T09:40:36.155Z</time></trkpt><trkpt lat="44.3310966" lon="8.2559739"><ele>485.0</ele><time>2026-04-19T09:40:37.155Z</time></trkpt><trkpt lat="44.3311838" lon="8.2560704"><ele>485.0</ele><time>2026-04-19T09:40:38.152Z</time></trkpt><trkpt lat="44.3312779" lon="8.2560781"><ele>484.99999999999994</ele><time>2026-04-19T09:40:39.156Z</time></trkpt><trkpt lat="44.3313686" lon="8.2561399"><ele>485.0</ele><time>2026-04-19T09:40:40.155Z</time></trkpt><trkpt lat="44.3314527" lon="8.2561465"><ele>485.0</ele><time>2026-04-19T09:40:41.154Z</time></trkpt><trkpt lat="44.3315325" lon="8.2561615"><ele>485.0</ele><time>2026-04-19T09:40:42.154Z</time></trkpt><trkpt lat="44.3316214" lon="8.2561688"><ele>484.99999999999994</ele><time>2026-04-19T09:40:43.153Z</time></trkpt><trkpt lat="44.3317136" lon="8.2561661"><ele>485.0</ele><time>2026-04-19T09:40:44.154Z</time></trkpt><trkpt lat="44.3317244" lon="8.2560263"><ele>486.0</ele><time>2026-04-19T09:40:45.155Z</time></trkpt><trkpt lat="44.3317695" lon="8.2559105"><ele>487.0</ele><time>2026-04-19T09:40:46.154Z</time></trkpt><trkpt lat="44.3318496" lon="8.2558131"><ele>488.0</ele><time>2026-04-19T09:40:47.153Z</time></trkpt><trkpt lat="44.3318793" lon="8.2556646"><ele>489.0</ele><time>2026-04-19T09:40:48.153Z</time></trkpt><trkpt lat="44.3319248" lon="8.2555486"><ele>490.0</ele><time>2026-04-19T09:40:49.154Z</time></trkpt><trkpt lat="44.3319944" lon="8.2554694"><ele>490.0</ele><time>2026-04-19T09:40:50.153Z</time></trkpt><trkpt lat="44.3320621" lon="8.2553905"><ele>490.0</ele><time>2026-04-19T09:40:51.155Z</time></trkpt><trkpt lat="44.3321318" lon="8.255323"><ele>490.0</ele><time>2026-04-19T09:40:52.153Z</time></trkpt><trkpt lat="44.332194" lon="8.2552609"><ele>490.0</ele><time>2026-04-19T09:40:53.154Z</time></trkpt><trkpt lat="44.3322685" lon="8.2552277"><ele>490.0</ele><time>2026-04-19T09:40:54.154Z</time></trkpt><trkpt lat="44.3323442" lon="8.2553997"><ele>487.00000000000006</ele><time>2026-04-19T09:40:55.153Z</time></trkpt><trkpt lat="44.3323943" lon="8.255468"><ele>484.0</ele><time>2026-04-19T09:40:56.153Z</time></trkpt><trkpt lat="44.3324257" lon="8.2555537"><ele>481.0</ele><time>2026-04-19T09:40:57.153Z</time></trkpt><trkpt lat="44.3324369" lon="8.2556645"><ele>478.0</ele><time>2026-04-19T09:40:58.154Z</time></trkpt><trkpt lat="44.3324449" lon="8.2557727"><ele>475.00000000000006</ele><time>2026-04-19T09:40:59.154Z</time></trkpt><trkpt lat="44.332432" lon="8.2558846"><ele>472.0</ele><time>2026-04-19T09:41:00.154Z</time></trkpt><trkpt lat="44.3324196" lon="8.2560151"><ele>472.0</ele><time>2026-04-19T09:41:01.153Z</time></trkpt><trkpt lat="44.3324112" lon="8.2562037"><ele>472.00000000000006</ele><time>2026-04-19T09:41:03.155Z</time></trkpt><trkpt lat="44.3324179" lon="8.2563133"><ele>472.00000000000006</ele><time>2026-04-19T09:41:04.153Z</time></trkpt><trkpt lat="44.3324177" lon="8.2564174"><ele>472.0</ele><time>2026-04-19T09:41:05.154Z</time></trkpt><trkpt lat="44.3324412" lon="8.2565637"><ele>472.0</ele><time>2026-04-19T09:41:06.155Z</time></trkpt><trkpt lat="44.3324986" lon="8.2566383"><ele>470.83333333333337</ele><time>2026-04-19T09:41:07.154Z</time></trkpt><trkpt lat="44.3324908" lon="8.2567429"><ele>469.6666666666667</ele><time>2026-04-19T09:41:08.153Z</time></trkpt><trkpt lat="44.3325356" lon="8.2568426"><ele>468.5</ele><time>2026-04-19T09:41:09.154Z</time></trkpt><trkpt lat="44.332563" lon="8.2569437"><ele>467.33333333333337</ele><time>2026-04-19T09:41:10.154Z</time></trkpt><trkpt lat="44.3325897" lon="8.2570349"><ele>466.1666666666667</ele><time>2026-04-19T09:41:11.154Z</time></trkpt><trkpt lat="44.3326338" lon="8.2571125"><ele>465.0</ele><time>2026-04-19T09:41:12.154Z</time></trkpt><trkpt lat="44.332675" lon="8.2572176"><ele>462.6</ele><time>2026-04-19T09:41:13.154Z</time></trkpt><trkpt lat="44.3327376" lon="8.2572886"><ele>460.2</ele><time>2026-04-19T09:41:14.154Z</time></trkpt><trkpt lat="44.3327742" lon="8.2574029"><ele>457.79999999999995</ele><time>2026-04-19T09:41:15.154Z</time></trkpt><trkpt lat="44.3328116" lon="8.257522"><ele>455.4</ele><time>2026-04-19T09:41:16.153Z</time></trkpt><trkpt lat="44.3328513" lon="8.2576287"><ele>453.0</ele><time>2026-04-19T09:41:17.153Z</time></trkpt><trkpt lat="44.3328273" lon="8.2577989"><ele>453.0</ele><time>2026-04-19T09:41:18.155Z</time></trkpt><trkpt lat="44.33283" lon="8.2579229"><ele>452.99999999999994</ele><time>2026-04-19T09:41:19.153Z</time></trkpt><trkpt lat="44.3328323" lon="8.258051"><ele>452.99999999999994</ele><time>2026-04-19T09:41:20.153Z</time></trkpt><trkpt lat="44.3328342" lon="8.2581602"><ele>453.0</ele><time>2026-04-19T09:41:21.154Z</time></trkpt><trkpt lat="44.3328159" lon="8.2583022"><ele>453.0</ele><time>2026-04-19T09:41:22.154Z</time></trkpt><trkpt lat="44.3328223" lon="8.2584548"><ele>452.4</ele><time>2026-04-19T09:41:23.153Z</time></trkpt><trkpt lat="44.3328266" lon="8.2586"><ele>451.79999999999995</ele><time>2026-04-19T09:41:24.153Z</time></trkpt><trkpt lat="44.332839" lon="8.258724"><ele>451.2</ele><time>2026-04-19T09:41:25.153Z</time></trkpt><trkpt lat="44.332856" lon="8.2588763"><ele>450.6</ele><time>2026-04-19T09:41:26.154Z</time></trkpt><trkpt lat="44.3328642" lon="8.2590153"><ele>450.0</ele><time>2026-04-19T09:41:27.153Z</time></trkpt><trkpt lat="44.3328855" lon="8.2591699"><ele>448.6</ele><time>2026-04-19T09:41:28.154Z</time></trkpt><trkpt lat="44.3329021" lon="8.2593206"><ele>447.2</ele><time>2026-04-19T09:41:29.154Z</time></trkpt><trkpt lat="44.3329189" lon="8.2594708"><ele>445.79999999999995</ele><time>2026-04-19T09:41:30.153Z</time></trkpt><trkpt lat="44.3329235" lon="8.2596239"><ele>444.4</ele><time>2026-04-19T09:41:31.154Z</time></trkpt><trkpt lat="44.3329124" lon="8.2597739"><ele>443.0</ele><time>2026-04-19T09:41:32.153Z</time></trkpt><trkpt lat="44.3328949" lon="8.2599371"><ele>443.0</ele><time>2026-04-19T09:41:33.154Z</time></trkpt><trkpt lat="44.3328674" lon="8.2600917"><ele>443.0</ele><time>2026-04-19T09:41:34.155Z</time></trkpt><trkpt lat="44.3328457" lon="8.2602648"><ele>443.0</ele><time>2026-04-19T09:41:35.153Z</time></trkpt><trkpt lat="44.3328508" lon="8.2604356"><ele>443.0</ele><time>2026-04-19T09:41:36.152Z</time></trkpt><trkpt lat="44.3328638" lon="8.2605719"><ele>443.0</ele><time>2026-04-19T09:41:37.153Z</time></trkpt><trkpt lat="44.3328761" lon="8.2607306"><ele>442.99999999999994</ele><time>2026-04-19T09:41:38.153Z</time></trkpt><trkpt lat="44.332905" lon="8.2608747"><ele>442.99999999999994</ele><time>2026-04-19T09:41:39.153Z</time></trkpt><trkpt lat="44.3329171" lon="8.2610305"><ele>443.0</ele><time>2026-04-19T09:41:40.153Z</time></trkpt><trkpt lat="44.3329423" lon="8.2611779"><ele>443.0</ele><time>2026-04-19T09:41:41.153Z</time></trkpt><trkpt lat="44.3329682" lon="8.2613094"><ele>442.59999999999997</ele><time>2026-04-19T09:41:42.153Z</time></trkpt><trkpt lat="44.3329933" lon="8.2614584"><ele>442.19999999999993</ele><time>2026-04-19T09:41:43.153Z</time></trkpt><trkpt lat="44.3330191" lon="8.261604"><ele>441.8</ele><time>2026-04-19T09:41:44.154Z</time></trkpt><trkpt lat="44.3330358" lon="8.2617616"><ele>441.4</ele><time>2026-04-19T09:41:45.154Z</time></trkpt><trkpt lat="44.3330352" lon="8.2619147"><ele>441.0</ele><time>2026-04-19T09:41:46.154Z</time></trkpt><trkpt lat="44.3330123" lon="8.2620463"><ele>441.0</ele><time>2026-04-19T09:41:47.154Z</time></trkpt><trkpt lat="44.3329872" lon="8.2621738"><ele>441.0</ele><time>2026-04-19T09:41:48.153Z</time></trkpt><trkpt lat="44.3329639" lon="8.2623028"><ele>441.0</ele><time>2026-04-19T09:41:49.153Z</time></trkpt><trkpt lat="44.3329493" lon="8.2624277"><ele>441.0</ele><time>2026-04-19T09:41:50.153Z</time></trkpt><trkpt lat="44.332942" lon="8.2625399"><ele>441.0</ele><time>2026-04-19T09:41:51.154Z</time></trkpt><trkpt lat="44.3329442" lon="8.2626738"><ele>440.5</ele><time>2026-04-19T09:41:52.154Z</time></trkpt><trkpt lat="44.3329656" lon="8.2627853"><ele>440.0</ele><time>2026-04-19T09:41:53.155Z</time></trkpt><trkpt lat="44.3329838" lon="8.2629069"><ele>439.5</ele><time>2026-04-19T09:41:54.154Z</time></trkpt><trkpt lat="44.3330147" lon="8.2630051"><ele>439.0</ele><time>2026-04-19T09:41:55.154Z</time></trkpt><trkpt lat="44.3330423" lon="8.2631031"><ele>438.5</ele><time>2026-04-19T09:41:56.153Z</time></trkpt><trkpt lat="44.3330641" lon="8.2632059"><ele>438.0</ele><time>2026-04-19T09:41:57.154Z</time></trkpt><trkpt lat="44.3330824" lon="8.2633052"><ele>438.3333333333333</ele><time>2026-04-19T09:41:58.153Z</time></trkpt><trkpt lat="44.3330878" lon="8.2634006"><ele>438.66666666666663</ele><time>2026-04-19T09:41:59.154Z</time></trkpt><trkpt lat="44.3331111" lon="8.2634906"><ele>439.0</ele><time>2026-04-19T09:42:00.154Z</time></trkpt><trkpt lat="44.333124" lon="8.2635782"><ele>439.3333333333333</ele><time>2026-04-19T09:42:01.153Z</time></trkpt><trkpt lat="44.3331266" lon="8.2637524"><ele>439.66666666666663</ele><time>2026-04-19T09:42:03.153Z</time></trkpt><trkpt lat="44.3331763" lon="8.2638799"><ele>440.0</ele><time>2026-04-19T09:42:05.154Z</time></trkpt><trkpt lat="44.3332147" lon="8.2639903"><ele>439.99999999999994</ele><time>2026-04-19T09:42:07.153Z</time></trkpt><trkpt lat="44.333261" lon="8.2640791"><ele>440.0</ele><time>2026-04-19T09:42:09.155Z</time></trkpt><trkpt lat="44.3333203" lon="8.2641362"><ele>440.0</ele><time>2026-04-19T09:42:11.154Z</time></trkpt><trkpt lat="44.3333842" lon="8.2641863"><ele>440.0</ele><time>2026-04-19T09:42:13.154Z</time></trkpt><trkpt lat="44.3334359" lon="8.2642376"><ele>439.99999999999994</ele><time>2026-04-19T09:42:15.154Z</time></trkpt><trkpt lat="44.3335037" lon="8.2642983"><ele>440.0</ele><time>2026-04-19T09:42:17.153Z</time></trkpt><trkpt lat="44.3335833" lon="8.2643943"><ele>439.99999999999994</ele><time>2026-04-19T09:42:19.153Z</time></trkpt><trkpt lat="44.3336275" lon="8.2644608"><ele>440.0</ele><time>2026-04-19T09:42:20.153Z</time></trkpt><trkpt lat="44.3337175" lon="8.2645782"><ele>440.0</ele><time>2026-04-19T09:42:22.155Z</time></trkpt><trkpt lat="44.3337925" lon="8.2646867"><ele>440.0</ele><time>2026-04-19T09:42:24.154Z</time></trkpt><trkpt lat="44.3338319" lon="8.264759"><ele>439.99999999999994</ele><time>2026-04-19T09:42:25.152Z</time></trkpt><trkpt lat="44.3338691" lon="8.2648335"><ele>440.0</ele><time>2026-04-19T09:42:26.152Z</time></trkpt><trkpt lat="44.3339182" lon="8.2649851"><ele>440.49999999999994</ele><time>2026-04-19T09:42:28.154Z</time></trkpt><trkpt lat="44.3339394" lon="8.2650732"><ele>441.0</ele><time>2026-04-19T09:42:29.153Z</time></trkpt><trkpt lat="44.3339497" lon="8.2651673"><ele>441.5</ele><time>2026-04-19T09:42:30.154Z</time></trkpt><trkpt lat="44.3339536" lon="8.2652575"><ele>442.0</ele><time>2026-04-19T09:42:31.153Z</time></trkpt><trkpt lat="44.3339451" lon="8.265355"><ele>442.49999999999994</ele><time>2026-04-19T09:42:32.154Z</time></trkpt><trkpt lat="44.3339506" lon="8.2654574"><ele>443.0</ele><time>2026-04-19T09:42:33.154Z</time></trkpt><trkpt lat="44.3339778" lon="8.2656242"><ele>444.2</ele><time>2026-04-19T09:42:34.154Z</time></trkpt><trkpt lat="44.333975" lon="8.2657395"><ele>445.4</ele><time>2026-04-19T09:42:36.153Z</time></trkpt><trkpt lat="44.333954" lon="8.2658421"><ele>446.59999999999997</ele><time>2026-04-19T09:42:37.153Z</time></trkpt><trkpt lat="44.3339364" lon="8.2659651"><ele>447.79999999999995</ele><time>2026-04-19T09:42:39.154Z</time></trkpt><trkpt lat="44.3338867" lon="8.2661097"><ele>449.0</ele><time>2026-04-19T09:42:41.153Z</time></trkpt><trkpt lat="44.333844" lon="8.2662913"><ele>445.4</ele><time>2026-04-19T09:42:43.154Z</time></trkpt><trkpt lat="44.3337934" lon="8.2664192"><ele>441.79999999999995</ele><time>2026-04-19T09:42:45.153Z</time></trkpt><trkpt lat="44.3337512" lon="8.2665363"><ele>438.20000000000005</ele><time>2026-04-19T09:42:47.153Z</time></trkpt><trkpt lat="44.3336983" lon="8.266617"><ele>434.6</ele><time>2026-04-19T09:42:48.154Z</time></trkpt><trkpt lat="44.3336569" lon="8.2666908"><ele>431.0</ele><time>2026-04-19T09:42:49.154Z</time></trkpt><trkpt lat="44.333565" lon="8.2668243"><ele>430.99999999999994</ele><time>2026-04-19T09:42:51.154Z</time></trkpt><trkpt lat="44.3335175" lon="8.2668958"><ele>431.0</ele><time>2026-04-19T09:42:52.153Z</time></trkpt><trkpt lat="44.3334357" lon="8.2669233"><ele>431.0</ele><time>2026-04-19T09:42:53.154Z</time></trkpt><trkpt lat="44.3333788" lon="8.2670076"><ele>431.0</ele><time>2026-04-19T09:42:54.154Z</time></trkpt><trkpt lat="44.3333047" lon="8.2670255"><ele>430.99999999999994</ele><time>2026-04-19T09:42:55.152Z</time></trkpt><trkpt lat="44.3332386" lon="8.267084"><ele>431.0</ele><time>2026-04-19T09:42:56.154Z</time></trkpt><trkpt lat="44.3331596" lon="8.2671647"><ele>431.0</ele><time>2026-04-19T09:42:57.154Z</time></trkpt><trkpt lat="44.333095" lon="8.2672349"><ele>431.0</ele><time>2026-04-19T09:42:58.154Z</time></trkpt><trkpt lat="44.3330328" lon="8.2673193"><ele>431.0</ele><time>2026-04-19T09:42:59.153Z</time></trkpt><trkpt lat="44.3329508" lon="8.2673871"><ele>431.0</ele><time>2026-04-19T09:43:00.153Z</time></trkpt><trkpt lat="44.332875" lon="8.2674715"><ele>431.0</ele><time>2026-04-19T09:43:01.154Z</time></trkpt><trkpt lat="44.3327764" lon="8.2675663"><ele>429.4</ele><time>2026-04-19T09:43:02.153Z</time></trkpt><trkpt lat="44.3326992" lon="8.2676571"><ele>427.8</ele><time>2026-04-19T09:43:03.154Z</time></trkpt><trkpt lat="44.3326088" lon="8.267756"><ele>426.2</ele><time>2026-04-19T09:43:04.153Z</time></trkpt><trkpt lat="44.3325139" lon="8.2678068"><ele>424.59999999999997</ele><time>2026-04-19T09:43:05.154Z</time></trkpt><trkpt lat="44.332428" lon="8.2678784"><ele>423.0</ele><time>2026-04-19T09:43:06.153Z</time></trkpt><trkpt lat="44.3323481" lon="8.2679999"><ele>423.0</ele><time>2026-04-19T09:43:07.154Z</time></trkpt><trkpt lat="44.3322618" lon="8.2680898"><ele>423.0</ele><time>2026-04-19T09:43:08.154Z</time></trkpt><trkpt lat="44.3321802" lon="8.2681956"><ele>423.0</ele><time>2026-04-19T09:43:09.153Z</time></trkpt><trkpt lat="44.3321009" lon="8.2682873"><ele>423.0</ele><time>2026-04-19T09:43:10.153Z</time></trkpt><trkpt lat="44.3320091" lon="8.2683779"><ele>423.0</ele><time>2026-04-19T09:43:11.153Z</time></trkpt><trkpt lat="44.3319245" lon="8.2684566"><ele>422.2</ele><time>2026-04-19T09:43:12.154Z</time></trkpt><trkpt lat="44.3318193" lon="8.2685146"><ele>421.4</ele><time>2026-04-19T09:43:13.153Z</time></trkpt><trkpt lat="44.3317319" lon="8.2685756"><ele>420.59999999999997</ele><time>2026-04-19T09:43:14.153Z</time></trkpt><trkpt lat="44.3316472" lon="8.2686534"><ele>419.79999999999995</ele><time>2026-04-19T09:43:15.153Z</time></trkpt><trkpt lat="44.3315583" lon="8.2686838"><ele>419.0</ele><time>2026-04-19T09:43:16.154Z</time></trkpt><trkpt lat="44.3314831" lon="8.2687741"><ele>419.0</ele><time>2026-04-19T09:43:17.154Z</time></trkpt><trkpt lat="44.3314087" lon="8.2688496"><ele>419.0</ele><time>2026-04-19T09:43:18.153Z</time></trkpt><trkpt lat="44.3313321" lon="8.2689411"><ele>419.0</ele><time>2026-04-19T09:43:19.152Z</time></trkpt><trkpt lat="44.3312556" lon="8.2690235"><ele>419.0</ele><time>2026-04-19T09:43:20.153Z</time></trkpt><trkpt lat="44.331208" lon="8.2690912"><ele>419.0</ele><time>2026-04-19T09:43:21.155Z</time></trkpt><trkpt lat="44.3310902" lon="8.2692019"><ele>418.8333333333333</ele><time>2026-04-19T09:43:23.154Z</time></trkpt><trkpt lat="44.331016" lon="8.2692618"><ele>418.66666666666663</ele><time>2026-04-19T09:43:24.154Z</time></trkpt><trkpt lat="44.3309281" lon="8.2693291"><ele>418.5</ele><time>2026-04-19T09:43:25.155Z</time></trkpt><trkpt lat="44.3308515" lon="8.2693855"><ele>418.33333333333337</ele><time>2026-04-19T09:43:26.154Z</time></trkpt><trkpt lat="44.3307861" lon="8.2694111"><ele>418.1666666666667</ele><time>2026-04-19T09:43:27.153Z</time></trkpt><trkpt lat="44.3307057" lon="8.2694403"><ele>418.0</ele><time>2026-04-19T09:43:28.154Z</time></trkpt><trkpt lat="44.330628" lon="8.2694782"><ele>417.6666666666667</ele><time>2026-04-19T09:43:29.153Z</time></trkpt><trkpt lat="44.3305551" lon="8.2695236"><ele>417.33333333333337</ele><time>2026-04-19T09:43:30.154Z</time></trkpt><trkpt lat="44.3304801" lon="8.2695562"><ele>417.0</ele><time>2026-04-19T09:43:31.154Z</time></trkpt><trkpt lat="44.3304052" lon="8.2695619"><ele>416.66666666666663</ele><time>2026-04-19T09:43:32.155Z</time></trkpt><trkpt lat="44.3303305" lon="8.2695931"><ele>416.3333333333333</ele><time>2026-04-19T09:43:33.151Z</time></trkpt><trkpt lat="44.33022" lon="8.2696766"><ele>416.0</ele><time>2026-04-19T09:43:35.153Z</time></trkpt><trkpt lat="44.3301503" lon="8.2696975"><ele>416.0</ele><time>2026-04-19T09:43:36.154Z</time></trkpt><trkpt lat="44.3300423" lon="8.2697655"><ele>416.0</ele><time>2026-04-19T09:43:38.152Z</time></trkpt><trkpt lat="44.3299426" lon="8.2698497"><ele>416.0</ele><time>2026-04-19T09:43:40.153Z</time></trkpt><trkpt lat="44.3298812" lon="8.2699221"><ele>416.0</ele><time>2026-04-19T09:43:41.154Z</time></trkpt><trkpt lat="44.3298097" lon="8.2700237"><ele>416.0</ele><time>2026-04-19T09:43:43.153Z</time></trkpt><trkpt lat="44.3297075" lon="8.2701079"><ele>415.5</ele><time>2026-04-19T09:43:45.154Z</time></trkpt><trkpt lat="44.3296174" lon="8.2702239"><ele>415.0</ele><time>2026-04-19T09:43:47.154Z</time></trkpt><trkpt lat="44.3295599" lon="8.2703563"><ele>414.5</ele><time>2026-04-19T09:43:49.154Z</time></trkpt><trkpt lat="44.329516" lon="8.2705011"><ele>414.0</ele><time>2026-04-19T09:43:51.154Z</time></trkpt><trkpt lat="44.3294619" lon="8.2706401"><ele>414.0</ele><time>2026-04-19T09:43:53.153Z</time></trkpt><trkpt lat="44.3293957" lon="8.2707761"><ele>414.0</ele><time>2026-04-19T09:43:55.154Z</time></trkpt><trkpt lat="44.3293261" lon="8.2708824"><ele>414.0</ele><time>2026-04-19T09:43:57.153Z</time></trkpt><trkpt lat="44.329257" lon="8.2710073"><ele>414.0</ele><time>2026-04-19T09:43:59.154Z</time></trkpt><trkpt lat="44.3291959" lon="8.2711262"><ele>414.0</ele><time>2026-04-19T09:44:01.154Z</time></trkpt><trkpt lat="44.3291307" lon="8.2712403"><ele>414.0</ele><time>2026-04-19T09:44:03.153Z</time></trkpt><trkpt lat="44.3290589" lon="8.27134"><ele>414.0</ele><time>2026-04-19T09:44:05.152Z</time></trkpt><trkpt lat="44.3289935" lon="8.2714403"><ele>414.0</ele><time>2026-04-19T09:44:07.152Z</time></trkpt><trkpt lat="44.3289193" lon="8.2715435"><ele>414.0</ele><time>2026-04-19T09:44:09.153Z</time></trkpt><trkpt lat="44.3288498" lon="8.2716506"><ele>414.0</ele><time>2026-04-19T09:44:11.153Z</time></trkpt><trkpt lat="44.3287747" lon="8.2717831"><ele>414.0</ele><time>2026-04-19T09:44:13.153Z</time></trkpt><trkpt lat="44.3287203" lon="8.2719026"><ele>414.0</ele><time>2026-04-19T09:44:15.153Z</time></trkpt><trkpt lat="44.3286619" lon="8.2720405"><ele>414.0</ele><time>2026-04-19T09:44:17.154Z</time></trkpt><trkpt lat="44.3286146" lon="8.2721136"><ele>414.0</ele><time>2026-04-19T09:44:18.153Z</time></trkpt><trkpt lat="44.3285702" lon="8.2721836"><ele>414.0</ele><time>2026-04-19T09:44:19.154Z</time></trkpt><trkpt lat="44.3284938" lon="8.2723264"><ele>414.0</ele><time>2026-04-19T09:44:21.153Z</time></trkpt><trkpt lat="44.3284197" lon="8.2724691"><ele>414.0</ele><time>2026-04-19T09:44:23.153Z</time></trkpt><trkpt lat="44.3283753" lon="8.272535"><ele>414.0</ele><time>2026-04-19T09:44:24.154Z</time></trkpt><trkpt lat="44.3283328" lon="8.2726064"><ele>414.0</ele><time>2026-04-19T09:44:25.154Z</time></trkpt><trkpt lat="44.3282842" lon="8.2726718"><ele>414.0</ele><time>2026-04-19T09:44:26.153Z</time></trkpt><trkpt lat="44.3282361" lon="8.2727427"><ele>414.0</ele><time>2026-04-19T09:44:27.153Z</time></trkpt><trkpt lat="44.3281855" lon="8.2728138"><ele>414.00000000000006</ele><time>2026-04-19T09:44:28.153Z</time></trkpt><trkpt lat="44.3281423" lon="8.2728968"><ele>414.0</ele><time>2026-04-19T09:44:29.154Z</time></trkpt><trkpt lat="44.328094" lon="8.2729708"><ele>414.0</ele><time>2026-04-19T09:44:30.153Z</time></trkpt><trkpt lat="44.3280301" lon="8.2730355"><ele>414.0</ele><time>2026-04-19T09:44:31.154Z</time></trkpt><trkpt lat="44.3279885" lon="8.2731196"><ele>414.0</ele><time>2026-04-19T09:44:32.154Z</time></trkpt><trkpt lat="44.3279295" lon="8.2731761"><ele>414.00000000000006</ele><time>2026-04-19T09:44:33.153Z</time></trkpt><trkpt lat="44.3278764" lon="8.2732507"><ele>414.0</ele><time>2026-04-19T09:44:34.153Z</time></trkpt><trkpt lat="44.3278214" lon="8.2733294"><ele>412.5</ele><time>2026-04-19T09:44:35.154Z</time></trkpt><trkpt lat="44.327767" lon="8.2734144"><ele>411.0</ele><time>2026-04-19T09:44:36.154Z</time></trkpt><trkpt lat="44.3277087" lon="8.2735006"><ele>409.5</ele><time>2026-04-19T09:44:37.153Z</time></trkpt><trkpt lat="44.3276529" lon="8.2735895"><ele>408.0</ele><time>2026-04-19T09:44:38.153Z</time></trkpt><trkpt lat="44.3275935" lon="8.273676"><ele>406.5</ele><time>2026-04-19T09:44:39.153Z</time></trkpt><trkpt lat="44.3275384" lon="8.2737725"><ele>405.0</ele><time>2026-04-19T09:44:40.155Z</time></trkpt><trkpt lat="44.3274794" lon="8.2738621"><ele>405.0</ele><time>2026-04-19T09:44:41.153Z</time></trkpt><trkpt lat="44.3274197" lon="8.2739358"><ele>405.0</ele><time>2026-04-19T09:44:42.153Z</time></trkpt><trkpt lat="44.3273617" lon="8.2740074"><ele>405.0</ele><time>2026-04-19T09:44:43.154Z</time></trkpt><trkpt lat="44.3273052" lon="8.2740933"><ele>405.0</ele><time>2026-04-19T09:44:44.153Z</time></trkpt><trkpt lat="44.3272309" lon="8.2741778"><ele>405.0</ele><time>2026-04-19T09:44:46.154Z</time></trkpt><trkpt lat="44.3271685" lon="8.2742491"><ele>405.0</ele><time>2026-04-19T09:44:49.152Z</time></trkpt><trkpt lat="44.3271514" lon="8.274334"><ele>404.4</ele><time>2026-04-19T09:44:51.153Z</time></trkpt><trkpt lat="44.3271662" lon="8.2744837"><ele>403.8</ele><time>2026-04-19T09:44:53.154Z</time></trkpt><trkpt lat="44.3271922" lon="8.2746295"><ele>403.20000000000005</ele><time>2026-04-19T09:44:55.154Z</time></trkpt><trkpt lat="44.3272291" lon="8.2747897"><ele>402.6</ele><time>2026-04-19T09:44:57.153Z</time></trkpt><trkpt lat="44.3272431" lon="8.2748757"><ele>402.0</ele><time>2026-04-19T09:44:58.152Z</time></trkpt><trkpt lat="44.3272776" lon="8.2750399"><ele>403.0</ele><time>2026-04-19T09:45:00.153Z</time></trkpt><trkpt lat="44.3273011" lon="8.2752131"><ele>404.0</ele><time>2026-04-19T09:45:02.153Z</time></trkpt><trkpt lat="44.3273272" lon="8.2753079"><ele>405.0</ele><time>2026-04-19T09:45:03.152Z</time></trkpt><trkpt lat="44.3273417" lon="8.2753974"><ele>406.0</ele><time>2026-04-19T09:45:04.153Z</time></trkpt><trkpt lat="44.3273635" lon="8.2755675"><ele>407.0</ele><time>2026-04-19T09:45:06.153Z</time></trkpt><trkpt lat="44.3274094" lon="8.2757243"><ele>407.0</ele><time>2026-04-19T09:45:08.153Z</time></trkpt><trkpt lat="44.3274548" lon="8.2758806"><ele>407.0</ele><time>2026-04-19T09:45:10.154Z</time></trkpt><trkpt lat="44.327492" lon="8.2759533"><ele>407.0</ele><time>2026-04-19T09:45:11.153Z</time></trkpt><trkpt lat="44.3275598" lon="8.2760835"><ele>407.0</ele><time>2026-04-19T09:45:13.153Z</time></trkpt><trkpt lat="44.3276146" lon="8.2762218"><ele>407.0</ele><time>2026-04-19T09:45:15.152Z</time></trkpt><trkpt lat="44.3276727" lon="8.2763532"><ele>405.5</ele><time>2026-04-19T09:45:17.152Z</time></trkpt><trkpt lat="44.3277296" lon="8.2764995"><ele>404.0</ele><time>2026-04-19T09:45:19.152Z</time></trkpt><trkpt lat="44.3277779" lon="8.2766273"><ele>402.5</ele><time>2026-04-19T09:45:21.152Z</time></trkpt><trkpt lat="44.3278337" lon="8.2767668"><ele>401.0</ele><time>2026-04-19T09:45:23.153Z</time></trkpt><trkpt lat="44.3279016" lon="8.2769062"><ele>401.0</ele><time>2026-04-19T09:45:25.153Z</time></trkpt><trkpt lat="44.3279755" lon="8.2770363"><ele>401.0</ele><time>2026-04-19T09:45:27.153Z</time></trkpt><trkpt lat="44.3280409" lon="8.2771635"><ele>401.0</ele><time>2026-04-19T09:45:29.153Z</time></trkpt><trkpt lat="44.3281047" lon="8.2772984"><ele>401.0</ele><time>2026-04-19T09:45:31.153Z</time></trkpt><trkpt lat="44.3281696" lon="8.2774259"><ele>401.5</ele><time>2026-04-19T09:45:33.153Z</time></trkpt><trkpt lat="44.3282341" lon="8.2775585"><ele>402.0</ele><time>2026-04-19T09:45:35.152Z</time></trkpt><trkpt lat="44.3282942" lon="8.2776825"><ele>402.5</ele><time>2026-04-19T09:45:37.154Z</time></trkpt><trkpt lat="44.3283577" lon="8.2778213"><ele>403.0</ele><time>2026-04-19T09:45:39.153Z</time></trkpt><trkpt lat="44.3284369" lon="8.2779567"><ele>403.0</ele><time>2026-04-19T09:45:41.152Z</time></trkpt><trkpt lat="44.3285173" lon="8.2780873"><ele>403.0</ele><time>2026-04-19T09:45:43.154Z</time></trkpt><trkpt lat="44.3285616" lon="8.2781556"><ele>403.0</ele><time>2026-04-19T09:45:44.152Z</time></trkpt><trkpt lat="44.3286369" lon="8.2782787"><ele>403.0</ele><time>2026-04-19T09:45:46.152Z</time></trkpt><trkpt lat="44.3287103" lon="8.2784017"><ele>403.0</ele><time>2026-04-19T09:45:48.153Z</time></trkpt><trkpt lat="44.3287751" lon="8.2785224"><ele>403.59999999999997</ele><time>2026-04-19T09:45:50.154Z</time></trkpt><trkpt lat="44.3288429" lon="8.2786511"><ele>404.2</ele><time>2026-04-19T09:45:52.153Z</time></trkpt><trkpt lat="44.3289014" lon="8.2787795"><ele>404.8</ele><time>2026-04-19T09:45:54.152Z</time></trkpt><trkpt lat="44.3289457" lon="8.2789066"><ele>405.4</ele><time>2026-04-19T09:45:56.152Z</time></trkpt><trkpt lat="44.3290008" lon="8.2790428"><ele>406.0</ele><time>2026-04-19T09:45:58.152Z</time></trkpt><trkpt lat="44.3290543" lon="8.2791893"><ele>406.0</ele><time>2026-04-19T09:46:00.152Z</time></trkpt><trkpt lat="44.3291056" lon="8.2793226"><ele>406.0</ele><time>2026-04-19T09:46:02.153Z</time></trkpt><trkpt lat="44.3291499" lon="8.2794401"><ele>406.0</ele><time>2026-04-19T09:46:04.154Z</time></trkpt><trkpt lat="44.3292102" lon="8.2795627"><ele>406.0</ele><time>2026-04-19T09:46:06.153Z</time></trkpt><trkpt lat="44.3292579" lon="8.2796919"><ele>406.0</ele><time>2026-04-19T09:46:08.153Z</time></trkpt><trkpt lat="44.3292944" lon="8.2798057"><ele>404.8</ele><time>2026-04-19T09:46:10.153Z</time></trkpt><trkpt lat="44.3293478" lon="8.2799446"><ele>403.6</ele><time>2026-04-19T09:46:12.154Z</time></trkpt><trkpt lat="44.3293946" lon="8.280091"><ele>402.4</ele><time>2026-04-19T09:46:14.154Z</time></trkpt><trkpt lat="44.3294348" lon="8.2802377"><ele>401.2</ele><time>2026-04-19T09:46:16.154Z</time></trkpt><trkpt lat="44.3294809" lon="8.2803082"><ele>400.0</ele><time>2026-04-19T09:46:17.153Z</time></trkpt><trkpt lat="44.3295072" lon="8.2804557"><ele>400.0</ele><time>2026-04-19T09:46:19.154Z</time></trkpt><trkpt lat="44.3295466" lon="8.2805849"><ele>400.0</ele><time>2026-04-19T09:46:21.152Z</time></trkpt><trkpt lat="44.3295882" lon="8.2807283"><ele>400.0</ele><time>2026-04-19T09:46:23.153Z</time></trkpt><trkpt lat="44.3296267" lon="8.2808675"><ele>400.0</ele><time>2026-04-19T09:46:25.152Z</time></trkpt><trkpt lat="44.3296629" lon="8.281003"><ele>400.0</ele><time>2026-04-19T09:46:27.151Z</time></trkpt><trkpt lat="44.3296955" lon="8.2810824"><ele>400.4</ele><time>2026-04-19T09:46:28.153Z</time></trkpt><trkpt lat="44.3297428" lon="8.2812364"><ele>400.8</ele><time>2026-04-19T09:46:30.153Z</time></trkpt><trkpt lat="44.3297935" lon="8.281389"><ele>401.20000000000005</ele><time>2026-04-19T09:46:32.153Z</time></trkpt><trkpt lat="44.3298334" lon="8.2814695"><ele>401.6</ele><time>2026-04-19T09:46:33.152Z</time></trkpt><trkpt lat="44.3299133" lon="8.2816165"><ele>402.0</ele><time>2026-04-19T09:46:35.154Z</time></trkpt><trkpt lat="44.3299649" lon="8.2816901"><ele>401.1666666666667</ele><time>2026-04-19T09:46:36.152Z</time></trkpt><trkpt lat="44.3300188" lon="8.2817578"><ele>400.33333333333337</ele><time>2026-04-19T09:46:37.153Z</time></trkpt><trkpt lat="44.3300699" lon="8.2818222"><ele>399.5</ele><time>2026-04-19T09:46:38.154Z</time></trkpt><trkpt lat="44.3301211" lon="8.2818874"><ele>398.6666666666667</ele><time>2026-04-19T09:46:39.152Z</time></trkpt><trkpt lat="44.3302148" lon="8.2820096"><ele>397.83333333333337</ele><time>2026-04-19T09:46:41.153Z</time></trkpt><trkpt lat="44.330265" lon="8.2820675"><ele>397.0</ele><time>2026-04-19T09:46:42.152Z</time></trkpt><trkpt lat="44.3303563" lon="8.2821703"><ele>397.0</ele><time>2026-04-19T09:46:44.154Z</time></trkpt><trkpt lat="44.3304081" lon="8.2822342"><ele>397.0</ele><time>2026-04-19T09:46:45.152Z</time></trkpt><trkpt lat="44.3304926" lon="8.2823434"><ele>397.0</ele><time>2026-04-19T09:46:47.153Z</time></trkpt><trkpt lat="44.3305417" lon="8.2824002"><ele>397.0</ele><time>2026-04-19T09:46:48.151Z</time></trkpt><trkpt lat="44.3306271" lon="8.2825024"><ele>397.0</ele><time>2026-04-19T09:46:50.151Z</time></trkpt><trkpt lat="44.3307103" lon="8.2825954"><ele>397.20000000000005</ele><time>2026-04-19T09:46:52.153Z</time></trkpt><trkpt lat="44.3307781" lon="8.2826855"><ele>397.4</ele><time>2026-04-19T09:46:54.152Z</time></trkpt><trkpt lat="44.3308613" lon="8.2827875"><ele>397.6</ele><time>2026-04-19T09:46:56.152Z</time></trkpt><trkpt lat="44.3309376" lon="8.2828892"><ele>397.79999999999995</ele><time>2026-04-19T09:46:58.153Z</time></trkpt><trkpt lat="44.3310163" lon="8.2829861"><ele>398.0</ele><time>2026-04-19T09:47:00.153Z</time></trkpt><trkpt lat="44.3311053" lon="8.2830855"><ele>397.0</ele><time>2026-04-19T09:47:02.154Z</time></trkpt><trkpt lat="44.3311889" lon="8.2831898"><ele>396.0</ele><time>2026-04-19T09:47:04.152Z</time></trkpt><trkpt lat="44.3312723" lon="8.2832939"><ele>395.0</ele><time>2026-04-19T09:47:06.152Z</time></trkpt><trkpt lat="44.3313511" lon="8.2833965"><ele>394.0</ele><time>2026-04-19T09:47:08.153Z</time></trkpt><trkpt lat="44.3314348" lon="8.2835001"><ele>393.0</ele><time>2026-04-19T09:47:10.153Z</time></trkpt><trkpt lat="44.3315125" lon="8.2836116"><ele>393.59999999999997</ele><time>2026-04-19T09:47:12.153Z</time></trkpt><trkpt lat="44.3315937" lon="8.2837105"><ele>394.2</ele><time>2026-04-19T09:47:14.153Z</time></trkpt><trkpt lat="44.3316751" lon="8.2838174"><ele>394.8</ele><time>2026-04-19T09:47:16.154Z</time></trkpt><trkpt lat="44.3317612" lon="8.2839156"><ele>395.4</ele><time>2026-04-19T09:47:18.151Z</time></trkpt><trkpt lat="44.3318497" lon="8.2840107"><ele>396.0</ele><time>2026-04-19T09:47:20.153Z</time></trkpt><trkpt lat="44.3318996" lon="8.2840654"><ele>396.0</ele><time>2026-04-19T09:47:21.153Z</time></trkpt><trkpt lat="44.3320016" lon="8.2841622"><ele>396.0</ele><time>2026-04-19T09:47:23.154Z</time></trkpt><trkpt lat="44.3321028" lon="8.2842523"><ele>396.0</ele><time>2026-04-19T09:47:25.153Z</time></trkpt><trkpt lat="44.3322036" lon="8.2843476"><ele>396.0</ele><time>2026-04-19T09:47:27.152Z</time></trkpt><trkpt lat="44.3323" lon="8.2844325"><ele>395.6</ele><time>2026-04-19T09:47:29.153Z</time></trkpt><trkpt lat="44.332388" lon="8.2845265"><ele>395.20000000000005</ele><time>2026-04-19T09:47:31.154Z</time></trkpt><trkpt lat="44.3324875" lon="8.2846299"><ele>394.79999999999995</ele><time>2026-04-19T09:47:33.154Z</time></trkpt><trkpt lat="44.3325377" lon="8.2846855"><ele>394.4</ele><time>2026-04-19T09:47:34.153Z</time></trkpt><trkpt lat="44.332625" lon="8.2847886"><ele>394.0</ele><time>2026-04-19T09:47:36.152Z</time></trkpt><trkpt lat="44.3327077" lon="8.2849048"><ele>394.0</ele><time>2026-04-19T09:47:38.153Z</time></trkpt><trkpt lat="44.3327806" lon="8.2850511"><ele>394.0</ele><time>2026-04-19T09:47:40.152Z</time></trkpt><trkpt lat="44.33283" lon="8.2851971"><ele>394.0</ele><time>2026-04-19T09:47:42.154Z</time></trkpt><trkpt lat="44.33286" lon="8.285277"><ele>394.0</ele><time>2026-04-19T09:47:43.153Z</time></trkpt><trkpt lat="44.3329012" lon="8.285451"><ele>394.0</ele><time>2026-04-19T09:47:45.152Z</time></trkpt><trkpt lat="44.3329212" lon="8.2855365"><ele>393.33333333333337</ele><time>2026-04-19T09:47:46.153Z</time></trkpt><trkpt lat="44.3329493" lon="8.2856258"><ele>392.6666666666667</ele><time>2026-04-19T09:47:47.153Z</time></trkpt><trkpt lat="44.332969" lon="8.2857153"><ele>392.0</ele><time>2026-04-19T09:47:48.153Z</time></trkpt><trkpt lat="44.3329925" lon="8.285797"><ele>391.33333333333337</ele><time>2026-04-19T09:47:49.154Z</time></trkpt><trkpt lat="44.333016" lon="8.2858846"><ele>390.6666666666667</ele><time>2026-04-19T09:47:50.153Z</time></trkpt><trkpt lat="44.3330419" lon="8.2859656"><ele>390.0</ele><time>2026-04-19T09:47:51.154Z</time></trkpt><trkpt lat="44.3330891" lon="8.2861218"><ele>391.0</ele><time>2026-04-19T09:47:53.153Z</time></trkpt><trkpt lat="44.3331323" lon="8.2862715"><ele>392.0</ele><time>2026-04-19T09:47:55.151Z</time></trkpt><trkpt lat="44.3331865" lon="8.2864002"><ele>393.0</ele><time>2026-04-19T09:47:57.153Z</time></trkpt><trkpt lat="44.3332438" lon="8.2865313"><ele>394.0</ele><time>2026-04-19T09:47:59.152Z</time></trkpt><trkpt lat="44.3333136" lon="8.2866565"><ele>395.0</ele><time>2026-04-19T09:48:01.153Z</time></trkpt><trkpt lat="44.3333836" lon="8.2867918"><ele>395.0</ele><time>2026-04-19T09:48:03.153Z</time></trkpt><trkpt lat="44.3334454" lon="8.2869123"><ele>395.0</ele><time>2026-04-19T09:48:05.152Z</time></trkpt><trkpt lat="44.3335236" lon="8.2870337"><ele>395.0</ele><time>2026-04-19T09:48:07.153Z</time></trkpt><trkpt lat="44.3335966" lon="8.2871625"><ele>395.0</ele><time>2026-04-19T09:48:09.152Z</time></trkpt><trkpt lat="44.3336683" lon="8.2872774"><ele>393.6</ele><time>2026-04-19T09:48:11.152Z</time></trkpt><trkpt lat="44.3337427" lon="8.2874013"><ele>392.2</ele><time>2026-04-19T09:48:13.153Z</time></trkpt><trkpt lat="44.333826" lon="8.2874889"><ele>390.79999999999995</ele><time>2026-04-19T09:48:15.152Z</time></trkpt><trkpt lat="44.3338649" lon="8.2875615"><ele>389.4</ele><time>2026-04-19T09:48:16.153Z</time></trkpt><trkpt lat="44.333906" lon="8.2876321"><ele>388.0</ele><time>2026-04-19T09:48:17.154Z</time></trkpt><trkpt lat="44.3339752" lon="8.2877444"><ele>390.0</ele><time>2026-04-19T09:48:19.152Z</time></trkpt><trkpt lat="44.3340043" lon="8.2878248"><ele>392.0</ele><time>2026-04-19T09:48:20.151Z</time></trkpt><trkpt lat="44.334075" lon="8.2879336"><ele>394.0</ele><time>2026-04-19T09:48:22.152Z</time></trkpt><trkpt lat="44.3341351" lon="8.2880638"><ele>396.0</ele><time>2026-04-19T09:48:24.152Z</time></trkpt><trkpt lat="44.3341996" lon="8.2882022"><ele>398.0</ele><time>2026-04-19T09:48:26.151Z</time></trkpt><trkpt lat="44.3342631" lon="8.2883207"><ele>398.0</ele><time>2026-04-19T09:48:28.152Z</time></trkpt><trkpt lat="44.3342912" lon="8.2884051"><ele>398.0</ele><time>2026-04-19T09:48:29.153Z</time></trkpt><trkpt lat="44.3343388" lon="8.2885555"><ele>398.0</ele><time>2026-04-19T09:48:31.152Z</time></trkpt><trkpt lat="44.334386" lon="8.2887168"><ele>398.0</ele><time>2026-04-19T09:48:33.153Z</time></trkpt><trkpt lat="44.3344162" lon="8.2887977"><ele>398.0</ele><time>2026-04-19T09:48:34.152Z</time></trkpt><trkpt lat="44.3344458" lon="8.288962"><ele>395.0</ele><time>2026-04-19T09:48:36.152Z</time></trkpt><trkpt lat="44.3344668" lon="8.2891284"><ele>392.0</ele><time>2026-04-19T09:48:38.152Z</time></trkpt><trkpt lat="44.3344807" lon="8.2892894"><ele>389.0</ele><time>2026-04-19T09:48:40.153Z</time></trkpt><trkpt lat="44.3345292" lon="8.289428"><ele>386.0</ele><time>2026-04-19T09:48:42.152Z</time></trkpt><trkpt lat="44.3346196" lon="8.2895377"><ele>386.0</ele><time>2026-04-19T09:48:44.152Z</time></trkpt><trkpt lat="44.3346682" lon="8.2895949"><ele>386.0</ele><time>2026-04-19T09:48:45.153Z</time></trkpt><trkpt lat="44.3347666" lon="8.2896981"><ele>386.0</ele><time>2026-04-19T09:48:47.152Z</time></trkpt><trkpt lat="44.3348679" lon="8.2898011"><ele>386.0</ele><time>2026-04-19T09:48:49.152Z</time></trkpt><trkpt lat="44.3349769" lon="8.2898399"><ele>386.0</ele><time>2026-04-19T09:48:51.153Z</time></trkpt><trkpt lat="44.3350862" lon="8.2898646"><ele>385.66666666666663</ele><time>2026-04-19T09:48:53.153Z</time></trkpt><trkpt lat="44.3352025" lon="8.2898503"><ele>385.3333333333333</ele><time>2026-04-19T09:48:55.152Z</time></trkpt><trkpt lat="44.3352686" lon="8.2898346"><ele>385.0</ele><time>2026-04-19T09:48:56.152Z</time></trkpt><trkpt lat="44.3353284" lon="8.2898062"><ele>384.66666666666663</ele><time>2026-04-19T09:48:57.153Z</time></trkpt><trkpt lat="44.3353909" lon="8.2897803"><ele>384.3333333333333</ele><time>2026-04-19T09:48:58.153Z</time></trkpt><trkpt lat="44.3354607" lon="8.2897534"><ele>384.0</ele><time>2026-04-19T09:48:59.153Z</time></trkpt><trkpt lat="44.3355601" lon="8.2896654"><ele>386.1666666666667</ele><time>2026-04-19T09:49:01.152Z</time></trkpt><trkpt lat="44.3356059" lon="8.2896032"><ele>388.33333333333337</ele><time>2026-04-19T09:49:02.152Z</time></trkpt><trkpt lat="44.3356638" lon="8.2895567"><ele>390.5</ele><time>2026-04-19T09:49:03.151Z</time></trkpt><trkpt lat="44.3357519" lon="8.2894391"><ele>392.6666666666667</ele><time>2026-04-19T09:49:05.152Z</time></trkpt><trkpt lat="44.3358443" lon="8.2893371"><ele>394.83333333333337</ele><time>2026-04-19T09:49:07.152Z</time></trkpt><trkpt lat="44.3358961" lon="8.2892763"><ele>397.0</ele><time>2026-04-19T09:49:08.153Z</time></trkpt><trkpt lat="44.3359801" lon="8.2891675"><ele>397.00000000000006</ele><time>2026-04-19T09:49:10.153Z</time></trkpt><trkpt lat="44.3360809" lon="8.2890788"><ele>397.0</ele><time>2026-04-19T09:49:12.154Z</time></trkpt><trkpt lat="44.3361669" lon="8.2889997"><ele>397.0</ele><time>2026-04-19T09:49:14.153Z</time></trkpt><trkpt lat="44.3362234" lon="8.2889327"><ele>397.0</ele><time>2026-04-19T09:49:15.154Z</time></trkpt><trkpt lat="44.3362726" lon="8.2888689"><ele>397.00000000000006</ele><time>2026-04-19T09:49:16.152Z</time></trkpt><trkpt lat="44.3363278" lon="8.2888224"><ele>397.0</ele><time>2026-04-19T09:49:17.152Z</time></trkpt><trkpt lat="44.336415" lon="8.288702"><ele>395.50000000000006</ele><time>2026-04-19T09:49:19.153Z</time></trkpt><trkpt lat="44.3365198" lon="8.2886126"><ele>394.0</ele><time>2026-04-19T09:49:21.153Z</time></trkpt><trkpt lat="44.3366109" lon="8.2885135"><ele>392.5</ele><time>2026-04-19T09:49:23.151Z</time></trkpt><trkpt lat="44.3366513" lon="8.2884361"><ele>391.0</ele><time>2026-04-19T09:49:24.151Z</time></trkpt><trkpt lat="44.3366848" lon="8.2883573"><ele>389.50000000000006</ele><time>2026-04-19T09:49:25.153Z</time></trkpt><trkpt lat="44.3367196" lon="8.2882839"><ele>388.0</ele><time>2026-04-19T09:49:26.152Z</time></trkpt><trkpt lat="44.3367523" lon="8.2881251"><ele>388.5</ele><time>2026-04-19T09:49:28.153Z</time></trkpt><trkpt lat="44.3367741" lon="8.2879642"><ele>389.0</ele><time>2026-04-19T09:49:30.154Z</time></trkpt><trkpt lat="44.3367813" lon="8.2877997"><ele>389.5</ele><time>2026-04-19T09:49:32.153Z</time></trkpt><trkpt lat="44.336795" lon="8.2876365"><ele>390.0</ele><time>2026-04-19T09:49:34.152Z</time></trkpt><trkpt lat="44.3367985" lon="8.2874615"><ele>390.0</ele><time>2026-04-19T09:49:36.152Z</time></trkpt><trkpt lat="44.3367943" lon="8.2872685"><ele>390.0</ele><time>2026-04-19T09:49:38.152Z</time></trkpt><trkpt lat="44.3367828" lon="8.2871704"><ele>390.0</ele><time>2026-04-19T09:49:39.152Z</time></trkpt><trkpt lat="44.3367416" lon="8.2870122"><ele>390.0</ele><time>2026-04-19T09:49:41.152Z</time></trkpt><trkpt lat="44.3366943" lon="8.2868284"><ele>390.57142857142856</ele><time>2026-04-19T09:49:43.152Z</time></trkpt><trkpt lat="44.3366748" lon="8.2867251"><ele>391.1428571428571</ele><time>2026-04-19T09:49:44.153Z</time></trkpt><trkpt lat="44.3366467" lon="8.2866381"><ele>391.7142857142857</ele><time>2026-04-19T09:49:45.152Z</time></trkpt><trkpt lat="44.3366527" lon="8.2865396"><ele>392.2857142857143</ele><time>2026-04-19T09:49:46.153Z</time></trkpt><trkpt lat="44.3366365" lon="8.286439"><ele>392.8571428571429</ele><time>2026-04-19T09:49:47.152Z</time></trkpt><trkpt lat="44.336658" lon="8.2863215"><ele>393.42857142857144</ele><time>2026-04-19T09:49:48.152Z</time></trkpt><trkpt lat="44.3366687" lon="8.2862226"><ele>394.0</ele><time>2026-04-19T09:49:49.151Z</time></trkpt><trkpt lat="44.3366801" lon="8.2861341"><ele>396.6</ele><time>2026-04-19T09:49:50.153Z</time></trkpt><trkpt lat="44.3367145" lon="8.285978"><ele>399.2</ele><time>2026-04-19T09:49:52.153Z</time></trkpt><trkpt lat="44.3367445" lon="8.2858034"><ele>401.8</ele><time>2026-04-19T09:49:54.154Z</time></trkpt><trkpt lat="44.3368111" lon="8.2856717"><ele>404.40000000000003</ele><time>2026-04-19T09:49:56.152Z</time></trkpt><trkpt lat="44.3368654" lon="8.2856146"><ele>407.0</ele><time>2026-04-19T09:49:57.153Z</time></trkpt><trkpt lat="44.3369373" lon="8.2854977"><ele>405.25</ele><time>2026-04-19T09:49:59.153Z</time></trkpt><trkpt lat="44.3370062" lon="8.2854014"><ele>403.5</ele><time>2026-04-19T09:50:01.152Z</time></trkpt><trkpt lat="44.3371377" lon="8.2853265"><ele>401.75</ele><time>2026-04-19T09:50:03.152Z</time></trkpt><trkpt lat="44.3372498" lon="8.2852661"><ele>400.0</ele><time>2026-04-19T09:50:05.153Z</time></trkpt><trkpt lat="44.3373809" lon="8.2852297"><ele>400.00000000000006</ele><time>2026-04-19T09:50:07.152Z</time></trkpt><trkpt lat="44.3374459" lon="8.2852243"><ele>400.0</ele><time>2026-04-19T09:50:08.153Z</time></trkpt><trkpt lat="44.3375124" lon="8.2852251"><ele>400.0</ele><time>2026-04-19T09:50:09.152Z</time></trkpt><trkpt lat="44.3376272" lon="8.2852253"><ele>400.0</ele><time>2026-04-19T09:50:11.152Z</time></trkpt><trkpt lat="44.3376943" lon="8.2852403"><ele>400.00000000000006</ele><time>2026-04-19T09:50:12.153Z</time></trkpt><trkpt lat="44.3377614" lon="8.2852586"><ele>400.0</ele><time>2026-04-19T09:50:13.153Z</time></trkpt><trkpt lat="44.337828" lon="8.2852831"><ele>400.0</ele><time>2026-04-19T09:50:14.153Z</time></trkpt><trkpt lat="44.3379542" lon="8.2853228"><ele>400.0</ele><time>2026-04-19T09:50:16.153Z</time></trkpt><trkpt lat="44.3380222" lon="8.2853603"><ele>400.0</ele><time>2026-04-19T09:50:17.153Z</time></trkpt><trkpt lat="44.3380898" lon="8.2853986"><ele>400.0</ele><time>2026-04-19T09:50:18.153Z</time></trkpt><trkpt lat="44.3381519" lon="8.2854397"><ele>400.0</ele><time>2026-04-19T09:50:19.152Z</time></trkpt><trkpt lat="44.3382651" lon="8.2855336"><ele>398.00000000000006</ele><time>2026-04-19T09:50:21.152Z</time></trkpt><trkpt lat="44.3383087" lon="8.2856109"><ele>396.0</ele><time>2026-04-19T09:50:22.153Z</time></trkpt><trkpt lat="44.3383524" lon="8.2856793"><ele>394.0</ele><time>2026-04-19T09:50:23.152Z</time></trkpt><trkpt lat="44.3384096" lon="8.2857591"><ele>392.0</ele><time>2026-04-19T09:50:24.153Z</time></trkpt><trkpt lat="44.3384545" lon="8.285823"><ele>390.00000000000006</ele><time>2026-04-19T09:50:25.151Z</time></trkpt><trkpt lat="44.3385016" lon="8.2858976"><ele>388.0</ele><time>2026-04-19T09:50:26.153Z</time></trkpt><trkpt lat="44.3385769" lon="8.2860249"><ele>388.00000000000006</ele><time>2026-04-19T09:50:28.152Z</time></trkpt><trkpt lat="44.33862" lon="8.2860898"><ele>388.0</ele><time>2026-04-19T09:50:29.152Z</time></trkpt><trkpt lat="44.3386924" lon="8.2862104"><ele>388.0</ele><time>2026-04-19T09:50:31.152Z</time></trkpt><trkpt lat="44.3387728" lon="8.2863556"><ele>388.0</ele><time>2026-04-19T09:50:33.15Z</time></trkpt><trkpt lat="44.3388068" lon="8.286432"><ele>388.00000000000006</ele><time>2026-04-19T09:50:34.152Z</time></trkpt><trkpt lat="44.3388581" lon="8.286498"><ele>388.0</ele><time>2026-04-19T09:50:35.152Z</time></trkpt><trkpt lat="44.3389041" lon="8.286559"><ele>387.75</ele><time>2026-04-19T09:50:36.151Z</time></trkpt><trkpt lat="44.3390046" lon="8.2866596"><ele>387.5</ele><time>2026-04-19T09:50:38.151Z</time></trkpt><trkpt lat="44.3391105" lon="8.2867408"><ele>387.25</ele><time>2026-04-19T09:50:40.153Z</time></trkpt><trkpt lat="44.3392263" lon="8.2867995"><ele>387.0</ele><time>2026-04-19T09:50:42.152Z</time></trkpt><trkpt lat="44.3393418" lon="8.2868122"><ele>387.0</ele><time>2026-04-19T09:50:44.151Z</time></trkpt><trkpt lat="44.3394094" lon="8.2868098"><ele>387.0</ele><time>2026-04-19T09:50:45.152Z</time></trkpt><trkpt lat="44.3394721" lon="8.2867903"><ele>387.0</ele><time>2026-04-19T09:50:46.152Z</time></trkpt><trkpt lat="44.3395384" lon="8.2867754"><ele>387.0</ele><time>2026-04-19T09:50:47.151Z</time></trkpt><trkpt lat="44.3396574" lon="8.2866903"><ele>387.0</ele><time>2026-04-19T09:50:49.153Z</time></trkpt><trkpt lat="44.3397614" lon="8.2865785"><ele>387.7142857142857</ele><time>2026-04-19T09:50:51.153Z</time></trkpt><trkpt lat="44.3398084" lon="8.2865127"><ele>388.42857142857144</ele><time>2026-04-19T09:50:52.152Z</time></trkpt><trkpt lat="44.3398523" lon="8.2864345"><ele>389.1428571428571</ele><time>2026-04-19T09:50:53.152Z</time></trkpt><trkpt lat="44.3398917" lon="8.2863572"><ele>389.8571428571429</ele><time>2026-04-19T09:50:54.153Z</time></trkpt><trkpt lat="44.3399313" lon="8.286264"><ele>390.57142857142856</ele><time>2026-04-19T09:50:55.151Z</time></trkpt><trkpt lat="44.3399638" lon="8.2861679"><ele>391.2857142857143</ele><time>2026-04-19T09:50:56.153Z</time></trkpt><trkpt lat="44.3399949" lon="8.2860703"><ele>392.0</ele><time>2026-04-19T09:50:57.152Z</time></trkpt><trkpt lat="44.3400247" lon="8.285987"><ele>391.99999999999994</ele><time>2026-04-19T09:50:58.151Z</time></trkpt><trkpt lat="44.3400567" lon="8.2858869"><ele>392.0</ele><time>2026-04-19T09:50:59.152Z</time></trkpt><trkpt lat="44.3400997" lon="8.2858059"><ele>392.0</ele><time>2026-04-19T09:51:00.152Z</time></trkpt><trkpt lat="44.3401699" lon="8.2856637"><ele>392.0</ele><time>2026-04-19T09:51:02.152Z</time></trkpt><trkpt lat="44.3402309" lon="8.2856055"><ele>391.99999999999994</ele><time>2026-04-19T09:51:03.151Z</time></trkpt><trkpt lat="44.3402787" lon="8.2855343"><ele>392.0</ele><time>2026-04-19T09:51:04.15Z</time></trkpt><trkpt lat="44.34033" lon="8.2854677"><ele>390.99999999999994</ele><time>2026-04-19T09:51:05.152Z</time></trkpt><trkpt lat="44.3403949" lon="8.285405"><ele>390.0</ele><time>2026-04-19T09:51:06.152Z</time></trkpt><trkpt lat="44.3404542" lon="8.2853421"><ele>389.0</ele><time>2026-04-19T09:51:07.152Z</time></trkpt><trkpt lat="44.3405135" lon="8.2852771"><ele>388.0</ele><time>2026-04-19T09:51:08.153Z</time></trkpt><trkpt lat="44.3405786" lon="8.2852264"><ele>386.99999999999994</ele><time>2026-04-19T09:51:09.151Z</time></trkpt><trkpt lat="44.3406423" lon="8.2851748"><ele>386.0</ele><time>2026-04-19T09:51:10.152Z</time></trkpt><trkpt lat="44.3407128" lon="8.2851232"><ele>386.00000000000006</ele><time>2026-04-19T09:51:11.151Z</time></trkpt><trkpt lat="44.3407732" lon="8.2850919"><ele>386.0</ele><time>2026-04-19T09:51:12.152Z</time></trkpt><trkpt lat="44.3408381" lon="8.2850562"><ele>386.0</ele><time>2026-04-19T09:51:13.152Z</time></trkpt><trkpt lat="44.340906" lon="8.285013"><ele>386.0</ele><time>2026-04-19T09:51:14.152Z</time></trkpt><trkpt lat="44.3409702" lon="8.2849747"><ele>386.0</ele><time>2026-04-19T09:51:15.153Z</time></trkpt><trkpt lat="44.34103" lon="8.2849353"><ele>386.00000000000006</ele><time>2026-04-19T09:51:16.153Z</time></trkpt><trkpt lat="44.341104" lon="8.2849102"><ele>386.0</ele><time>2026-04-19T09:51:17.153Z</time></trkpt><trkpt lat="44.3411663" lon="8.2848884"><ele>385.99999999999994</ele><time>2026-04-19T09:51:18.153Z</time></trkpt><trkpt lat="44.341243" lon="8.284864"><ele>386.0</ele><time>2026-04-19T09:51:19.153Z</time></trkpt><trkpt lat="44.3413191" lon="8.2848376"><ele>386.0</ele><time>2026-04-19T09:51:20.153Z</time></trkpt><trkpt lat="44.3413803" lon="8.2848073"><ele>386.0</ele><time>2026-04-19T09:51:21.153Z</time></trkpt><trkpt lat="44.3414684" lon="8.2848108"><ele>385.99999999999994</ele><time>2026-04-19T09:51:22.153Z</time></trkpt><trkpt lat="44.3415335" lon="8.2847822"><ele>386.0</ele><time>2026-04-19T09:51:23.152Z</time></trkpt><trkpt lat="44.3416427" lon="8.2847107"><ele>388.16666666666663</ele><time>2026-04-19T09:51:25.152Z</time></trkpt><trkpt lat="44.3417381" lon="8.2846323"><ele>390.3333333333333</ele><time>2026-04-19T09:51:27.153Z</time></trkpt><trkpt lat="44.3417975" lon="8.2845812"><ele>392.5</ele><time>2026-04-19T09:51:28.152Z</time></trkpt><trkpt lat="44.3418576" lon="8.2845509"><ele>394.66666666666663</ele><time>2026-04-19T09:51:29.153Z</time></trkpt><trkpt lat="44.3419311" lon="8.2845279"><ele>396.8333333333333</ele><time>2026-04-19T09:51:30.153Z</time></trkpt><trkpt lat="44.342036" lon="8.2844282"><ele>399.0</ele><time>2026-04-19T09:51:32.151Z</time></trkpt><trkpt lat="44.3421003" lon="8.2843983"><ele>399.0</ele><time>2026-04-19T09:51:33.15Z</time></trkpt><trkpt lat="44.3421672" lon="8.2843768"><ele>399.0</ele><time>2026-04-19T09:51:34.153Z</time></trkpt><trkpt lat="44.3422283" lon="8.284335"><ele>399.0</ele><time>2026-04-19T09:51:35.152Z</time></trkpt><trkpt lat="44.3422892" lon="8.284301"><ele>399.0</ele><time>2026-04-19T09:51:36.153Z</time></trkpt><trkpt lat="44.3423708" lon="8.2841772"><ele>399.0</ele><time>2026-04-19T09:51:38.152Z</time></trkpt><trkpt lat="44.342462" lon="8.284037"><ele>396.1666666666667</ele><time>2026-04-19T09:51:40.152Z</time></trkpt><trkpt lat="44.3424987" lon="8.2839631"><ele>393.3333333333333</ele><time>2026-04-19T09:51:41.152Z</time></trkpt><trkpt lat="44.3425318" lon="8.2838826"><ele>390.5</ele><time>2026-04-19T09:51:42.153Z</time></trkpt><trkpt lat="44.3425711" lon="8.283811"><ele>387.66666666666663</ele><time>2026-04-19T09:51:43.151Z</time></trkpt><trkpt lat="44.3425991" lon="8.2837299"><ele>384.8333333333333</ele><time>2026-04-19T09:51:44.152Z</time></trkpt><trkpt lat="44.3426226" lon="8.2836414"><ele>382.0</ele><time>2026-04-19T09:51:45.152Z</time></trkpt><trkpt lat="44.342659" lon="8.2834728"><ele>382.0</ele><time>2026-04-19T09:51:47.151Z</time></trkpt><trkpt lat="44.3426887" lon="8.2833879"><ele>382.0</ele><time>2026-04-19T09:51:48.152Z</time></trkpt><trkpt lat="44.3427344" lon="8.2832229"><ele>382.0</ele><time>2026-04-19T09:51:50.153Z</time></trkpt><trkpt lat="44.3427606" lon="8.283138"><ele>382.0</ele><time>2026-04-19T09:51:51.151Z</time></trkpt><trkpt lat="44.3428165" lon="8.2829819"><ele>382.0</ele><time>2026-04-19T09:51:53.153Z</time></trkpt><trkpt lat="44.3428735" lon="8.2828342"><ele>381.5</ele><time>2026-04-19T09:51:55.152Z</time></trkpt><trkpt lat="44.3429136" lon="8.2827577"><ele>381.0</ele><time>2026-04-19T09:51:56.151Z</time></trkpt><trkpt lat="44.3429786" lon="8.2826135"><ele>380.5</ele><time>2026-04-19T09:51:58.151Z</time></trkpt><trkpt lat="44.3430057" lon="8.2825315"><ele>380.0</ele><time>2026-04-19T09:51:59.15Z</time></trkpt><trkpt lat="44.3430664" lon="8.2823771"><ele>379.5</ele><time>2026-04-19T09:52:01.153Z</time></trkpt><trkpt lat="44.3430967" lon="8.2822934"><ele>379.0</ele><time>2026-04-19T09:52:02.151Z</time></trkpt><trkpt lat="44.3431412" lon="8.282228"><ele>379.0</ele><time>2026-04-19T09:52:03.152Z</time></trkpt><trkpt lat="44.3431869" lon="8.28205"><ele>379.0</ele><time>2026-04-19T09:52:05.153Z</time></trkpt><trkpt lat="44.3432441" lon="8.2818878"><ele>379.0</ele><time>2026-04-19T09:52:07.152Z</time></trkpt><trkpt lat="44.3432982" lon="8.2817393"><ele>379.0</ele><time>2026-04-19T09:52:09.153Z</time></trkpt><trkpt lat="44.3433406" lon="8.2816003"><ele>379.0</ele><time>2026-04-19T09:52:11.152Z</time></trkpt><trkpt lat="44.3433949" lon="8.2814877"><ele>379.0</ele><time>2026-04-19T09:52:13.153Z</time></trkpt><trkpt lat="44.3433478" lon="8.2816087"><ele>379.0</ele><time>2026-04-19T09:52:20.153Z</time></trkpt><trkpt lat="44.3433084" lon="8.2817106"><ele>379.0</ele><time>2026-04-19T09:52:22.152Z</time></trkpt><trkpt lat="44.3432722" lon="8.2818216"><ele>379.0</ele><time>2026-04-19T09:52:24.153Z</time></trkpt><trkpt lat="44.3432462" lon="8.2819128"><ele>379.0</ele><time>2026-04-19T09:52:26.15Z</time></trkpt><trkpt lat="44.3432228" lon="8.2819985"><ele>379.0</ele><time>2026-04-19T09:52:28.151Z</time></trkpt><trkpt lat="44.3431845" lon="8.2820798"><ele>379.0</ele><time>2026-04-19T09:52:30.152Z</time></trkpt><trkpt lat="44.3431547" lon="8.2821887"><ele>379.0</ele><time>2026-04-19T09:52:33.153Z</time></trkpt><trkpt lat="44.3432161" lon="8.2821601"><ele>379.0</ele><time>2026-04-19T09:52:36.152Z</time></trkpt><trkpt lat="44.3432218" lon="8.2820393"><ele>379.0</ele><time>2026-04-19T09:52:39.152Z</time></trkpt><trkpt lat="44.3432431" lon="8.2819276"><ele>379.0</ele><time>2026-04-19T09:52:42.152Z</time></trkpt><trkpt lat="44.3432562" lon="8.2818291"><ele>379.0</ele><time>2026-04-19T09:52:54.153Z</time></trkpt><trkpt lat="44.3432811" lon="8.281719"><ele>379.0</ele><time>2026-04-19T09:52:57.15Z</time></trkpt><trkpt lat="44.3433167" lon="8.2816094"><ele>379.0</ele><time>2026-04-19T09:52:59.151Z</time></trkpt><trkpt lat="44.3433568" lon="8.2814793"><ele>379.0</ele><time>2026-04-19T09:53:01.153Z</time></trkpt><trkpt lat="44.3433867" lon="8.2814015"><ele>379.0</ele><time>2026-04-19T09:53:02.151Z</time></trkpt><trkpt lat="44.3434238" lon="8.2812735"><ele>379.0</ele><time>2026-04-19T09:53:04.153Z</time></trkpt><trkpt lat="44.3434919" lon="8.2811585"><ele>381.0</ele><time>2026-04-19T09:53:06.152Z</time></trkpt><trkpt lat="44.3435246" lon="8.2810201"><ele>383.0</ele><time>2026-04-19T09:53:08.153Z</time></trkpt><trkpt lat="44.3435822" lon="8.2809536"><ele>385.0</ele><time>2026-04-19T09:53:09.152Z</time></trkpt><trkpt lat="44.343584" lon="8.2808649"><ele>387.0</ele><time>2026-04-19T09:53:10.152Z</time></trkpt><trkpt lat="44.3436162" lon="8.2807494"><ele>389.00000000000006</ele><time>2026-04-19T09:53:12.153Z</time></trkpt><trkpt lat="44.3436698" lon="8.280621"><ele>391.0</ele><time>2026-04-19T09:53:14.152Z</time></trkpt><trkpt lat="44.3437041" lon="8.2804621"><ele>392.83333333333337</ele><time>2026-04-19T09:53:16.152Z</time></trkpt><trkpt lat="44.3437391" lon="8.2803787"><ele>394.6666666666667</ele><time>2026-04-19T09:53:17.151Z</time></trkpt><trkpt lat="44.3437991" lon="8.2802959"><ele>396.5</ele><time>2026-04-19T09:53:18.152Z</time></trkpt><trkpt lat="44.3438222" lon="8.2801437"><ele>398.33333333333337</ele><time>2026-04-19T09:53:20.153Z</time></trkpt><trkpt lat="44.3438449" lon="8.2800614"><ele>400.1666666666667</ele><time>2026-04-19T09:53:21.152Z</time></trkpt><trkpt lat="44.3438714" lon="8.2799805"><ele>402.0</ele><time>2026-04-19T09:53:22.151Z</time></trkpt><trkpt lat="44.343916" lon="8.2798901"><ele>397.6666666666667</ele><time>2026-04-19T09:53:23.151Z</time></trkpt><trkpt lat="44.3439884" lon="8.2798179"><ele>393.3333333333333</ele><time>2026-04-19T09:53:24.151Z</time></trkpt><trkpt lat="44.3440451" lon="8.2796517"><ele>389.0</ele><time>2026-04-19T09:53:26.151Z</time></trkpt><trkpt lat="44.3440822" lon="8.2795717"><ele>384.66666666666663</ele><time>2026-04-19T09:53:27.152Z</time></trkpt><trkpt lat="44.3440981" lon="8.2794843"><ele>380.3333333333333</ele><time>2026-04-19T09:53:28.151Z</time></trkpt><trkpt lat="44.3441202" lon="8.2793965"><ele>376.0</ele><time>2026-04-19T09:53:29.152Z</time></trkpt><trkpt lat="44.3441395" lon="8.2793099"><ele>376.0</ele><time>2026-04-19T09:53:30.153Z</time></trkpt><trkpt lat="44.3441699" lon="8.2792269"><ele>376.0</ele><time>2026-04-19T09:53:31.152Z</time></trkpt><trkpt lat="44.3441977" lon="8.2791417"><ele>376.0</ele><time>2026-04-19T09:53:32.152Z</time></trkpt><trkpt lat="44.3442295" lon="8.279065"><ele>376.0</ele><time>2026-04-19T09:53:33.152Z</time></trkpt><trkpt lat="44.3442662" lon="8.2789825"><ele>376.0</ele><time>2026-04-19T09:53:34.152Z</time></trkpt><trkpt lat="44.3443289" lon="8.2788428"><ele>376.0</ele><time>2026-04-19T09:53:36.152Z</time></trkpt><trkpt lat="44.3443591" lon="8.2787631"><ele>376.0</ele><time>2026-04-19T09:53:37.152Z</time></trkpt><trkpt lat="44.3444164" lon="8.2786334"><ele>377.5</ele><time>2026-04-19T09:53:39.152Z</time></trkpt><trkpt lat="44.3444594" lon="8.2784928"><ele>379.0</ele><time>2026-04-19T09:53:41.152Z</time></trkpt><trkpt lat="44.3445209" lon="8.2783648"><ele>380.5</ele><time>2026-04-19T09:53:43.152Z</time></trkpt><trkpt lat="44.3445801" lon="8.2782233"><ele>382.0</ele><time>2026-04-19T09:53:45.152Z</time></trkpt><trkpt lat="44.3446302" lon="8.2780802"><ele>383.20000000000005</ele><time>2026-04-19T09:53:47.153Z</time></trkpt><trkpt lat="44.3446862" lon="8.2779268"><ele>384.4</ele><time>2026-04-19T09:53:49.153Z</time></trkpt><trkpt lat="44.3447481" lon="8.2777839"><ele>385.6</ele><time>2026-04-19T09:53:51.151Z</time></trkpt><trkpt lat="44.3447726" lon="8.2777013"><ele>386.79999999999995</ele><time>2026-04-19T09:53:52.151Z</time></trkpt><trkpt lat="44.3448333" lon="8.2775578"><ele>388.0</ele><time>2026-04-19T09:53:54.151Z</time></trkpt><trkpt lat="44.3448742" lon="8.2774844"><ele>386.0</ele><time>2026-04-19T09:53:55.151Z</time></trkpt><trkpt lat="44.3449125" lon="8.277412"><ele>384.0</ele><time>2026-04-19T09:53:56.153Z</time></trkpt><trkpt lat="44.3449555" lon="8.277338"><ele>382.0</ele><time>2026-04-19T09:53:57.153Z</time></trkpt><trkpt lat="44.34504" lon="8.2772128"><ele>380.0</ele><time>2026-04-19T09:53:59.151Z</time></trkpt><trkpt lat="44.3451352" lon="8.2771033"><ele>378.0</ele><time>2026-04-19T09:54:01.152Z</time></trkpt><trkpt lat="44.3452366" lon="8.2770142"><ele>378.0</ele><time>2026-04-19T09:54:03.151Z</time></trkpt><trkpt lat="44.3452893" lon="8.2769596"><ele>378.0</ele><time>2026-04-19T09:54:04.151Z</time></trkpt><trkpt lat="44.3453453" lon="8.2769145"><ele>378.0</ele><time>2026-04-19T09:54:05.152Z</time></trkpt><trkpt lat="44.3454514" lon="8.2768219"><ele>378.0</ele><time>2026-04-19T09:54:07.153Z</time></trkpt><trkpt lat="44.3455091" lon="8.2767743"><ele>378.0</ele><time>2026-04-19T09:54:08.152Z</time></trkpt><trkpt lat="44.3455691" lon="8.2767386"><ele>378.0</ele><time>2026-04-19T09:54:09.151Z</time></trkpt><trkpt lat="44.345629" lon="8.2767058"><ele>376.59999999999997</ele><time>2026-04-19T09:54:10.151Z</time></trkpt><trkpt lat="44.3457466" lon="8.2766548"><ele>375.2</ele><time>2026-04-19T09:54:12.151Z</time></trkpt><trkpt lat="44.3458101" lon="8.2766225"><ele>373.8</ele><time>2026-04-19T09:54:13.15Z</time></trkpt><trkpt lat="44.3458873" lon="8.2766834"><ele>372.4</ele><time>2026-04-19T09:54:14.152Z</time></trkpt><trkpt lat="44.3459496" lon="8.2766636"><ele>371.0</ele><time>2026-04-19T09:54:15.15Z</time></trkpt><trkpt lat="44.3460664" lon="8.2766387"><ele>371.0</ele><time>2026-04-19T09:54:17.152Z</time></trkpt><trkpt lat="44.3461936" lon="8.2766087"><ele>371.0</ele><time>2026-04-19T09:54:19.152Z</time></trkpt><trkpt lat="44.3462611" lon="8.2765985"><ele>371.0</ele><time>2026-04-19T09:54:20.152Z</time></trkpt><trkpt lat="44.3463771" lon="8.2765911"><ele>371.0</ele><time>2026-04-19T09:54:22.152Z</time></trkpt><trkpt lat="44.3464875" lon="8.276599"><ele>371.0</ele><time>2026-04-19T09:54:24.151Z</time></trkpt><trkpt lat="44.3465993" lon="8.2765975"><ele>370.0</ele><time>2026-04-19T09:54:26.152Z</time></trkpt><trkpt lat="44.3467126" lon="8.2765972"><ele>369.0</ele><time>2026-04-19T09:54:28.152Z</time></trkpt><trkpt lat="44.346823" lon="8.2766105"><ele>368.0</ele><time>2026-04-19T09:54:30.152Z</time></trkpt><trkpt lat="44.3469438" lon="8.2766159"><ele>367.0</ele><time>2026-04-19T09:54:32.152Z</time></trkpt><trkpt lat="44.3470616" lon="8.2766163"><ele>367.0</ele><time>2026-04-19T09:54:34.152Z</time></trkpt><trkpt lat="44.3471818" lon="8.2766328"><ele>367.0</ele><time>2026-04-19T09:54:36.15Z</time></trkpt><trkpt lat="44.3473003" lon="8.2766291"><ele>367.0</ele><time>2026-04-19T09:54:38.151Z</time></trkpt><trkpt lat="44.3473636" lon="8.2766341"><ele>367.0</ele><time>2026-04-19T09:54:39.151Z</time></trkpt><trkpt lat="44.3474308" lon="8.2766355"><ele>367.0</ele><time>2026-04-19T09:54:40.151Z</time></trkpt><trkpt lat="44.3474983" lon="8.2766226"><ele>367.0</ele><time>2026-04-19T09:54:41.153Z</time></trkpt><trkpt lat="44.34762" lon="8.2766144"><ele>366.75</ele><time>2026-04-19T09:54:43.15Z</time></trkpt><trkpt lat="44.3477378" lon="8.2766205"><ele>366.5</ele><time>2026-04-19T09:54:45.153Z</time></trkpt><trkpt lat="44.3478506" lon="8.2766224"><ele>366.25</ele><time>2026-04-19T09:54:47.152Z</time></trkpt><trkpt lat="44.3479605" lon="8.276625"><ele>366.0</ele><time>2026-04-19T09:54:49.152Z</time></trkpt><trkpt lat="44.3480778" lon="8.2766245"><ele>365.6666666666667</ele><time>2026-04-19T09:54:51.151Z</time></trkpt><trkpt lat="44.3481419" lon="8.2766325"><ele>365.3333333333333</ele><time>2026-04-19T09:54:52.152Z</time></trkpt><trkpt lat="44.3482069" lon="8.2766365"><ele>365.0</ele><time>2026-04-19T09:54:53.153Z</time></trkpt><trkpt lat="44.3482712" lon="8.2766445"><ele>364.66666666666663</ele><time>2026-04-19T09:54:54.152Z</time></trkpt><trkpt lat="44.3483987" lon="8.2766529"><ele>364.3333333333333</ele><time>2026-04-19T09:54:56.15Z</time></trkpt><trkpt lat="44.3484622" lon="8.2766655"><ele>364.0</ele><time>2026-04-19T09:54:57.151Z</time></trkpt><trkpt lat="44.3485704" lon="8.2766986"><ele>364.0</ele><time>2026-04-19T09:54:59.151Z</time></trkpt><trkpt lat="44.3486728" lon="8.2767621"><ele>364.0</ele><time>2026-04-19T09:55:01.151Z</time></trkpt><trkpt lat="44.34878" lon="8.2767858"><ele>364.0</ele><time>2026-04-19T09:55:03.151Z</time></trkpt><trkpt lat="44.3488851" lon="8.2767465"><ele>364.0</ele><time>2026-04-19T09:55:05.152Z</time></trkpt><trkpt lat="44.349001" lon="8.276713"><ele>364.0</ele><time>2026-04-19T09:55:07.153Z</time></trkpt><trkpt lat="44.3491204" lon="8.276718"><ele>364.4</ele><time>2026-04-19T09:55:09.151Z</time></trkpt><trkpt lat="44.3491847" lon="8.2767247"><ele>364.79999999999995</ele><time>2026-04-19T09:55:10.151Z</time></trkpt><trkpt lat="44.349303" lon="8.2767335"><ele>365.20000000000005</ele><time>2026-04-19T09:55:12.152Z</time></trkpt><trkpt lat="44.349369" lon="8.276739"><ele>365.6</ele><time>2026-04-19T09:55:13.152Z</time></trkpt><trkpt lat="44.3494949" lon="8.2767509"><ele>366.0</ele><time>2026-04-19T09:55:15.151Z</time></trkpt><trkpt lat="44.3496204" lon="8.27676"><ele>366.1666666666667</ele><time>2026-04-19T09:55:17.15Z</time></trkpt><trkpt lat="44.3497414" lon="8.2767753"><ele>366.3333333333333</ele><time>2026-04-19T09:55:19.152Z</time></trkpt><trkpt lat="44.3498061" lon="8.2767728"><ele>366.5</ele><time>2026-04-19T09:55:20.151Z</time></trkpt><trkpt lat="44.3499325" lon="8.2767751"><ele>366.66666666666663</ele><time>2026-04-19T09:55:22.153Z</time></trkpt><trkpt lat="44.3499967" lon="8.2767895"><ele>366.8333333333333</ele><time>2026-04-19T09:55:23.152Z</time></trkpt><trkpt lat="44.350062" lon="8.276797"><ele>367.0</ele><time>2026-04-19T09:55:24.151Z</time></trkpt><trkpt lat="44.3501879" lon="8.2768166"><ele>367.0</ele><time>2026-04-19T09:55:26.151Z</time></trkpt><trkpt lat="44.3503169" lon="8.2768433"><ele>367.0</ele><time>2026-04-19T09:55:28.151Z</time></trkpt><trkpt lat="44.3504369" lon="8.2768473"><ele>367.0</ele><time>2026-04-19T09:55:30.152Z</time></trkpt><trkpt lat="44.3505558" lon="8.2768611"><ele>367.0</ele><time>2026-04-19T09:55:32.152Z</time></trkpt><trkpt lat="44.3506797" lon="8.2768693"><ele>367.0</ele><time>2026-04-19T09:55:34.151Z</time></trkpt><trkpt lat="44.3507451" lon="8.2768718"><ele>367.0</ele><time>2026-04-19T09:55:35.151Z</time></trkpt><trkpt lat="44.3508738" lon="8.2768766"><ele>367.0</ele><time>2026-04-19T09:55:37.152Z</time></trkpt><trkpt lat="44.3509999" lon="8.2768823"><ele>367.0</ele><time>2026-04-19T09:55:39.151Z</time></trkpt><trkpt lat="44.351117" lon="8.2768851"><ele>367.0</ele><time>2026-04-19T09:55:41.152Z</time></trkpt><trkpt lat="44.3511798" lon="8.2768929"><ele>367.0</ele><time>2026-04-19T09:55:42.151Z</time></trkpt><trkpt lat="44.3512986" lon="8.2769065"><ele>367.0</ele><time>2026-04-19T09:55:44.151Z</time></trkpt><trkpt lat="44.3514112" lon="8.2769137"><ele>367.0</ele><time>2026-04-19T09:55:46.152Z</time></trkpt><trkpt lat="44.3515281" lon="8.2769175"><ele>367.0</ele><time>2026-04-19T09:55:48.152Z</time></trkpt><trkpt lat="44.3515916" lon="8.2769234"><ele>367.0</ele><time>2026-04-19T09:55:49.151Z</time></trkpt><trkpt lat="44.351717" lon="8.2769299"><ele>368.0</ele><time>2026-04-19T09:55:51.151Z</time></trkpt><trkpt lat="44.3518432" lon="8.2769475"><ele>369.0</ele><time>2026-04-19T09:55:53.151Z</time></trkpt><trkpt lat="44.3519677" lon="8.2769582"><ele>370.0</ele><time>2026-04-19T09:55:55.151Z</time></trkpt><trkpt lat="44.3520313" lon="8.2769691"><ele>371.0</ele><time>2026-04-19T09:55:56.152Z</time></trkpt><trkpt lat="44.3521586" lon="8.2769955"><ele>372.0</ele><time>2026-04-19T09:55:58.151Z</time></trkpt><trkpt lat="44.352222" lon="8.2770168"><ele>372.14285714285717</ele><time>2026-04-19T09:55:59.153Z</time></trkpt><trkpt lat="44.3522897" lon="8.2770515"><ele>372.2857142857143</ele><time>2026-04-19T09:56:00.152Z</time></trkpt><trkpt lat="44.3523522" lon="8.2770799"><ele>372.42857142857144</ele><time>2026-04-19T09:56:01.151Z</time></trkpt><trkpt lat="44.3524173" lon="8.2771237"><ele>372.57142857142856</ele><time>2026-04-19T09:56:02.152Z</time></trkpt><trkpt lat="44.3524762" lon="8.2771584"><ele>372.7142857142857</ele><time>2026-04-19T09:56:03.152Z</time></trkpt><trkpt lat="44.3525387" lon="8.2772075"><ele>372.8571428571429</ele><time>2026-04-19T09:56:04.151Z</time></trkpt><trkpt lat="44.3526009" lon="8.2772699"><ele>373.0</ele><time>2026-04-19T09:56:05.15Z</time></trkpt><trkpt lat="44.3526615" lon="8.2773307"><ele>371.16666666666663</ele><time>2026-04-19T09:56:06.151Z</time></trkpt><trkpt lat="44.3527176" lon="8.2773847"><ele>369.3333333333333</ele><time>2026-04-19T09:56:07.151Z</time></trkpt><trkpt lat="44.3528208" lon="8.2774968"><ele>367.5</ele><time>2026-04-19T09:56:09.152Z</time></trkpt><trkpt lat="44.3528819" lon="8.2775604"><ele>365.6666666666667</ele><time>2026-04-19T09:56:10.152Z</time></trkpt><trkpt lat="44.3529404" lon="8.2776258"><ele>363.83333333333337</ele><time>2026-04-19T09:56:11.152Z</time></trkpt><trkpt lat="44.3529918" lon="8.2776938"><ele>362.0</ele><time>2026-04-19T09:56:12.152Z</time></trkpt><trkpt lat="44.3530427" lon="8.2777658"><ele>362.0</ele><time>2026-04-19T09:56:13.15Z</time></trkpt><trkpt lat="44.3530987" lon="8.2778341"><ele>362.0</ele><time>2026-04-19T09:56:14.152Z</time></trkpt><trkpt lat="44.3531523" lon="8.2779059"><ele>362.0</ele><time>2026-04-19T09:56:15.151Z</time></trkpt><trkpt lat="44.3532016" lon="8.2779846"><ele>362.0</ele><time>2026-04-19T09:56:16.152Z</time></trkpt><trkpt lat="44.3532433" lon="8.2780722"><ele>362.0</ele><time>2026-04-19T09:56:17.151Z</time></trkpt><trkpt lat="44.353283" lon="8.2781732"><ele>362.0</ele><time>2026-04-19T09:56:18.15Z</time></trkpt><trkpt lat="44.3533129" lon="8.2782751"><ele>361.1666666666667</ele><time>2026-04-19T09:56:19.151Z</time></trkpt><trkpt lat="44.3533337" lon="8.2783744"><ele>360.33333333333337</ele><time>2026-04-19T09:56:20.152Z</time></trkpt><trkpt lat="44.3533463" lon="8.2784729"><ele>359.5</ele><time>2026-04-19T09:56:21.152Z</time></trkpt><trkpt lat="44.3533627" lon="8.278564"><ele>358.6666666666667</ele><time>2026-04-19T09:56:22.151Z</time></trkpt><trkpt lat="44.3533764" lon="8.2786545"><ele>357.8333333333333</ele><time>2026-04-19T09:56:23.152Z</time></trkpt><trkpt lat="44.3533886" lon="8.2787447"><ele>357.0</ele><time>2026-04-19T09:56:24.151Z</time></trkpt><trkpt lat="44.3533885" lon="8.2789141"><ele>356.5</ele><time>2026-04-19T09:56:26.152Z</time></trkpt><trkpt lat="44.3533795" lon="8.2790771"><ele>356.0</ele><time>2026-04-19T09:56:28.152Z</time></trkpt><trkpt lat="44.3533593" lon="8.2792264"><ele>355.5</ele><time>2026-04-19T09:56:30.152Z</time></trkpt><trkpt lat="44.3533461" lon="8.2793985"><ele>355.0</ele><time>2026-04-19T09:56:32.151Z</time></trkpt><trkpt lat="44.3533595" lon="8.2795472"><ele>355.0</ele><time>2026-04-19T09:56:34.152Z</time></trkpt><trkpt lat="44.3533513" lon="8.2797203"><ele>355.0</ele><time>2026-04-19T09:56:36.152Z</time></trkpt><trkpt lat="44.3533196" lon="8.2798796"><ele>355.0</ele><time>2026-04-19T09:56:38.152Z</time></trkpt><trkpt lat="44.3533081" lon="8.2800332"><ele>355.0</ele><time>2026-04-19T09:56:40.152Z</time></trkpt><trkpt lat="44.3532988" lon="8.280173"><ele>354.8</ele><time>2026-04-19T09:56:42.151Z</time></trkpt><trkpt lat="44.3532917" lon="8.2802616"><ele>354.6</ele><time>2026-04-19T09:56:43.152Z</time></trkpt><trkpt lat="44.3532852" lon="8.2804286"><ele>354.4</ele><time>2026-04-19T09:56:45.149Z</time></trkpt><trkpt lat="44.3532761" lon="8.2805839"><ele>354.2</ele><time>2026-04-19T09:56:47.151Z</time></trkpt><trkpt lat="44.3532501" lon="8.2807498"><ele>354.0</ele><time>2026-04-19T09:56:49.15Z</time></trkpt><trkpt lat="44.3532242" lon="8.2809213"><ele>353.79999999999995</ele><time>2026-04-19T09:56:51.152Z</time></trkpt><trkpt lat="44.3532103" lon="8.2810869"><ele>353.59999999999997</ele><time>2026-04-19T09:56:53.151Z</time></trkpt><trkpt lat="44.3531796" lon="8.2812445"><ele>353.4</ele><time>2026-04-19T09:56:55.151Z</time></trkpt><trkpt lat="44.3531534" lon="8.2814185"><ele>353.2</ele><time>2026-04-19T09:56:57.152Z</time></trkpt><trkpt lat="44.3531467" lon="8.2815106"><ele>353.0</ele><time>2026-04-19T09:56:58.152Z</time></trkpt><trkpt lat="44.3531388" lon="8.281608"><ele>352.85714285714283</ele><time>2026-04-19T09:56:59.15Z</time></trkpt><trkpt lat="44.3531372" lon="8.2817077"><ele>352.7142857142857</ele><time>2026-04-19T09:57:00.151Z</time></trkpt><trkpt lat="44.353126" lon="8.2817984"><ele>352.57142857142856</ele><time>2026-04-19T09:57:01.152Z</time></trkpt><trkpt lat="44.3531195" lon="8.2818899"><ele>352.42857142857144</ele><time>2026-04-19T09:57:02.15Z</time></trkpt><trkpt lat="44.3531073" lon="8.2819839"><ele>352.2857142857143</ele><time>2026-04-19T09:57:03.152Z</time></trkpt><trkpt lat="44.3531036" lon="8.2820786"><ele>352.14285714285717</ele><time>2026-04-19T09:57:04.152Z</time></trkpt><trkpt lat="44.3530971" lon="8.2821705"><ele>352.0</ele><time>2026-04-19T09:57:05.152Z</time></trkpt><trkpt lat="44.3530946" lon="8.28226"><ele>352.25</ele><time>2026-04-19T09:57:06.151Z</time></trkpt><trkpt lat="44.3530806" lon="8.2824225"><ele>352.5</ele><time>2026-04-19T09:57:08.151Z</time></trkpt><trkpt lat="44.3530568" lon="8.2825872"><ele>352.75</ele><time>2026-04-19T09:57:10.15Z</time></trkpt><trkpt lat="44.3530618" lon="8.2827686"><ele>353.0</ele><time>2026-04-19T09:57:12.151Z</time></trkpt><trkpt lat="44.35306" lon="8.2829404"><ele>353.25</ele><time>2026-04-19T09:57:14.152Z</time></trkpt><trkpt lat="44.3530525" lon="8.2831125"><ele>353.5</ele><time>2026-04-19T09:57:16.153Z</time></trkpt><trkpt lat="44.3530476" lon="8.2832872"><ele>353.75</ele><time>2026-04-19T09:57:18.151Z</time></trkpt><trkpt lat="44.353044" lon="8.2834574"><ele>354.0</ele><time>2026-04-19T09:57:20.151Z</time></trkpt><trkpt lat="44.3530474" lon="8.2836237"><ele>354.0</ele><time>2026-04-19T09:57:22.151Z</time></trkpt><trkpt lat="44.3530555" lon="8.2837143"><ele>354.0</ele><time>2026-04-19T09:57:23.152Z</time></trkpt><trkpt lat="44.3530535" lon="8.2838041"><ele>354.0</ele><time>2026-04-19T09:57:24.151Z</time></trkpt><trkpt lat="44.3530644" lon="8.2838917"><ele>354.0</ele><time>2026-04-19T09:57:25.15Z</time></trkpt><trkpt lat="44.3530782" lon="8.2840684"><ele>354.0</ele><time>2026-04-19T09:57:27.152Z</time></trkpt><trkpt lat="44.3530878" lon="8.2842275"><ele>354.0</ele><time>2026-04-19T09:57:29.151Z</time></trkpt><trkpt lat="44.3530917" lon="8.2843947"><ele>354.0</ele><time>2026-04-19T09:57:31.151Z</time></trkpt><trkpt lat="44.3530969" lon="8.28456"><ele>354.0</ele><time>2026-04-19T09:57:33.152Z</time></trkpt><trkpt lat="44.353108" lon="8.2846486"><ele>354.0</ele><time>2026-04-19T09:57:34.151Z</time></trkpt><trkpt lat="44.3531189" lon="8.2848108"><ele>354.0</ele><time>2026-04-19T09:57:36.151Z</time></trkpt><trkpt lat="44.3531229" lon="8.2849621"><ele>354.0</ele><time>2026-04-19T09:57:38.151Z</time></trkpt><trkpt lat="44.3531417" lon="8.285118"><ele>354.0</ele><time>2026-04-19T09:57:40.152Z</time></trkpt><trkpt lat="44.3531595" lon="8.2852547"><ele>354.0</ele><time>2026-04-19T09:57:42.151Z</time></trkpt><trkpt lat="44.3531718" lon="8.2853865"><ele>354.0</ele><time>2026-04-19T09:57:44.152Z</time></trkpt><trkpt lat="44.3532206" lon="8.2854838"><ele>354.0</ele><time>2026-04-19T09:57:46.151Z</time></trkpt><trkpt lat="44.3533049" lon="8.2855295"><ele>354.0</ele><time>2026-04-19T09:57:48.151Z</time></trkpt><trkpt lat="44.3533838" lon="8.2855357"><ele>354.0</ele><time>2026-04-19T09:57:50.152Z</time></trkpt><trkpt lat="44.3535006" lon="8.285528"><ele>354.0</ele><time>2026-04-19T09:57:52.152Z</time></trkpt><trkpt lat="44.3536151" lon="8.2855285"><ele>354.0</ele><time>2026-04-19T09:57:54.152Z</time></trkpt><trkpt lat="44.3536804" lon="8.285525"><ele>354.0</ele><time>2026-04-19T09:57:55.151Z</time></trkpt><trkpt lat="44.3537901" lon="8.285549"><ele>354.0</ele><time>2026-04-19T09:57:57.152Z</time></trkpt><trkpt lat="44.3538525" lon="8.2855758"><ele>354.0</ele><time>2026-04-19T09:57:58.152Z</time></trkpt><trkpt lat="44.3539798" lon="8.2856128"><ele>353.2</ele><time>2026-04-19T09:58:00.15Z</time></trkpt><trkpt lat="44.3540455" lon="8.2856304"><ele>352.4</ele><time>2026-04-19T09:58:01.151Z</time></trkpt><trkpt lat="44.3541115" lon="8.2856511"><ele>351.6</ele><time>2026-04-19T09:58:02.152Z</time></trkpt><trkpt lat="44.354232" lon="8.285668"><ele>350.8</ele><time>2026-04-19T09:58:04.15Z</time></trkpt><trkpt lat="44.3543573" lon="8.2857066"><ele>350.0</ele><time>2026-04-19T09:58:06.152Z</time></trkpt><trkpt lat="44.3544758" lon="8.2857564"><ele>350.0</ele><time>2026-04-19T09:58:08.151Z</time></trkpt><trkpt lat="44.3545375" lon="8.2857967"><ele>350.0</ele><time>2026-04-19T09:58:09.151Z</time></trkpt><trkpt lat="44.3546311" lon="8.2858825"><ele>350.0</ele><time>2026-04-19T09:58:11.151Z</time></trkpt><trkpt lat="44.3547215" lon="8.2859676"><ele>350.0</ele><time>2026-04-19T09:58:13.151Z</time></trkpt><trkpt lat="44.3548044" lon="8.2860574"><ele>350.0</ele><time>2026-04-19T09:58:15.152Z</time></trkpt><trkpt lat="44.3548784" lon="8.2861368"><ele>350.5</ele><time>2026-04-19T09:58:17.15Z</time></trkpt><trkpt lat="44.3549638" lon="8.2862252"><ele>351.0</ele><time>2026-04-19T09:58:19.15Z</time></trkpt><trkpt lat="44.3550479" lon="8.2863261"><ele>351.5</ele><time>2026-04-19T09:58:21.151Z</time></trkpt><trkpt lat="44.3551406" lon="8.2864248"><ele>352.0</ele><time>2026-04-19T09:58:23.151Z</time></trkpt><trkpt lat="44.3552106" lon="8.2865714"><ele>352.0</ele><time>2026-04-19T09:58:25.151Z</time></trkpt><trkpt lat="44.3552511" lon="8.2867091"><ele>352.0</ele><time>2026-04-19T09:58:27.153Z</time></trkpt><trkpt lat="44.3552719" lon="8.2868552"><ele>352.0</ele><time>2026-04-19T09:58:29.152Z</time></trkpt><trkpt lat="44.3552889" lon="8.286973"><ele>352.0</ele><time>2026-04-19T09:58:31.153Z</time></trkpt><trkpt lat="44.3553203" lon="8.2871157"><ele>352.0</ele><time>2026-04-19T09:58:33.154Z</time></trkpt><trkpt lat="44.3553782" lon="8.2872567"><ele>352.20000000000005</ele><time>2026-04-19T09:58:35.152Z</time></trkpt><trkpt lat="44.3554055" lon="8.2873924"><ele>352.4</ele><time>2026-04-19T09:58:37.154Z</time></trkpt><trkpt lat="44.3554308" lon="8.28755"><ele>352.6</ele><time>2026-04-19T09:58:39.151Z</time></trkpt><trkpt lat="44.3554605" lon="8.28768"><ele>352.79999999999995</ele><time>2026-04-19T09:58:41.153Z</time></trkpt><trkpt lat="44.3554983" lon="8.2878596"><ele>353.0</ele><time>2026-04-19T09:58:43.152Z</time></trkpt><trkpt lat="44.3555026" lon="8.2879789"><ele>353.2</ele><time>2026-04-19T09:58:45.155Z</time></trkpt><trkpt lat="44.3555277" lon="8.2881198"><ele>353.4</ele><time>2026-04-19T09:58:46.154Z</time></trkpt><trkpt lat="44.355524" lon="8.2882508"><ele>353.59999999999997</ele><time>2026-04-19T09:58:48.154Z</time></trkpt><trkpt lat="44.3555253" lon="8.2883709"><ele>353.79999999999995</ele><time>2026-04-19T09:58:50.154Z</time></trkpt><trkpt lat="44.3555265" lon="8.2885254"><ele>354.0</ele><time>2026-04-19T09:58:52.153Z</time></trkpt><trkpt lat="44.3555375" lon="8.2886176"><ele>353.4</ele><time>2026-04-19T09:58:53.154Z</time></trkpt><trkpt lat="44.3555452" lon="8.2887357"><ele>352.79999999999995</ele><time>2026-04-19T09:58:55.154Z</time></trkpt><trkpt lat="44.3555593" lon="8.2888813"><ele>352.20000000000005</ele><time>2026-04-19T09:58:57.155Z</time></trkpt><trkpt lat="44.3555695" lon="8.2890337"><ele>351.6</ele><time>2026-04-19T09:58:59.152Z</time></trkpt><trkpt lat="44.3555688" lon="8.289161"><ele>351.0</ele><time>2026-04-19T09:59:01.154Z</time></trkpt><trkpt lat="44.355568" lon="8.2892838"><ele>351.0</ele><time>2026-04-19T09:59:03.153Z</time></trkpt><trkpt lat="44.3555713" lon="8.2894256"><ele>351.0</ele><time>2026-04-19T09:59:05.152Z</time></trkpt><trkpt lat="44.3555956" lon="8.2895748"><ele>351.0</ele><time>2026-04-19T09:59:07.155Z</time></trkpt><trkpt lat="44.355614" lon="8.2897253"><ele>351.0</ele><time>2026-04-19T09:59:09.153Z</time></trkpt><trkpt lat="44.3556301" lon="8.2898729"><ele>351.0</ele><time>2026-04-19T09:59:11.154Z</time></trkpt><trkpt lat="44.3556461" lon="8.2900012"><ele>351.6666666666667</ele><time>2026-04-19T09:59:13.15Z</time></trkpt><trkpt lat="44.3556631" lon="8.2901362"><ele>352.3333333333333</ele><time>2026-04-19T09:59:15.153Z</time></trkpt><trkpt lat="44.3556842" lon="8.2902594"><ele>353.0</ele><time>2026-04-19T09:59:17.155Z</time></trkpt><trkpt lat="44.355706" lon="8.2903659"><ele>353.66666666666663</ele><time>2026-04-19T09:59:19.152Z</time></trkpt><trkpt lat="44.3557188" lon="8.2904604"><ele>354.3333333333333</ele><time>2026-04-19T09:59:21.154Z</time></trkpt><trkpt lat="44.3556555" lon="8.2905765"><ele>355.0</ele><time>2026-04-19T09:59:24.151Z</time></trkpt><trkpt lat="44.3555775" lon="8.2906703"><ele>355.6</ele><time>2026-04-19T09:59:26.151Z</time></trkpt><trkpt lat="44.3554806" lon="8.2906328"><ele>356.2</ele><time>2026-04-19T09:59:29.152Z</time></trkpt><trkpt lat="44.3553911" lon="8.2906669"><ele>356.79999999999995</ele><time>2026-04-19T09:59:31.152Z</time></trkpt><trkpt lat="44.3552998" lon="8.2907153"><ele>357.4</ele><time>2026-04-19T09:59:33.152Z</time></trkpt><trkpt lat="44.3552137" lon="8.2907692"><ele>358.0</ele><time>2026-04-19T09:59:35.151Z</time></trkpt><trkpt lat="44.3551272" lon="8.2908146"><ele>358.0</ele><time>2026-04-19T09:59:37.152Z</time></trkpt><trkpt lat="44.3550555" lon="8.290886"><ele>358.0</ele><time>2026-04-19T09:59:39.15Z</time></trkpt><trkpt lat="44.3549822" lon="8.2909405"><ele>358.0</ele><time>2026-04-19T09:59:41.15Z</time></trkpt><trkpt lat="44.3549035" lon="8.2909964"><ele>358.0</ele><time>2026-04-19T09:59:43.15Z</time></trkpt><trkpt lat="44.3548332" lon="8.2910487"><ele>358.0</ele><time>2026-04-19T09:59:45.15Z</time></trkpt><trkpt lat="44.3547715" lon="8.2910812"><ele>358.0</ele><time>2026-04-19T09:59:47.153Z</time></trkpt><trkpt lat="44.3547052" lon="8.2911243"><ele>357.66666666666663</ele><time>2026-04-19T09:59:49.153Z</time></trkpt><trkpt lat="44.3546395" lon="8.2911913"><ele>357.3333333333333</ele><time>2026-04-19T09:59:51.153Z</time></trkpt><trkpt lat="44.3545784" lon="8.2912703"><ele>357.0</ele><time>2026-04-19T09:59:53.155Z</time></trkpt><trkpt lat="44.3545145" lon="8.2913481"><ele>356.6666666666667</ele><time>2026-04-19T09:59:55.152Z</time></trkpt><trkpt lat="44.3544466" lon="8.2914094"><ele>356.33333333333337</ele><time>2026-04-19T09:59:57.153Z</time></trkpt><trkpt lat="44.3543825" lon="8.2914751"><ele>356.0</ele><time>2026-04-19T09:59:59.152Z</time></trkpt><trkpt lat="44.3543154" lon="8.2915525"><ele>356.6666666666667</ele><time>2026-04-19T10:00:01.154Z</time></trkpt><trkpt lat="44.3542511" lon="8.291638"><ele>357.33333333333337</ele><time>2026-04-19T10:00:03.154Z</time></trkpt><trkpt lat="44.3541897" lon="8.2917214"><ele>358.0</ele><time>2026-04-19T10:00:05.151Z</time></trkpt><trkpt lat="44.3541265" lon="8.2918232"><ele>358.6666666666667</ele><time>2026-04-19T10:00:07.152Z</time></trkpt><trkpt lat="44.3540567" lon="8.2919025"><ele>359.3333333333333</ele><time>2026-04-19T10:00:09.15Z</time></trkpt><trkpt lat="44.353991" lon="8.2919792"><ele>360.0</ele><time>2026-04-19T10:00:11.151Z</time></trkpt><trkpt lat="44.3539259" lon="8.292067"><ele>360.0</ele><time>2026-04-19T10:00:13.155Z</time></trkpt><trkpt lat="44.3538593" lon="8.292144"><ele>360.0</ele><time>2026-04-19T10:00:15.152Z</time></trkpt><trkpt lat="44.353795" lon="8.2922222"><ele>360.0</ele><time>2026-04-19T10:00:17.156Z</time></trkpt><trkpt lat="44.353727" lon="8.2923077"><ele>360.0</ele><time>2026-04-19T10:00:19.152Z</time></trkpt><trkpt lat="44.3536482" lon="8.2923836"><ele>360.0</ele><time>2026-04-19T10:00:21.154Z</time></trkpt><trkpt lat="44.3535658" lon="8.2923976"><ele>360.0</ele><time>2026-04-19T10:00:23.156Z</time></trkpt><trkpt lat="44.3534927" lon="8.2923561"><ele>360.0</ele><time>2026-04-19T10:00:25.15Z</time></trkpt><trkpt lat="44.3534359" lon="8.2922767"><ele>360.0</ele><time>2026-04-19T10:00:27.153Z</time></trkpt><trkpt lat="44.3533898" lon="8.2921778"><ele>360.0</ele><time>2026-04-19T10:00:29.151Z</time></trkpt><trkpt lat="44.3533391" lon="8.2920708"><ele>360.0</ele><time>2026-04-19T10:00:31.154Z</time></trkpt><trkpt lat="44.3532611" lon="8.2920888"><ele>360.0</ele><time>2026-04-19T10:00:33.153Z</time></trkpt><trkpt lat="44.3531884" lon="8.2921282"><ele>360.0</ele><time>2026-04-19T10:00:35.151Z</time></trkpt><trkpt lat="44.3531052" lon="8.292091"><ele>361.1666666666667</ele><time>2026-04-19T10:00:37.154Z</time></trkpt><trkpt lat="44.3530177" lon="8.2920578"><ele>362.3333333333333</ele><time>2026-04-19T10:00:39.153Z</time></trkpt><trkpt lat="44.3529124" lon="8.2920435"><ele>363.5</ele><time>2026-04-19T10:00:41.153Z</time></trkpt><trkpt lat="44.3528436" lon="8.292097"><ele>364.66666666666663</ele><time>2026-04-19T10:00:43.153Z</time></trkpt><trkpt lat="44.3527817" lon="8.2921696"><ele>365.8333333333333</ele><time>2026-04-19T10:00:45.151Z</time></trkpt><trkpt lat="44.352719" lon="8.2922611"><ele>367.0</ele><time>2026-04-19T10:00:47.153Z</time></trkpt><trkpt lat="44.3526663" lon="8.2923273"><ele>367.0</ele><time>2026-04-19T10:00:49.152Z</time></trkpt><trkpt lat="44.3526152" lon="8.2924072"><ele>367.0</ele><time>2026-04-19T10:00:51.155Z</time></trkpt><trkpt lat="44.3525572" lon="8.2924895"><ele>367.0</ele><time>2026-04-19T10:00:53.153Z</time></trkpt><trkpt lat="44.3525045" lon="8.292573"><ele>367.0</ele><time>2026-04-19T10:00:55.151Z</time></trkpt><trkpt lat="44.3524547" lon="8.2926574"><ele>367.0</ele><time>2026-04-19T10:00:57.157Z</time></trkpt><trkpt lat="44.3524061" lon="8.292744"><ele>367.0</ele><time>2026-04-19T10:00:59.151Z</time></trkpt><trkpt lat="44.3523521" lon="8.2928368"><ele>367.0</ele><time>2026-04-19T10:01:01.153Z</time></trkpt><trkpt lat="44.3522972" lon="8.2929301"><ele>367.0</ele><time>2026-04-19T10:01:03.155Z</time></trkpt><trkpt lat="44.3522449" lon="8.2930178"><ele>367.0</ele><time>2026-04-19T10:01:05.154Z</time></trkpt><trkpt lat="44.3521781" lon="8.2931096"><ele>367.0</ele><time>2026-04-19T10:01:07.152Z</time></trkpt><trkpt lat="44.3521125" lon="8.2931955"><ele>367.0</ele><time>2026-04-19T10:01:09.154Z</time></trkpt><trkpt lat="44.3520504" lon="8.2932887"><ele>367.0</ele><time>2026-04-19T10:01:11.153Z</time></trkpt><trkpt lat="44.3519822" lon="8.2933728"><ele>367.6</ele><time>2026-04-19T10:01:13.153Z</time></trkpt><trkpt lat="44.3519208" lon="8.2934526"><ele>368.20000000000005</ele><time>2026-04-19T10:01:15.152Z</time></trkpt><trkpt lat="44.3518491" lon="8.2935367"><ele>368.8</ele><time>2026-04-19T10:01:17.153Z</time></trkpt><trkpt lat="44.3517812" lon="8.2936171"><ele>369.4</ele><time>2026-04-19T10:01:19.156Z</time></trkpt><trkpt lat="44.3517007" lon="8.2937049"><ele>370.0</ele><time>2026-04-19T10:01:21.153Z</time></trkpt><trkpt lat="44.3516367" lon="8.2937835"><ele>370.0</ele><time>2026-04-19T10:01:23.157Z</time></trkpt><trkpt lat="44.3515649" lon="8.2938635"><ele>370.0</ele><time>2026-04-19T10:01:25.15Z</time></trkpt><trkpt lat="44.3514938" lon="8.2939467"><ele>370.0</ele><time>2026-04-19T10:01:27.156Z</time></trkpt><trkpt lat="44.3514483" lon="8.2940595"><ele>370.0</ele><time>2026-04-19T10:01:29.155Z</time></trkpt><trkpt lat="44.3513867" lon="8.2941494"><ele>370.0</ele><time>2026-04-19T10:01:31.156Z</time></trkpt><trkpt lat="44.3513042" lon="8.2942194"><ele>370.2</ele><time>2026-04-19T10:01:33.151Z</time></trkpt><trkpt lat="44.3512258" lon="8.2942949"><ele>370.4</ele><time>2026-04-19T10:01:35.15Z</time></trkpt><trkpt lat="44.3511437" lon="8.2943643"><ele>370.6</ele><time>2026-04-19T10:01:37.151Z</time></trkpt><trkpt lat="44.3510607" lon="8.2944233"><ele>370.8</ele><time>2026-04-19T10:01:39.15Z</time></trkpt><trkpt lat="44.3509703" lon="8.2944975"><ele>371.0</ele><time>2026-04-19T10:01:41.156Z</time></trkpt><trkpt lat="44.3508865" lon="8.294569"><ele>371.0</ele><time>2026-04-19T10:01:43.15Z</time></trkpt><trkpt lat="44.3507948" lon="8.2946289"><ele>371.0</ele><time>2026-04-19T10:01:45.151Z</time></trkpt><trkpt lat="44.350719" lon="8.2947096"><ele>371.0</ele><time>2026-04-19T10:01:47.151Z</time></trkpt><trkpt lat="44.3506344" lon="8.294807"><ele>371.0</ele><time>2026-04-19T10:01:49.15Z</time></trkpt><trkpt lat="44.3505681" lon="8.2948997"><ele>371.0</ele><time>2026-04-19T10:01:51.151Z</time></trkpt><trkpt lat="44.3504886" lon="8.2949736"><ele>370.6</ele><time>2026-04-19T10:01:53.15Z</time></trkpt><trkpt lat="44.3504093" lon="8.2950518"><ele>370.20000000000005</ele><time>2026-04-19T10:01:55.15Z</time></trkpt><trkpt lat="44.3503368" lon="8.2951217"><ele>369.79999999999995</ele><time>2026-04-19T10:01:57.149Z</time></trkpt><trkpt lat="44.3502611" lon="8.2952006"><ele>369.4</ele><time>2026-04-19T10:01:59.15Z</time></trkpt><trkpt lat="44.3501633" lon="8.2952571"><ele>369.0</ele><time>2026-04-19T10:02:01.151Z</time></trkpt><trkpt lat="44.3500944" lon="8.2953092"><ele>369.0</ele><time>2026-04-19T10:02:03.15Z</time></trkpt><trkpt lat="44.3500014" lon="8.2953227"><ele>369.0</ele><time>2026-04-19T10:02:05.151Z</time></trkpt><trkpt lat="44.3499041" lon="8.295366"><ele>369.0</ele><time>2026-04-19T10:02:07.149Z</time></trkpt><trkpt lat="44.3498269" lon="8.2954351"><ele>369.0</ele><time>2026-04-19T10:02:09.151Z</time></trkpt><trkpt lat="44.3497455" lon="8.2955086"><ele>369.0</ele><time>2026-04-19T10:02:11.151Z</time></trkpt><trkpt lat="44.3496529" lon="8.2955775"><ele>370.6</ele><time>2026-04-19T10:02:13.151Z</time></trkpt><trkpt lat="44.34959" lon="8.2956449"><ele>372.2</ele><time>2026-04-19T10:02:15.151Z</time></trkpt><trkpt lat="44.3495125" lon="8.2957446"><ele>373.8</ele><time>2026-04-19T10:02:17.151Z</time></trkpt><trkpt lat="44.3494347" lon="8.2958303"><ele>375.40000000000003</ele><time>2026-04-19T10:02:19.151Z</time></trkpt><trkpt lat="44.3493604" lon="8.2959121"><ele>377.0</ele><time>2026-04-19T10:02:21.151Z</time></trkpt><trkpt lat="44.3492819" lon="8.2959377"><ele>377.0</ele><time>2026-04-19T10:02:23.15Z</time></trkpt><trkpt lat="44.3492043" lon="8.296021"><ele>377.0</ele><time>2026-04-19T10:02:25.15Z</time></trkpt><trkpt lat="44.3491318" lon="8.2960982"><ele>377.0</ele><time>2026-04-19T10:02:27.151Z</time></trkpt><trkpt lat="44.3490556" lon="8.2961642"><ele>377.0</ele><time>2026-04-19T10:02:29.151Z</time></trkpt><trkpt lat="44.3489652" lon="8.2961694"><ele>377.0</ele><time>2026-04-19T10:02:31.151Z</time></trkpt><trkpt lat="44.3488902" lon="8.2962246"><ele>376.40000000000003</ele><time>2026-04-19T10:02:33.15Z</time></trkpt><trkpt lat="44.3488088" lon="8.2963005"><ele>375.8</ele><time>2026-04-19T10:02:35.151Z</time></trkpt><trkpt lat="44.3487233" lon="8.2963328"><ele>375.2</ele><time>2026-04-19T10:02:37.15Z</time></trkpt><trkpt lat="44.3486464" lon="8.296392"><ele>374.6</ele><time>2026-04-19T10:02:39.151Z</time></trkpt><trkpt lat="44.3485667" lon="8.2964548"><ele>374.0</ele><time>2026-04-19T10:02:41.151Z</time></trkpt><trkpt lat="44.3484814" lon="8.2964977"><ele>374.0</ele><time>2026-04-19T10:02:43.151Z</time></trkpt><trkpt lat="44.3483979" lon="8.2965365"><ele>374.0</ele><time>2026-04-19T10:02:45.15Z</time></trkpt><trkpt lat="44.3483145" lon="8.2965579"><ele>374.0</ele><time>2026-04-19T10:02:47.15Z</time></trkpt><trkpt lat="44.348232" lon="8.2965636"><ele>374.0</ele><time>2026-04-19T10:02:49.151Z</time></trkpt><trkpt lat="44.3481433" lon="8.2965811"><ele>374.0</ele><time>2026-04-19T10:02:51.15Z</time></trkpt><trkpt lat="44.3480557" lon="8.2965735"><ele>374.0</ele><time>2026-04-19T10:02:53.15Z</time></trkpt><trkpt lat="44.3479715" lon="8.2965866"><ele>375.0</ele><time>2026-04-19T10:02:55.15Z</time></trkpt><trkpt lat="44.3478897" lon="8.296603"><ele>376.0</ele><time>2026-04-19T10:02:57.15Z</time></trkpt><trkpt lat="44.3478103" lon="8.2966076"><ele>377.0</ele><time>2026-04-19T10:02:59.151Z</time></trkpt><trkpt lat="44.3477271" lon="8.2966139"><ele>378.0</ele><time>2026-04-19T10:03:01.149Z</time></trkpt><trkpt lat="44.3476433" lon="8.2966312"><ele>379.0</ele><time>2026-04-19T10:03:03.151Z</time></trkpt><trkpt lat="44.3475633" lon="8.2966489"><ele>380.0</ele><time>2026-04-19T10:03:05.149Z</time></trkpt><trkpt lat="44.3474896" lon="8.296656"><ele>380.0</ele><time>2026-04-19T10:03:07.15Z</time></trkpt><trkpt lat="44.3474144" lon="8.2966663"><ele>380.0</ele><time>2026-04-19T10:03:09.15Z</time></trkpt><trkpt lat="44.3473376" lon="8.296674"><ele>380.0</ele><time>2026-04-19T10:03:11.151Z</time></trkpt><trkpt lat="44.3472586" lon="8.296677"><ele>380.0</ele><time>2026-04-19T10:03:13.149Z</time></trkpt><trkpt lat="44.34718" lon="8.2966897"><ele>380.0</ele><time>2026-04-19T10:03:15.151Z</time></trkpt><trkpt lat="44.3470993" lon="8.2967092"><ele>380.0</ele><time>2026-04-19T10:03:17.15Z</time></trkpt><trkpt lat="44.3470204" lon="8.2967348"><ele>380.5</ele><time>2026-04-19T10:03:19.151Z</time></trkpt><trkpt lat="44.3469458" lon="8.2967644"><ele>381.0</ele><time>2026-04-19T10:03:21.15Z</time></trkpt><trkpt lat="44.346868" lon="8.2967814"><ele>381.5</ele><time>2026-04-19T10:03:23.151Z</time></trkpt><trkpt lat="44.346788" lon="8.2967932"><ele>382.0</ele><time>2026-04-19T10:03:25.151Z</time></trkpt><trkpt lat="44.3467118" lon="8.2968012"><ele>382.5</ele><time>2026-04-19T10:03:27.151Z</time></trkpt><trkpt lat="44.3466274" lon="8.2968089"><ele>383.0</ele><time>2026-04-19T10:03:29.151Z</time></trkpt><trkpt lat="44.34653" lon="8.2968215"><ele>383.0</ele><time>2026-04-19T10:03:31.151Z</time></trkpt><trkpt lat="44.3464425" lon="8.2968405"><ele>383.0</ele><time>2026-04-19T10:03:33.151Z</time></trkpt><trkpt lat="44.3463573" lon="8.2968545"><ele>383.0</ele><time>2026-04-19T10:03:35.15Z</time></trkpt><trkpt lat="44.3462733" lon="8.2968781"><ele>383.0</ele><time>2026-04-19T10:03:37.15Z</time></trkpt><trkpt lat="44.3461966" lon="8.2968949"><ele>383.0</ele><time>2026-04-19T10:03:39.151Z</time></trkpt><trkpt lat="44.3461185" lon="8.2969248"><ele>383.0</ele><time>2026-04-19T10:03:41.15Z</time></trkpt><trkpt lat="44.3460286" lon="8.2969791"><ele>383.0</ele><time>2026-04-19T10:03:43.149Z</time></trkpt><trkpt lat="44.3459502" lon="8.2970358"><ele>383.0</ele><time>2026-04-19T10:03:45.15Z</time></trkpt><trkpt lat="44.3458804" lon="8.2971124"><ele>383.0</ele><time>2026-04-19T10:03:47.151Z</time></trkpt><trkpt lat="44.345816" lon="8.2971946"><ele>383.0</ele><time>2026-04-19T10:03:49.15Z</time></trkpt><trkpt lat="44.3457536" lon="8.2972896"><ele>383.0</ele><time>2026-04-19T10:03:51.15Z</time></trkpt><trkpt lat="44.3456943" lon="8.2973796"><ele>383.0</ele><time>2026-04-19T10:03:53.15Z</time></trkpt><trkpt lat="44.3456306" lon="8.297456"><ele>383.0</ele><time>2026-04-19T10:03:55.15Z</time></trkpt><trkpt lat="44.345567" lon="8.2975428"><ele>383.0</ele><time>2026-04-19T10:03:57.15Z</time></trkpt><trkpt lat="44.3455047" lon="8.2976322"><ele>383.0</ele><time>2026-04-19T10:03:59.15Z</time></trkpt><trkpt lat="44.3454486" lon="8.2977113"><ele>383.0</ele><time>2026-04-19T10:04:01.151Z</time></trkpt><trkpt lat="44.345382" lon="8.2978023"><ele>383.0</ele><time>2026-04-19T10:04:03.149Z</time></trkpt><trkpt lat="44.3453237" lon="8.2978983"><ele>383.0</ele><time>2026-04-19T10:04:05.149Z</time></trkpt><trkpt lat="44.3452755" lon="8.2980074"><ele>384.33333333333337</ele><time>2026-04-19T10:04:07.151Z</time></trkpt><trkpt lat="44.345242" lon="8.2981374"><ele>385.6666666666667</ele><time>2026-04-19T10:04:09.15Z</time></trkpt><trkpt lat="44.3452238" lon="8.2982695"><ele>387.0</ele><time>2026-04-19T10:04:11.15Z</time></trkpt><trkpt lat="44.3452124" lon="8.298385"><ele>388.33333333333337</ele><time>2026-04-19T10:04:13.149Z</time></trkpt><trkpt lat="44.3451974" lon="8.2985002"><ele>389.6666666666667</ele><time>2026-04-19T10:04:15.149Z</time></trkpt><trkpt lat="44.3451968" lon="8.2986168"><ele>391.0</ele><time>2026-04-19T10:04:17.149Z</time></trkpt><trkpt lat="44.3452076" lon="8.2987314"><ele>390.99999999999994</ele><time>2026-04-19T10:04:19.149Z</time></trkpt><trkpt lat="44.3452177" lon="8.2988272"><ele>391.0</ele><time>2026-04-19T10:04:21.15Z</time></trkpt><trkpt lat="44.3452441" lon="8.2989308"><ele>391.0</ele><time>2026-04-19T10:04:23.15Z</time></trkpt><trkpt lat="44.3452629" lon="8.2990277"><ele>391.0</ele><time>2026-04-19T10:04:25.151Z</time></trkpt><trkpt lat="44.3452935" lon="8.299114"><ele>391.0</ele><time>2026-04-19T10:04:27.149Z</time></trkpt><trkpt lat="44.3453197" lon="8.2992047"><ele>390.99999999999994</ele><time>2026-04-19T10:04:29.151Z</time></trkpt><trkpt lat="44.3453478" lon="8.2992854"><ele>391.0</ele><time>2026-04-19T10:04:31.148Z</time></trkpt><trkpt lat="44.3453809" lon="8.2993651"><ele>391.57142857142856</ele><time>2026-04-19T10:04:33.15Z</time></trkpt><trkpt lat="44.3454108" lon="8.2994509"><ele>392.1428571428571</ele><time>2026-04-19T10:04:35.149Z</time></trkpt><trkpt lat="44.3454516" lon="8.2995365"><ele>392.71428571428567</ele><time>2026-04-19T10:04:37.151Z</time></trkpt><trkpt lat="44.3454882" lon="8.2996112"><ele>393.2857142857143</ele><time>2026-04-19T10:04:39.149Z</time></trkpt><trkpt lat="44.3455308" lon="8.2996884"><ele>393.8571428571429</ele><time>2026-04-19T10:04:41.149Z</time></trkpt><trkpt lat="44.3455762" lon="8.2997666"><ele>394.4285714285714</ele><time>2026-04-19T10:04:43.151Z</time></trkpt><trkpt lat="44.3456346" lon="8.2998299"><ele>395.0</ele><time>2026-04-19T10:04:45.151Z</time></trkpt><trkpt lat="44.3457061" lon="8.2998867"><ele>395.1428571428571</ele><time>2026-04-19T10:04:47.15Z</time></trkpt><trkpt lat="44.3457711" lon="8.2999206"><ele>395.28571428571433</ele><time>2026-04-19T10:04:49.15Z</time></trkpt><trkpt lat="44.3458347" lon="8.2999666"><ele>395.42857142857144</ele><time>2026-04-19T10:04:51.151Z</time></trkpt><trkpt lat="44.3459018" lon="8.3000084"><ele>395.57142857142856</ele><time>2026-04-19T10:04:53.149Z</time></trkpt><trkpt lat="44.3459795" lon="8.3000454"><ele>395.71428571428567</ele><time>2026-04-19T10:04:55.151Z</time></trkpt><trkpt lat="44.3460555" lon="8.3000754"><ele>395.8571428571429</ele><time>2026-04-19T10:04:57.15Z</time></trkpt><trkpt lat="44.3461235" lon="8.300113"><ele>396.0</ele><time>2026-04-19T10:04:59.151Z</time></trkpt><trkpt lat="44.3461964" lon="8.3001787"><ele>396.0</ele><time>2026-04-19T10:05:01.149Z</time></trkpt><trkpt lat="44.346262" lon="8.3002641"><ele>396.0</ele><time>2026-04-19T10:05:03.15Z</time></trkpt><trkpt lat="44.3463195" lon="8.3003531"><ele>396.0</ele><time>2026-04-19T10:05:05.15Z</time></trkpt><trkpt lat="44.3463685" lon="8.300455"><ele>396.0</ele><time>2026-04-19T10:05:07.15Z</time></trkpt><trkpt lat="44.3464118" lon="8.3005695"><ele>396.0</ele><time>2026-04-19T10:05:09.151Z</time></trkpt><trkpt lat="44.3464566" lon="8.3006834"><ele>396.0</ele><time>2026-04-19T10:05:11.151Z</time></trkpt><trkpt lat="44.3465056" lon="8.3007942"><ele>395.6</ele><time>2026-04-19T10:05:13.15Z</time></trkpt><trkpt lat="44.3465478" lon="8.3009136"><ele>395.20000000000005</ele><time>2026-04-19T10:05:15.15Z</time></trkpt><trkpt lat="44.3465851" lon="8.3010435"><ele>394.79999999999995</ele><time>2026-04-19T10:05:17.15Z</time></trkpt><trkpt lat="44.3466397" lon="8.3011652"><ele>394.4</ele><time>2026-04-19T10:05:19.15Z</time></trkpt><trkpt lat="44.3466817" lon="8.3012868"><ele>394.0</ele><time>2026-04-19T10:05:21.149Z</time></trkpt><trkpt lat="44.3467335" lon="8.3014097"><ele>395.6</ele><time>2026-04-19T10:05:23.15Z</time></trkpt><trkpt lat="44.3467849" lon="8.3015408"><ele>397.2</ele><time>2026-04-19T10:05:25.15Z</time></trkpt><trkpt lat="44.3468369" lon="8.3016603"><ele>398.8</ele><time>2026-04-19T10:05:27.148Z</time></trkpt><trkpt lat="44.3469073" lon="8.3017824"><ele>400.40000000000003</ele><time>2026-04-19T10:05:29.15Z</time></trkpt><trkpt lat="44.3469382" lon="8.3019017"><ele>402.0</ele><time>2026-04-19T10:05:31.151Z</time></trkpt><trkpt lat="44.3469763" lon="8.3020244"><ele>402.0</ele><time>2026-04-19T10:05:33.149Z</time></trkpt><trkpt lat="44.3470379" lon="8.3021434"><ele>402.0</ele><time>2026-04-19T10:05:35.149Z</time></trkpt><trkpt lat="44.3471294" lon="8.302277"><ele>402.0</ele><time>2026-04-19T10:05:37.15Z</time></trkpt><trkpt lat="44.3471309" lon="8.3024066"><ele>402.0</ele><time>2026-04-19T10:05:39.149Z</time></trkpt><trkpt lat="44.3471102" lon="8.3025341"><ele>402.0</ele><time>2026-04-19T10:05:41.149Z</time></trkpt><trkpt lat="44.3470793" lon="8.3026178"><ele>402.5</ele><time>2026-04-19T10:05:43.151Z</time></trkpt><trkpt lat="44.3470483" lon="8.3026959"><ele>403.0</ele><time>2026-04-19T10:05:45.151Z</time></trkpt><trkpt lat="44.3470188" lon="8.3027852"><ele>403.5</ele><time>2026-04-19T10:05:47.149Z</time></trkpt><trkpt lat="44.3469875" lon="8.3028912"><ele>404.0</ele><time>2026-04-19T10:05:49.151Z</time></trkpt><trkpt lat="44.3469556" lon="8.3030018"><ele>404.5</ele><time>2026-04-19T10:05:51.15Z</time></trkpt><trkpt lat="44.3469281" lon="8.3031085"><ele>405.0</ele><time>2026-04-19T10:05:53.151Z</time></trkpt><trkpt lat="44.3469173" lon="8.3032204"><ele>405.1666666666667</ele><time>2026-04-19T10:05:55.15Z</time></trkpt><trkpt lat="44.3469154" lon="8.3033451"><ele>405.33333333333337</ele><time>2026-04-19T10:05:57.15Z</time></trkpt><trkpt lat="44.3469146" lon="8.3034625"><ele>405.5</ele><time>2026-04-19T10:05:59.15Z</time></trkpt><trkpt lat="44.3469086" lon="8.3035858"><ele>405.6666666666667</ele><time>2026-04-19T10:06:01.15Z</time></trkpt><trkpt lat="44.3468907" lon="8.3036998"><ele>405.83333333333337</ele><time>2026-04-19T10:06:03.151Z</time></trkpt><trkpt lat="44.3468653" lon="8.3038006"><ele>406.0</ele><time>2026-04-19T10:06:05.149Z</time></trkpt><trkpt lat="44.346824" lon="8.3039066"><ele>405.6</ele><time>2026-04-19T10:06:07.149Z</time></trkpt><trkpt lat="44.3467768" lon="8.3040191"><ele>405.20000000000005</ele><time>2026-04-19T10:06:09.15Z</time></trkpt><trkpt lat="44.3467405" lon="8.3041405"><ele>404.79999999999995</ele><time>2026-04-19T10:06:11.149Z</time></trkpt><trkpt lat="44.3467062" lon="8.3042608"><ele>404.4</ele><time>2026-04-19T10:06:13.15Z</time></trkpt><trkpt lat="44.3466837" lon="8.3043913"><ele>404.0</ele><time>2026-04-19T10:06:15.15Z</time></trkpt><trkpt lat="44.3466746" lon="8.3045132"><ele>404.0</ele><time>2026-04-19T10:06:17.148Z</time></trkpt><trkpt lat="44.3466796" lon="8.3046233"><ele>404.0</ele><time>2026-04-19T10:06:19.149Z</time></trkpt><trkpt lat="44.3467208" lon="8.3047354"><ele>404.0</ele><time>2026-04-19T10:06:21.15Z</time></trkpt><trkpt lat="44.3467767" lon="8.3048468"><ele>404.0</ele><time>2026-04-19T10:06:23.15Z</time></trkpt><trkpt lat="44.3467961" lon="8.3049886"><ele>404.0</ele><time>2026-04-19T10:06:25.148Z</time></trkpt><trkpt lat="44.3468076" lon="8.305138"><ele>403.75</ele><time>2026-04-19T10:06:27.15Z</time></trkpt><trkpt lat="44.3468203" lon="8.3052894"><ele>403.5</ele><time>2026-04-19T10:06:29.149Z</time></trkpt><trkpt lat="44.3468402" lon="8.3054452"><ele>403.25</ele><time>2026-04-19T10:06:31.15Z</time></trkpt><trkpt lat="44.3468501" lon="8.3055982"><ele>403.0</ele><time>2026-04-19T10:06:33.15Z</time></trkpt><trkpt lat="44.3468586" lon="8.3057687"><ele>402.2</ele><time>2026-04-19T10:06:35.151Z</time></trkpt><trkpt lat="44.3468704" lon="8.3059357"><ele>401.4</ele><time>2026-04-19T10:06:37.15Z</time></trkpt><trkpt lat="44.3468744" lon="8.3060237"><ele>400.59999999999997</ele><time>2026-04-19T10:06:38.151Z</time></trkpt><trkpt lat="44.3468885" lon="8.306194"><ele>399.79999999999995</ele><time>2026-04-19T10:06:40.151Z</time></trkpt><trkpt lat="44.3468932" lon="8.3063657"><ele>399.0</ele><time>2026-04-19T10:06:42.149Z</time></trkpt><trkpt lat="44.3469179" lon="8.3065326"><ele>398.2</ele><time>2026-04-19T10:06:44.15Z</time></trkpt><trkpt lat="44.3469341" lon="8.3066211"><ele>397.4</ele><time>2026-04-19T10:06:45.15Z</time></trkpt><trkpt lat="44.346973" lon="8.3067861"><ele>396.6</ele><time>2026-04-19T10:06:47.15Z</time></trkpt><trkpt lat="44.3470324" lon="8.3069281"><ele>395.8</ele><time>2026-04-19T10:06:49.15Z</time></trkpt><trkpt lat="44.3470562" lon="8.3070097"><ele>395.0</ele><time>2026-04-19T10:06:50.15Z</time></trkpt><trkpt lat="44.3471153" lon="8.3071463"><ele>394.3333333333333</ele><time>2026-04-19T10:06:52.15Z</time></trkpt><trkpt lat="44.3471761" lon="8.3073002"><ele>393.66666666666663</ele><time>2026-04-19T10:06:54.149Z</time></trkpt><trkpt lat="44.3472299" lon="8.307439"><ele>393.0</ele><time>2026-04-19T10:06:56.149Z</time></trkpt><trkpt lat="44.3472601" lon="8.3075179"><ele>392.33333333333337</ele><time>2026-04-19T10:06:57.149Z</time></trkpt><trkpt lat="44.347298" lon="8.3075908"><ele>391.6666666666667</ele><time>2026-04-19T10:06:58.15Z</time></trkpt><trkpt lat="44.3473255" lon="8.3076703"><ele>391.0</ele><time>2026-04-19T10:06:59.151Z</time></trkpt><trkpt lat="44.3473805" lon="8.3078434"><ele>391.6666666666667</ele><time>2026-04-19T10:07:01.149Z</time></trkpt><trkpt lat="44.3473977" lon="8.3080174"><ele>392.33333333333337</ele><time>2026-04-19T10:07:03.149Z</time></trkpt><trkpt lat="44.3474118" lon="8.3081265"><ele>393.0</ele><time>2026-04-19T10:07:04.15Z</time></trkpt><trkpt lat="44.3474311" lon="8.3082178"><ele>393.66666666666663</ele><time>2026-04-19T10:07:05.15Z</time></trkpt><trkpt lat="44.3474295" lon="8.3083251"><ele>394.3333333333333</ele><time>2026-04-19T10:07:06.15Z</time></trkpt><trkpt lat="44.347414" lon="8.3084341"><ele>395.0</ele><time>2026-04-19T10:07:07.15Z</time></trkpt><trkpt lat="44.3474081" lon="8.3085438"><ele>395.0</ele><time>2026-04-19T10:07:08.149Z</time></trkpt><trkpt lat="44.3473789" lon="8.3086495"><ele>395.0</ele><time>2026-04-19T10:07:09.149Z</time></trkpt><trkpt lat="44.3473547" lon="8.308748"><ele>395.0</ele><time>2026-04-19T10:07:10.148Z</time></trkpt><trkpt lat="44.347314" lon="8.3088286"><ele>395.0</ele><time>2026-04-19T10:07:11.15Z</time></trkpt><trkpt lat="44.3472717" lon="8.3088991"><ele>395.0</ele><time>2026-04-19T10:07:12.15Z</time></trkpt><trkpt lat="44.3472114" lon="8.3089626"><ele>395.0</ele><time>2026-04-19T10:07:13.15Z</time></trkpt><trkpt lat="44.3471666" lon="8.3090362"><ele>395.0</ele><time>2026-04-19T10:07:14.149Z</time></trkpt><trkpt lat="44.3471198" lon="8.3091124"><ele>394.3333333333333</ele><time>2026-04-19T10:07:15.15Z</time></trkpt><trkpt lat="44.3470714" lon="8.3092042"><ele>393.66666666666663</ele><time>2026-04-19T10:07:16.15Z</time></trkpt><trkpt lat="44.3470352" lon="8.3092974"><ele>393.0</ele><time>2026-04-19T10:07:17.15Z</time></trkpt><trkpt lat="44.3469933" lon="8.3093893"><ele>392.33333333333337</ele><time>2026-04-19T10:07:18.15Z</time></trkpt><trkpt lat="44.3469716" lon="8.3094905"><ele>391.6666666666667</ele><time>2026-04-19T10:07:19.149Z</time></trkpt><trkpt lat="44.346947" lon="8.3095975"><ele>391.0</ele><time>2026-04-19T10:07:20.149Z</time></trkpt><trkpt lat="44.3469229" lon="8.3096966"><ele>391.00000000000006</ele><time>2026-04-19T10:07:21.149Z</time></trkpt><trkpt lat="44.346886" lon="8.3098022"><ele>391.0</ele><time>2026-04-19T10:07:22.15Z</time></trkpt><trkpt lat="44.3468737" lon="8.309902"><ele>391.0</ele><time>2026-04-19T10:07:23.151Z</time></trkpt><trkpt lat="44.3468775" lon="8.3100516"><ele>391.0</ele><time>2026-04-19T10:07:24.15Z</time></trkpt><trkpt lat="44.3468718" lon="8.3101611"><ele>391.00000000000006</ele><time>2026-04-19T10:07:25.149Z</time></trkpt><trkpt lat="44.3468825" lon="8.3102672"><ele>391.0</ele><time>2026-04-19T10:07:26.15Z</time></trkpt><trkpt lat="44.3468593" lon="8.3103703"><ele>391.0</ele><time>2026-04-19T10:07:27.15Z</time></trkpt><trkpt lat="44.3468551" lon="8.3105088"><ele>391.0</ele><time>2026-04-19T10:07:28.151Z</time></trkpt><trkpt lat="44.3468538" lon="8.3107048"><ele>391.0</ele><time>2026-04-19T10:07:30.149Z</time></trkpt><trkpt lat="44.3468704" lon="8.3108019"><ele>391.0</ele><time>2026-04-19T10:07:31.15Z</time></trkpt><trkpt lat="44.3468703" lon="8.3109161"><ele>391.0</ele><time>2026-04-19T10:07:32.15Z</time></trkpt><trkpt lat="44.3469102" lon="8.3110324"><ele>390.6666666666667</ele><time>2026-04-19T10:07:33.15Z</time></trkpt><trkpt lat="44.3469231" lon="8.3111545"><ele>390.33333333333337</ele><time>2026-04-19T10:07:34.15Z</time></trkpt><trkpt lat="44.346926" lon="8.3112669"><ele>390.0</ele><time>2026-04-19T10:07:35.15Z</time></trkpt><trkpt lat="44.3469035" lon="8.3113923"><ele>389.66666666666663</ele><time>2026-04-19T10:07:36.15Z</time></trkpt><trkpt lat="44.3468946" lon="8.3115007"><ele>389.3333333333333</ele><time>2026-04-19T10:07:37.15Z</time></trkpt><trkpt lat="44.3468889" lon="8.3116142"><ele>389.0</ele><time>2026-04-19T10:07:38.15Z</time></trkpt><trkpt lat="44.346857" lon="8.3117659"><ele>388.6</ele><time>2026-04-19T10:07:39.15Z</time></trkpt><trkpt lat="44.3468705" lon="8.3119048"><ele>388.2</ele><time>2026-04-19T10:07:40.15Z</time></trkpt><trkpt lat="44.3468717" lon="8.3120478"><ele>387.8</ele><time>2026-04-19T10:07:41.151Z</time></trkpt><trkpt lat="44.3469" lon="8.3121673"><ele>387.40000000000003</ele><time>2026-04-19T10:07:42.15Z</time></trkpt><trkpt lat="44.3469038" lon="8.3122916"><ele>387.0</ele><time>2026-04-19T10:07:43.15Z</time></trkpt><trkpt lat="44.3468763" lon="8.3124208"><ele>387.0</ele><time>2026-04-19T10:07:44.151Z</time></trkpt><trkpt lat="44.3468543" lon="8.3125448"><ele>387.0</ele><time>2026-04-19T10:07:45.15Z</time></trkpt><trkpt lat="44.3467872" lon="8.3127103"><ele>387.0</ele><time>2026-04-19T10:07:47.15Z</time></trkpt><trkpt lat="44.3467697" lon="8.3128247"><ele>387.0</ele><time>2026-04-19T10:07:48.149Z</time></trkpt><trkpt lat="44.3467444" lon="8.3129273"><ele>387.0</ele><time>2026-04-19T10:07:49.15Z</time></trkpt><trkpt lat="44.3467174" lon="8.3130313"><ele>386.14285714285717</ele><time>2026-04-19T10:07:50.15Z</time></trkpt><trkpt lat="44.3466785" lon="8.3131365"><ele>385.28571428571433</ele><time>2026-04-19T10:07:51.15Z</time></trkpt><trkpt lat="44.346644" lon="8.3132508"><ele>384.42857142857144</ele><time>2026-04-19T10:07:52.15Z</time></trkpt><trkpt lat="44.346633" lon="8.3133431"><ele>383.57142857142856</ele><time>2026-04-19T10:07:53.149Z</time></trkpt><trkpt lat="44.3466007" lon="8.3134344"><ele>382.7142857142857</ele><time>2026-04-19T10:07:54.15Z</time></trkpt><trkpt lat="44.3465675" lon="8.3135146"><ele>381.85714285714283</ele><time>2026-04-19T10:07:55.15Z</time></trkpt><trkpt lat="44.3465426" lon="8.3136015"><ele>381.0</ele><time>2026-04-19T10:07:56.15Z</time></trkpt><trkpt lat="44.3464777" lon="8.3137551"><ele>381.0</ele><time>2026-04-19T10:07:58.149Z</time></trkpt><trkpt lat="44.3464029" lon="8.3138992"><ele>381.0</ele><time>2026-04-19T10:08:00.15Z</time></trkpt><trkpt lat="44.346364" lon="8.31397"><ele>381.0</ele><time>2026-04-19T10:08:01.15Z</time></trkpt><trkpt lat="44.3463581" lon="8.3140782"><ele>381.0</ele><time>2026-04-19T10:08:02.15Z</time></trkpt><trkpt lat="44.3463261" lon="8.3141595"><ele>381.0</ele><time>2026-04-19T10:08:03.15Z</time></trkpt><trkpt lat="44.3462609" lon="8.3143002"><ele>381.8</ele><time>2026-04-19T10:08:05.15Z</time></trkpt><trkpt lat="44.3461928" lon="8.3144424"><ele>382.6</ele><time>2026-04-19T10:08:07.15Z</time></trkpt><trkpt lat="44.3461625" lon="8.3145335"><ele>383.4</ele><time>2026-04-19T10:08:08.149Z</time></trkpt><trkpt lat="44.3461024" lon="8.3146844"><ele>384.2</ele><time>2026-04-19T10:08:10.149Z</time></trkpt><trkpt lat="44.3460454" lon="8.314838"><ele>385.0</ele><time>2026-04-19T10:08:12.149Z</time></trkpt><trkpt lat="44.3459904" lon="8.3149958"><ele>385.0</ele><time>2026-04-19T10:08:14.149Z</time></trkpt><trkpt lat="44.3459523" lon="8.3151575"><ele>385.0</ele><time>2026-04-19T10:08:16.15Z</time></trkpt><trkpt lat="44.3459175" lon="8.3153192"><ele>385.0</ele><time>2026-04-19T10:08:18.15Z</time></trkpt><trkpt lat="44.3459044" lon="8.3154064"><ele>385.0</ele><time>2026-04-19T10:08:19.149Z</time></trkpt><trkpt lat="44.3458746" lon="8.3155673"><ele>385.0</ele><time>2026-04-19T10:08:21.15Z</time></trkpt><trkpt lat="44.345843" lon="8.3157027"><ele>384.5</ele><time>2026-04-19T10:08:23.149Z</time></trkpt><trkpt lat="44.3458081" lon="8.3158404"><ele>384.0</ele><time>2026-04-19T10:08:25.149Z</time></trkpt><trkpt lat="44.3457823" lon="8.3160003"><ele>383.5</ele><time>2026-04-19T10:08:27.148Z</time></trkpt><trkpt lat="44.3457534" lon="8.3161516"><ele>383.0</ele><time>2026-04-19T10:08:29.149Z</time></trkpt><trkpt lat="44.3457239" lon="8.3163134"><ele>381.75</ele><time>2026-04-19T10:08:31.149Z</time></trkpt><trkpt lat="44.345695" lon="8.3164726"><ele>380.5</ele><time>2026-04-19T10:08:33.149Z</time></trkpt><trkpt lat="44.3456668" lon="8.3166288"><ele>379.25</ele><time>2026-04-19T10:08:35.149Z</time></trkpt><trkpt lat="44.3456373" lon="8.3167931"><ele>378.0</ele><time>2026-04-19T10:08:37.15Z</time></trkpt><trkpt lat="44.3456054" lon="8.3169476"><ele>378.0</ele><time>2026-04-19T10:08:39.149Z</time></trkpt><trkpt lat="44.3455782" lon="8.3170984"><ele>378.0</ele><time>2026-04-19T10:08:41.15Z</time></trkpt><trkpt lat="44.3455446" lon="8.3172385"><ele>378.0</ele><time>2026-04-19T10:08:43.149Z</time></trkpt><trkpt lat="44.3455402" lon="8.3173779"><ele>378.0</ele><time>2026-04-19T10:08:45.148Z</time></trkpt><trkpt lat="44.3455161" lon="8.3175187"><ele>378.0</ele><time>2026-04-19T10:08:47.15Z</time></trkpt><trkpt lat="44.3454883" lon="8.317657"><ele>383.2</ele><time>2026-04-19T10:08:49.15Z</time></trkpt><trkpt lat="44.3454706" lon="8.3178146"><ele>388.4</ele><time>2026-04-19T10:08:51.15Z</time></trkpt><trkpt lat="44.345441" lon="8.3179621"><ele>393.59999999999997</ele><time>2026-04-19T10:08:53.15Z</time></trkpt><trkpt lat="44.3454192" lon="8.3181131"><ele>398.79999999999995</ele><time>2026-04-19T10:08:55.149Z</time></trkpt><trkpt lat="44.3453927" lon="8.3182693"><ele>404.0</ele><time>2026-04-19T10:08:57.15Z</time></trkpt><trkpt lat="44.3453576" lon="8.3184144"><ele>404.0</ele><time>2026-04-19T10:08:59.149Z</time></trkpt><trkpt lat="44.3453323" lon="8.3185662"><ele>404.0</ele><time>2026-04-19T10:09:01.148Z</time></trkpt><trkpt lat="44.3453086" lon="8.3187159"><ele>404.0</ele><time>2026-04-19T10:09:03.15Z</time></trkpt><trkpt lat="44.3452789" lon="8.3188674"><ele>404.0</ele><time>2026-04-19T10:09:05.149Z</time></trkpt><trkpt lat="44.3452502" lon="8.3190332"><ele>404.0</ele><time>2026-04-19T10:09:07.15Z</time></trkpt><trkpt lat="44.3452458" lon="8.3191955"><ele>404.0</ele><time>2026-04-19T10:09:09.149Z</time></trkpt><trkpt lat="44.3452428" lon="8.3193495"><ele>404.0</ele><time>2026-04-19T10:09:11.15Z</time></trkpt><trkpt lat="44.3452563" lon="8.3195052"><ele>404.0</ele><time>2026-04-19T10:09:13.149Z</time></trkpt><trkpt lat="44.3452829" lon="8.3196542"><ele>404.0</ele><time>2026-04-19T10:09:15.149Z</time></trkpt><trkpt lat="44.3453147" lon="8.3197926"><ele>405.6</ele><time>2026-04-19T10:09:17.15Z</time></trkpt><trkpt lat="44.3453646" lon="8.3199249"><ele>407.2</ele><time>2026-04-19T10:09:19.15Z</time></trkpt><trkpt lat="44.345401" lon="8.3200578"><ele>408.8</ele><time>2026-04-19T10:09:21.15Z</time></trkpt><trkpt lat="44.3454379" lon="8.320187"><ele>410.40000000000003</ele><time>2026-04-19T10:09:23.148Z</time></trkpt><trkpt lat="44.3454787" lon="8.3203005"><ele>412.0</ele><time>2026-04-19T10:09:25.15Z</time></trkpt><trkpt lat="44.3454797" lon="8.3204247"><ele>410.0</ele><time>2026-04-19T10:09:27.15Z</time></trkpt><trkpt lat="44.3454818" lon="8.3205689"><ele>408.0</ele><time>2026-04-19T10:09:29.15Z</time></trkpt><trkpt lat="44.3454552" lon="8.320707"><ele>406.0</ele><time>2026-04-19T10:09:31.15Z</time></trkpt><trkpt lat="44.3454217" lon="8.3208528"><ele>404.0</ele><time>2026-04-19T10:09:33.15Z</time></trkpt><trkpt lat="44.3453641" lon="8.3209866"><ele>402.0</ele><time>2026-04-19T10:09:35.15Z</time></trkpt><trkpt lat="44.3453034" lon="8.3211172"><ele>402.0</ele><time>2026-04-19T10:09:37.15Z</time></trkpt><trkpt lat="44.3452499" lon="8.3212439"><ele>402.0</ele><time>2026-04-19T10:09:39.15Z</time></trkpt><trkpt lat="44.3452146" lon="8.321322"><ele>402.0</ele><time>2026-04-19T10:09:40.149Z</time></trkpt><trkpt lat="44.3451334" lon="8.3214182"><ele>402.0</ele><time>2026-04-19T10:09:42.149Z</time></trkpt><trkpt lat="44.3450872" lon="8.3214865"><ele>402.0</ele><time>2026-04-19T10:09:43.149Z</time></trkpt><trkpt lat="44.345034" lon="8.3215411"><ele>402.0</ele><time>2026-04-19T10:09:44.15Z</time></trkpt><trkpt lat="44.3449285" lon="8.3216455"><ele>400.75</ele><time>2026-04-19T10:09:46.149Z</time></trkpt><trkpt lat="44.3448352" lon="8.3217447"><ele>399.5</ele><time>2026-04-19T10:09:48.15Z</time></trkpt><trkpt lat="44.3447445" lon="8.3218323"><ele>398.25</ele><time>2026-04-19T10:09:50.149Z</time></trkpt><trkpt lat="44.3446594" lon="8.3219292"><ele>397.0</ele><time>2026-04-19T10:09:52.15Z</time></trkpt><trkpt lat="44.3445662" lon="8.3220221"><ele>397.0</ele><time>2026-04-19T10:09:54.147Z</time></trkpt><trkpt lat="44.3445111" lon="8.3221009"><ele>397.0</ele><time>2026-04-19T10:09:55.15Z</time></trkpt><trkpt lat="44.3444128" lon="8.3221931"><ele>397.0</ele><time>2026-04-19T10:09:57.149Z</time></trkpt><trkpt lat="44.3443253" lon="8.3222861"><ele>397.0</ele><time>2026-04-19T10:09:59.15Z</time></trkpt><trkpt lat="44.3442286" lon="8.3223256"><ele>397.0</ele><time>2026-04-19T10:10:01.15Z</time></trkpt><trkpt lat="44.3441433" lon="8.3223979"><ele>396.0</ele><time>2026-04-19T10:10:03.149Z</time></trkpt><trkpt lat="44.3440637" lon="8.3224995"><ele>395.0</ele><time>2026-04-19T10:10:05.149Z</time></trkpt><trkpt lat="44.3439813" lon="8.3226046"><ele>394.0</ele><time>2026-04-19T10:10:07.15Z</time></trkpt><trkpt lat="44.3438985" lon="8.322668"><ele>393.0</ele><time>2026-04-19T10:10:09.149Z</time></trkpt><trkpt lat="44.3438214" lon="8.3227538"><ele>392.0</ele><time>2026-04-19T10:10:11.148Z</time></trkpt><trkpt lat="44.3437343" lon="8.3228389"><ele>392.0</ele><time>2026-04-19T10:10:13.15Z</time></trkpt><trkpt lat="44.3436503" lon="8.3229392"><ele>392.0</ele><time>2026-04-19T10:10:15.148Z</time></trkpt><trkpt lat="44.3435635" lon="8.3230177"><ele>392.0</ele><time>2026-04-19T10:10:17.149Z</time></trkpt><trkpt lat="44.3434721" lon="8.3231103"><ele>392.0</ele><time>2026-04-19T10:10:19.148Z</time></trkpt><trkpt lat="44.3434258" lon="8.3231789"><ele>392.0</ele><time>2026-04-19T10:10:20.148Z</time></trkpt><trkpt lat="44.3433497" lon="8.3232707"><ele>392.20000000000005</ele><time>2026-04-19T10:10:22.149Z</time></trkpt><trkpt lat="44.3432752" lon="8.3233678"><ele>392.4</ele><time>2026-04-19T10:10:24.148Z</time></trkpt><trkpt lat="44.3431927" lon="8.3234434"><ele>392.6</ele><time>2026-04-19T10:10:26.15Z</time></trkpt><trkpt lat="44.3430877" lon="8.3234923"><ele>392.79999999999995</ele><time>2026-04-19T10:10:28.148Z</time></trkpt><trkpt lat="44.3430057" lon="8.3235933"><ele>393.0</ele><time>2026-04-19T10:10:30.148Z</time></trkpt><trkpt lat="44.3429226" lon="8.3236753"><ele>393.0</ele><time>2026-04-19T10:10:32.147Z</time></trkpt><trkpt lat="44.3428251" lon="8.3236769"><ele>393.0</ele><time>2026-04-19T10:10:34.15Z</time></trkpt><trkpt lat="44.3427219" lon="8.32367"><ele>393.0</ele><time>2026-04-19T10:10:36.15Z</time></trkpt><trkpt lat="44.3426282" lon="8.3236119"><ele>393.0</ele><time>2026-04-19T10:10:38.15Z</time></trkpt><trkpt lat="44.3425467" lon="8.323549"><ele>393.0</ele><time>2026-04-19T10:10:40.15Z</time></trkpt><trkpt lat="44.3424574" lon="8.3235568"><ele>393.0</ele><time>2026-04-19T10:10:42.149Z</time></trkpt><trkpt lat="44.3423746" lon="8.323593"><ele>393.0</ele><time>2026-04-19T10:10:44.149Z</time></trkpt><trkpt lat="44.3422893" lon="8.323635"><ele>393.0</ele><time>2026-04-19T10:10:46.15Z</time></trkpt><trkpt lat="44.3422082" lon="8.3236986"><ele>393.0</ele><time>2026-04-19T10:10:48.149Z</time></trkpt><trkpt lat="44.3421309" lon="8.3237754"><ele>393.0</ele><time>2026-04-19T10:10:50.15Z</time></trkpt><trkpt lat="44.3420669" lon="8.3238607"><ele>391.5</ele><time>2026-04-19T10:10:52.15Z</time></trkpt><trkpt lat="44.3420111" lon="8.3239339"><ele>390.0</ele><time>2026-04-19T10:10:54.149Z</time></trkpt><trkpt lat="44.3419736" lon="8.3240403"><ele>388.5</ele><time>2026-04-19T10:10:56.15Z</time></trkpt><trkpt lat="44.3419357" lon="8.3241494"><ele>387.0</ele><time>2026-04-19T10:10:58.149Z</time></trkpt><trkpt lat="44.3419153" lon="8.3242739"><ele>385.5</ele><time>2026-04-19T10:11:00.149Z</time></trkpt><trkpt lat="44.3418941" lon="8.3244062"><ele>384.0</ele><time>2026-04-19T10:11:02.15Z</time></trkpt><trkpt lat="44.341867" lon="8.3245321"><ele>384.0</ele><time>2026-04-19T10:11:04.148Z</time></trkpt><trkpt lat="44.3418399" lon="8.3246355"><ele>384.0</ele><time>2026-04-19T10:11:06.149Z</time></trkpt><trkpt lat="44.3418136" lon="8.3247492"><ele>384.0</ele><time>2026-04-19T10:11:08.15Z</time></trkpt><trkpt lat="44.341765" lon="8.3248484"><ele>384.0</ele><time>2026-04-19T10:11:10.149Z</time></trkpt><trkpt lat="44.3416826" lon="8.3249172"><ele>384.0</ele><time>2026-04-19T10:11:12.15Z</time></trkpt><trkpt lat="44.3416085" lon="8.3249763"><ele>384.0</ele><time>2026-04-19T10:11:14.15Z</time></trkpt><trkpt lat="44.3415429" lon="8.3250448"><ele>383.4</ele><time>2026-04-19T10:11:16.15Z</time></trkpt><trkpt lat="44.3414636" lon="8.3251324"><ele>382.79999999999995</ele><time>2026-04-19T10:11:18.149Z</time></trkpt><trkpt lat="44.3413945" lon="8.325198"><ele>382.20000000000005</ele><time>2026-04-19T10:11:20.149Z</time></trkpt><trkpt lat="44.3413191" lon="8.325276"><ele>381.6</ele><time>2026-04-19T10:11:22.15Z</time></trkpt><trkpt lat="44.3412298" lon="8.3253641"><ele>381.0</ele><time>2026-04-19T10:11:24.149Z</time></trkpt><trkpt lat="44.341154" lon="8.3254397"><ele>381.0</ele><time>2026-04-19T10:11:26.149Z</time></trkpt><trkpt lat="44.3410839" lon="8.3255092"><ele>381.0</ele><time>2026-04-19T10:11:28.149Z</time></trkpt><trkpt lat="44.3409984" lon="8.3255983"><ele>381.0</ele><time>2026-04-19T10:11:30.15Z</time></trkpt><trkpt lat="44.3409263" lon="8.3256779"><ele>381.0</ele><time>2026-04-19T10:11:32.15Z</time></trkpt><trkpt lat="44.3408537" lon="8.3257299"><ele>381.0</ele><time>2026-04-19T10:11:34.147Z</time></trkpt><trkpt lat="44.3407757" lon="8.3257998"><ele>381.3333333333333</ele><time>2026-04-19T10:11:36.15Z</time></trkpt><trkpt lat="44.3407034" lon="8.3258434"><ele>381.6666666666667</ele><time>2026-04-19T10:11:38.15Z</time></trkpt><trkpt lat="44.340628" lon="8.3259286"><ele>382.0</ele><time>2026-04-19T10:11:40.15Z</time></trkpt><trkpt lat="44.3405535" lon="8.3260098"><ele>382.33333333333337</ele><time>2026-04-19T10:11:42.148Z</time></trkpt><trkpt lat="44.3404877" lon="8.3260814"><ele>382.6666666666667</ele><time>2026-04-19T10:11:44.15Z</time></trkpt><trkpt lat="44.340409" lon="8.326158"><ele>383.0</ele><time>2026-04-19T10:11:46.15Z</time></trkpt><trkpt lat="44.3403181" lon="8.326236"><ele>383.0</ele><time>2026-04-19T10:11:48.149Z</time></trkpt><trkpt lat="44.3402026" lon="8.3262649"><ele>383.0</ele><time>2026-04-19T10:11:51.148Z</time></trkpt><trkpt lat="44.3401248" lon="8.3263835"><ele>383.0</ele><time>2026-04-19T10:11:53.149Z</time></trkpt><trkpt lat="44.3400368" lon="8.3264866"><ele>383.0</ele><time>2026-04-19T10:11:55.15Z</time></trkpt><trkpt lat="44.3399581" lon="8.3265475"><ele>383.0</ele><time>2026-04-19T10:11:57.15Z</time></trkpt><trkpt lat="44.3398807" lon="8.3266468"><ele>383.1666666666667</ele><time>2026-04-19T10:11:59.15Z</time></trkpt><trkpt lat="44.3398141" lon="8.3267286"><ele>383.33333333333337</ele><time>2026-04-19T10:12:01.15Z</time></trkpt><trkpt lat="44.3397514" lon="8.3268128"><ele>383.5</ele><time>2026-04-19T10:12:03.15Z</time></trkpt><trkpt lat="44.3397007" lon="8.3268858"><ele>383.6666666666667</ele><time>2026-04-19T10:12:05.149Z</time></trkpt><trkpt lat="44.339611" lon="8.3268959"><ele>383.8333333333333</ele><time>2026-04-19T10:12:07.15Z</time></trkpt><trkpt lat="44.3395234" lon="8.3269786"><ele>384.0</ele><time>2026-04-19T10:12:09.149Z</time></trkpt><trkpt lat="44.3394482" lon="8.3270682"><ele>384.0</ele><time>2026-04-19T10:12:11.15Z</time></trkpt><trkpt lat="44.3393613" lon="8.3271159"><ele>384.0</ele><time>2026-04-19T10:12:13.149Z</time></trkpt><trkpt lat="44.3393059" lon="8.3271912"><ele>384.0</ele><time>2026-04-19T10:12:15.147Z</time></trkpt><trkpt lat="44.339223" lon="8.3272761"><ele>384.0</ele><time>2026-04-19T10:12:17.149Z</time></trkpt><trkpt lat="44.3391455" lon="8.3273887"><ele>384.0</ele><time>2026-04-19T10:12:19.15Z</time></trkpt><trkpt lat="44.3390474" lon="8.3274684"><ele>384.79999999999995</ele><time>2026-04-19T10:12:21.15Z</time></trkpt><trkpt lat="44.3389816" lon="8.327514"><ele>385.59999999999997</ele><time>2026-04-19T10:12:25.149Z</time></trkpt><trkpt lat="44.3389375" lon="8.3275854"><ele>386.4</ele><time>2026-04-19T10:12:26.151Z</time></trkpt><trkpt lat="44.3388487" lon="8.3276831"><ele>387.2</ele><time>2026-04-19T10:12:28.149Z</time></trkpt><trkpt lat="44.3387656" lon="8.3277774"><ele>388.0</ele><time>2026-04-19T10:12:30.15Z</time></trkpt><trkpt lat="44.338679" lon="8.3278629"><ele>388.0</ele><time>2026-04-19T10:12:32.149Z</time></trkpt><trkpt lat="44.3386013" lon="8.3279384"><ele>388.0</ele><time>2026-04-19T10:12:34.15Z</time></trkpt><trkpt lat="44.3385538" lon="8.3280042"><ele>388.0</ele><time>2026-04-19T10:12:35.15Z</time></trkpt><trkpt lat="44.3384543" lon="8.3280982"><ele>388.0</ele><time>2026-04-19T10:12:37.149Z</time></trkpt><trkpt lat="44.3383846" lon="8.3282005"><ele>388.0</ele><time>2026-04-19T10:12:39.15Z</time></trkpt><trkpt lat="44.338295" lon="8.3283154"><ele>388.00000000000006</ele><time>2026-04-19T10:12:41.149Z</time></trkpt><trkpt lat="44.338221" lon="8.3284005"><ele>388.0</ele><time>2026-04-19T10:12:43.149Z</time></trkpt><trkpt lat="44.3381472" lon="8.3284475"><ele>388.0</ele><time>2026-04-19T10:12:45.148Z</time></trkpt><trkpt lat="44.3380875" lon="8.3284877"><ele>388.0</ele><time>2026-04-19T10:12:46.15Z</time></trkpt><trkpt lat="44.3380112" lon="8.3285775"><ele>388.00000000000006</ele><time>2026-04-19T10:12:48.149Z</time></trkpt><trkpt lat="44.3379423" lon="8.3286797"><ele>388.0</ele><time>2026-04-19T10:12:50.15Z</time></trkpt><trkpt lat="44.3378844" lon="8.3287256"><ele>388.00000000000006</ele><time>2026-04-19T10:12:52.148Z</time></trkpt><trkpt lat="44.3378254" lon="8.3288112"><ele>388.0</ele><time>2026-04-19T10:12:54.148Z</time></trkpt><trkpt lat="44.3377687" lon="8.3288537"><ele>388.0</ele><time>2026-04-19T10:12:56.148Z</time></trkpt><trkpt lat="44.3377122" lon="8.328951"><ele>388.0</ele><time>2026-04-19T10:12:58.15Z</time></trkpt><trkpt lat="44.337667" lon="8.3290651"><ele>388.00000000000006</ele><time>2026-04-19T10:13:00.148Z</time></trkpt><trkpt lat="44.3376066" lon="8.3291778"><ele>388.0</ele><time>2026-04-19T10:13:02.147Z</time></trkpt><trkpt lat="44.3375573" lon="8.3292821"><ele>388.0</ele><time>2026-04-19T10:13:04.15Z</time></trkpt><trkpt lat="44.3375155" lon="8.3293843"><ele>388.0</ele><time>2026-04-19T10:13:06.149Z</time></trkpt><trkpt lat="44.3374866" lon="8.3295226"><ele>388.0</ele><time>2026-04-19T10:13:08.147Z</time></trkpt><trkpt lat="44.3374584" lon="8.3296623"><ele>388.0</ele><time>2026-04-19T10:13:10.149Z</time></trkpt><trkpt lat="44.3374318" lon="8.3297474"><ele>388.0</ele><time>2026-04-19T10:13:12.148Z</time></trkpt><trkpt lat="44.33739" lon="8.32987"><ele>388.83333333333337</ele><time>2026-04-19T10:13:14.149Z</time></trkpt><trkpt lat="44.3373565" lon="8.3299768"><ele>389.6666666666667</ele><time>2026-04-19T10:13:16.149Z</time></trkpt><trkpt lat="44.3373234" lon="8.3301065"><ele>390.5</ele><time>2026-04-19T10:13:18.15Z</time></trkpt><trkpt lat="44.3373091" lon="8.3302161"><ele>391.33333333333337</ele><time>2026-04-19T10:13:20.149Z</time></trkpt><trkpt lat="44.3373034" lon="8.3303405"><ele>392.1666666666667</ele><time>2026-04-19T10:13:22.149Z</time></trkpt><trkpt lat="44.3372715" lon="8.3304523"><ele>393.0</ele><time>2026-04-19T10:13:24.15Z</time></trkpt><trkpt lat="44.33726" lon="8.3305554"><ele>393.0</ele><time>2026-04-19T10:13:26.15Z</time></trkpt><trkpt lat="44.337245" lon="8.3306713"><ele>393.0</ele><time>2026-04-19T10:13:28.148Z</time></trkpt><trkpt lat="44.3372261" lon="8.3307959"><ele>393.0</ele><time>2026-04-19T10:13:30.149Z</time></trkpt><trkpt lat="44.3372165" lon="8.3309157"><ele>393.0</ele><time>2026-04-19T10:13:32.148Z</time></trkpt><trkpt lat="44.3372122" lon="8.3310381"><ele>393.0</ele><time>2026-04-19T10:13:34.15Z</time></trkpt><trkpt lat="44.3371871" lon="8.3311436"><ele>393.0</ele><time>2026-04-19T10:13:36.149Z</time></trkpt><trkpt lat="44.337171" lon="8.3312489"><ele>393.0</ele><time>2026-04-19T10:13:38.149Z</time></trkpt><trkpt lat="44.3371557" lon="8.3313503"><ele>393.0</ele><time>2026-04-19T10:13:40.15Z</time></trkpt><trkpt lat="44.337113" lon="8.3314604"><ele>393.0</ele><time>2026-04-19T10:13:42.15Z</time></trkpt><trkpt lat="44.3370928" lon="8.3315696"><ele>393.0</ele><time>2026-04-19T10:13:44.15Z</time></trkpt><trkpt lat="44.3370881" lon="8.3316763"><ele>393.0</ele><time>2026-04-19T10:13:46.148Z</time></trkpt><trkpt lat="44.3370677" lon="8.3317969"><ele>393.0</ele><time>2026-04-19T10:13:48.149Z</time></trkpt><trkpt lat="44.3370456" lon="8.3319263"><ele>393.3333333333333</ele><time>2026-04-19T10:13:50.148Z</time></trkpt><trkpt lat="44.3370242" lon="8.3320606"><ele>393.66666666666663</ele><time>2026-04-19T10:13:52.149Z</time></trkpt><trkpt lat="44.3370053" lon="8.3321761"><ele>394.0</ele><time>2026-04-19T10:13:54.149Z</time></trkpt><trkpt lat="44.3369925" lon="8.3323041"><ele>394.3333333333333</ele><time>2026-04-19T10:13:56.149Z</time></trkpt><trkpt lat="44.3369747" lon="8.3324117"><ele>394.66666666666663</ele><time>2026-04-19T10:13:58.15Z</time></trkpt><trkpt lat="44.336947" lon="8.332517"><ele>395.0</ele><time>2026-04-19T10:14:00.149Z</time></trkpt><trkpt lat="44.3369298" lon="8.3326119"><ele>395.57142857142856</ele><time>2026-04-19T10:14:02.149Z</time></trkpt><trkpt lat="44.336926" lon="8.3327188"><ele>396.14285714285717</ele><time>2026-04-19T10:14:04.148Z</time></trkpt><trkpt lat="44.3369139" lon="8.332834"><ele>396.7142857142857</ele><time>2026-04-19T10:14:06.15Z</time></trkpt><trkpt lat="44.3368999" lon="8.3329277"><ele>397.2857142857143</ele><time>2026-04-19T10:14:08.15Z</time></trkpt><trkpt lat="44.3368797" lon="8.3330213"><ele>397.8571428571429</ele><time>2026-04-19T10:14:10.148Z</time></trkpt><trkpt lat="44.3368725" lon="8.3331225"><ele>398.42857142857144</ele><time>2026-04-19T10:14:12.149Z</time></trkpt><trkpt lat="44.3368526" lon="8.3332171"><ele>399.0</ele><time>2026-04-19T10:14:14.147Z</time></trkpt><trkpt lat="44.336829" lon="8.3333292"><ele>399.3333333333333</ele><time>2026-04-19T10:14:16.149Z</time></trkpt><trkpt lat="44.3368024" lon="8.3334579"><ele>399.66666666666663</ele><time>2026-04-19T10:14:18.149Z</time></trkpt><trkpt lat="44.3367848" lon="8.333575"><ele>400.0</ele><time>2026-04-19T10:14:20.149Z</time></trkpt><trkpt lat="44.3367603" lon="8.3336716"><ele>400.3333333333333</ele><time>2026-04-19T10:14:22.149Z</time></trkpt><trkpt lat="44.3367258" lon="8.3337755"><ele>400.66666666666663</ele><time>2026-04-19T10:14:24.148Z</time></trkpt><trkpt lat="44.3366915" lon="8.3338854"><ele>401.0</ele><time>2026-04-19T10:14:26.148Z</time></trkpt><trkpt lat="44.3366426" lon="8.3339985"><ele>401.8</ele><time>2026-04-19T10:14:28.149Z</time></trkpt><trkpt lat="44.3366069" lon="8.3341004"><ele>402.6</ele><time>2026-04-19T10:14:30.148Z</time></trkpt><trkpt lat="44.3365725" lon="8.3342326"><ele>403.4</ele><time>2026-04-19T10:14:32.15Z</time></trkpt><trkpt lat="44.336549" lon="8.3343735"><ele>404.2</ele><time>2026-04-19T10:14:34.147Z</time></trkpt><trkpt lat="44.3365094" lon="8.3345009"><ele>405.0</ele><time>2026-04-19T10:14:36.149Z</time></trkpt><trkpt lat="44.3364769" lon="8.3346196"><ele>406.0</ele><time>2026-04-19T10:14:38.148Z</time></trkpt><trkpt lat="44.3364439" lon="8.3347516"><ele>407.0</ele><time>2026-04-19T10:14:40.148Z</time></trkpt><trkpt lat="44.3364195" lon="8.3348696"><ele>408.0</ele><time>2026-04-19T10:14:42.149Z</time></trkpt><trkpt lat="44.3363906" lon="8.3349716"><ele>409.0</ele><time>2026-04-19T10:14:44.149Z</time></trkpt><trkpt lat="44.3363555" lon="8.3350979"><ele>410.0</ele><time>2026-04-19T10:14:46.149Z</time></trkpt><trkpt lat="44.3363305" lon="8.3352303"><ele>408.16666666666663</ele><time>2026-04-19T10:14:48.148Z</time></trkpt><trkpt lat="44.336303" lon="8.3353283"><ele>406.3333333333333</ele><time>2026-04-19T10:14:50.148Z</time></trkpt><trkpt lat="44.3362774" lon="8.3354459"><ele>404.5</ele><time>2026-04-19T10:14:52.148Z</time></trkpt><trkpt lat="44.3362423" lon="8.3355615"><ele>402.66666666666663</ele><time>2026-04-19T10:14:54.148Z</time></trkpt><trkpt lat="44.3362143" lon="8.3356709"><ele>400.8333333333333</ele><time>2026-04-19T10:14:56.148Z</time></trkpt><trkpt lat="44.3361924" lon="8.3357728"><ele>399.0</ele><time>2026-04-19T10:14:58.148Z</time></trkpt><trkpt lat="44.336167" lon="8.3358942"><ele>399.0</ele><time>2026-04-19T10:15:00.148Z</time></trkpt><trkpt lat="44.3361384" lon="8.3360015"><ele>399.0</ele><time>2026-04-19T10:15:02.149Z</time></trkpt><trkpt lat="44.3360969" lon="8.336141"><ele>399.0</ele><time>2026-04-19T10:15:04.149Z</time></trkpt><trkpt lat="44.3360607" lon="8.3362718"><ele>399.0</ele><time>2026-04-19T10:15:06.149Z</time></trkpt><trkpt lat="44.336029" lon="8.3363897"><ele>399.0</ele><time>2026-04-19T10:15:08.149Z</time></trkpt><trkpt lat="44.3359979" lon="8.3365404"><ele>399.79999999999995</ele><time>2026-04-19T10:15:10.149Z</time></trkpt><trkpt lat="44.33597" lon="8.3366782"><ele>400.59999999999997</ele><time>2026-04-19T10:15:12.149Z</time></trkpt><trkpt lat="44.3359405" lon="8.3368209"><ele>401.4</ele><time>2026-04-19T10:15:14.149Z</time></trkpt><trkpt lat="44.3359186" lon="8.3369441"><ele>402.2</ele><time>2026-04-19T10:15:16.15Z</time></trkpt><trkpt lat="44.3358922" lon="8.3370622"><ele>403.0</ele><time>2026-04-19T10:15:18.148Z</time></trkpt><trkpt lat="44.3358684" lon="8.3371881"><ele>403.4</ele><time>2026-04-19T10:15:20.149Z</time></trkpt><trkpt lat="44.3358396" lon="8.3373089"><ele>403.79999999999995</ele><time>2026-04-19T10:15:22.149Z</time></trkpt><trkpt lat="44.335821" lon="8.3374366"><ele>404.2</ele><time>2026-04-19T10:15:24.148Z</time></trkpt><trkpt lat="44.3358072" lon="8.3375777"><ele>404.6</ele><time>2026-04-19T10:15:26.148Z</time></trkpt><trkpt lat="44.3357969" lon="8.3377058"><ele>405.0</ele><time>2026-04-19T10:15:28.149Z</time></trkpt><trkpt lat="44.3358138" lon="8.337835"><ele>405.0</ele><time>2026-04-19T10:15:30.147Z</time></trkpt><trkpt lat="44.3358093" lon="8.33797"><ele>405.0</ele><time>2026-04-19T10:15:32.149Z</time></trkpt><trkpt lat="44.3358039" lon="8.338092"><ele>405.0</ele><time>2026-04-19T10:15:34.147Z</time></trkpt><trkpt lat="44.3357994" lon="8.3381986"><ele>405.0</ele><time>2026-04-19T10:15:36.148Z</time></trkpt><trkpt lat="44.3357978" lon="8.3383084"><ele>405.0</ele><time>2026-04-19T10:15:38.147Z</time></trkpt><trkpt lat="44.3357108" lon="8.3383375"><ele>405.0</ele><time>2026-04-19T10:15:41.148Z</time></trkpt><trkpt lat="44.3356303" lon="8.3383453"><ele>407.1666666666667</ele><time>2026-04-19T10:15:43.148Z</time></trkpt><trkpt lat="44.3355469" lon="8.3383714"><ele>409.33333333333337</ele><time>2026-04-19T10:15:45.148Z</time></trkpt><trkpt lat="44.3354552" lon="8.338395"><ele>411.5</ele><time>2026-04-19T10:15:47.148Z</time></trkpt><trkpt lat="44.335374" lon="8.3384037"><ele>413.6666666666667</ele><time>2026-04-19T10:15:49.148Z</time></trkpt><trkpt lat="44.3352974" lon="8.3383998"><ele>415.83333333333337</ele><time>2026-04-19T10:15:51.149Z</time></trkpt><trkpt lat="44.3352212" lon="8.3383803"><ele>418.0</ele><time>2026-04-19T10:15:53.149Z</time></trkpt><trkpt lat="44.3351562" lon="8.338346"><ele>418.00000000000006</ele><time>2026-04-19T10:15:55.149Z</time></trkpt><trkpt lat="44.3351179" lon="8.3382625"><ele>418.0</ele><time>2026-04-19T10:15:57.147Z</time></trkpt><trkpt lat="44.3350861" lon="8.3381548"><ele>418.0</ele><time>2026-04-19T10:15:59.148Z</time></trkpt><trkpt lat="44.3350763" lon="8.3380147"><ele>418.0</ele><time>2026-04-19T10:16:01.147Z</time></trkpt><trkpt lat="44.3350913" lon="8.3378933"><ele>418.00000000000006</ele><time>2026-04-19T10:16:03.147Z</time></trkpt><trkpt lat="44.3350826" lon="8.3377603"><ele>418.0</ele><time>2026-04-19T10:16:05.148Z</time></trkpt><trkpt lat="44.3350891" lon="8.3376717"><ele>417.1666666666667</ele><time>2026-04-19T10:16:06.149Z</time></trkpt><trkpt lat="44.3350998" lon="8.3375152"><ele>416.33333333333337</ele><time>2026-04-19T10:16:08.149Z</time></trkpt><trkpt lat="44.335107" lon="8.3374192"><ele>415.5</ele><time>2026-04-19T10:16:09.148Z</time></trkpt><trkpt lat="44.3351124" lon="8.3373084"><ele>414.66666666666663</ele><time>2026-04-19T10:16:10.149Z</time></trkpt><trkpt lat="44.3351158" lon="8.3371958"><ele>413.8333333333333</ele><time>2026-04-19T10:16:11.148Z</time></trkpt><trkpt lat="44.3351159" lon="8.3370971"><ele>413.0</ele><time>2026-04-19T10:16:12.147Z</time></trkpt><trkpt lat="44.3350885" lon="8.33692"><ele>411.49999999999994</ele><time>2026-04-19T10:16:14.149Z</time></trkpt><trkpt lat="44.3350562" lon="8.336812"><ele>410.0</ele><time>2026-04-19T10:16:15.149Z</time></trkpt><trkpt lat="44.3350352" lon="8.3366899"><ele>408.5</ele><time>2026-04-19T10:16:16.149Z</time></trkpt><trkpt lat="44.3350168" lon="8.3365661"><ele>407.0</ele><time>2026-04-19T10:16:17.148Z</time></trkpt><trkpt lat="44.3350044" lon="8.3364489"><ele>405.49999999999994</ele><time>2026-04-19T10:16:18.149Z</time></trkpt><trkpt lat="44.335006" lon="8.3363369"><ele>404.0</ele><time>2026-04-19T10:16:19.147Z</time></trkpt><trkpt lat="44.3350145" lon="8.3362276"><ele>403.99999999999994</ele><time>2026-04-19T10:16:20.149Z</time></trkpt><trkpt lat="44.3350304" lon="8.3361127"><ele>404.0</ele><time>2026-04-19T10:16:21.148Z</time></trkpt><trkpt lat="44.3350561" lon="8.3360018"><ele>404.0</ele><time>2026-04-19T10:16:22.149Z</time></trkpt><trkpt lat="44.3350654" lon="8.3358896"><ele>404.0</ele><time>2026-04-19T10:16:23.149Z</time></trkpt><trkpt lat="44.335082" lon="8.3357779"><ele>403.99999999999994</ele><time>2026-04-19T10:16:24.147Z</time></trkpt><trkpt lat="44.335119" lon="8.3356702"><ele>404.0</ele><time>2026-04-19T10:16:25.148Z</time></trkpt><trkpt lat="44.3351378" lon="8.3355284"><ele>404.66666666666663</ele><time>2026-04-19T10:16:26.147Z</time></trkpt><trkpt lat="44.3351544" lon="8.3354178"><ele>405.3333333333333</ele><time>2026-04-19T10:16:27.148Z</time></trkpt><trkpt lat="44.3351664" lon="8.3352967"><ele>406.0</ele><time>2026-04-19T10:16:28.148Z</time></trkpt><trkpt lat="44.3351795" lon="8.3352046"><ele>406.66666666666663</ele><time>2026-04-19T10:16:29.148Z</time></trkpt><trkpt lat="44.3352149" lon="8.3350505"><ele>407.3333333333333</ele><time>2026-04-19T10:16:31.147Z</time></trkpt><trkpt lat="44.3352412" lon="8.3349546"><ele>408.0</ele><time>2026-04-19T10:16:32.148Z</time></trkpt><trkpt lat="44.3352584" lon="8.3348667"><ele>408.0</ele><time>2026-04-19T10:16:33.148Z</time></trkpt><trkpt lat="44.3352774" lon="8.334768"><ele>408.0</ele><time>2026-04-19T10:16:34.149Z</time></trkpt><trkpt lat="44.3352959" lon="8.334609"><ele>408.0</ele><time>2026-04-19T10:16:36.149Z</time></trkpt><trkpt lat="44.3353251" lon="8.334495"><ele>408.0</ele><time>2026-04-19T10:16:37.148Z</time></trkpt><trkpt lat="44.3353455" lon="8.3344066"><ele>408.0</ele><time>2026-04-19T10:16:38.149Z</time></trkpt><trkpt lat="44.3353778" lon="8.3342719"><ele>408.0</ele><time>2026-04-19T10:16:40.148Z</time></trkpt><trkpt lat="44.3354176" lon="8.3341051"><ele>408.4</ele><time>2026-04-19T10:16:42.149Z</time></trkpt><trkpt lat="44.3354379" lon="8.3339614"><ele>408.79999999999995</ele><time>2026-04-19T10:16:44.149Z</time></trkpt><trkpt lat="44.3354705" lon="8.33386"><ele>409.2</ele><time>2026-04-19T10:16:45.148Z</time></trkpt><trkpt lat="44.3354905" lon="8.3337239"><ele>409.6</ele><time>2026-04-19T10:16:47.149Z</time></trkpt><trkpt lat="44.3355201" lon="8.3335508"><ele>410.0</ele><time>2026-04-19T10:16:49.148Z</time></trkpt><trkpt lat="44.3355579" lon="8.3333908"><ele>406.75</ele><time>2026-04-19T10:16:51.148Z</time></trkpt><trkpt lat="44.335569" lon="8.3332319"><ele>403.5</ele><time>2026-04-19T10:16:53.148Z</time></trkpt><trkpt lat="44.3355945" lon="8.3330813"><ele>400.25</ele><time>2026-04-19T10:16:55.149Z</time></trkpt><trkpt lat="44.3356283" lon="8.3329406"><ele>397.0</ele><time>2026-04-19T10:16:57.148Z</time></trkpt><trkpt lat="44.3356698" lon="8.3327679"><ele>396.8</ele><time>2026-04-19T10:16:59.146Z</time></trkpt><trkpt lat="44.3356988" lon="8.3326191"><ele>396.6</ele><time>2026-04-19T10:17:01.149Z</time></trkpt><trkpt lat="44.3356969" lon="8.3325043"><ele>396.40000000000003</ele><time>2026-04-19T10:17:03.149Z</time></trkpt><trkpt lat="44.3356807" lon="8.3323743"><ele>396.20000000000005</ele><time>2026-04-19T10:17:05.149Z</time></trkpt><trkpt lat="44.3356144" lon="8.3322702"><ele>396.0</ele><time>2026-04-19T10:17:07.147Z</time></trkpt><trkpt lat="44.3355271" lon="8.3321928"><ele>397.8333333333333</ele><time>2026-04-19T10:17:09.149Z</time></trkpt><trkpt lat="44.3354197" lon="8.33215"><ele>399.66666666666663</ele><time>2026-04-19T10:17:11.149Z</time></trkpt><trkpt lat="44.3353305" lon="8.3321265"><ele>401.5</ele><time>2026-04-19T10:17:13.149Z</time></trkpt><trkpt lat="44.3352482" lon="8.3321189"><ele>403.3333333333333</ele><time>2026-04-19T10:17:15.149Z</time></trkpt><trkpt lat="44.3351683" lon="8.3321292"><ele>405.16666666666663</ele><time>2026-04-19T10:17:17.149Z</time></trkpt><trkpt lat="44.3350944" lon="8.3321199"><ele>407.0</ele><time>2026-04-19T10:17:19.148Z</time></trkpt><trkpt lat="44.3350039" lon="8.3321422"><ele>406.99999999999994</ele><time>2026-04-19T10:17:22.148Z</time></trkpt><trkpt lat="44.3349343" lon="8.3321748"><ele>407.0</ele><time>2026-04-19T10:17:24.147Z</time></trkpt><trkpt lat="44.3348647" lon="8.3321766"><ele>407.0</ele><time>2026-04-19T10:17:27.148Z</time></trkpt><trkpt lat="44.3347783" lon="8.3321498"><ele>407.0</ele><time>2026-04-19T10:17:30.149Z</time></trkpt><trkpt lat="44.3346911" lon="8.3321934"><ele>406.99999999999994</ele><time>2026-04-19T10:17:33.149Z</time></trkpt><trkpt lat="44.3346068" lon="8.3322241"><ele>407.0</ele><time>2026-04-19T10:17:36.148Z</time></trkpt><trkpt lat="44.3345417" lon="8.3322257"><ele>408.7142857142857</ele><time>2026-04-19T10:17:38.148Z</time></trkpt><trkpt lat="44.334469" lon="8.3322142"><ele>410.42857142857144</ele><time>2026-04-19T10:17:40.149Z</time></trkpt><trkpt lat="44.3344057" lon="8.3322277"><ele>412.1428571428571</ele><time>2026-04-19T10:17:42.148Z</time></trkpt><trkpt lat="44.334345" lon="8.3322511"><ele>413.8571428571429</ele><time>2026-04-19T10:17:44.149Z</time></trkpt><trkpt lat="44.3342709" lon="8.3323135"><ele>415.57142857142856</ele><time>2026-04-19T10:17:47.148Z</time></trkpt><trkpt lat="44.3342096" lon="8.3323451"><ele>417.2857142857143</ele><time>2026-04-19T10:17:49.147Z</time></trkpt><trkpt lat="44.3341218" lon="8.3323906"><ele>419.0</ele><time>2026-04-19T10:17:52.148Z</time></trkpt><trkpt lat="44.3340441" lon="8.3324212"><ele>418.99999999999994</ele><time>2026-04-19T10:17:55.149Z</time></trkpt><trkpt lat="44.3339619" lon="8.3324424"><ele>419.0</ele><time>2026-04-19T10:17:58.148Z</time></trkpt><trkpt lat="44.3338724" lon="8.3324533"><ele>419.0</ele><time>2026-04-19T10:18:01.146Z</time></trkpt><trkpt lat="44.333796" lon="8.3325102"><ele>419.0</ele><time>2026-04-19T10:18:04.15Z</time></trkpt><trkpt lat="44.3337242" lon="8.3325599"><ele>418.99999999999994</ele><time>2026-04-19T10:18:07.148Z</time></trkpt><trkpt lat="44.3336554" lon="8.3326087"><ele>419.0</ele><time>2026-04-19T10:18:10.149Z</time></trkpt><trkpt lat="44.3335748" lon="8.3326789"><ele>421.8333333333333</ele><time>2026-04-19T10:18:13.149Z</time></trkpt><trkpt lat="44.3335046" lon="8.3327356"><ele>424.66666666666663</ele><time>2026-04-19T10:18:16.15Z</time></trkpt><trkpt lat="44.33344" lon="8.3327939"><ele>427.5</ele><time>2026-04-19T10:18:19.148Z</time></trkpt><trkpt lat="44.3333719" lon="8.3328521"><ele>430.33333333333337</ele><time>2026-04-19T10:18:22.148Z</time></trkpt><trkpt lat="44.3332996" lon="8.3329077"><ele>433.1666666666667</ele><time>2026-04-19T10:18:25.149Z</time></trkpt><trkpt lat="44.3332255" lon="8.3329473"><ele>436.0</ele><time>2026-04-19T10:18:28.148Z</time></trkpt><trkpt lat="44.3331483" lon="8.3329758"><ele>436.0</ele><time>2026-04-19T10:18:31.148Z</time></trkpt><trkpt lat="44.3330743" lon="8.3329827"><ele>436.0</ele><time>2026-04-19T10:18:34.146Z</time></trkpt><trkpt lat="44.3330038" lon="8.3330044"><ele>436.0</ele><time>2026-04-19T10:18:37.15Z</time></trkpt><trkpt lat="44.3329311" lon="8.3330074"><ele>436.0</ele><time>2026-04-19T10:18:40.148Z</time></trkpt><trkpt lat="44.3328689" lon="8.3330223"><ele>436.0</ele><time>2026-04-19T10:18:43.148Z</time></trkpt><trkpt lat="44.3327897" lon="8.3330348"><ele>436.0</ele><time>2026-04-19T10:18:47.15Z</time></trkpt><trkpt lat="44.332737" lon="8.332985"><ele>436.0</ele><time>2026-04-19T10:18:49.149Z</time></trkpt><trkpt lat="44.3326812" lon="8.3329364"><ele>435.00000000000006</ele><time>2026-04-19T10:18:51.147Z</time></trkpt><trkpt lat="44.3326272" lon="8.3328673"><ele>434.0</ele><time>2026-04-19T10:18:54.147Z</time></trkpt><trkpt lat="44.332584" lon="8.3327705"><ele>433.0</ele><time>2026-04-19T10:18:56.148Z</time></trkpt><trkpt lat="44.3325284" lon="8.3327184"><ele>432.0</ele><time>2026-04-19T10:18:59.148Z</time></trkpt><trkpt lat="44.3324553" lon="8.3326934"><ele>431.00000000000006</ele><time>2026-04-19T10:19:02.147Z</time></trkpt><trkpt lat="44.332388" lon="8.332687"><ele>430.0</ele><time>2026-04-19T10:19:04.149Z</time></trkpt><trkpt lat="44.3323057" lon="8.3327385"><ele>430.0</ele><time>2026-04-19T10:19:07.148Z</time></trkpt><trkpt lat="44.3322511" lon="8.3327994"><ele>430.0</ele><time>2026-04-19T10:19:09.147Z</time></trkpt><trkpt lat="44.3322099" lon="8.3328699"><ele>430.0</ele><time>2026-04-19T10:19:11.147Z</time></trkpt><trkpt lat="44.3321648" lon="8.3329524"><ele>430.0</ele><time>2026-04-19T10:19:13.149Z</time></trkpt><trkpt lat="44.3321121" lon="8.3330182"><ele>430.0</ele><time>2026-04-19T10:19:15.146Z</time></trkpt><trkpt lat="44.3320516" lon="8.3330992"><ele>430.0</ele><time>2026-04-19T10:19:17.148Z</time></trkpt><trkpt lat="44.3319898" lon="8.3331566"><ele>430.0</ele><time>2026-04-19T10:19:18.148Z</time></trkpt><trkpt lat="44.331928" lon="8.3332411"><ele>427.2</ele><time>2026-04-19T10:19:20.149Z</time></trkpt><trkpt lat="44.3318371" lon="8.3333469"><ele>424.4</ele><time>2026-04-19T10:19:22.149Z</time></trkpt><trkpt lat="44.3317892" lon="8.3334051"><ele>421.6</ele><time>2026-04-19T10:19:23.146Z</time></trkpt><trkpt lat="44.3317156" lon="8.3335046"><ele>418.8</ele><time>2026-04-19T10:19:25.148Z</time></trkpt><trkpt lat="44.3316411" lon="8.3336329"><ele>416.0</ele><time>2026-04-19T10:19:27.148Z</time></trkpt><trkpt lat="44.3315621" lon="8.3337259"><ele>416.0</ele><time>2026-04-19T10:19:29.147Z</time></trkpt><trkpt lat="44.3315125" lon="8.3338014"><ele>416.0</ele><time>2026-04-19T10:19:30.149Z</time></trkpt><trkpt lat="44.3314663" lon="8.3338639"><ele>416.0</ele><time>2026-04-19T10:19:31.148Z</time></trkpt><trkpt lat="44.331414" lon="8.3339405"><ele>416.0</ele><time>2026-04-19T10:19:32.148Z</time></trkpt><trkpt lat="44.3313542" lon="8.3340008"><ele>416.0</ele><time>2026-04-19T10:19:33.149Z</time></trkpt><trkpt lat="44.3312962" lon="8.334073"><ele>416.0</ele><time>2026-04-19T10:19:34.148Z</time></trkpt><trkpt lat="44.3312347" lon="8.3341412"><ele>416.0</ele><time>2026-04-19T10:19:35.147Z</time></trkpt><trkpt lat="44.3311657" lon="8.3342163"><ele>415.0</ele><time>2026-04-19T10:19:36.147Z</time></trkpt><trkpt lat="44.3310896" lon="8.3342893"><ele>414.0</ele><time>2026-04-19T10:19:37.148Z</time></trkpt><trkpt lat="44.3310196" lon="8.3343535"><ele>413.0</ele><time>2026-04-19T10:19:38.147Z</time></trkpt><trkpt lat="44.3309438" lon="8.3344396"><ele>412.0</ele><time>2026-04-19T10:19:39.146Z</time></trkpt><trkpt lat="44.3308702" lon="8.3345144"><ele>411.0</ele><time>2026-04-19T10:19:40.147Z</time></trkpt><trkpt lat="44.3307857" lon="8.3345978"><ele>411.0</ele><time>2026-04-19T10:19:41.148Z</time></trkpt><trkpt lat="44.3307162" lon="8.3346671"><ele>411.0</ele><time>2026-04-19T10:19:42.149Z</time></trkpt><trkpt lat="44.330644" lon="8.3347308"><ele>411.0</ele><time>2026-04-19T10:19:43.148Z</time></trkpt><trkpt lat="44.3305677" lon="8.3347953"><ele>411.0</ele><time>2026-04-19T10:19:44.148Z</time></trkpt><trkpt lat="44.3304829" lon="8.3348532"><ele>411.0</ele><time>2026-04-19T10:19:45.148Z</time></trkpt><trkpt lat="44.3303917" lon="8.3349219"><ele>411.8</ele><time>2026-04-19T10:19:46.148Z</time></trkpt><trkpt lat="44.3303078" lon="8.3349635"><ele>412.6</ele><time>2026-04-19T10:19:47.148Z</time></trkpt><trkpt lat="44.3302073" lon="8.3349936"><ele>413.4</ele><time>2026-04-19T10:19:48.148Z</time></trkpt><trkpt lat="44.3301092" lon="8.335012"><ele>414.2</ele><time>2026-04-19T10:19:49.147Z</time></trkpt><trkpt lat="44.3300105" lon="8.335043"><ele>415.0</ele><time>2026-04-19T10:19:50.148Z</time></trkpt><trkpt lat="44.3299241" lon="8.3350818"><ele>415.0</ele><time>2026-04-19T10:19:51.149Z</time></trkpt><trkpt lat="44.3298316" lon="8.3351235"><ele>415.0</ele><time>2026-04-19T10:19:52.148Z</time></trkpt><trkpt lat="44.329742" lon="8.3351658"><ele>415.0</ele><time>2026-04-19T10:19:53.146Z</time></trkpt><trkpt lat="44.3296493" lon="8.335219"><ele>415.0</ele><time>2026-04-19T10:19:54.148Z</time></trkpt><trkpt lat="44.3295568" lon="8.3352315"><ele>415.0</ele><time>2026-04-19T10:19:55.147Z</time></trkpt><trkpt lat="44.3294584" lon="8.3352713"><ele>413.2</ele><time>2026-04-19T10:19:56.148Z</time></trkpt><trkpt lat="44.3293677" lon="8.3353027"><ele>411.4</ele><time>2026-04-19T10:19:57.147Z</time></trkpt><trkpt lat="44.3292639" lon="8.3353249"><ele>409.6</ele><time>2026-04-19T10:19:58.148Z</time></trkpt><trkpt lat="44.3291683" lon="8.3352458"><ele>407.8</ele><time>2026-04-19T10:19:59.148Z</time></trkpt><trkpt lat="44.329102" lon="8.3352576"><ele>406.0</ele><time>2026-04-19T10:20:00.148Z</time></trkpt><trkpt lat="44.3290063" lon="8.3352422"><ele>406.0</ele><time>2026-04-19T10:20:01.149Z</time></trkpt><trkpt lat="44.3289085" lon="8.3351742"><ele>406.0</ele><time>2026-04-19T10:20:02.15Z</time></trkpt><trkpt lat="44.3287664" lon="8.3350876"><ele>406.0</ele><time>2026-04-19T10:20:04.148Z</time></trkpt><trkpt lat="44.3286307" lon="8.3350313"><ele>406.0</ele><time>2026-04-19T10:20:06.149Z</time></trkpt><trkpt lat="44.3285453" lon="8.3349919"><ele>406.33333333333337</ele><time>2026-04-19T10:20:07.148Z</time></trkpt><trkpt lat="44.3284646" lon="8.3349536"><ele>406.6666666666667</ele><time>2026-04-19T10:20:08.147Z</time></trkpt><trkpt lat="44.3283922" lon="8.3348915"><ele>407.0</ele><time>2026-04-19T10:20:09.149Z</time></trkpt><trkpt lat="44.3283165" lon="8.3348398"><ele>407.33333333333337</ele><time>2026-04-19T10:20:10.148Z</time></trkpt><trkpt lat="44.3282484" lon="8.3347897"><ele>407.6666666666667</ele><time>2026-04-19T10:20:11.148Z</time></trkpt><trkpt lat="44.3281898" lon="8.3347524"><ele>408.0</ele><time>2026-04-19T10:20:12.147Z</time></trkpt><trkpt lat="44.328121" lon="8.3347122"><ele>407.8571428571429</ele><time>2026-04-19T10:20:13.148Z</time></trkpt><trkpt lat="44.3280562" lon="8.334682"><ele>407.7142857142857</ele><time>2026-04-19T10:20:14.148Z</time></trkpt><trkpt lat="44.3279948" lon="8.3346391"><ele>407.57142857142856</ele><time>2026-04-19T10:20:15.148Z</time></trkpt><trkpt lat="44.3279301" lon="8.3346074"><ele>407.42857142857144</ele><time>2026-04-19T10:20:16.149Z</time></trkpt><trkpt lat="44.3278699" lon="8.334571"><ele>407.2857142857143</ele><time>2026-04-19T10:20:17.147Z</time></trkpt><trkpt lat="44.327805" lon="8.3345307"><ele>407.14285714285717</ele><time>2026-04-19T10:20:18.149Z</time></trkpt><trkpt lat="44.327737" lon="8.334499"><ele>407.0</ele><time>2026-04-19T10:20:19.149Z</time></trkpt><trkpt lat="44.3276729" lon="8.3344537"><ele>406.99999999999994</ele><time>2026-04-19T10:20:20.148Z</time></trkpt><trkpt lat="44.3276088" lon="8.3343809"><ele>407.0</ele><time>2026-04-19T10:20:21.148Z</time></trkpt><trkpt lat="44.3275682" lon="8.3343029"><ele>407.0</ele><time>2026-04-19T10:20:22.148Z</time></trkpt><trkpt lat="44.3275246" lon="8.3342267"><ele>407.0</ele><time>2026-04-19T10:20:23.147Z</time></trkpt><trkpt lat="44.3274859" lon="8.3341381"><ele>406.99999999999994</ele><time>2026-04-19T10:20:24.148Z</time></trkpt><trkpt lat="44.3274504" lon="8.3340545"><ele>407.0</ele><time>2026-04-19T10:20:25.148Z</time></trkpt><trkpt lat="44.3274089" lon="8.333891"><ele>405.40000000000003</ele><time>2026-04-19T10:20:27.148Z</time></trkpt><trkpt lat="44.3273951" lon="8.3337221"><ele>403.8</ele><time>2026-04-19T10:20:29.147Z</time></trkpt><trkpt lat="44.327414" lon="8.3336148"><ele>402.2</ele><time>2026-04-19T10:20:30.149Z</time></trkpt><trkpt lat="44.3273968" lon="8.333458"><ele>400.6</ele><time>2026-04-19T10:20:32.148Z</time></trkpt><trkpt lat="44.3274008" lon="8.3332858"><ele>399.0</ele><time>2026-04-19T10:20:34.147Z</time></trkpt><trkpt lat="44.3274069" lon="8.3331751"><ele>398.6</ele><time>2026-04-19T10:20:35.148Z</time></trkpt><trkpt lat="44.3273957" lon="8.3330216"><ele>398.2</ele><time>2026-04-19T10:20:37.148Z</time></trkpt><trkpt lat="44.3273769" lon="8.3328738"><ele>397.8</ele><time>2026-04-19T10:20:39.148Z</time></trkpt><trkpt lat="44.3273549" lon="8.3327239"><ele>397.40000000000003</ele><time>2026-04-19T10:20:41.147Z</time></trkpt><trkpt lat="44.3273428" lon="8.3326357"><ele>397.0</ele><time>2026-04-19T10:20:42.148Z</time></trkpt><trkpt lat="44.3273159" lon="8.3324845"><ele>397.0</ele><time>2026-04-19T10:20:44.148Z</time></trkpt><trkpt lat="44.3273064" lon="8.3323971"><ele>397.0</ele><time>2026-04-19T10:20:45.147Z</time></trkpt><trkpt lat="44.3272749" lon="8.332248"><ele>397.0</ele><time>2026-04-19T10:20:47.148Z</time></trkpt><trkpt lat="44.3272506" lon="8.3320988"><ele>397.0</ele><time>2026-04-19T10:20:49.148Z</time></trkpt><trkpt lat="44.3272206" lon="8.3319467"><ele>397.0</ele><time>2026-04-19T10:20:51.148Z</time></trkpt><trkpt lat="44.3271788" lon="8.3317987"><ele>397.8</ele><time>2026-04-19T10:20:53.148Z</time></trkpt><trkpt lat="44.327136" lon="8.3316539"><ele>398.6</ele><time>2026-04-19T10:20:55.148Z</time></trkpt><trkpt lat="44.3270883" lon="8.3315282"><ele>399.40000000000003</ele><time>2026-04-19T10:20:57.147Z</time></trkpt><trkpt lat="44.3270482" lon="8.3313926"><ele>400.20000000000005</ele><time>2026-04-19T10:20:59.148Z</time></trkpt><trkpt lat="44.327009" lon="8.331257"><ele>401.0</ele><time>2026-04-19T10:21:01.149Z</time></trkpt><trkpt lat="44.3269563" lon="8.3311164"><ele>401.0</ele><time>2026-04-19T10:21:03.148Z</time></trkpt><trkpt lat="44.3269168" lon="8.330991"><ele>401.0</ele><time>2026-04-19T10:21:05.147Z</time></trkpt><trkpt lat="44.3268574" lon="8.3308727"><ele>401.0</ele><time>2026-04-19T10:21:07.147Z</time></trkpt><trkpt lat="44.3268156" lon="8.330733"><ele>401.0</ele><time>2026-04-19T10:21:09.148Z</time></trkpt><trkpt lat="44.326765" lon="8.3306126"><ele>401.0</ele><time>2026-04-19T10:21:11.148Z</time></trkpt><trkpt lat="44.3267134" lon="8.3304718"><ele>400.4</ele><time>2026-04-19T10:21:13.149Z</time></trkpt><trkpt lat="44.3266793" lon="8.3303353"><ele>399.8</ele><time>2026-04-19T10:21:15.147Z</time></trkpt><trkpt lat="44.3266299" lon="8.3302048"><ele>399.2</ele><time>2026-04-19T10:21:17.147Z</time></trkpt><trkpt lat="44.326591" lon="8.330075"><ele>398.59999999999997</ele><time>2026-04-19T10:21:19.148Z</time></trkpt><trkpt lat="44.326562" lon="8.3299505"><ele>398.0</ele><time>2026-04-19T10:21:21.147Z</time></trkpt><trkpt lat="44.3265342" lon="8.3298193"><ele>397.79999999999995</ele><time>2026-04-19T10:21:23.149Z</time></trkpt><trkpt lat="44.3264961" lon="8.329688"><ele>397.6</ele><time>2026-04-19T10:21:25.148Z</time></trkpt><trkpt lat="44.3264625" lon="8.3295591"><ele>397.4</ele><time>2026-04-19T10:21:27.147Z</time></trkpt><trkpt lat="44.326431" lon="8.3294213"><ele>397.20000000000005</ele><time>2026-04-19T10:21:29.148Z</time></trkpt><trkpt lat="44.3264091" lon="8.3292563"><ele>397.0</ele><time>2026-04-19T10:21:31.148Z</time></trkpt><trkpt lat="44.3263855" lon="8.329108"><ele>399.0</ele><time>2026-04-19T10:21:33.147Z</time></trkpt><trkpt lat="44.3263799" lon="8.3289473"><ele>401.0</ele><time>2026-04-19T10:21:35.147Z</time></trkpt><trkpt lat="44.3263803" lon="8.328846"><ele>403.0</ele><time>2026-04-19T10:21:36.149Z</time></trkpt><trkpt lat="44.3263794" lon="8.3287028"><ele>405.0</ele><time>2026-04-19T10:21:38.147Z</time></trkpt><trkpt lat="44.3263699" lon="8.3286038"><ele>407.0</ele><time>2026-04-19T10:21:40.146Z</time></trkpt><trkpt lat="44.3263586" lon="8.3284674"><ele>406.8333333333333</ele><time>2026-04-19T10:21:42.147Z</time></trkpt><trkpt lat="44.3263503" lon="8.32832"><ele>406.66666666666663</ele><time>2026-04-19T10:21:44.148Z</time></trkpt><trkpt lat="44.326343" lon="8.3281831"><ele>406.5</ele><time>2026-04-19T10:21:46.148Z</time></trkpt><trkpt lat="44.3263596" lon="8.3280909"><ele>406.33333333333337</ele><time>2026-04-19T10:21:47.148Z</time></trkpt><trkpt lat="44.3263235" lon="8.3279698"><ele>406.1666666666667</ele><time>2026-04-19T10:21:49.149Z</time></trkpt><trkpt lat="44.326301" lon="8.3278602"><ele>406.0</ele><time>2026-04-19T10:21:51.149Z</time></trkpt><trkpt lat="44.3262589" lon="8.3277524"><ele>406.0</ele><time>2026-04-19T10:21:53.149Z</time></trkpt><trkpt lat="44.3262286" lon="8.3276729"><ele>406.0</ele><time>2026-04-19T10:21:54.149Z</time></trkpt><trkpt lat="44.3261489" lon="8.3275644"><ele>406.0</ele><time>2026-04-19T10:21:56.147Z</time></trkpt><trkpt lat="44.3260454" lon="8.3274715"><ele>406.0</ele><time>2026-04-19T10:21:58.146Z</time></trkpt><trkpt lat="44.3259456" lon="8.3273802"><ele>406.0</ele><time>2026-04-19T10:22:00.147Z</time></trkpt><trkpt lat="44.3258376" lon="8.3272947"><ele>406.0</ele><time>2026-04-19T10:22:02.148Z</time></trkpt><trkpt lat="44.325783" lon="8.3272317"><ele>406.0</ele><time>2026-04-19T10:22:03.148Z</time></trkpt><trkpt lat="44.3256769" lon="8.3271794"><ele>406.0</ele><time>2026-04-19T10:22:05.148Z</time></trkpt><trkpt lat="44.325575" lon="8.3271268"><ele>406.0</ele><time>2026-04-19T10:22:07.149Z</time></trkpt><trkpt lat="44.3254756" lon="8.327082"><ele>406.0</ele><time>2026-04-19T10:22:09.147Z</time></trkpt><trkpt lat="44.3253569" lon="8.327046"><ele>406.8</ele><time>2026-04-19T10:22:11.147Z</time></trkpt><trkpt lat="44.3252637" lon="8.3270539"><ele>407.6</ele><time>2026-04-19T10:22:13.147Z</time></trkpt><trkpt lat="44.3252008" lon="8.3270462"><ele>408.4</ele><time>2026-04-19T10:22:14.148Z</time></trkpt><trkpt lat="44.3250638" lon="8.3270254"><ele>409.2</ele><time>2026-04-19T10:22:16.148Z</time></trkpt><trkpt lat="44.324973" lon="8.3270004"><ele>410.0</ele><time>2026-04-19T10:22:18.147Z</time></trkpt><trkpt lat="44.3248415" lon="8.3269694"><ele>412.6</ele><time>2026-04-19T10:22:20.149Z</time></trkpt><trkpt lat="44.3247109" lon="8.3269332"><ele>415.2</ele><time>2026-04-19T10:22:22.148Z</time></trkpt><trkpt lat="44.3246151" lon="8.3269421"><ele>417.79999999999995</ele><time>2026-04-19T10:22:24.147Z</time></trkpt><trkpt lat="44.324513" lon="8.326918"><ele>420.4</ele><time>2026-04-19T10:22:26.148Z</time></trkpt><trkpt lat="44.3244348" lon="8.3268909"><ele>423.0</ele><time>2026-04-19T10:22:27.147Z</time></trkpt><trkpt lat="44.3243562" lon="8.3268538"><ele>423.0</ele><time>2026-04-19T10:22:28.146Z</time></trkpt><trkpt lat="44.3242756" lon="8.3267637"><ele>423.0</ele><time>2026-04-19T10:22:30.147Z</time></trkpt><trkpt lat="44.3241774" lon="8.3266562"><ele>423.0</ele><time>2026-04-19T10:22:32.146Z</time></trkpt><trkpt lat="44.3241262" lon="8.3265949"><ele>423.0</ele><time>2026-04-19T10:22:33.147Z</time></trkpt><trkpt lat="44.3240591" lon="8.3264287"><ele>423.0</ele><time>2026-04-19T10:22:35.147Z</time></trkpt><trkpt lat="44.3240436" lon="8.326297"><ele>420.4</ele><time>2026-04-19T10:22:37.147Z</time></trkpt><trkpt lat="44.3240306" lon="8.3261531"><ele>417.79999999999995</ele><time>2026-04-19T10:22:39.148Z</time></trkpt><trkpt lat="44.3240072" lon="8.3260021"><ele>415.2</ele><time>2026-04-19T10:22:41.147Z</time></trkpt><trkpt lat="44.3240167" lon="8.3258873"><ele>412.6</ele><time>2026-04-19T10:22:43.148Z</time></trkpt><trkpt lat="44.3239973" lon="8.3257625"><ele>410.0</ele><time>2026-04-19T10:22:45.148Z</time></trkpt><trkpt lat="44.3239823" lon="8.3256396"><ele>409.4</ele><time>2026-04-19T10:22:47.148Z</time></trkpt><trkpt lat="44.3240012" lon="8.3255107"><ele>408.8</ele><time>2026-04-19T10:22:49.148Z</time></trkpt><trkpt lat="44.3239839" lon="8.3254027"><ele>408.20000000000005</ele><time>2026-04-19T10:22:51.148Z</time></trkpt><trkpt lat="44.3239737" lon="8.3252129"><ele>407.6</ele><time>2026-04-19T10:22:53.149Z</time></trkpt><trkpt lat="44.3239496" lon="8.3250573"><ele>407.0</ele><time>2026-04-19T10:22:55.148Z</time></trkpt><trkpt lat="44.3239487" lon="8.324941"><ele>407.0</ele><time>2026-04-19T10:22:57.149Z</time></trkpt><trkpt lat="44.3239369" lon="8.3247713"><ele>407.0</ele><time>2026-04-19T10:22:59.148Z</time></trkpt><trkpt lat="44.3239221" lon="8.324626"><ele>407.0</ele><time>2026-04-19T10:23:01.148Z</time></trkpt><trkpt lat="44.3238822" lon="8.3244852"><ele>407.0</ele><time>2026-04-19T10:23:03.149Z</time></trkpt><trkpt lat="44.3238388" lon="8.3243572"><ele>407.0</ele><time>2026-04-19T10:23:05.146Z</time></trkpt><trkpt lat="44.3237955" lon="8.3242111"><ele>406.6</ele><time>2026-04-19T10:23:07.148Z</time></trkpt><trkpt lat="44.323753" lon="8.3241083"><ele>406.20000000000005</ele><time>2026-04-19T10:23:09.148Z</time></trkpt><trkpt lat="44.3236858" lon="8.3239944"><ele>405.8</ele><time>2026-04-19T10:23:11.147Z</time></trkpt><trkpt lat="44.3236104" lon="8.3239248"><ele>405.4</ele><time>2026-04-19T10:23:13.147Z</time></trkpt><trkpt lat="44.3235314" lon="8.3238557"><ele>405.0</ele><time>2026-04-19T10:23:15.147Z</time></trkpt><trkpt lat="44.3234356" lon="8.3238389"><ele>405.0</ele><time>2026-04-19T10:23:17.147Z</time></trkpt><trkpt lat="44.3233475" lon="8.3238464"><ele>405.0</ele><time>2026-04-19T10:23:19.147Z</time></trkpt><trkpt lat="44.3232569" lon="8.3238864"><ele>405.0</ele><time>2026-04-19T10:23:21.147Z</time></trkpt><trkpt lat="44.3231795" lon="8.3239423"><ele>405.0</ele><time>2026-04-19T10:23:23.148Z</time></trkpt><trkpt lat="44.3231029" lon="8.3240276"><ele>405.0</ele><time>2026-04-19T10:23:25.148Z</time></trkpt><trkpt lat="44.323024" lon="8.3241077"><ele>406.0</ele><time>2026-04-19T10:23:27.147Z</time></trkpt><trkpt lat="44.3229437" lon="8.3241563"><ele>407.0</ele><time>2026-04-19T10:23:29.147Z</time></trkpt><trkpt lat="44.3228831" lon="8.3242149"><ele>408.0</ele><time>2026-04-19T10:23:31.147Z</time></trkpt><trkpt lat="44.3228119" lon="8.3242894"><ele>409.0</ele><time>2026-04-19T10:23:33.146Z</time></trkpt><trkpt lat="44.3227393" lon="8.3243572"><ele>410.0</ele><time>2026-04-19T10:23:35.148Z</time></trkpt><trkpt lat="44.3226634" lon="8.3244213"><ele>411.0</ele><time>2026-04-19T10:23:37.147Z</time></trkpt><trkpt lat="44.322563" lon="8.3244828"><ele>411.0</ele><time>2026-04-19T10:23:39.147Z</time></trkpt><trkpt lat="44.3224788" lon="8.3245017"><ele>411.0</ele><time>2026-04-19T10:23:41.148Z</time></trkpt><trkpt lat="44.3223995" lon="8.324466"><ele>411.0</ele><time>2026-04-19T10:23:43.147Z</time></trkpt><trkpt lat="44.3223153" lon="8.3244371"><ele>411.0</ele><time>2026-04-19T10:23:45.146Z</time></trkpt><trkpt lat="44.3222233" lon="8.3243879"><ele>411.0</ele><time>2026-04-19T10:23:47.147Z</time></trkpt><trkpt lat="44.3221482" lon="8.324291"><ele>410.5</ele><time>2026-04-19T10:23:49.147Z</time></trkpt><trkpt lat="44.3220294" lon="8.3241366"><ele>410.0</ele><time>2026-04-19T10:23:53.148Z</time></trkpt><trkpt lat="44.321962" lon="8.32405"><ele>409.5</ele><time>2026-04-19T10:23:55.147Z</time></trkpt><trkpt lat="44.3218871" lon="8.3239653"><ele>409.0</ele><time>2026-04-19T10:23:57.147Z</time></trkpt><trkpt lat="44.3218027" lon="8.3238893"><ele>409.0</ele><time>2026-04-19T10:23:59.148Z</time></trkpt><trkpt lat="44.3217209" lon="8.3238237"><ele>409.0</ele><time>2026-04-19T10:24:01.147Z</time></trkpt><trkpt lat="44.3216232" lon="8.3237731"><ele>409.0</ele><time>2026-04-19T10:24:03.147Z</time></trkpt><trkpt lat="44.321523" lon="8.3237195"><ele>409.0</ele><time>2026-04-19T10:24:05.147Z</time></trkpt><trkpt lat="44.3214216" lon="8.3236755"><ele>409.0</ele><time>2026-04-19T10:24:07.147Z</time></trkpt><trkpt lat="44.32132" lon="8.3236267"><ele>409.2</ele><time>2026-04-19T10:24:09.147Z</time></trkpt><trkpt lat="44.3212102" lon="8.3235781"><ele>409.4</ele><time>2026-04-19T10:24:11.146Z</time></trkpt><trkpt lat="44.3210945" lon="8.32353"><ele>409.6</ele><time>2026-04-19T10:24:13.148Z</time></trkpt><trkpt lat="44.3209996" lon="8.3234619"><ele>409.8</ele><time>2026-04-19T10:24:15.148Z</time></trkpt><trkpt lat="44.3209043" lon="8.3233985"><ele>410.0</ele><time>2026-04-19T10:24:17.146Z</time></trkpt><trkpt lat="44.3208181" lon="8.3233289"><ele>410.0</ele><time>2026-04-19T10:24:19.148Z</time></trkpt><trkpt lat="44.3207361" lon="8.3232922"><ele>410.0</ele><time>2026-04-19T10:24:21.146Z</time></trkpt><trkpt lat="44.3206543" lon="8.3232342"><ele>410.0</ele><time>2026-04-19T10:24:23.148Z</time></trkpt><trkpt lat="44.3205721" lon="8.3231875"><ele>410.0</ele><time>2026-04-19T10:24:25.148Z</time></trkpt><trkpt lat="44.3204774" lon="8.3231462"><ele>410.0</ele><time>2026-04-19T10:24:27.148Z</time></trkpt><trkpt lat="44.320378" lon="8.3230987"><ele>410.2</ele><time>2026-04-19T10:24:29.148Z</time></trkpt><trkpt lat="44.3202823" lon="8.3230385"><ele>410.4</ele><time>2026-04-19T10:24:31.147Z</time></trkpt><trkpt lat="44.3201858" lon="8.3229868"><ele>410.6</ele><time>2026-04-19T10:24:33.148Z</time></trkpt><trkpt lat="44.3200884" lon="8.3229538"><ele>410.8</ele><time>2026-04-19T10:24:35.148Z</time></trkpt><trkpt lat="44.3199821" lon="8.3229056"><ele>411.0</ele><time>2026-04-19T10:24:37.146Z</time></trkpt><trkpt lat="44.3198841" lon="8.3228456"><ele>411.0</ele><time>2026-04-19T10:24:39.148Z</time></trkpt><trkpt lat="44.319796" lon="8.3227857"><ele>411.0</ele><time>2026-04-19T10:24:41.146Z</time></trkpt><trkpt lat="44.3197285" lon="8.3227062"><ele>411.0</ele><time>2026-04-19T10:24:43.146Z</time></trkpt><trkpt lat="44.3196638" lon="8.3226279"><ele>411.0</ele><time>2026-04-19T10:24:45.146Z</time></trkpt><trkpt lat="44.3196091" lon="8.3225686"><ele>411.0</ele><time>2026-04-19T10:24:47.147Z</time></trkpt><trkpt lat="44.3195561" lon="8.3225106"><ele>411.0</ele><time>2026-04-19T10:24:49.147Z</time></trkpt><trkpt lat="44.3194867" lon="8.3225195"><ele>411.0</ele><time>2026-04-19T10:24:52.148Z</time></trkpt><trkpt lat="44.3195623" lon="8.3226125"><ele>411.0</ele><time>2026-04-19T10:24:55.147Z</time></trkpt><trkpt lat="44.3196295" lon="8.3227051"><ele>411.0</ele><time>2026-04-19T10:24:57.147Z</time></trkpt><trkpt lat="44.3197012" lon="8.322794"><ele>411.0</ele><time>2026-04-19T10:24:59.147Z</time></trkpt><trkpt lat="44.3197789" lon="8.3229054"><ele>411.0</ele><time>2026-04-19T10:25:01.147Z</time></trkpt><trkpt lat="44.3198889" lon="8.3229736"><ele>411.0</ele><time>2026-04-19T10:25:03.148Z</time></trkpt><trkpt lat="44.3199865" lon="8.3230227"><ele>411.0</ele><time>2026-04-19T10:25:05.147Z</time></trkpt><trkpt lat="44.3200996" lon="8.3230879"><ele>411.0</ele><time>2026-04-19T10:25:07.147Z</time></trkpt><trkpt lat="44.3201799" lon="8.323123"><ele>411.0</ele><time>2026-04-19T10:25:09.146Z</time></trkpt><trkpt lat="44.3202857" lon="8.3231726"><ele>411.0</ele><time>2026-04-19T10:25:11.146Z</time></trkpt><trkpt lat="44.3204049" lon="8.3231749"><ele>410.8</ele><time>2026-04-19T10:25:13.147Z</time></trkpt><trkpt lat="44.3205146" lon="8.3232216"><ele>410.6</ele><time>2026-04-19T10:25:15.148Z</time></trkpt><trkpt lat="44.3206125" lon="8.3232655"><ele>410.4</ele><time>2026-04-19T10:25:17.147Z</time></trkpt><trkpt lat="44.3207149" lon="8.3233221"><ele>410.2</ele><time>2026-04-19T10:25:19.148Z</time></trkpt><trkpt lat="44.320816" lon="8.3233796"><ele>410.0</ele><time>2026-04-19T10:25:21.147Z</time></trkpt><trkpt lat="44.3209234" lon="8.3234303"><ele>409.99999999999994</ele><time>2026-04-19T10:25:23.147Z</time></trkpt><trkpt lat="44.3210182" lon="8.3234781"><ele>410.0</ele><time>2026-04-19T10:25:25.147Z</time></trkpt><trkpt lat="44.3211041" lon="8.3235058"><ele>410.0</ele><time>2026-04-19T10:25:27.147Z</time></trkpt><trkpt lat="44.3211769" lon="8.3235259"><ele>410.0</ele><time>2026-04-19T10:25:29.147Z</time></trkpt><trkpt lat="44.3212521" lon="8.3235496"><ele>409.99999999999994</ele><time>2026-04-19T10:25:31.147Z</time></trkpt><trkpt lat="44.3213368" lon="8.3236148"><ele>410.0</ele><time>2026-04-19T10:25:33.146Z</time></trkpt><trkpt lat="44.3214168" lon="8.3236814"><ele>409.8333333333333</ele><time>2026-04-19T10:25:35.147Z</time></trkpt><trkpt lat="44.3214837" lon="8.3237138"><ele>409.66666666666663</ele><time>2026-04-19T10:25:37.147Z</time></trkpt><trkpt lat="44.3215757" lon="8.3237502"><ele>409.5</ele><time>2026-04-19T10:25:40.147Z</time></trkpt><trkpt lat="44.3216295" lon="8.3237982"><ele>409.33333333333337</ele><time>2026-04-19T10:25:42.147Z</time></trkpt><trkpt lat="44.3216949" lon="8.3239104"><ele>409.1666666666667</ele><time>2026-04-19T10:25:44.148Z</time></trkpt><trkpt lat="44.3216838" lon="8.3240399"><ele>409.0</ele><time>2026-04-19T10:25:47.148Z</time></trkpt><trkpt lat="44.3216635" lon="8.3241294"><ele>409.0</ele><time>2026-04-19T10:25:50.147Z</time></trkpt></trkseg></trk></gpx>